<?xml version="1.0" encoding="UTF-8" standalone="no" ?>
<gpx xmlns="http://www.topografix.com/GPX/1/1" xmlns:xsi="http://www.w3.org/2001/XMLSchema-instance" xsi:schemaLocation="http://www.topografix.com/GPX/1/1 http://www.topografix.com/GPX/1/1/gpx.xsd" version="1.1" creator="VisuGPX - https://www.visugpx.com">
  <metadata>
    <name>83-D-la Croix Valmer</name>
    <desc><![CDATA[83-D-la Croix Valmer : plage de Gigaro, Cap Lardier, Cap Taillat
2025-10-12-SH]]></desc>
  </metadata>
  <trk>
    <name><![CDATA[2025-10-12-D-Gigaro court]]></name>
    <extensions>
      <line xmlns="http://www.topografix.com/GPX/gpx_style/0/2">
        <width>4</width>
      </line>
    </extensions>
    <trkseg>
      <trkpt lat="43.18525" lon="6.59917">
        <ele>20.8</ele>
        <time>2025-10-12T07:22:43.000Z</time>
      </trkpt>
      <trkpt lat="43.18525" lon="6.59917">
        <ele>20.8</ele>
        <time>2025-10-12T07:22:44.000Z</time>
      </trkpt>
      <trkpt lat="43.18525" lon="6.59917">
        <ele>20.8</ele>
        <time>2025-10-12T07:22:45.000Z</time>
      </trkpt>
      <trkpt lat="43.18525" lon="6.59917">
        <ele>20.8</ele>
        <time>2025-10-12T07:22:46.000Z</time>
      </trkpt>
      <trkpt lat="43.18525" lon="6.59917">
        <ele>20.8</ele>
        <time>2025-10-12T07:22:52.000Z</time>
      </trkpt>
      <trkpt lat="43.18526" lon="6.59916">
        <ele>20.8</ele>
        <time>2025-10-12T07:22:53.000Z</time>
      </trkpt>
      <trkpt lat="43.18527" lon="6.59915">
        <ele>20.8</ele>
        <time>2025-10-12T07:22:54.000Z</time>
      </trkpt>
      <trkpt lat="43.18524" lon="6.59903">
        <ele>20.8</ele>
        <time>2025-10-12T07:23:13.000Z</time>
      </trkpt>
      <trkpt lat="43.18519" lon="6.59904">
        <ele>20.8</ele>
        <time>2025-10-12T07:23:31.000Z</time>
      </trkpt>
      <trkpt lat="43.18519" lon="6.59904">
        <ele>20.8</ele>
        <time>2025-10-12T07:23:32.000Z</time>
      </trkpt>
      <trkpt lat="43.18519" lon="6.59904">
        <ele>20.8</ele>
        <time>2025-10-12T07:23:32.000Z</time>
      </trkpt>
      <trkpt lat="43.18519" lon="6.59904">
        <ele>20.8</ele>
        <time>2025-10-12T07:23:33.000Z</time>
      </trkpt>
      <trkpt lat="43.18519" lon="6.59904">
        <ele>20.8</ele>
        <time>2025-10-12T07:23:34.000Z</time>
      </trkpt>
      <trkpt lat="43.1852" lon="6.59904">
        <ele>20.8</ele>
        <time>2025-10-12T07:23:35.000Z</time>
      </trkpt>
      <trkpt lat="43.18523" lon="6.59906">
        <ele>20.8</ele>
        <time>2025-10-12T07:23:47.000Z</time>
      </trkpt>
      <trkpt lat="43.18523" lon="6.59906">
        <ele>20.8</ele>
        <time>2025-10-12T07:23:48.000Z</time>
      </trkpt>
      <trkpt lat="43.18523" lon="6.59906">
        <ele>20.8</ele>
        <time>2025-10-12T07:23:49.000Z</time>
      </trkpt>
      <trkpt lat="43.18523" lon="6.59907">
        <ele>20.7</ele>
        <time>2025-10-12T07:23:55.000Z</time>
      </trkpt>
      <trkpt lat="43.18523" lon="6.59908">
        <ele>20.7</ele>
        <time>2025-10-12T07:23:56.000Z</time>
      </trkpt>
      <trkpt lat="43.18523" lon="6.59909">
        <ele>20.7</ele>
        <time>2025-10-12T07:23:57.000Z</time>
      </trkpt>
      <trkpt lat="43.18523" lon="6.59909">
        <ele>20.7</ele>
        <time>2025-10-12T07:24:01.000Z</time>
      </trkpt>
      <trkpt lat="43.18523" lon="6.59909">
        <ele>20.7</ele>
        <time>2025-10-12T07:24:02.000Z</time>
      </trkpt>
      <trkpt lat="43.18523" lon="6.59909">
        <ele>20.7</ele>
        <time>2025-10-12T07:24:06.000Z</time>
      </trkpt>
      <trkpt lat="43.18523" lon="6.59909">
        <ele>20.7</ele>
        <time>2025-10-12T07:24:07.000Z</time>
      </trkpt>
      <trkpt lat="43.18523" lon="6.59909">
        <ele>20.7</ele>
        <time>2025-10-12T07:24:10.000Z</time>
      </trkpt>
      <trkpt lat="43.18523" lon="6.59909">
        <ele>20.7</ele>
        <time>2025-10-12T07:24:11.000Z</time>
      </trkpt>
      <trkpt lat="43.18522" lon="6.59909">
        <ele>20.7</ele>
        <time>2025-10-12T07:24:17.000Z</time>
      </trkpt>
      <trkpt lat="43.18522" lon="6.59909">
        <ele>20.7</ele>
        <time>2025-10-12T07:24:18.000Z</time>
      </trkpt>
      <trkpt lat="43.18522" lon="6.59909">
        <ele>20.7</ele>
        <time>2025-10-12T07:24:19.000Z</time>
      </trkpt>
      <trkpt lat="43.18522" lon="6.59909">
        <ele>20.7</ele>
        <time>2025-10-12T07:24:20.000Z</time>
      </trkpt>
      <trkpt lat="43.18523" lon="6.59909">
        <ele>20.7</ele>
        <time>2025-10-12T07:24:21.000Z</time>
      </trkpt>
      <trkpt lat="43.18523" lon="6.59909">
        <ele>20.8</ele>
        <time>2025-10-12T07:24:22.000Z</time>
      </trkpt>
      <trkpt lat="43.18523" lon="6.59909">
        <ele>20.8</ele>
        <time>2025-10-12T07:24:23.000Z</time>
      </trkpt>
      <trkpt lat="43.18523" lon="6.59909">
        <ele>20.8</ele>
        <time>2025-10-12T07:24:24.000Z</time>
      </trkpt>
      <trkpt lat="43.18523" lon="6.59909">
        <ele>20.8</ele>
        <time>2025-10-12T07:24:31.000Z</time>
      </trkpt>
      <trkpt lat="43.18523" lon="6.59909">
        <ele>20.8</ele>
        <time>2025-10-12T07:24:32.000Z</time>
      </trkpt>
      <trkpt lat="43.18523" lon="6.59909">
        <ele>20.8</ele>
        <time>2025-10-12T07:24:36.000Z</time>
      </trkpt>
      <trkpt lat="43.18523" lon="6.59909">
        <ele>20.8</ele>
        <time>2025-10-12T07:24:37.000Z</time>
      </trkpt>
      <trkpt lat="43.18523" lon="6.59909">
        <ele>20.8</ele>
        <time>2025-10-12T07:24:38.000Z</time>
      </trkpt>
      <trkpt lat="43.18523" lon="6.59908">
        <ele>20.8</ele>
        <time>2025-10-12T07:24:39.000Z</time>
      </trkpt>
      <trkpt lat="43.18522" lon="6.59909">
        <ele>20.8</ele>
        <time>2025-10-12T07:24:40.000Z</time>
      </trkpt>
      <trkpt lat="43.18521" lon="6.59909">
        <ele>20.8</ele>
        <time>2025-10-12T07:24:41.000Z</time>
      </trkpt>
      <trkpt lat="43.18521" lon="6.59909">
        <ele>20.8</ele>
        <time>2025-10-12T07:24:42.000Z</time>
      </trkpt>
      <trkpt lat="43.18522" lon="6.5991">
        <ele>20.8</ele>
        <time>2025-10-12T07:24:50.000Z</time>
      </trkpt>
      <trkpt lat="43.18522" lon="6.5991">
        <ele>20.8</ele>
        <time>2025-10-12T07:24:51.000Z</time>
      </trkpt>
      <trkpt lat="43.18522" lon="6.5991">
        <ele>20.8</ele>
        <time>2025-10-12T07:24:52.000Z</time>
      </trkpt>
      <trkpt lat="43.18522" lon="6.59909">
        <ele>20.8</ele>
        <time>2025-10-12T07:24:56.000Z</time>
      </trkpt>
      <trkpt lat="43.18522" lon="6.59909">
        <ele>20.8</ele>
        <time>2025-10-12T07:24:57.000Z</time>
      </trkpt>
      <trkpt lat="43.18522" lon="6.59909">
        <ele>20.8</ele>
        <time>2025-10-12T07:25:07.000Z</time>
      </trkpt>
      <trkpt lat="43.18522" lon="6.59909">
        <ele>20.8</ele>
        <time>2025-10-12T07:25:08.000Z</time>
      </trkpt>
      <trkpt lat="43.18522" lon="6.59909">
        <ele>20.8</ele>
        <time>2025-10-12T07:25:09.000Z</time>
      </trkpt>
      <trkpt lat="43.18521" lon="6.59909">
        <ele>20.8</ele>
        <time>2025-10-12T07:25:12.000Z</time>
      </trkpt>
      <trkpt lat="43.18521" lon="6.59909">
        <ele>20.8</ele>
        <time>2025-10-12T07:25:13.000Z</time>
      </trkpt>
      <trkpt lat="43.18521" lon="6.59909">
        <ele>20.8</ele>
        <time>2025-10-12T07:25:14.000Z</time>
      </trkpt>
      <trkpt lat="43.18521" lon="6.59909">
        <ele>20.8</ele>
        <time>2025-10-12T07:25:17.000Z</time>
      </trkpt>
      <trkpt lat="43.18521" lon="6.59909">
        <ele>20.8</ele>
        <time>2025-10-12T07:25:18.000Z</time>
      </trkpt>
      <trkpt lat="43.18521" lon="6.59909">
        <ele>20.8</ele>
        <time>2025-10-12T07:25:19.000Z</time>
      </trkpt>
      <trkpt lat="43.18521" lon="6.59909">
        <ele>21</ele>
        <time>2025-10-12T07:26:18.000Z</time>
      </trkpt>
      <trkpt lat="43.18521" lon="6.59909">
        <ele>21</ele>
        <time>2025-10-12T07:26:19.000Z</time>
      </trkpt>
      <trkpt lat="43.18521" lon="6.59909">
        <ele>21</ele>
        <time>2025-10-12T07:26:20.000Z</time>
      </trkpt>
      <trkpt lat="43.18521" lon="6.59909">
        <ele>21</ele>
        <time>2025-10-12T07:26:21.000Z</time>
      </trkpt>
      <trkpt lat="43.18522" lon="6.5991">
        <ele>21.2</ele>
        <time>2025-10-12T07:27:05.000Z</time>
      </trkpt>
      <trkpt lat="43.18522" lon="6.5991">
        <ele>21.2</ele>
        <time>2025-10-12T07:27:06.000Z</time>
      </trkpt>
      <trkpt lat="43.18522" lon="6.5991">
        <ele>21.2</ele>
        <time>2025-10-12T07:27:07.000Z</time>
      </trkpt>
      <trkpt lat="43.18522" lon="6.5991">
        <ele>21.2</ele>
        <time>2025-10-12T07:27:08.000Z</time>
      </trkpt>
      <trkpt lat="43.18522" lon="6.5991">
        <ele>21.2</ele>
        <time>2025-10-12T07:27:09.000Z</time>
      </trkpt>
      <trkpt lat="43.18522" lon="6.5991">
        <ele>21.3</ele>
        <time>2025-10-12T07:27:25.000Z</time>
      </trkpt>
      <trkpt lat="43.18522" lon="6.5991">
        <ele>21.3</ele>
        <time>2025-10-12T07:27:26.000Z</time>
      </trkpt>
      <trkpt lat="43.18522" lon="6.5991">
        <ele>21.3</ele>
        <time>2025-10-12T07:27:27.000Z</time>
      </trkpt>
      <trkpt lat="43.18522" lon="6.5991">
        <ele>21.3</ele>
        <time>2025-10-12T07:27:28.000Z</time>
      </trkpt>
      <trkpt lat="43.18522" lon="6.59911">
        <ele>21.3</ele>
        <time>2025-10-12T07:27:29.000Z</time>
      </trkpt>
      <trkpt lat="43.18523" lon="6.59911">
        <ele>21.3</ele>
        <time>2025-10-12T07:27:30.000Z</time>
      </trkpt>
      <trkpt lat="43.18523" lon="6.59912">
        <ele>21.4</ele>
        <time>2025-10-12T07:27:31.000Z</time>
      </trkpt>
      <trkpt lat="43.18523" lon="6.59912">
        <ele>21.4</ele>
        <time>2025-10-12T07:27:37.000Z</time>
      </trkpt>
      <trkpt lat="43.18523" lon="6.59912">
        <ele>21.4</ele>
        <time>2025-10-12T07:27:38.000Z</time>
      </trkpt>
      <trkpt lat="43.18523" lon="6.59912">
        <ele>21.4</ele>
        <time>2025-10-12T07:27:39.000Z</time>
      </trkpt>
      <trkpt lat="43.18523" lon="6.59912">
        <ele>21.4</ele>
        <time>2025-10-12T07:27:40.000Z</time>
      </trkpt>
      <trkpt lat="43.18522" lon="6.59912">
        <ele>21.4</ele>
        <time>2025-10-12T07:27:41.000Z</time>
      </trkpt>
      <trkpt lat="43.18522" lon="6.59911">
        <ele>21.4</ele>
        <time>2025-10-12T07:28:00.000Z</time>
      </trkpt>
      <trkpt lat="43.18522" lon="6.59911">
        <ele>21.4</ele>
        <time>2025-10-12T07:28:01.000Z</time>
      </trkpt>
      <trkpt lat="43.18522" lon="6.59911">
        <ele>21.4</ele>
        <time>2025-10-12T07:28:02.000Z</time>
      </trkpt>
      <trkpt lat="43.18522" lon="6.59912">
        <ele>21.4</ele>
        <time>2025-10-12T07:28:03.000Z</time>
      </trkpt>
      <trkpt lat="43.18523" lon="6.59912">
        <ele>21.4</ele>
        <time>2025-10-12T07:28:04.000Z</time>
      </trkpt>
      <trkpt lat="43.18524" lon="6.59914">
        <ele>21.3</ele>
        <time>2025-10-12T07:28:13.000Z</time>
      </trkpt>
      <trkpt lat="43.18524" lon="6.59914">
        <ele>21.3</ele>
        <time>2025-10-12T07:28:14.000Z</time>
      </trkpt>
      <trkpt lat="43.18524" lon="6.59914">
        <ele>21.3</ele>
        <time>2025-10-12T07:28:15.000Z</time>
      </trkpt>
      <trkpt lat="43.18524" lon="6.59914">
        <ele>21.4</ele>
        <time>2025-10-12T07:28:16.000Z</time>
      </trkpt>
      <trkpt lat="43.18524" lon="6.59913">
        <ele>21.4</ele>
        <time>2025-10-12T07:28:17.000Z</time>
      </trkpt>
      <trkpt lat="43.18524" lon="6.59913">
        <ele>21.4</ele>
        <time>2025-10-12T07:29:01.000Z</time>
      </trkpt>
      <trkpt lat="43.18524" lon="6.59913">
        <ele>21.4</ele>
        <time>2025-10-12T07:29:02.000Z</time>
      </trkpt>
      <trkpt lat="43.18525" lon="6.59913">
        <ele>21.4</ele>
        <time>2025-10-12T07:29:03.000Z</time>
      </trkpt>
      <trkpt lat="43.18525" lon="6.59913">
        <ele>21.4</ele>
        <time>2025-10-12T07:29:04.000Z</time>
      </trkpt>
      <trkpt lat="43.18523" lon="6.59909">
        <ele>21.4</ele>
        <time>2025-10-12T07:29:22.000Z</time>
      </trkpt>
      <trkpt lat="43.18523" lon="6.59909">
        <ele>21.4</ele>
        <time>2025-10-12T07:29:23.000Z</time>
      </trkpt>
      <trkpt lat="43.18523" lon="6.59909">
        <ele>21.4</ele>
        <time>2025-10-12T07:29:24.000Z</time>
      </trkpt>
      <trkpt lat="43.18523" lon="6.59909">
        <ele>21.4</ele>
        <time>2025-10-12T07:29:25.000Z</time>
      </trkpt>
      <trkpt lat="43.18523" lon="6.5991">
        <ele>21.4</ele>
        <time>2025-10-12T07:29:26.000Z</time>
      </trkpt>
      <trkpt lat="43.18523" lon="6.5991">
        <ele>21.4</ele>
        <time>2025-10-12T07:29:27.000Z</time>
      </trkpt>
      <trkpt lat="43.18523" lon="6.5991">
        <ele>21.4</ele>
        <time>2025-10-12T07:29:28.000Z</time>
      </trkpt>
      <trkpt lat="43.18523" lon="6.59911">
        <ele>21.4</ele>
        <time>2025-10-12T07:29:29.000Z</time>
      </trkpt>
      <trkpt lat="43.18522" lon="6.59911">
        <ele>21.4</ele>
        <time>2025-10-12T07:29:30.000Z</time>
      </trkpt>
      <trkpt lat="43.18522" lon="6.59911">
        <ele>21.4</ele>
        <time>2025-10-12T07:29:31.000Z</time>
      </trkpt>
      <trkpt lat="43.18522" lon="6.59911">
        <ele>21.4</ele>
        <time>2025-10-12T07:29:32.000Z</time>
      </trkpt>
      <trkpt lat="43.18522" lon="6.59911">
        <ele>21.4</ele>
        <time>2025-10-12T07:29:33.000Z</time>
      </trkpt>
      <trkpt lat="43.18522" lon="6.59911">
        <ele>21.4</ele>
        <time>2025-10-12T07:29:34.000Z</time>
      </trkpt>
      <trkpt lat="43.18522" lon="6.59911">
        <ele>21.4</ele>
        <time>2025-10-12T07:29:35.000Z</time>
      </trkpt>
      <trkpt lat="43.18522" lon="6.59911">
        <ele>21.4</ele>
        <time>2025-10-12T07:29:40.000Z</time>
      </trkpt>
      <trkpt lat="43.18522" lon="6.59911">
        <ele>21.4</ele>
        <time>2025-10-12T07:29:41.000Z</time>
      </trkpt>
      <trkpt lat="43.18522" lon="6.59911">
        <ele>21.4</ele>
        <time>2025-10-12T07:29:42.000Z</time>
      </trkpt>
      <trkpt lat="43.18522" lon="6.59911">
        <ele>21.4</ele>
        <time>2025-10-12T07:29:43.000Z</time>
      </trkpt>
      <trkpt lat="43.18522" lon="6.59911">
        <ele>21.4</ele>
        <time>2025-10-12T07:29:44.000Z</time>
      </trkpt>
      <trkpt lat="43.18522" lon="6.59912">
        <ele>21.4</ele>
        <time>2025-10-12T07:29:55.000Z</time>
      </trkpt>
      <trkpt lat="43.18522" lon="6.59912">
        <ele>21.4</ele>
        <time>2025-10-12T07:29:56.000Z</time>
      </trkpt>
      <trkpt lat="43.18522" lon="6.59912">
        <ele>21.4</ele>
        <time>2025-10-12T07:29:57.000Z</time>
      </trkpt>
      <trkpt lat="43.18522" lon="6.59912">
        <ele>21.4</ele>
        <time>2025-10-12T07:29:58.000Z</time>
      </trkpt>
      <trkpt lat="43.18522" lon="6.59912">
        <ele>21.4</ele>
        <time>2025-10-12T07:29:59.000Z</time>
      </trkpt>
      <trkpt lat="43.18522" lon="6.59912">
        <ele>21.4</ele>
        <time>2025-10-12T07:30:00.000Z</time>
      </trkpt>
      <trkpt lat="43.18522" lon="6.59912">
        <ele>21.4</ele>
        <time>2025-10-12T07:30:13.000Z</time>
      </trkpt>
      <trkpt lat="43.18522" lon="6.59912">
        <ele>21.4</ele>
        <time>2025-10-12T07:30:14.000Z</time>
      </trkpt>
      <trkpt lat="43.18522" lon="6.59912">
        <ele>21.4</ele>
        <time>2025-10-12T07:30:15.000Z</time>
      </trkpt>
      <trkpt lat="43.18522" lon="6.59912">
        <ele>21.4</ele>
        <time>2025-10-12T07:30:16.000Z</time>
      </trkpt>
      <trkpt lat="43.18522" lon="6.59912">
        <ele>21.4</ele>
        <time>2025-10-12T07:30:17.000Z</time>
      </trkpt>
      <trkpt lat="43.18522" lon="6.59912">
        <ele>21.4</ele>
        <time>2025-10-12T07:30:18.000Z</time>
      </trkpt>
      <trkpt lat="43.18522" lon="6.59912">
        <ele>21.4</ele>
        <time>2025-10-12T07:30:19.000Z</time>
      </trkpt>
      <trkpt lat="43.18522" lon="6.59912">
        <ele>21.4</ele>
        <time>2025-10-12T07:30:23.000Z</time>
      </trkpt>
      <trkpt lat="43.18522" lon="6.59912">
        <ele>21.4</ele>
        <time>2025-10-12T07:30:24.000Z</time>
      </trkpt>
      <trkpt lat="43.18522" lon="6.59912">
        <ele>21.4</ele>
        <time>2025-10-12T07:30:25.000Z</time>
      </trkpt>
      <trkpt lat="43.18522" lon="6.59912">
        <ele>21.4</ele>
        <time>2025-10-12T07:30:28.000Z</time>
      </trkpt>
      <trkpt lat="43.18522" lon="6.59912">
        <ele>21.4</ele>
        <time>2025-10-12T07:30:29.000Z</time>
      </trkpt>
      <trkpt lat="43.18522" lon="6.59912">
        <ele>21.4</ele>
        <time>2025-10-12T07:30:30.000Z</time>
      </trkpt>
      <trkpt lat="43.18522" lon="6.59912">
        <ele>21.4</ele>
        <time>2025-10-12T07:30:31.000Z</time>
      </trkpt>
      <trkpt lat="43.18522" lon="6.59912">
        <ele>21.4</ele>
        <time>2025-10-12T07:30:45.000Z</time>
      </trkpt>
      <trkpt lat="43.18522" lon="6.59912">
        <ele>21.4</ele>
        <time>2025-10-12T07:30:46.000Z</time>
      </trkpt>
      <trkpt lat="43.18522" lon="6.59912">
        <ele>21.4</ele>
        <time>2025-10-12T07:30:47.000Z</time>
      </trkpt>
      <trkpt lat="43.18523" lon="6.59912">
        <ele>21.4</ele>
        <time>2025-10-12T07:30:53.000Z</time>
      </trkpt>
      <trkpt lat="43.18523" lon="6.59912">
        <ele>21.4</ele>
        <time>2025-10-12T07:30:54.000Z</time>
      </trkpt>
      <trkpt lat="43.18522" lon="6.59911">
        <ele>21.4</ele>
        <time>2025-10-12T07:30:55.000Z</time>
      </trkpt>
      <trkpt lat="43.18522" lon="6.59911">
        <ele>21.4</ele>
        <time>2025-10-12T07:30:56.000Z</time>
      </trkpt>
      <trkpt lat="43.18522" lon="6.59911">
        <ele>21.4</ele>
        <time>2025-10-12T07:30:57.000Z</time>
      </trkpt>
      <trkpt lat="43.18522" lon="6.59911">
        <ele>21.4</ele>
        <time>2025-10-12T07:30:58.000Z</time>
      </trkpt>
      <trkpt lat="43.18522" lon="6.59911">
        <ele>21.4</ele>
        <time>2025-10-12T07:30:59.000Z</time>
      </trkpt>
      <trkpt lat="43.18522" lon="6.59911">
        <ele>21.4</ele>
        <time>2025-10-12T07:31:00.000Z</time>
      </trkpt>
      <trkpt lat="43.18523" lon="6.59912">
        <ele>21.4</ele>
        <time>2025-10-12T07:31:01.000Z</time>
      </trkpt>
      <trkpt lat="43.18524" lon="6.59912">
        <ele>21.4</ele>
        <time>2025-10-12T07:31:02.000Z</time>
      </trkpt>
      <trkpt lat="43.18526" lon="6.59912">
        <ele>21.3</ele>
        <time>2025-10-12T07:31:08.000Z</time>
      </trkpt>
      <trkpt lat="43.18526" lon="6.59912">
        <ele>21.3</ele>
        <time>2025-10-12T07:31:09.000Z</time>
      </trkpt>
      <trkpt lat="43.18526" lon="6.59912">
        <ele>21.3</ele>
        <time>2025-10-12T07:31:10.000Z</time>
      </trkpt>
      <trkpt lat="43.18526" lon="6.59912">
        <ele>21.3</ele>
        <time>2025-10-12T07:31:13.000Z</time>
      </trkpt>
      <trkpt lat="43.18527" lon="6.59912">
        <ele>21.3</ele>
        <time>2025-10-12T07:31:14.000Z</time>
      </trkpt>
      <trkpt lat="43.18527" lon="6.59903">
        <ele>21.3</ele>
        <time>2025-10-12T07:31:25.000Z</time>
      </trkpt>
      <trkpt lat="43.18527" lon="6.59903">
        <ele>21.3</ele>
        <time>2025-10-12T07:31:26.000Z</time>
      </trkpt>
      <trkpt lat="43.18527" lon="6.59902">
        <ele>21.3</ele>
        <time>2025-10-12T07:31:27.000Z</time>
      </trkpt>
      <trkpt lat="43.18527" lon="6.59901">
        <ele>21.3</ele>
        <time>2025-10-12T07:31:28.000Z</time>
      </trkpt>
      <trkpt lat="43.18527" lon="6.599">
        <ele>21.3</ele>
        <time>2025-10-12T07:31:29.000Z</time>
      </trkpt>
      <trkpt lat="43.18527" lon="6.599">
        <ele>21.3</ele>
        <time>2025-10-12T07:31:32.000Z</time>
      </trkpt>
      <trkpt lat="43.18527" lon="6.599">
        <ele>21.3</ele>
        <time>2025-10-12T07:31:33.000Z</time>
      </trkpt>
      <trkpt lat="43.18527" lon="6.599">
        <ele>21.4</ele>
        <time>2025-10-12T07:31:34.000Z</time>
      </trkpt>
      <trkpt lat="43.18527" lon="6.599">
        <ele>21.4</ele>
        <time>2025-10-12T07:31:35.000Z</time>
      </trkpt>
      <trkpt lat="43.18527" lon="6.59899">
        <ele>21.4</ele>
        <time>2025-10-12T07:31:36.000Z</time>
      </trkpt>
      <trkpt lat="43.18527" lon="6.59899">
        <ele>21.4</ele>
        <time>2025-10-12T07:31:37.000Z</time>
      </trkpt>
      <trkpt lat="43.18527" lon="6.59898">
        <ele>21.4</ele>
        <time>2025-10-12T07:31:45.000Z</time>
      </trkpt>
      <trkpt lat="43.18527" lon="6.59898">
        <ele>21.4</ele>
        <time>2025-10-12T07:31:46.000Z</time>
      </trkpt>
      <trkpt lat="43.18527" lon="6.59898">
        <ele>21.4</ele>
        <time>2025-10-12T07:31:47.000Z</time>
      </trkpt>
      <trkpt lat="43.18527" lon="6.59898">
        <ele>21.4</ele>
        <time>2025-10-12T07:31:48.000Z</time>
      </trkpt>
      <trkpt lat="43.18527" lon="6.59898">
        <ele>21.4</ele>
        <time>2025-10-12T07:31:49.000Z</time>
      </trkpt>
      <trkpt lat="43.18527" lon="6.59898">
        <ele>21.4</ele>
        <time>2025-10-12T07:31:50.000Z</time>
      </trkpt>
      <trkpt lat="43.18527" lon="6.59898">
        <ele>21.4</ele>
        <time>2025-10-12T07:31:51.000Z</time>
      </trkpt>
      <trkpt lat="43.18528" lon="6.59895">
        <ele>21.4</ele>
        <time>2025-10-12T07:33:38.000Z</time>
      </trkpt>
      <trkpt lat="43.18528" lon="6.59895">
        <ele>21.4</ele>
        <time>2025-10-12T07:33:39.000Z</time>
      </trkpt>
      <trkpt lat="43.18535" lon="6.59886">
        <ele>21.5</ele>
        <time>2025-10-12T07:33:50.000Z</time>
      </trkpt>
      <trkpt lat="43.18537" lon="6.59873">
        <ele>21.5</ele>
        <time>2025-10-12T07:34:05.000Z</time>
      </trkpt>
      <trkpt lat="43.1853" lon="6.59863">
        <ele>21.9</ele>
        <time>2025-10-12T07:34:19.000Z</time>
      </trkpt>
      <trkpt lat="43.18522" lon="6.59856">
        <ele>23</ele>
        <time>2025-10-12T07:34:29.000Z</time>
      </trkpt>
      <trkpt lat="43.18514" lon="6.59848">
        <ele>24.5</ele>
        <time>2025-10-12T07:34:38.000Z</time>
      </trkpt>
      <trkpt lat="43.18505" lon="6.59844">
        <ele>25.1</ele>
        <time>2025-10-12T07:34:46.000Z</time>
      </trkpt>
      <trkpt lat="43.18496" lon="6.59841">
        <ele>25.4</ele>
        <time>2025-10-12T07:34:53.000Z</time>
      </trkpt>
      <trkpt lat="43.18486" lon="6.59839">
        <ele>25.5</ele>
        <time>2025-10-12T07:35:00.000Z</time>
      </trkpt>
      <trkpt lat="43.18477" lon="6.5984">
        <ele>25.5</ele>
        <time>2025-10-12T07:35:06.000Z</time>
      </trkpt>
      <trkpt lat="43.18467" lon="6.59843">
        <ele>25.3</ele>
        <time>2025-10-12T07:35:13.000Z</time>
      </trkpt>
      <trkpt lat="43.18458" lon="6.59843">
        <ele>24.8</ele>
        <time>2025-10-12T07:35:21.000Z</time>
      </trkpt>
      <trkpt lat="43.18448" lon="6.59843">
        <ele>24.1</ele>
        <time>2025-10-12T07:35:29.000Z</time>
      </trkpt>
      <trkpt lat="43.18439" lon="6.59842">
        <ele>23.1</ele>
        <time>2025-10-12T07:35:36.000Z</time>
      </trkpt>
      <trkpt lat="43.1843" lon="6.59842">
        <ele>22.4</ele>
        <time>2025-10-12T07:35:43.000Z</time>
      </trkpt>
      <trkpt lat="43.18424" lon="6.59851">
        <ele>21.6</ele>
        <time>2025-10-12T07:35:52.000Z</time>
      </trkpt>
      <trkpt lat="43.18424" lon="6.59863">
        <ele>21</ele>
        <time>2025-10-12T07:36:02.000Z</time>
      </trkpt>
      <trkpt lat="43.18423" lon="6.59876">
        <ele>20.6</ele>
        <time>2025-10-12T07:36:12.000Z</time>
      </trkpt>
      <trkpt lat="43.18421" lon="6.59889">
        <ele>20.2</ele>
        <time>2025-10-12T07:36:20.000Z</time>
      </trkpt>
      <trkpt lat="43.18421" lon="6.59902">
        <ele>20</ele>
        <time>2025-10-12T07:36:28.000Z</time>
      </trkpt>
      <trkpt lat="43.18417" lon="6.59914">
        <ele>19.8</ele>
        <time>2025-10-12T07:36:37.000Z</time>
      </trkpt>
      <trkpt lat="43.18415" lon="6.59927">
        <ele>19.4</ele>
        <time>2025-10-12T07:36:49.000Z</time>
      </trkpt>
      <trkpt lat="43.1841" lon="6.59938">
        <ele>19.3</ele>
        <time>2025-10-12T07:36:57.000Z</time>
      </trkpt>
      <trkpt lat="43.18406" lon="6.5995">
        <ele>19.3</ele>
        <time>2025-10-12T07:37:05.000Z</time>
      </trkpt>
      <trkpt lat="43.18404" lon="6.59963">
        <ele>19.3</ele>
        <time>2025-10-12T07:37:14.000Z</time>
      </trkpt>
      <trkpt lat="43.184" lon="6.59975">
        <ele>19.2</ele>
        <time>2025-10-12T07:37:23.000Z</time>
      </trkpt>
      <trkpt lat="43.18396" lon="6.59987">
        <ele>19.2</ele>
        <time>2025-10-12T07:37:31.000Z</time>
      </trkpt>
      <trkpt lat="43.18392" lon="6.59999">
        <ele>19.2</ele>
        <time>2025-10-12T07:37:39.000Z</time>
      </trkpt>
      <trkpt lat="43.18389" lon="6.60011">
        <ele>19.3</ele>
        <time>2025-10-12T07:37:46.000Z</time>
      </trkpt>
      <trkpt lat="43.18384" lon="6.60022">
        <ele>19.3</ele>
        <time>2025-10-12T07:37:55.000Z</time>
      </trkpt>
      <trkpt lat="43.18381" lon="6.60035">
        <ele>19.4</ele>
        <time>2025-10-12T07:38:05.000Z</time>
      </trkpt>
      <trkpt lat="43.18378" lon="6.60048">
        <ele>19.4</ele>
        <time>2025-10-12T07:38:13.000Z</time>
      </trkpt>
      <trkpt lat="43.18376" lon="6.6006">
        <ele>19.5</ele>
        <time>2025-10-12T07:38:23.000Z</time>
      </trkpt>
      <trkpt lat="43.18372" lon="6.60063">
        <ele>19.6</ele>
        <time>2025-10-12T07:38:42.000Z</time>
      </trkpt>
      <trkpt lat="43.18372" lon="6.60063">
        <ele>19.6</ele>
        <time>2025-10-12T07:38:43.000Z</time>
      </trkpt>
      <trkpt lat="43.18372" lon="6.60063">
        <ele>19.6</ele>
        <time>2025-10-12T07:38:44.000Z</time>
      </trkpt>
      <trkpt lat="43.18372" lon="6.60063">
        <ele>19.6</ele>
        <time>2025-10-12T07:38:47.000Z</time>
      </trkpt>
      <trkpt lat="43.18372" lon="6.60063">
        <ele>19.7</ele>
        <time>2025-10-12T07:38:48.000Z</time>
      </trkpt>
      <trkpt lat="43.18372" lon="6.60063">
        <ele>19.7</ele>
        <time>2025-10-12T07:38:49.000Z</time>
      </trkpt>
      <trkpt lat="43.18372" lon="6.60063">
        <ele>19.7</ele>
        <time>2025-10-12T07:38:55.000Z</time>
      </trkpt>
      <trkpt lat="43.18372" lon="6.60063">
        <ele>19.7</ele>
        <time>2025-10-12T07:38:56.000Z</time>
      </trkpt>
      <trkpt lat="43.18372" lon="6.60062">
        <ele>19.7</ele>
        <time>2025-10-12T07:39:00.000Z</time>
      </trkpt>
      <trkpt lat="43.18372" lon="6.60062">
        <ele>19.7</ele>
        <time>2025-10-12T07:39:01.000Z</time>
      </trkpt>
      <trkpt lat="43.18372" lon="6.60062">
        <ele>19.7</ele>
        <time>2025-10-12T07:39:02.000Z</time>
      </trkpt>
      <trkpt lat="43.18372" lon="6.60062">
        <ele>19.7</ele>
        <time>2025-10-12T07:39:03.000Z</time>
      </trkpt>
      <trkpt lat="43.18372" lon="6.60062">
        <ele>19.7</ele>
        <time>2025-10-12T07:39:04.000Z</time>
      </trkpt>
      <trkpt lat="43.18372" lon="6.60062">
        <ele>19.7</ele>
        <time>2025-10-12T07:39:05.000Z</time>
      </trkpt>
      <trkpt lat="43.18372" lon="6.60062">
        <ele>19.7</ele>
        <time>2025-10-12T07:39:06.000Z</time>
      </trkpt>
      <trkpt lat="43.18372" lon="6.60062">
        <ele>19.7</ele>
        <time>2025-10-12T07:39:07.000Z</time>
      </trkpt>
      <trkpt lat="43.18372" lon="6.60062">
        <ele>19.7</ele>
        <time>2025-10-12T07:39:08.000Z</time>
      </trkpt>
      <trkpt lat="43.18372" lon="6.60062">
        <ele>19.7</ele>
        <time>2025-10-12T07:39:09.000Z</time>
      </trkpt>
      <trkpt lat="43.18371" lon="6.60062">
        <ele>19.7</ele>
        <time>2025-10-12T07:39:16.000Z</time>
      </trkpt>
      <trkpt lat="43.18371" lon="6.60062">
        <ele>19.7</ele>
        <time>2025-10-12T07:39:17.000Z</time>
      </trkpt>
      <trkpt lat="43.18371" lon="6.60062">
        <ele>19.7</ele>
        <time>2025-10-12T07:39:20.000Z</time>
      </trkpt>
      <trkpt lat="43.18371" lon="6.60062">
        <ele>19.7</ele>
        <time>2025-10-12T07:39:21.000Z</time>
      </trkpt>
      <trkpt lat="43.18371" lon="6.60062">
        <ele>19.7</ele>
        <time>2025-10-12T07:39:22.000Z</time>
      </trkpt>
      <trkpt lat="43.18372" lon="6.60063">
        <ele>19.7</ele>
        <time>2025-10-12T07:39:33.000Z</time>
      </trkpt>
      <trkpt lat="43.18373" lon="6.60064">
        <ele>19.7</ele>
        <time>2025-10-12T07:39:34.000Z</time>
      </trkpt>
      <trkpt lat="43.18373" lon="6.60064">
        <ele>19.7</ele>
        <time>2025-10-12T07:39:35.000Z</time>
      </trkpt>
      <trkpt lat="43.18373" lon="6.60064">
        <ele>19.7</ele>
        <time>2025-10-12T07:39:36.000Z</time>
      </trkpt>
      <trkpt lat="43.18373" lon="6.60064">
        <ele>19.7</ele>
        <time>2025-10-12T07:39:37.000Z</time>
      </trkpt>
      <trkpt lat="43.18373" lon="6.60064">
        <ele>19.6</ele>
        <time>2025-10-12T07:40:00.000Z</time>
      </trkpt>
      <trkpt lat="43.18373" lon="6.60064">
        <ele>19.6</ele>
        <time>2025-10-12T07:40:01.000Z</time>
      </trkpt>
      <trkpt lat="43.18373" lon="6.60064">
        <ele>19.6</ele>
        <time>2025-10-12T07:40:02.000Z</time>
      </trkpt>
      <trkpt lat="43.18373" lon="6.60064">
        <ele>19.6</ele>
        <time>2025-10-12T07:40:03.000Z</time>
      </trkpt>
      <trkpt lat="43.18373" lon="6.60064">
        <ele>19.6</ele>
        <time>2025-10-12T07:40:04.000Z</time>
      </trkpt>
      <trkpt lat="43.18374" lon="6.60065">
        <ele>19.6</ele>
        <time>2025-10-12T07:40:25.000Z</time>
      </trkpt>
      <trkpt lat="43.18374" lon="6.60065">
        <ele>19.6</ele>
        <time>2025-10-12T07:40:26.000Z</time>
      </trkpt>
      <trkpt lat="43.18374" lon="6.60065">
        <ele>19.6</ele>
        <time>2025-10-12T07:40:27.000Z</time>
      </trkpt>
      <trkpt lat="43.18374" lon="6.60065">
        <ele>19.6</ele>
        <time>2025-10-12T07:40:28.000Z</time>
      </trkpt>
      <trkpt lat="43.18374" lon="6.60065">
        <ele>19.6</ele>
        <time>2025-10-12T07:40:29.000Z</time>
      </trkpt>
      <trkpt lat="43.18373" lon="6.60065">
        <ele>19.6</ele>
        <time>2025-10-12T07:40:58.000Z</time>
      </trkpt>
      <trkpt lat="43.18373" lon="6.60065">
        <ele>19.6</ele>
        <time>2025-10-12T07:40:59.000Z</time>
      </trkpt>
      <trkpt lat="43.18373" lon="6.60065">
        <ele>19.6</ele>
        <time>2025-10-12T07:41:02.000Z</time>
      </trkpt>
      <trkpt lat="43.18373" lon="6.60065">
        <ele>19.6</ele>
        <time>2025-10-12T07:41:03.000Z</time>
      </trkpt>
      <trkpt lat="43.18373" lon="6.60065">
        <ele>19.6</ele>
        <time>2025-10-12T07:41:04.000Z</time>
      </trkpt>
      <trkpt lat="43.18373" lon="6.60065">
        <ele>19.6</ele>
        <time>2025-10-12T07:41:07.000Z</time>
      </trkpt>
      <trkpt lat="43.18373" lon="6.60065">
        <ele>19.6</ele>
        <time>2025-10-12T07:41:08.000Z</time>
      </trkpt>
      <trkpt lat="43.18373" lon="6.60065">
        <ele>19.6</ele>
        <time>2025-10-12T07:41:09.000Z</time>
      </trkpt>
      <trkpt lat="43.18373" lon="6.60065">
        <ele>19.6</ele>
        <time>2025-10-12T07:41:10.000Z</time>
      </trkpt>
      <trkpt lat="43.18373" lon="6.60065">
        <ele>19.6</ele>
        <time>2025-10-12T07:41:11.000Z</time>
      </trkpt>
      <trkpt lat="43.18374" lon="6.60066">
        <ele>19.6</ele>
        <time>2025-10-12T07:41:35.000Z</time>
      </trkpt>
      <trkpt lat="43.18374" lon="6.60066">
        <ele>19.6</ele>
        <time>2025-10-12T07:41:36.000Z</time>
      </trkpt>
      <trkpt lat="43.18374" lon="6.60067">
        <ele>19.6</ele>
        <time>2025-10-12T07:41:37.000Z</time>
      </trkpt>
      <trkpt lat="43.18374" lon="6.60067">
        <ele>19.6</ele>
        <time>2025-10-12T07:41:38.000Z</time>
      </trkpt>
      <trkpt lat="43.18374" lon="6.60067">
        <ele>19.6</ele>
        <time>2025-10-12T07:41:39.000Z</time>
      </trkpt>
      <trkpt lat="43.18373" lon="6.60066">
        <ele>19.5</ele>
        <time>2025-10-12T07:42:15.000Z</time>
      </trkpt>
      <trkpt lat="43.18373" lon="6.60066">
        <ele>19.5</ele>
        <time>2025-10-12T07:42:16.000Z</time>
      </trkpt>
      <trkpt lat="43.18372" lon="6.60066">
        <ele>19.5</ele>
        <time>2025-10-12T07:42:17.000Z</time>
      </trkpt>
      <trkpt lat="43.18372" lon="6.60066">
        <ele>19.5</ele>
        <time>2025-10-12T07:42:21.000Z</time>
      </trkpt>
      <trkpt lat="43.18372" lon="6.60066">
        <ele>19.5</ele>
        <time>2025-10-12T07:42:22.000Z</time>
      </trkpt>
      <trkpt lat="43.18373" lon="6.60066">
        <ele>19.5</ele>
        <time>2025-10-12T07:42:30.000Z</time>
      </trkpt>
      <trkpt lat="43.18373" lon="6.60066">
        <ele>19.5</ele>
        <time>2025-10-12T07:42:31.000Z</time>
      </trkpt>
      <trkpt lat="43.18373" lon="6.60066">
        <ele>19.5</ele>
        <time>2025-10-12T07:42:32.000Z</time>
      </trkpt>
      <trkpt lat="43.18373" lon="6.60066">
        <ele>19.5</ele>
        <time>2025-10-12T07:42:33.000Z</time>
      </trkpt>
      <trkpt lat="43.18373" lon="6.60066">
        <ele>19.5</ele>
        <time>2025-10-12T07:42:34.000Z</time>
      </trkpt>
      <trkpt lat="43.18373" lon="6.60066">
        <ele>19.5</ele>
        <time>2025-10-12T07:42:35.000Z</time>
      </trkpt>
      <trkpt lat="43.18372" lon="6.60066">
        <ele>19.2</ele>
        <time>2025-10-12T07:45:27.000Z</time>
      </trkpt>
      <trkpt lat="43.18372" lon="6.60065">
        <ele>19.2</ele>
        <time>2025-10-12T07:45:28.000Z</time>
      </trkpt>
      <trkpt lat="43.18372" lon="6.60065">
        <ele>19.2</ele>
        <time>2025-10-12T07:45:29.000Z</time>
      </trkpt>
      <trkpt lat="43.18372" lon="6.60065">
        <ele>19.2</ele>
        <time>2025-10-12T07:45:30.000Z</time>
      </trkpt>
      <trkpt lat="43.18372" lon="6.60065">
        <ele>19.2</ele>
        <time>2025-10-12T07:45:31.000Z</time>
      </trkpt>
      <trkpt lat="43.18372" lon="6.60065">
        <ele>19.2</ele>
        <time>2025-10-12T07:45:56.000Z</time>
      </trkpt>
      <trkpt lat="43.18372" lon="6.60065">
        <ele>19.2</ele>
        <time>2025-10-12T07:45:57.000Z</time>
      </trkpt>
      <trkpt lat="43.18372" lon="6.60065">
        <ele>19.2</ele>
        <time>2025-10-12T07:45:58.000Z</time>
      </trkpt>
      <trkpt lat="43.18372" lon="6.60065">
        <ele>19.2</ele>
        <time>2025-10-12T07:45:59.000Z</time>
      </trkpt>
      <trkpt lat="43.18372" lon="6.60065">
        <ele>19.2</ele>
        <time>2025-10-12T07:46:00.000Z</time>
      </trkpt>
      <trkpt lat="43.18372" lon="6.60065">
        <ele>19.2</ele>
        <time>2025-10-12T07:46:03.000Z</time>
      </trkpt>
      <trkpt lat="43.18372" lon="6.60065">
        <ele>19.2</ele>
        <time>2025-10-12T07:46:04.000Z</time>
      </trkpt>
      <trkpt lat="43.18374" lon="6.60063">
        <ele>19.1</ele>
        <time>2025-10-12T07:46:15.000Z</time>
      </trkpt>
      <trkpt lat="43.18375" lon="6.60063">
        <ele>19.1</ele>
        <time>2025-10-12T07:46:16.000Z</time>
      </trkpt>
      <trkpt lat="43.18375" lon="6.60062">
        <ele>19.1</ele>
        <time>2025-10-12T07:46:17.000Z</time>
      </trkpt>
      <trkpt lat="43.18375" lon="6.60061">
        <ele>19.1</ele>
        <time>2025-10-12T07:46:18.000Z</time>
      </trkpt>
      <trkpt lat="43.18375" lon="6.60061">
        <ele>19.1</ele>
        <time>2025-10-12T07:46:19.000Z</time>
      </trkpt>
      <trkpt lat="43.18375" lon="6.60061">
        <ele>19.1</ele>
        <time>2025-10-12T07:46:20.000Z</time>
      </trkpt>
      <trkpt lat="43.18375" lon="6.60061">
        <ele>19.1</ele>
        <time>2025-10-12T07:46:21.000Z</time>
      </trkpt>
      <trkpt lat="43.18375" lon="6.60061">
        <ele>19.1</ele>
        <time>2025-10-12T07:46:22.000Z</time>
      </trkpt>
      <trkpt lat="43.18374" lon="6.60062">
        <ele>19.1</ele>
        <time>2025-10-12T07:46:23.000Z</time>
      </trkpt>
      <trkpt lat="43.18374" lon="6.60062">
        <ele>19.1</ele>
        <time>2025-10-12T07:46:24.000Z</time>
      </trkpt>
      <trkpt lat="43.18373" lon="6.60063">
        <ele>19.1</ele>
        <time>2025-10-12T07:46:30.000Z</time>
      </trkpt>
      <trkpt lat="43.18373" lon="6.60063">
        <ele>19.1</ele>
        <time>2025-10-12T07:46:31.000Z</time>
      </trkpt>
      <trkpt lat="43.18373" lon="6.60063">
        <ele>19</ele>
        <time>2025-10-12T07:47:40.000Z</time>
      </trkpt>
      <trkpt lat="43.18373" lon="6.60062">
        <ele>19</ele>
        <time>2025-10-12T07:47:41.000Z</time>
      </trkpt>
      <trkpt lat="43.18373" lon="6.60062">
        <ele>19</ele>
        <time>2025-10-12T07:47:42.000Z</time>
      </trkpt>
      <trkpt lat="43.18373" lon="6.60062">
        <ele>19</ele>
        <time>2025-10-12T07:47:43.000Z</time>
      </trkpt>
      <trkpt lat="43.18373" lon="6.60062">
        <ele>19</ele>
        <time>2025-10-12T07:47:44.000Z</time>
      </trkpt>
      <trkpt lat="43.18373" lon="6.60062">
        <ele>19</ele>
        <time>2025-10-12T07:47:45.000Z</time>
      </trkpt>
      <trkpt lat="43.18373" lon="6.60062">
        <ele>19</ele>
        <time>2025-10-12T07:47:46.000Z</time>
      </trkpt>
      <trkpt lat="43.18373" lon="6.60062">
        <ele>19</ele>
        <time>2025-10-12T07:47:47.000Z</time>
      </trkpt>
      <trkpt lat="43.18373" lon="6.60062">
        <ele>19</ele>
        <time>2025-10-12T07:47:48.000Z</time>
      </trkpt>
      <trkpt lat="43.18373" lon="6.60062">
        <ele>19</ele>
        <time>2025-10-12T07:47:49.000Z</time>
      </trkpt>
      <trkpt lat="43.18373" lon="6.60062">
        <ele>19</ele>
        <time>2025-10-12T07:48:05.000Z</time>
      </trkpt>
      <trkpt lat="43.18373" lon="6.60063">
        <ele>19</ele>
        <time>2025-10-12T07:48:06.000Z</time>
      </trkpt>
      <trkpt lat="43.18373" lon="6.60063">
        <ele>19</ele>
        <time>2025-10-12T07:48:07.000Z</time>
      </trkpt>
      <trkpt lat="43.18373" lon="6.60064">
        <ele>19</ele>
        <time>2025-10-12T07:48:11.000Z</time>
      </trkpt>
      <trkpt lat="43.18373" lon="6.60064">
        <ele>19</ele>
        <time>2025-10-12T07:48:12.000Z</time>
      </trkpt>
      <trkpt lat="43.18372" lon="6.60065">
        <ele>19</ele>
        <time>2025-10-12T07:48:16.000Z</time>
      </trkpt>
      <trkpt lat="43.18372" lon="6.60065">
        <ele>19</ele>
        <time>2025-10-12T07:48:17.000Z</time>
      </trkpt>
      <trkpt lat="43.18367" lon="6.60076">
        <ele>19</ele>
        <time>2025-10-12T07:48:28.000Z</time>
      </trkpt>
      <trkpt lat="43.18361" lon="6.60087">
        <ele>19</ele>
        <time>2025-10-12T07:48:37.000Z</time>
      </trkpt>
      <trkpt lat="43.18359" lon="6.60099">
        <ele>19</ele>
        <time>2025-10-12T07:48:45.000Z</time>
      </trkpt>
      <trkpt lat="43.18355" lon="6.60111">
        <ele>19</ele>
        <time>2025-10-12T07:48:54.000Z</time>
      </trkpt>
      <trkpt lat="43.18352" lon="6.60124">
        <ele>19</ele>
        <time>2025-10-12T07:49:03.000Z</time>
      </trkpt>
      <trkpt lat="43.18346" lon="6.60133">
        <ele>19</ele>
        <time>2025-10-12T07:49:11.000Z</time>
      </trkpt>
      <trkpt lat="43.18338" lon="6.6014">
        <ele>19</ele>
        <time>2025-10-12T07:49:21.000Z</time>
      </trkpt>
      <trkpt lat="43.18329" lon="6.60142">
        <ele>18.9</ele>
        <time>2025-10-12T07:49:29.000Z</time>
      </trkpt>
      <trkpt lat="43.1832" lon="6.60143">
        <ele>18.8</ele>
        <time>2025-10-12T07:49:38.000Z</time>
      </trkpt>
      <trkpt lat="43.18318" lon="6.60143">
        <ele>18.6</ele>
        <time>2025-10-12T07:49:50.000Z</time>
      </trkpt>
      <trkpt lat="43.18317" lon="6.60143">
        <ele>18.6</ele>
        <time>2025-10-12T07:49:51.000Z</time>
      </trkpt>
      <trkpt lat="43.18317" lon="6.60143">
        <ele>18.5</ele>
        <time>2025-10-12T07:49:52.000Z</time>
      </trkpt>
      <trkpt lat="43.18316" lon="6.60143">
        <ele>18.5</ele>
        <time>2025-10-12T07:49:53.000Z</time>
      </trkpt>
      <trkpt lat="43.18316" lon="6.60143">
        <ele>18.5</ele>
        <time>2025-10-12T07:49:54.000Z</time>
      </trkpt>
      <trkpt lat="43.18316" lon="6.60143">
        <ele>18.5</ele>
        <time>2025-10-12T07:49:55.000Z</time>
      </trkpt>
      <trkpt lat="43.18316" lon="6.60143">
        <ele>18.5</ele>
        <time>2025-10-12T07:49:56.000Z</time>
      </trkpt>
      <trkpt lat="43.18316" lon="6.60143">
        <ele>18.5</ele>
        <time>2025-10-12T07:49:57.000Z</time>
      </trkpt>
      <trkpt lat="43.18316" lon="6.60143">
        <ele>18.4</ele>
        <time>2025-10-12T07:50:17.000Z</time>
      </trkpt>
      <trkpt lat="43.18316" lon="6.60143">
        <ele>18.4</ele>
        <time>2025-10-12T07:50:18.000Z</time>
      </trkpt>
      <trkpt lat="43.18315" lon="6.60144">
        <ele>18.4</ele>
        <time>2025-10-12T07:50:19.000Z</time>
      </trkpt>
      <trkpt lat="43.18306" lon="6.60149">
        <ele>18.3</ele>
        <time>2025-10-12T07:50:28.000Z</time>
      </trkpt>
      <trkpt lat="43.18299" lon="6.60159">
        <ele>18.4</ele>
        <time>2025-10-12T07:50:35.000Z</time>
      </trkpt>
      <trkpt lat="43.18293" lon="6.60168">
        <ele>18.4</ele>
        <time>2025-10-12T07:50:42.000Z</time>
      </trkpt>
      <trkpt lat="43.18291" lon="6.60181">
        <ele>18.4</ele>
        <time>2025-10-12T07:50:51.000Z</time>
      </trkpt>
      <trkpt lat="43.18296" lon="6.60194">
        <ele>18.8</ele>
        <time>2025-10-12T07:51:01.000Z</time>
      </trkpt>
      <trkpt lat="43.1829" lon="6.60203">
        <ele>19.7</ele>
        <time>2025-10-12T07:51:11.000Z</time>
      </trkpt>
      <trkpt lat="43.18286" lon="6.60215">
        <ele>20.9</ele>
        <time>2025-10-12T07:51:23.000Z</time>
      </trkpt>
      <trkpt lat="43.18277" lon="6.60218">
        <ele>21.2</ele>
        <time>2025-10-12T07:51:31.000Z</time>
      </trkpt>
      <trkpt lat="43.18267" lon="6.60216">
        <ele>21.2</ele>
        <time>2025-10-12T07:51:38.000Z</time>
      </trkpt>
      <trkpt lat="43.18258" lon="6.60213">
        <ele>21</ele>
        <time>2025-10-12T07:51:47.000Z</time>
      </trkpt>
      <trkpt lat="43.18249" lon="6.60213">
        <ele>20.8</ele>
        <time>2025-10-12T07:51:57.000Z</time>
      </trkpt>
      <trkpt lat="43.18249" lon="6.60213">
        <ele>20.7</ele>
        <time>2025-10-12T07:51:58.000Z</time>
      </trkpt>
      <trkpt lat="43.18249" lon="6.60213">
        <ele>20.7</ele>
        <time>2025-10-12T07:51:59.000Z</time>
      </trkpt>
      <trkpt lat="43.18249" lon="6.60213">
        <ele>20.7</ele>
        <time>2025-10-12T07:52:02.000Z</time>
      </trkpt>
      <trkpt lat="43.18249" lon="6.60213">
        <ele>20.7</ele>
        <time>2025-10-12T07:52:03.000Z</time>
      </trkpt>
      <trkpt lat="43.18249" lon="6.60214">
        <ele>20.6</ele>
        <time>2025-10-12T07:52:04.000Z</time>
      </trkpt>
      <trkpt lat="43.18242" lon="6.60221">
        <ele>20.8</ele>
        <time>2025-10-12T07:52:18.000Z</time>
      </trkpt>
      <trkpt lat="43.18235" lon="6.60227">
        <ele>22.2</ele>
        <time>2025-10-12T07:52:40.000Z</time>
      </trkpt>
      <trkpt lat="43.18235" lon="6.60227">
        <ele>22.3</ele>
        <time>2025-10-12T07:52:41.000Z</time>
      </trkpt>
      <trkpt lat="43.18235" lon="6.60227">
        <ele>22.6</ele>
        <time>2025-10-12T07:52:47.000Z</time>
      </trkpt>
      <trkpt lat="43.18235" lon="6.60227">
        <ele>22.6</ele>
        <time>2025-10-12T07:52:48.000Z</time>
      </trkpt>
      <trkpt lat="43.18235" lon="6.60227">
        <ele>22.7</ele>
        <time>2025-10-12T07:52:49.000Z</time>
      </trkpt>
      <trkpt lat="43.18235" lon="6.60227">
        <ele>22.7</ele>
        <time>2025-10-12T07:52:50.000Z</time>
      </trkpt>
      <trkpt lat="43.18235" lon="6.60227">
        <ele>22.7</ele>
        <time>2025-10-12T07:52:51.000Z</time>
      </trkpt>
      <trkpt lat="43.18233" lon="6.60227">
        <ele>23</ele>
        <time>2025-10-12T07:53:05.000Z</time>
      </trkpt>
      <trkpt lat="43.18232" lon="6.60227">
        <ele>23</ele>
        <time>2025-10-12T07:53:06.000Z</time>
      </trkpt>
      <trkpt lat="43.18225" lon="6.60236">
        <ele>23.8</ele>
        <time>2025-10-12T07:53:18.000Z</time>
      </trkpt>
      <trkpt lat="43.18217" lon="6.60242">
        <ele>25.5</ele>
        <time>2025-10-12T07:53:31.000Z</time>
      </trkpt>
      <trkpt lat="43.18207" lon="6.60241">
        <ele>26.1</ele>
        <time>2025-10-12T07:53:41.000Z</time>
      </trkpt>
      <trkpt lat="43.18206" lon="6.60239">
        <ele>26</ele>
        <time>2025-10-12T07:53:47.000Z</time>
      </trkpt>
      <trkpt lat="43.18206" lon="6.60239">
        <ele>26</ele>
        <time>2025-10-12T07:53:48.000Z</time>
      </trkpt>
      <trkpt lat="43.18206" lon="6.60239">
        <ele>26</ele>
        <time>2025-10-12T07:53:49.000Z</time>
      </trkpt>
      <trkpt lat="43.18206" lon="6.60239">
        <ele>26</ele>
        <time>2025-10-12T07:53:50.000Z</time>
      </trkpt>
      <trkpt lat="43.18205" lon="6.60238">
        <ele>26</ele>
        <time>2025-10-12T07:53:51.000Z</time>
      </trkpt>
      <trkpt lat="43.18205" lon="6.60238">
        <ele>26</ele>
        <time>2025-10-12T07:53:52.000Z</time>
      </trkpt>
      <trkpt lat="43.18205" lon="6.60237">
        <ele>25.8</ele>
        <time>2025-10-12T07:53:56.000Z</time>
      </trkpt>
      <trkpt lat="43.18205" lon="6.60237">
        <ele>25.7</ele>
        <time>2025-10-12T07:53:57.000Z</time>
      </trkpt>
      <trkpt lat="43.18204" lon="6.60237">
        <ele>25.7</ele>
        <time>2025-10-12T07:53:58.000Z</time>
      </trkpt>
      <trkpt lat="43.18204" lon="6.60236">
        <ele>25.6</ele>
        <time>2025-10-12T07:53:59.000Z</time>
      </trkpt>
      <trkpt lat="43.18204" lon="6.60225">
        <ele>22.9</ele>
        <time>2025-10-12T07:54:26.000Z</time>
      </trkpt>
      <trkpt lat="43.18204" lon="6.60225">
        <ele>22.8</ele>
        <time>2025-10-12T07:54:27.000Z</time>
      </trkpt>
      <trkpt lat="43.18204" lon="6.60225">
        <ele>22.8</ele>
        <time>2025-10-12T07:54:28.000Z</time>
      </trkpt>
      <trkpt lat="43.18204" lon="6.60225">
        <ele>22.7</ele>
        <time>2025-10-12T07:54:29.000Z</time>
      </trkpt>
      <trkpt lat="43.18204" lon="6.60225">
        <ele>22.6</ele>
        <time>2025-10-12T07:54:30.000Z</time>
      </trkpt>
      <trkpt lat="43.18204" lon="6.60225">
        <ele>22.6</ele>
        <time>2025-10-12T07:54:31.000Z</time>
      </trkpt>
      <trkpt lat="43.18203" lon="6.60225">
        <ele>22.5</ele>
        <time>2025-10-12T07:54:35.000Z</time>
      </trkpt>
      <trkpt lat="43.18204" lon="6.60225">
        <ele>22.5</ele>
        <time>2025-10-12T07:54:36.000Z</time>
      </trkpt>
      <trkpt lat="43.18204" lon="6.60225">
        <ele>22.5</ele>
        <time>2025-10-12T07:54:37.000Z</time>
      </trkpt>
      <trkpt lat="43.18196" lon="6.60222">
        <ele>20.3</ele>
        <time>2025-10-12T07:55:07.000Z</time>
      </trkpt>
      <trkpt lat="43.18196" lon="6.60222">
        <ele>20.2</ele>
        <time>2025-10-12T07:55:08.000Z</time>
      </trkpt>
      <trkpt lat="43.18196" lon="6.60222">
        <ele>20.1</ele>
        <time>2025-10-12T07:55:09.000Z</time>
      </trkpt>
      <trkpt lat="43.18196" lon="6.60221">
        <ele>20.1</ele>
        <time>2025-10-12T07:55:12.000Z</time>
      </trkpt>
      <trkpt lat="43.18195" lon="6.60221">
        <ele>20</ele>
        <time>2025-10-12T07:55:13.000Z</time>
      </trkpt>
      <trkpt lat="43.18195" lon="6.6022">
        <ele>20</ele>
        <time>2025-10-12T07:55:14.000Z</time>
      </trkpt>
      <trkpt lat="43.18191" lon="6.60231">
        <ele>19.9</ele>
        <time>2025-10-12T07:55:33.000Z</time>
      </trkpt>
      <trkpt lat="43.18184" lon="6.60241">
        <ele>20</ele>
        <time>2025-10-12T07:55:41.000Z</time>
      </trkpt>
      <trkpt lat="43.18178" lon="6.60251">
        <ele>20.2</ele>
        <time>2025-10-12T07:55:52.000Z</time>
      </trkpt>
      <trkpt lat="43.18169" lon="6.60247">
        <ele>20.4</ele>
        <time>2025-10-12T07:56:05.000Z</time>
      </trkpt>
      <trkpt lat="43.18162" lon="6.60239">
        <ele>20.6</ele>
        <time>2025-10-12T07:56:14.000Z</time>
      </trkpt>
      <trkpt lat="43.18153" lon="6.60238">
        <ele>20.8</ele>
        <time>2025-10-12T07:56:28.000Z</time>
      </trkpt>
      <trkpt lat="43.1815" lon="6.60239">
        <ele>21.1</ele>
        <time>2025-10-12T07:56:37.000Z</time>
      </trkpt>
      <trkpt lat="43.1815" lon="6.60239">
        <ele>21.1</ele>
        <time>2025-10-12T07:56:38.000Z</time>
      </trkpt>
      <trkpt lat="43.1815" lon="6.60239">
        <ele>21.1</ele>
        <time>2025-10-12T07:56:39.000Z</time>
      </trkpt>
      <trkpt lat="43.1815" lon="6.60239">
        <ele>21.2</ele>
        <time>2025-10-12T07:56:42.000Z</time>
      </trkpt>
      <trkpt lat="43.18149" lon="6.6024">
        <ele>21.3</ele>
        <time>2025-10-12T07:56:43.000Z</time>
      </trkpt>
      <trkpt lat="43.18149" lon="6.60241">
        <ele>21.3</ele>
        <time>2025-10-12T07:56:44.000Z</time>
      </trkpt>
      <trkpt lat="43.18142" lon="6.6025">
        <ele>21.8</ele>
        <time>2025-10-12T07:56:58.000Z</time>
      </trkpt>
      <trkpt lat="43.18135" lon="6.60257">
        <ele>21.6</ele>
        <time>2025-10-12T07:57:07.000Z</time>
      </trkpt>
      <trkpt lat="43.18126" lon="6.60262">
        <ele>21.9</ele>
        <time>2025-10-12T07:57:20.000Z</time>
      </trkpt>
      <trkpt lat="43.18117" lon="6.60267">
        <ele>21.9</ele>
        <time>2025-10-12T07:57:31.000Z</time>
      </trkpt>
      <trkpt lat="43.18109" lon="6.60275">
        <ele>21.6</ele>
        <time>2025-10-12T07:57:40.000Z</time>
      </trkpt>
      <trkpt lat="43.181" lon="6.60278">
        <ele>21.5</ele>
        <time>2025-10-12T07:57:53.000Z</time>
      </trkpt>
      <trkpt lat="43.18091" lon="6.6028">
        <ele>21.2</ele>
        <time>2025-10-12T07:58:02.000Z</time>
      </trkpt>
      <trkpt lat="43.18084" lon="6.60289">
        <ele>21.3</ele>
        <time>2025-10-12T07:58:14.000Z</time>
      </trkpt>
      <trkpt lat="43.18082" lon="6.60293">
        <ele>21.4</ele>
        <time>2025-10-12T07:58:26.000Z</time>
      </trkpt>
      <trkpt lat="43.18082" lon="6.60293">
        <ele>21.4</ele>
        <time>2025-10-12T07:58:27.000Z</time>
      </trkpt>
      <trkpt lat="43.18082" lon="6.60293">
        <ele>21.4</ele>
        <time>2025-10-12T07:58:31.000Z</time>
      </trkpt>
      <trkpt lat="43.18082" lon="6.60293">
        <ele>21.3</ele>
        <time>2025-10-12T07:58:32.000Z</time>
      </trkpt>
      <trkpt lat="43.18082" lon="6.60293">
        <ele>21.3</ele>
        <time>2025-10-12T07:58:35.000Z</time>
      </trkpt>
      <trkpt lat="43.18082" lon="6.60293">
        <ele>21.3</ele>
        <time>2025-10-12T07:58:36.000Z</time>
      </trkpt>
      <trkpt lat="43.18081" lon="6.60293">
        <ele>21.3</ele>
        <time>2025-10-12T07:58:40.000Z</time>
      </trkpt>
      <trkpt lat="43.18081" lon="6.60293">
        <ele>21.3</ele>
        <time>2025-10-12T07:58:41.000Z</time>
      </trkpt>
      <trkpt lat="43.1808" lon="6.60293">
        <ele>21.3</ele>
        <time>2025-10-12T07:58:42.000Z</time>
      </trkpt>
      <trkpt lat="43.18079" lon="6.60294">
        <ele>21.2</ele>
        <time>2025-10-12T07:58:50.000Z</time>
      </trkpt>
      <trkpt lat="43.18079" lon="6.60294">
        <ele>21.2</ele>
        <time>2025-10-12T07:58:51.000Z</time>
      </trkpt>
      <trkpt lat="43.18079" lon="6.60294">
        <ele>21.1</ele>
        <time>2025-10-12T07:59:02.000Z</time>
      </trkpt>
      <trkpt lat="43.18079" lon="6.60294">
        <ele>21.1</ele>
        <time>2025-10-12T07:59:03.000Z</time>
      </trkpt>
      <trkpt lat="43.18079" lon="6.60294">
        <ele>21.1</ele>
        <time>2025-10-12T07:59:04.000Z</time>
      </trkpt>
      <trkpt lat="43.18079" lon="6.60294">
        <ele>21.1</ele>
        <time>2025-10-12T07:59:05.000Z</time>
      </trkpt>
      <trkpt lat="43.18079" lon="6.60294">
        <ele>21.1</ele>
        <time>2025-10-12T07:59:06.000Z</time>
      </trkpt>
      <trkpt lat="43.18079" lon="6.60294">
        <ele>21.1</ele>
        <time>2025-10-12T07:59:07.000Z</time>
      </trkpt>
      <trkpt lat="43.18079" lon="6.60294">
        <ele>21.1</ele>
        <time>2025-10-12T07:59:18.000Z</time>
      </trkpt>
      <trkpt lat="43.18079" lon="6.60293">
        <ele>21.1</ele>
        <time>2025-10-12T07:59:19.000Z</time>
      </trkpt>
      <trkpt lat="43.18069" lon="6.60294">
        <ele>19.9</ele>
        <time>2025-10-12T07:59:37.000Z</time>
      </trkpt>
      <trkpt lat="43.1806" lon="6.60296">
        <ele>18.2</ele>
        <time>2025-10-12T07:59:50.000Z</time>
      </trkpt>
      <trkpt lat="43.18055" lon="6.60304">
        <ele>17.8</ele>
        <time>2025-10-12T08:00:05.000Z</time>
      </trkpt>
      <trkpt lat="43.18055" lon="6.60304">
        <ele>17.8</ele>
        <time>2025-10-12T08:00:06.000Z</time>
      </trkpt>
      <trkpt lat="43.18055" lon="6.60304">
        <ele>17.8</ele>
        <time>2025-10-12T08:00:07.000Z</time>
      </trkpt>
      <trkpt lat="43.18054" lon="6.60305">
        <ele>17.9</ele>
        <time>2025-10-12T08:00:35.000Z</time>
      </trkpt>
      <trkpt lat="43.18054" lon="6.60305">
        <ele>17.9</ele>
        <time>2025-10-12T08:00:36.000Z</time>
      </trkpt>
      <trkpt lat="43.18046" lon="6.6031">
        <ele>19.6</ele>
        <time>2025-10-12T08:00:57.000Z</time>
      </trkpt>
      <trkpt lat="43.18037" lon="6.60305">
        <ele>21.5</ele>
        <time>2025-10-12T08:01:12.000Z</time>
      </trkpt>
      <trkpt lat="43.18028" lon="6.60304">
        <ele>22.2</ele>
        <time>2025-10-12T08:01:23.000Z</time>
      </trkpt>
      <trkpt lat="43.18019" lon="6.60306">
        <ele>23.7</ele>
        <time>2025-10-12T08:01:40.000Z</time>
      </trkpt>
      <trkpt lat="43.18014" lon="6.60295">
        <ele>25.3</ele>
        <time>2025-10-12T08:01:50.000Z</time>
      </trkpt>
      <trkpt lat="43.18006" lon="6.60288">
        <ele>25.9</ele>
        <time>2025-10-12T08:01:59.000Z</time>
      </trkpt>
      <trkpt lat="43.17997" lon="6.60286">
        <ele>26.4</ele>
        <time>2025-10-12T08:02:10.000Z</time>
      </trkpt>
      <trkpt lat="43.17988" lon="6.60281">
        <ele>27</ele>
        <time>2025-10-12T08:02:21.000Z</time>
      </trkpt>
      <trkpt lat="43.1798" lon="6.60288">
        <ele>28.2</ele>
        <time>2025-10-12T08:02:37.000Z</time>
      </trkpt>
      <trkpt lat="43.17974" lon="6.60288">
        <ele>29.2</ele>
        <time>2025-10-12T08:02:48.000Z</time>
      </trkpt>
      <trkpt lat="43.17974" lon="6.60288">
        <ele>29.2</ele>
        <time>2025-10-12T08:02:49.000Z</time>
      </trkpt>
      <trkpt lat="43.17974" lon="6.60288">
        <ele>29.2</ele>
        <time>2025-10-12T08:02:50.000Z</time>
      </trkpt>
      <trkpt lat="43.17974" lon="6.60288">
        <ele>29.3</ele>
        <time>2025-10-12T08:02:53.000Z</time>
      </trkpt>
      <trkpt lat="43.17974" lon="6.60288">
        <ele>29.3</ele>
        <time>2025-10-12T08:02:54.000Z</time>
      </trkpt>
      <trkpt lat="43.17973" lon="6.60288">
        <ele>29.3</ele>
        <time>2025-10-12T08:02:55.000Z</time>
      </trkpt>
      <trkpt lat="43.17964" lon="6.60291">
        <ele>29.5</ele>
        <time>2025-10-12T08:03:04.000Z</time>
      </trkpt>
      <trkpt lat="43.17955" lon="6.60293">
        <ele>30</ele>
        <time>2025-10-12T08:03:15.000Z</time>
      </trkpt>
      <trkpt lat="43.17948" lon="6.60289">
        <ele>30.3</ele>
        <time>2025-10-12T08:03:30.000Z</time>
      </trkpt>
      <trkpt lat="43.17948" lon="6.60289">
        <ele>30.4</ele>
        <time>2025-10-12T08:03:31.000Z</time>
      </trkpt>
      <trkpt lat="43.17948" lon="6.60289">
        <ele>30.4</ele>
        <time>2025-10-12T08:03:32.000Z</time>
      </trkpt>
      <trkpt lat="43.17947" lon="6.6029">
        <ele>30.4</ele>
        <time>2025-10-12T08:03:35.000Z</time>
      </trkpt>
      <trkpt lat="43.17947" lon="6.60289">
        <ele>30.4</ele>
        <time>2025-10-12T08:03:36.000Z</time>
      </trkpt>
      <trkpt lat="43.17945" lon="6.60289">
        <ele>30.4</ele>
        <time>2025-10-12T08:03:42.000Z</time>
      </trkpt>
      <trkpt lat="43.17945" lon="6.60289">
        <ele>30.4</ele>
        <time>2025-10-12T08:03:43.000Z</time>
      </trkpt>
      <trkpt lat="43.17945" lon="6.60289">
        <ele>30.4</ele>
        <time>2025-10-12T08:03:44.000Z</time>
      </trkpt>
      <trkpt lat="43.17944" lon="6.6029">
        <ele>30.4</ele>
        <time>2025-10-12T08:03:48.000Z</time>
      </trkpt>
      <trkpt lat="43.17943" lon="6.6029">
        <ele>30.4</ele>
        <time>2025-10-12T08:03:49.000Z</time>
      </trkpt>
      <trkpt lat="43.17942" lon="6.60289">
        <ele>30.4</ele>
        <time>2025-10-12T08:03:57.000Z</time>
      </trkpt>
      <trkpt lat="43.17942" lon="6.60289">
        <ele>30.4</ele>
        <time>2025-10-12T08:03:58.000Z</time>
      </trkpt>
      <trkpt lat="43.17942" lon="6.60289">
        <ele>30.4</ele>
        <time>2025-10-12T08:03:59.000Z</time>
      </trkpt>
      <trkpt lat="43.17941" lon="6.60289">
        <ele>30.4</ele>
        <time>2025-10-12T08:04:02.000Z</time>
      </trkpt>
      <trkpt lat="43.17941" lon="6.6029">
        <ele>30.4</ele>
        <time>2025-10-12T08:04:03.000Z</time>
      </trkpt>
      <trkpt lat="43.1794" lon="6.6029">
        <ele>30.4</ele>
        <time>2025-10-12T08:04:04.000Z</time>
      </trkpt>
      <trkpt lat="43.17934" lon="6.60293">
        <ele>30.4</ele>
        <time>2025-10-12T08:04:15.000Z</time>
      </trkpt>
      <trkpt lat="43.17934" lon="6.60293">
        <ele>30.4</ele>
        <time>2025-10-12T08:04:16.000Z</time>
      </trkpt>
      <trkpt lat="43.17933" lon="6.60293">
        <ele>30.5</ele>
        <time>2025-10-12T08:04:32.000Z</time>
      </trkpt>
      <trkpt lat="43.17933" lon="6.60293">
        <ele>30.5</ele>
        <time>2025-10-12T08:04:33.000Z</time>
      </trkpt>
      <trkpt lat="43.17933" lon="6.60293">
        <ele>30.5</ele>
        <time>2025-10-12T08:04:34.000Z</time>
      </trkpt>
      <trkpt lat="43.17924" lon="6.60299">
        <ele>30.5</ele>
        <time>2025-10-12T08:04:50.000Z</time>
      </trkpt>
      <trkpt lat="43.17921" lon="6.60298">
        <ele>30.9</ele>
        <time>2025-10-12T08:05:05.000Z</time>
      </trkpt>
      <trkpt lat="43.1792" lon="6.60298">
        <ele>30.8</ele>
        <time>2025-10-12T08:05:06.000Z</time>
      </trkpt>
      <trkpt lat="43.1792" lon="6.60298">
        <ele>30.8</ele>
        <time>2025-10-12T08:05:07.000Z</time>
      </trkpt>
      <trkpt lat="43.17919" lon="6.60298">
        <ele>30.8</ele>
        <time>2025-10-12T08:05:08.000Z</time>
      </trkpt>
      <trkpt lat="43.17918" lon="6.60297">
        <ele>30.8</ele>
        <time>2025-10-12T08:05:09.000Z</time>
      </trkpt>
      <trkpt lat="43.17917" lon="6.60297">
        <ele>30.8</ele>
        <time>2025-10-12T08:05:15.000Z</time>
      </trkpt>
      <trkpt lat="43.17917" lon="6.60297">
        <ele>30.8</ele>
        <time>2025-10-12T08:05:16.000Z</time>
      </trkpt>
      <trkpt lat="43.17915" lon="6.60296">
        <ele>30.8</ele>
        <time>2025-10-12T08:05:50.000Z</time>
      </trkpt>
      <trkpt lat="43.17914" lon="6.60295">
        <ele>30.8</ele>
        <time>2025-10-12T08:05:51.000Z</time>
      </trkpt>
      <trkpt lat="43.17906" lon="6.60297">
        <ele>30.6</ele>
        <time>2025-10-12T08:06:05.000Z</time>
      </trkpt>
      <trkpt lat="43.17906" lon="6.60297">
        <ele>30.6</ele>
        <time>2025-10-12T08:06:06.000Z</time>
      </trkpt>
      <trkpt lat="43.17905" lon="6.60298">
        <ele>30.2</ele>
        <time>2025-10-12T08:06:25.000Z</time>
      </trkpt>
      <trkpt lat="43.17904" lon="6.60298">
        <ele>30.2</ele>
        <time>2025-10-12T08:06:26.000Z</time>
      </trkpt>
      <trkpt lat="43.17898" lon="6.60308">
        <ele>30.4</ele>
        <time>2025-10-12T08:06:37.000Z</time>
      </trkpt>
      <trkpt lat="43.17893" lon="6.60318">
        <ele>30.7</ele>
        <time>2025-10-12T08:06:48.000Z</time>
      </trkpt>
      <trkpt lat="43.17889" lon="6.60329">
        <ele>31.3</ele>
        <time>2025-10-12T08:07:01.000Z</time>
      </trkpt>
      <trkpt lat="43.1788" lon="6.60334">
        <ele>33</ele>
        <time>2025-10-12T08:07:12.000Z</time>
      </trkpt>
      <trkpt lat="43.17871" lon="6.60338">
        <ele>34.1</ele>
        <time>2025-10-12T08:07:24.000Z</time>
      </trkpt>
      <trkpt lat="43.17862" lon="6.60342">
        <ele>35</ele>
        <time>2025-10-12T08:07:41.000Z</time>
      </trkpt>
      <trkpt lat="43.17855" lon="6.60349">
        <ele>35.6</ele>
        <time>2025-10-12T08:08:05.000Z</time>
      </trkpt>
      <trkpt lat="43.17855" lon="6.60349">
        <ele>35.6</ele>
        <time>2025-10-12T08:08:06.000Z</time>
      </trkpt>
      <trkpt lat="43.17854" lon="6.6035">
        <ele>35.6</ele>
        <time>2025-10-12T08:08:17.000Z</time>
      </trkpt>
      <trkpt lat="43.17854" lon="6.60351">
        <ele>35.6</ele>
        <time>2025-10-12T08:08:18.000Z</time>
      </trkpt>
      <trkpt lat="43.17853" lon="6.60353">
        <ele>35.6</ele>
        <time>2025-10-12T08:08:19.000Z</time>
      </trkpt>
      <trkpt lat="43.17848" lon="6.60363">
        <ele>35.4</ele>
        <time>2025-10-12T08:08:33.000Z</time>
      </trkpt>
      <trkpt lat="43.17844" lon="6.60374">
        <ele>34.6</ele>
        <time>2025-10-12T08:08:47.000Z</time>
      </trkpt>
      <trkpt lat="43.17836" lon="6.6038">
        <ele>33.7</ele>
        <time>2025-10-12T08:09:00.000Z</time>
      </trkpt>
      <trkpt lat="43.17828" lon="6.60374">
        <ele>33.2</ele>
        <time>2025-10-12T08:09:10.000Z</time>
      </trkpt>
      <trkpt lat="43.17818" lon="6.60375">
        <ele>32.7</ele>
        <time>2025-10-12T08:09:22.000Z</time>
      </trkpt>
      <trkpt lat="43.17809" lon="6.60376">
        <ele>31.7</ele>
        <time>2025-10-12T08:09:34.000Z</time>
      </trkpt>
      <trkpt lat="43.17799" lon="6.60378">
        <ele>30.9</ele>
        <time>2025-10-12T08:09:45.000Z</time>
      </trkpt>
      <trkpt lat="43.1779" lon="6.60381">
        <ele>30</ele>
        <time>2025-10-12T08:09:59.000Z</time>
      </trkpt>
      <trkpt lat="43.17782" lon="6.60386">
        <ele>29.5</ele>
        <time>2025-10-12T08:10:09.000Z</time>
      </trkpt>
      <trkpt lat="43.17774" lon="6.60394">
        <ele>29.2</ele>
        <time>2025-10-12T08:10:24.000Z</time>
      </trkpt>
      <trkpt lat="43.17768" lon="6.60397">
        <ele>28.9</ele>
        <time>2025-10-12T08:10:36.000Z</time>
      </trkpt>
      <trkpt lat="43.17768" lon="6.60397">
        <ele>28.8</ele>
        <time>2025-10-12T08:10:37.000Z</time>
      </trkpt>
      <trkpt lat="43.17768" lon="6.60396">
        <ele>28.7</ele>
        <time>2025-10-12T08:10:50.000Z</time>
      </trkpt>
      <trkpt lat="43.17768" lon="6.60396">
        <ele>28.6</ele>
        <time>2025-10-12T08:10:51.000Z</time>
      </trkpt>
      <trkpt lat="43.17768" lon="6.60396">
        <ele>28.6</ele>
        <time>2025-10-12T08:10:52.000Z</time>
      </trkpt>
      <trkpt lat="43.17768" lon="6.60396">
        <ele>28.6</ele>
        <time>2025-10-12T08:10:53.000Z</time>
      </trkpt>
      <trkpt lat="43.17768" lon="6.60396">
        <ele>28.6</ele>
        <time>2025-10-12T08:10:54.000Z</time>
      </trkpt>
      <trkpt lat="43.17767" lon="6.60397">
        <ele>28.4</ele>
        <time>2025-10-12T08:11:41.000Z</time>
      </trkpt>
      <trkpt lat="43.17766" lon="6.60397">
        <ele>28.4</ele>
        <time>2025-10-12T08:11:42.000Z</time>
      </trkpt>
      <trkpt lat="43.17758" lon="6.60403">
        <ele>28.3</ele>
        <time>2025-10-12T08:11:51.000Z</time>
      </trkpt>
      <trkpt lat="43.17752" lon="6.60412">
        <ele>28.1</ele>
        <time>2025-10-12T08:12:03.000Z</time>
      </trkpt>
      <trkpt lat="43.17748" lon="6.60424">
        <ele>28.1</ele>
        <time>2025-10-12T08:12:13.000Z</time>
      </trkpt>
      <trkpt lat="43.17738" lon="6.60427">
        <ele>28.1</ele>
        <time>2025-10-12T08:12:24.000Z</time>
      </trkpt>
      <trkpt lat="43.17729" lon="6.60421">
        <ele>28.3</ele>
        <time>2025-10-12T08:12:35.000Z</time>
      </trkpt>
      <trkpt lat="43.17722" lon="6.60412">
        <ele>28.3</ele>
        <time>2025-10-12T08:12:43.000Z</time>
      </trkpt>
      <trkpt lat="43.17714" lon="6.60405">
        <ele>28.2</ele>
        <time>2025-10-12T08:12:52.000Z</time>
      </trkpt>
      <trkpt lat="43.17709" lon="6.60404">
        <ele>28</ele>
        <time>2025-10-12T08:12:58.000Z</time>
      </trkpt>
      <trkpt lat="43.17708" lon="6.60404">
        <ele>28</ele>
        <time>2025-10-12T08:12:59.000Z</time>
      </trkpt>
      <trkpt lat="43.17707" lon="6.60405">
        <ele>28</ele>
        <time>2025-10-12T08:13:00.000Z</time>
      </trkpt>
      <trkpt lat="43.17706" lon="6.60405">
        <ele>27.9</ele>
        <time>2025-10-12T08:13:01.000Z</time>
      </trkpt>
      <trkpt lat="43.17706" lon="6.60405">
        <ele>27.9</ele>
        <time>2025-10-12T08:13:02.000Z</time>
      </trkpt>
      <trkpt lat="43.17697" lon="6.60409">
        <ele>27.3</ele>
        <time>2025-10-12T08:13:12.000Z</time>
      </trkpt>
      <trkpt lat="43.17691" lon="6.60419">
        <ele>26.5</ele>
        <time>2025-10-12T08:13:21.000Z</time>
      </trkpt>
      <trkpt lat="43.17686" lon="6.6043">
        <ele>26.1</ele>
        <time>2025-10-12T08:13:28.000Z</time>
      </trkpt>
      <trkpt lat="43.1768" lon="6.6044">
        <ele>25.5</ele>
        <time>2025-10-12T08:13:39.000Z</time>
      </trkpt>
      <trkpt lat="43.17671" lon="6.60442">
        <ele>23.1</ele>
        <time>2025-10-12T08:13:56.000Z</time>
      </trkpt>
      <trkpt lat="43.17663" lon="6.6045">
        <ele>20.5</ele>
        <time>2025-10-12T08:14:10.000Z</time>
      </trkpt>
      <trkpt lat="43.17654" lon="6.60451">
        <ele>20</ele>
        <time>2025-10-12T08:14:28.000Z</time>
      </trkpt>
      <trkpt lat="43.17644" lon="6.60449">
        <ele>19.7</ele>
        <time>2025-10-12T08:14:40.000Z</time>
      </trkpt>
      <trkpt lat="43.17636" lon="6.60444">
        <ele>19.9</ele>
        <time>2025-10-12T08:14:52.000Z</time>
      </trkpt>
      <trkpt lat="43.17626" lon="6.60444">
        <ele>20.8</ele>
        <time>2025-10-12T08:15:07.000Z</time>
      </trkpt>
      <trkpt lat="43.17618" lon="6.60449">
        <ele>21.4</ele>
        <time>2025-10-12T08:15:17.000Z</time>
      </trkpt>
      <trkpt lat="43.17609" lon="6.60452">
        <ele>21.8</ele>
        <time>2025-10-12T08:15:28.000Z</time>
      </trkpt>
      <trkpt lat="43.176" lon="6.60458">
        <ele>22.9</ele>
        <time>2025-10-12T08:15:45.000Z</time>
      </trkpt>
      <trkpt lat="43.17591" lon="6.60459">
        <ele>23.7</ele>
        <time>2025-10-12T08:15:58.000Z</time>
      </trkpt>
      <trkpt lat="43.17581" lon="6.60458">
        <ele>22.3</ele>
        <time>2025-10-12T08:16:14.000Z</time>
      </trkpt>
      <trkpt lat="43.17572" lon="6.6046">
        <ele>21.7</ele>
        <time>2025-10-12T08:16:24.000Z</time>
      </trkpt>
      <trkpt lat="43.17565" lon="6.60468">
        <ele>21.3</ele>
        <time>2025-10-12T08:16:39.000Z</time>
      </trkpt>
      <trkpt lat="43.17558" lon="6.60477">
        <ele>21.5</ele>
        <time>2025-10-12T08:16:53.000Z</time>
      </trkpt>
      <trkpt lat="43.1755" lon="6.60471">
        <ele>21.5</ele>
        <time>2025-10-12T08:17:09.000Z</time>
      </trkpt>
      <trkpt lat="43.17541" lon="6.60467">
        <ele>20.9</ele>
        <time>2025-10-12T08:17:27.000Z</time>
      </trkpt>
      <trkpt lat="43.17533" lon="6.60459">
        <ele>20.2</ele>
        <time>2025-10-12T08:17:42.000Z</time>
      </trkpt>
      <trkpt lat="43.17531" lon="6.60447">
        <ele>19.3</ele>
        <time>2025-10-12T08:17:56.000Z</time>
      </trkpt>
      <trkpt lat="43.17523" lon="6.6044">
        <ele>18.6</ele>
        <time>2025-10-12T08:18:07.000Z</time>
      </trkpt>
      <trkpt lat="43.17518" lon="6.60429">
        <ele>19.2</ele>
        <time>2025-10-12T08:18:23.000Z</time>
      </trkpt>
      <trkpt lat="43.17509" lon="6.6043">
        <ele>21.6</ele>
        <time>2025-10-12T08:18:44.000Z</time>
      </trkpt>
      <trkpt lat="43.17501" lon="6.60434">
        <ele>24.2</ele>
        <time>2025-10-12T08:19:04.000Z</time>
      </trkpt>
      <trkpt lat="43.17494" lon="6.60425">
        <ele>25.9</ele>
        <time>2025-10-12T08:19:26.000Z</time>
      </trkpt>
      <trkpt lat="43.17494" lon="6.60413">
        <ele>25.3</ele>
        <time>2025-10-12T08:19:36.000Z</time>
      </trkpt>
      <trkpt lat="43.17493" lon="6.604">
        <ele>24</ele>
        <time>2025-10-12T08:19:48.000Z</time>
      </trkpt>
      <trkpt lat="43.17497" lon="6.60388">
        <ele>19.3</ele>
        <time>2025-10-12T08:20:14.000Z</time>
      </trkpt>
      <trkpt lat="43.17496" lon="6.60379">
        <ele>18.4</ele>
        <time>2025-10-12T08:20:33.000Z</time>
      </trkpt>
      <trkpt lat="43.17496" lon="6.60379">
        <ele>18.4</ele>
        <time>2025-10-12T08:20:34.000Z</time>
      </trkpt>
      <trkpt lat="43.17496" lon="6.60379">
        <ele>18.4</ele>
        <time>2025-10-12T08:20:35.000Z</time>
      </trkpt>
      <trkpt lat="43.17496" lon="6.60379">
        <ele>18.4</ele>
        <time>2025-10-12T08:20:36.000Z</time>
      </trkpt>
      <trkpt lat="43.17495" lon="6.60378">
        <ele>18.4</ele>
        <time>2025-10-12T08:20:37.000Z</time>
      </trkpt>
      <trkpt lat="43.1749" lon="6.60367">
        <ele>18.4</ele>
        <time>2025-10-12T08:20:46.000Z</time>
      </trkpt>
      <trkpt lat="43.17487" lon="6.60355">
        <ele>18.4</ele>
        <time>2025-10-12T08:20:54.000Z</time>
      </trkpt>
      <trkpt lat="43.17485" lon="6.60342">
        <ele>18.5</ele>
        <time>2025-10-12T08:21:05.000Z</time>
      </trkpt>
      <trkpt lat="43.17485" lon="6.6033">
        <ele>18.8</ele>
        <time>2025-10-12T08:21:17.000Z</time>
      </trkpt>
      <trkpt lat="43.17481" lon="6.60317">
        <ele>19.5</ele>
        <time>2025-10-12T08:21:32.000Z</time>
      </trkpt>
      <trkpt lat="43.17474" lon="6.60308">
        <ele>19.8</ele>
        <time>2025-10-12T08:21:42.000Z</time>
      </trkpt>
      <trkpt lat="43.17465" lon="6.60308">
        <ele>20.4</ele>
        <time>2025-10-12T08:21:54.000Z</time>
      </trkpt>
      <trkpt lat="43.17455" lon="6.60303">
        <ele>22.1</ele>
        <time>2025-10-12T08:22:13.000Z</time>
      </trkpt>
      <trkpt lat="43.17447" lon="6.60308">
        <ele>24.4</ele>
        <time>2025-10-12T08:22:32.000Z</time>
      </trkpt>
      <trkpt lat="43.17444" lon="6.6031">
        <ele>25.4</ele>
        <time>2025-10-12T08:22:41.000Z</time>
      </trkpt>
      <trkpt lat="43.17444" lon="6.6031">
        <ele>25.4</ele>
        <time>2025-10-12T08:22:42.000Z</time>
      </trkpt>
      <trkpt lat="43.17444" lon="6.60311">
        <ele>25.5</ele>
        <time>2025-10-12T08:22:43.000Z</time>
      </trkpt>
      <trkpt lat="43.17443" lon="6.60311">
        <ele>25.6</ele>
        <time>2025-10-12T08:22:44.000Z</time>
      </trkpt>
      <trkpt lat="43.17436" lon="6.60319">
        <ele>27.5</ele>
        <time>2025-10-12T08:23:04.000Z</time>
      </trkpt>
      <trkpt lat="43.17426" lon="6.60319">
        <ele>28.3</ele>
        <time>2025-10-12T08:23:15.000Z</time>
      </trkpt>
      <trkpt lat="43.17418" lon="6.60325">
        <ele>28.7</ele>
        <time>2025-10-12T08:23:29.000Z</time>
      </trkpt>
      <trkpt lat="43.17413" lon="6.60336">
        <ele>28.9</ele>
        <time>2025-10-12T08:23:41.000Z</time>
      </trkpt>
      <trkpt lat="43.17406" lon="6.60345">
        <ele>29.2</ele>
        <time>2025-10-12T08:23:55.000Z</time>
      </trkpt>
      <trkpt lat="43.17406" lon="6.60357">
        <ele>28.7</ele>
        <time>2025-10-12T08:24:05.000Z</time>
      </trkpt>
      <trkpt lat="43.17405" lon="6.60371">
        <ele>28.4</ele>
        <time>2025-10-12T08:24:15.000Z</time>
      </trkpt>
      <trkpt lat="43.17401" lon="6.60382">
        <ele>28.4</ele>
        <time>2025-10-12T08:24:33.000Z</time>
      </trkpt>
      <trkpt lat="43.17399" lon="6.60395">
        <ele>28.3</ele>
        <time>2025-10-12T08:24:44.000Z</time>
      </trkpt>
      <trkpt lat="43.17396" lon="6.60407">
        <ele>28.2</ele>
        <time>2025-10-12T08:24:53.000Z</time>
      </trkpt>
      <trkpt lat="43.17393" lon="6.60419">
        <ele>30.2</ele>
        <time>2025-10-12T08:25:18.000Z</time>
      </trkpt>
      <trkpt lat="43.1739" lon="6.60431">
        <ele>31.1</ele>
        <time>2025-10-12T08:25:30.000Z</time>
      </trkpt>
      <trkpt lat="43.17391" lon="6.60443">
        <ele>26.9</ele>
        <time>2025-10-12T08:26:15.000Z</time>
      </trkpt>
      <trkpt lat="43.17388" lon="6.60455">
        <ele>25.1</ele>
        <time>2025-10-12T08:26:31.000Z</time>
      </trkpt>
      <trkpt lat="43.17385" lon="6.60468">
        <ele>23.2</ele>
        <time>2025-10-12T08:26:45.000Z</time>
      </trkpt>
      <trkpt lat="43.17385" lon="6.60481">
        <ele>22.5</ele>
        <time>2025-10-12T08:26:57.000Z</time>
      </trkpt>
      <trkpt lat="43.17385" lon="6.60494">
        <ele>22.1</ele>
        <time>2025-10-12T08:27:06.000Z</time>
      </trkpt>
      <trkpt lat="43.1739" lon="6.60505">
        <ele>22.4</ele>
        <time>2025-10-12T08:27:18.000Z</time>
      </trkpt>
      <trkpt lat="43.17387" lon="6.60517">
        <ele>22.8</ele>
        <time>2025-10-12T08:27:32.000Z</time>
      </trkpt>
      <trkpt lat="43.17383" lon="6.6053">
        <ele>22.8</ele>
        <time>2025-10-12T08:27:42.000Z</time>
      </trkpt>
      <trkpt lat="43.1738" lon="6.60543">
        <ele>22.9</ele>
        <time>2025-10-12T08:27:52.000Z</time>
      </trkpt>
      <trkpt lat="43.17379" lon="6.60555">
        <ele>23.1</ele>
        <time>2025-10-12T08:28:04.000Z</time>
      </trkpt>
      <trkpt lat="43.17375" lon="6.60567">
        <ele>22.7</ele>
        <time>2025-10-12T08:28:21.000Z</time>
      </trkpt>
      <trkpt lat="43.17374" lon="6.6058">
        <ele>22</ele>
        <time>2025-10-12T08:28:30.000Z</time>
      </trkpt>
      <trkpt lat="43.17373" lon="6.60592">
        <ele>21.4</ele>
        <time>2025-10-12T08:28:42.000Z</time>
      </trkpt>
      <trkpt lat="43.17373" lon="6.60605">
        <ele>21.3</ele>
        <time>2025-10-12T08:29:01.000Z</time>
      </trkpt>
      <trkpt lat="43.17381" lon="6.60612">
        <ele>25.9</ele>
        <time>2025-10-12T08:29:38.000Z</time>
      </trkpt>
      <trkpt lat="43.17381" lon="6.60614">
        <ele>27.4</ele>
        <time>2025-10-12T08:29:53.000Z</time>
      </trkpt>
      <trkpt lat="43.1738" lon="6.60614">
        <ele>27.4</ele>
        <time>2025-10-12T08:29:54.000Z</time>
      </trkpt>
      <trkpt lat="43.1738" lon="6.60614">
        <ele>27.5</ele>
        <time>2025-10-12T08:29:55.000Z</time>
      </trkpt>
      <trkpt lat="43.1738" lon="6.60614">
        <ele>27.5</ele>
        <time>2025-10-12T08:29:56.000Z</time>
      </trkpt>
      <trkpt lat="43.1738" lon="6.60615">
        <ele>27.5</ele>
        <time>2025-10-12T08:29:57.000Z</time>
      </trkpt>
      <trkpt lat="43.1738" lon="6.60615">
        <ele>27.6</ele>
        <time>2025-10-12T08:30:01.000Z</time>
      </trkpt>
      <trkpt lat="43.17381" lon="6.60615">
        <ele>27.7</ele>
        <time>2025-10-12T08:30:02.000Z</time>
      </trkpt>
      <trkpt lat="43.17381" lon="6.60616">
        <ele>28</ele>
        <time>2025-10-12T08:30:06.000Z</time>
      </trkpt>
      <trkpt lat="43.17381" lon="6.60617">
        <ele>28</ele>
        <time>2025-10-12T08:30:07.000Z</time>
      </trkpt>
      <trkpt lat="43.17375" lon="6.60626">
        <ele>30</ele>
        <time>2025-10-12T08:30:37.000Z</time>
      </trkpt>
      <trkpt lat="43.17369" lon="6.60636">
        <ele>25.4</ele>
        <time>2025-10-12T08:31:12.000Z</time>
      </trkpt>
      <trkpt lat="43.17363" lon="6.60647">
        <ele>23.6</ele>
        <time>2025-10-12T08:31:26.000Z</time>
      </trkpt>
      <trkpt lat="43.1736" lon="6.60659">
        <ele>22.8</ele>
        <time>2025-10-12T08:31:38.000Z</time>
      </trkpt>
      <trkpt lat="43.17365" lon="6.6067">
        <ele>22.4</ele>
        <time>2025-10-12T08:31:51.000Z</time>
      </trkpt>
      <trkpt lat="43.17359" lon="6.60679">
        <ele>21.3</ele>
        <time>2025-10-12T08:32:07.000Z</time>
      </trkpt>
      <trkpt lat="43.17357" lon="6.60693">
        <ele>20.7</ele>
        <time>2025-10-12T08:32:15.000Z</time>
      </trkpt>
      <trkpt lat="43.17358" lon="6.60705">
        <ele>20.2</ele>
        <time>2025-10-12T08:32:24.000Z</time>
      </trkpt>
      <trkpt lat="43.17354" lon="6.60717">
        <ele>19.9</ele>
        <time>2025-10-12T08:32:41.000Z</time>
      </trkpt>
      <trkpt lat="43.17351" lon="6.60721">
        <ele>19.8</ele>
        <time>2025-10-12T08:32:56.000Z</time>
      </trkpt>
      <trkpt lat="43.17351" lon="6.60721">
        <ele>19.8</ele>
        <time>2025-10-12T08:32:57.000Z</time>
      </trkpt>
      <trkpt lat="43.17349" lon="6.60722">
        <ele>19.7</ele>
        <time>2025-10-12T08:33:11.000Z</time>
      </trkpt>
      <trkpt lat="43.17349" lon="6.60722">
        <ele>19.7</ele>
        <time>2025-10-12T08:33:12.000Z</time>
      </trkpt>
      <trkpt lat="43.17342" lon="6.60732">
        <ele>18.8</ele>
        <time>2025-10-12T08:33:26.000Z</time>
      </trkpt>
      <trkpt lat="43.17336" lon="6.60742">
        <ele>17.9</ele>
        <time>2025-10-12T08:33:35.000Z</time>
      </trkpt>
      <trkpt lat="43.17327" lon="6.60747">
        <ele>17.1</ele>
        <time>2025-10-12T08:33:46.000Z</time>
      </trkpt>
      <trkpt lat="43.17324" lon="6.60749">
        <ele>16.4</ele>
        <time>2025-10-12T08:33:56.000Z</time>
      </trkpt>
      <trkpt lat="43.17324" lon="6.60749">
        <ele>16.4</ele>
        <time>2025-10-12T08:33:57.000Z</time>
      </trkpt>
      <trkpt lat="43.17324" lon="6.60749">
        <ele>16.3</ele>
        <time>2025-10-12T08:33:58.000Z</time>
      </trkpt>
      <trkpt lat="43.17324" lon="6.60749">
        <ele>16.3</ele>
        <time>2025-10-12T08:33:59.000Z</time>
      </trkpt>
      <trkpt lat="43.17324" lon="6.60749">
        <ele>16.3</ele>
        <time>2025-10-12T08:34:00.000Z</time>
      </trkpt>
      <trkpt lat="43.17324" lon="6.60749">
        <ele>16.2</ele>
        <time>2025-10-12T08:34:01.000Z</time>
      </trkpt>
      <trkpt lat="43.17324" lon="6.60749">
        <ele>16.2</ele>
        <time>2025-10-12T08:34:02.000Z</time>
      </trkpt>
      <trkpt lat="43.17323" lon="6.6075">
        <ele>16.1</ele>
        <time>2025-10-12T08:34:08.000Z</time>
      </trkpt>
      <trkpt lat="43.17323" lon="6.60751">
        <ele>16.1</ele>
        <time>2025-10-12T08:34:09.000Z</time>
      </trkpt>
      <trkpt lat="43.17323" lon="6.60752">
        <ele>16.1</ele>
        <time>2025-10-12T08:34:10.000Z</time>
      </trkpt>
      <trkpt lat="43.17318" lon="6.60761">
        <ele>16</ele>
        <time>2025-10-12T08:34:26.000Z</time>
      </trkpt>
      <trkpt lat="43.17318" lon="6.60761">
        <ele>16</ele>
        <time>2025-10-12T08:34:27.000Z</time>
      </trkpt>
      <trkpt lat="43.17317" lon="6.60764">
        <ele>16</ele>
        <time>2025-10-12T08:34:33.000Z</time>
      </trkpt>
      <trkpt lat="43.17316" lon="6.60764">
        <ele>16</ele>
        <time>2025-10-12T08:34:34.000Z</time>
      </trkpt>
      <trkpt lat="43.17316" lon="6.60765">
        <ele>16</ele>
        <time>2025-10-12T08:34:35.000Z</time>
      </trkpt>
      <trkpt lat="43.17309" lon="6.60775">
        <ele>16</ele>
        <time>2025-10-12T08:34:46.000Z</time>
      </trkpt>
      <trkpt lat="43.1731" lon="6.60777">
        <ele>16.1</ele>
        <time>2025-10-12T08:35:02.000Z</time>
      </trkpt>
      <trkpt lat="43.1731" lon="6.60777">
        <ele>16.1</ele>
        <time>2025-10-12T08:35:03.000Z</time>
      </trkpt>
      <trkpt lat="43.1731" lon="6.60777">
        <ele>16.1</ele>
        <time>2025-10-12T08:35:04.000Z</time>
      </trkpt>
      <trkpt lat="43.1731" lon="6.60777">
        <ele>16.1</ele>
        <time>2025-10-12T08:35:08.000Z</time>
      </trkpt>
      <trkpt lat="43.1731" lon="6.60777">
        <ele>16.1</ele>
        <time>2025-10-12T08:35:09.000Z</time>
      </trkpt>
      <trkpt lat="43.1731" lon="6.60777">
        <ele>16.1</ele>
        <time>2025-10-12T08:35:12.000Z</time>
      </trkpt>
      <trkpt lat="43.1731" lon="6.60777">
        <ele>16.1</ele>
        <time>2025-10-12T08:35:13.000Z</time>
      </trkpt>
      <trkpt lat="43.1731" lon="6.60777">
        <ele>16.1</ele>
        <time>2025-10-12T08:35:14.000Z</time>
      </trkpt>
      <trkpt lat="43.1731" lon="6.60777">
        <ele>16.2</ele>
        <time>2025-10-12T08:35:30.000Z</time>
      </trkpt>
      <trkpt lat="43.1731" lon="6.60777">
        <ele>16.2</ele>
        <time>2025-10-12T08:35:31.000Z</time>
      </trkpt>
      <trkpt lat="43.1731" lon="6.60778">
        <ele>16.2</ele>
        <time>2025-10-12T08:35:32.000Z</time>
      </trkpt>
      <trkpt lat="43.17304" lon="6.60788">
        <ele>16.3</ele>
        <time>2025-10-12T08:35:45.000Z</time>
      </trkpt>
      <trkpt lat="43.17298" lon="6.60799">
        <ele>16.3</ele>
        <time>2025-10-12T08:36:01.000Z</time>
      </trkpt>
      <trkpt lat="43.17294" lon="6.60804">
        <ele>16.3</ele>
        <time>2025-10-12T08:36:12.000Z</time>
      </trkpt>
      <trkpt lat="43.17294" lon="6.60804">
        <ele>16.3</ele>
        <time>2025-10-12T08:36:13.000Z</time>
      </trkpt>
      <trkpt lat="43.17294" lon="6.60804">
        <ele>16.3</ele>
        <time>2025-10-12T08:36:14.000Z</time>
      </trkpt>
      <trkpt lat="43.17292" lon="6.60805">
        <ele>16.3</ele>
        <time>2025-10-12T08:36:18.000Z</time>
      </trkpt>
      <trkpt lat="43.17292" lon="6.60805">
        <ele>16.3</ele>
        <time>2025-10-12T08:36:19.000Z</time>
      </trkpt>
      <trkpt lat="43.17289" lon="6.60808">
        <ele>16.3</ele>
        <time>2025-10-12T08:36:28.000Z</time>
      </trkpt>
      <trkpt lat="43.17289" lon="6.60808">
        <ele>16.3</ele>
        <time>2025-10-12T08:36:29.000Z</time>
      </trkpt>
      <trkpt lat="43.17289" lon="6.60808">
        <ele>16.3</ele>
        <time>2025-10-12T08:36:30.000Z</time>
      </trkpt>
      <trkpt lat="43.17288" lon="6.60807">
        <ele>16.3</ele>
        <time>2025-10-12T08:36:38.000Z</time>
      </trkpt>
      <trkpt lat="43.17288" lon="6.60807">
        <ele>16.3</ele>
        <time>2025-10-12T08:36:39.000Z</time>
      </trkpt>
      <trkpt lat="43.17288" lon="6.60807">
        <ele>16.3</ele>
        <time>2025-10-12T08:36:40.000Z</time>
      </trkpt>
      <trkpt lat="43.17288" lon="6.60807">
        <ele>16.3</ele>
        <time>2025-10-12T08:36:41.000Z</time>
      </trkpt>
      <trkpt lat="43.17288" lon="6.60807">
        <ele>16.3</ele>
        <time>2025-10-12T08:36:42.000Z</time>
      </trkpt>
      <trkpt lat="43.17288" lon="6.60806">
        <ele>16.3</ele>
        <time>2025-10-12T08:36:53.000Z</time>
      </trkpt>
      <trkpt lat="43.17288" lon="6.60806">
        <ele>16.3</ele>
        <time>2025-10-12T08:36:54.000Z</time>
      </trkpt>
      <trkpt lat="43.17288" lon="6.60806">
        <ele>16.3</ele>
        <time>2025-10-12T08:36:55.000Z</time>
      </trkpt>
      <trkpt lat="43.17288" lon="6.60805">
        <ele>16.3</ele>
        <time>2025-10-12T08:36:56.000Z</time>
      </trkpt>
      <trkpt lat="43.17288" lon="6.60805">
        <ele>16.3</ele>
        <time>2025-10-12T08:36:57.000Z</time>
      </trkpt>
      <trkpt lat="43.17288" lon="6.60805">
        <ele>16.3</ele>
        <time>2025-10-12T08:36:58.000Z</time>
      </trkpt>
      <trkpt lat="43.17288" lon="6.60805">
        <ele>16.3</ele>
        <time>2025-10-12T08:36:59.000Z</time>
      </trkpt>
      <trkpt lat="43.17288" lon="6.60805">
        <ele>16.3</ele>
        <time>2025-10-12T08:37:00.000Z</time>
      </trkpt>
      <trkpt lat="43.17288" lon="6.60805">
        <ele>16.3</ele>
        <time>2025-10-12T08:37:01.000Z</time>
      </trkpt>
      <trkpt lat="43.17288" lon="6.60805">
        <ele>16.3</ele>
        <time>2025-10-12T08:37:11.000Z</time>
      </trkpt>
      <trkpt lat="43.17288" lon="6.60805">
        <ele>16.3</ele>
        <time>2025-10-12T08:37:12.000Z</time>
      </trkpt>
      <trkpt lat="43.17287" lon="6.60806">
        <ele>16.3</ele>
        <time>2025-10-12T08:37:17.000Z</time>
      </trkpt>
      <trkpt lat="43.17287" lon="6.60806">
        <ele>16.3</ele>
        <time>2025-10-12T08:37:18.000Z</time>
      </trkpt>
      <trkpt lat="43.17287" lon="6.60806">
        <ele>16.3</ele>
        <time>2025-10-12T08:37:19.000Z</time>
      </trkpt>
      <trkpt lat="43.17287" lon="6.60805">
        <ele>16.3</ele>
        <time>2025-10-12T08:37:20.000Z</time>
      </trkpt>
      <trkpt lat="43.17287" lon="6.60805">
        <ele>16.3</ele>
        <time>2025-10-12T08:37:21.000Z</time>
      </trkpt>
      <trkpt lat="43.17287" lon="6.60805">
        <ele>16.3</ele>
        <time>2025-10-12T08:37:22.000Z</time>
      </trkpt>
      <trkpt lat="43.17287" lon="6.60805">
        <ele>16.3</ele>
        <time>2025-10-12T08:37:23.000Z</time>
      </trkpt>
      <trkpt lat="43.17287" lon="6.60805">
        <ele>16.3</ele>
        <time>2025-10-12T08:37:24.000Z</time>
      </trkpt>
      <trkpt lat="43.17287" lon="6.60805">
        <ele>16.3</ele>
        <time>2025-10-12T08:37:25.000Z</time>
      </trkpt>
      <trkpt lat="43.17287" lon="6.60806">
        <ele>16.3</ele>
        <time>2025-10-12T08:37:41.000Z</time>
      </trkpt>
      <trkpt lat="43.17287" lon="6.60806">
        <ele>16.3</ele>
        <time>2025-10-12T08:37:42.000Z</time>
      </trkpt>
      <trkpt lat="43.17287" lon="6.60807">
        <ele>16.3</ele>
        <time>2025-10-12T08:37:48.000Z</time>
      </trkpt>
      <trkpt lat="43.17287" lon="6.60807">
        <ele>16.3</ele>
        <time>2025-10-12T08:37:49.000Z</time>
      </trkpt>
      <trkpt lat="43.17287" lon="6.60807">
        <ele>16.3</ele>
        <time>2025-10-12T08:37:50.000Z</time>
      </trkpt>
      <trkpt lat="43.17287" lon="6.60808">
        <ele>16.5</ele>
        <time>2025-10-12T08:40:05.000Z</time>
      </trkpt>
      <trkpt lat="43.17287" lon="6.60808">
        <ele>16.5</ele>
        <time>2025-10-12T08:40:06.000Z</time>
      </trkpt>
      <trkpt lat="43.17287" lon="6.60808">
        <ele>16.5</ele>
        <time>2025-10-12T08:40:07.000Z</time>
      </trkpt>
      <trkpt lat="43.17287" lon="6.60808">
        <ele>16.5</ele>
        <time>2025-10-12T08:40:08.000Z</time>
      </trkpt>
      <trkpt lat="43.17287" lon="6.60808">
        <ele>16.5</ele>
        <time>2025-10-12T08:40:09.000Z</time>
      </trkpt>
      <trkpt lat="43.17287" lon="6.60808">
        <ele>16.5</ele>
        <time>2025-10-12T08:40:30.000Z</time>
      </trkpt>
      <trkpt lat="43.17287" lon="6.60808">
        <ele>16.5</ele>
        <time>2025-10-12T08:40:31.000Z</time>
      </trkpt>
      <trkpt lat="43.17287" lon="6.60808">
        <ele>16.5</ele>
        <time>2025-10-12T08:40:32.000Z</time>
      </trkpt>
      <trkpt lat="43.17287" lon="6.60808">
        <ele>16.5</ele>
        <time>2025-10-12T08:40:33.000Z</time>
      </trkpt>
      <trkpt lat="43.17287" lon="6.60808">
        <ele>16.5</ele>
        <time>2025-10-12T08:40:34.000Z</time>
      </trkpt>
      <trkpt lat="43.17287" lon="6.60808">
        <ele>16.5</ele>
        <time>2025-10-12T08:40:45.000Z</time>
      </trkpt>
      <trkpt lat="43.17287" lon="6.60808">
        <ele>16.5</ele>
        <time>2025-10-12T08:40:46.000Z</time>
      </trkpt>
      <trkpt lat="43.17287" lon="6.60808">
        <ele>16.5</ele>
        <time>2025-10-12T08:40:47.000Z</time>
      </trkpt>
      <trkpt lat="43.17287" lon="6.60808">
        <ele>16.5</ele>
        <time>2025-10-12T08:40:48.000Z</time>
      </trkpt>
      <trkpt lat="43.17287" lon="6.60808">
        <ele>16.5</ele>
        <time>2025-10-12T08:40:49.000Z</time>
      </trkpt>
      <trkpt lat="43.17287" lon="6.60808">
        <ele>16.5</ele>
        <time>2025-10-12T08:40:50.000Z</time>
      </trkpt>
      <trkpt lat="43.17287" lon="6.60808">
        <ele>16.5</ele>
        <time>2025-10-12T08:40:57.000Z</time>
      </trkpt>
      <trkpt lat="43.17287" lon="6.60808">
        <ele>16.5</ele>
        <time>2025-10-12T08:40:58.000Z</time>
      </trkpt>
      <trkpt lat="43.17287" lon="6.60808">
        <ele>16.5</ele>
        <time>2025-10-12T08:40:59.000Z</time>
      </trkpt>
      <trkpt lat="43.17287" lon="6.60808">
        <ele>16.5</ele>
        <time>2025-10-12T08:41:00.000Z</time>
      </trkpt>
      <trkpt lat="43.17287" lon="6.60808">
        <ele>16.5</ele>
        <time>2025-10-12T08:41:01.000Z</time>
      </trkpt>
      <trkpt lat="43.17287" lon="6.60808">
        <ele>16.5</ele>
        <time>2025-10-12T08:41:40.000Z</time>
      </trkpt>
      <trkpt lat="43.17287" lon="6.60808">
        <ele>16.5</ele>
        <time>2025-10-12T08:41:41.000Z</time>
      </trkpt>
      <trkpt lat="43.17287" lon="6.60808">
        <ele>16.5</ele>
        <time>2025-10-12T08:41:42.000Z</time>
      </trkpt>
      <trkpt lat="43.17287" lon="6.60808">
        <ele>16.5</ele>
        <time>2025-10-12T08:41:43.000Z</time>
      </trkpt>
      <trkpt lat="43.17287" lon="6.60808">
        <ele>16.5</ele>
        <time>2025-10-12T08:41:44.000Z</time>
      </trkpt>
      <trkpt lat="43.17287" lon="6.60808">
        <ele>16.5</ele>
        <time>2025-10-12T08:41:45.000Z</time>
      </trkpt>
      <trkpt lat="43.17287" lon="6.60808">
        <ele>16.5</ele>
        <time>2025-10-12T08:42:10.000Z</time>
      </trkpt>
      <trkpt lat="43.17287" lon="6.60808">
        <ele>16.5</ele>
        <time>2025-10-12T08:42:11.000Z</time>
      </trkpt>
      <trkpt lat="43.17287" lon="6.60808">
        <ele>16.5</ele>
        <time>2025-10-12T08:42:12.000Z</time>
      </trkpt>
      <trkpt lat="43.17287" lon="6.60808">
        <ele>16.5</ele>
        <time>2025-10-12T08:42:13.000Z</time>
      </trkpt>
      <trkpt lat="43.17287" lon="6.60808">
        <ele>16.5</ele>
        <time>2025-10-12T08:42:14.000Z</time>
      </trkpt>
      <trkpt lat="43.17287" lon="6.60809">
        <ele>16.5</ele>
        <time>2025-10-12T08:42:32.000Z</time>
      </trkpt>
      <trkpt lat="43.17287" lon="6.60809">
        <ele>16.5</ele>
        <time>2025-10-12T08:42:33.000Z</time>
      </trkpt>
      <trkpt lat="43.17287" lon="6.60809">
        <ele>16.5</ele>
        <time>2025-10-12T08:42:34.000Z</time>
      </trkpt>
      <trkpt lat="43.17287" lon="6.60809">
        <ele>16.5</ele>
        <time>2025-10-12T08:42:37.000Z</time>
      </trkpt>
      <trkpt lat="43.17287" lon="6.60809">
        <ele>16.5</ele>
        <time>2025-10-12T08:42:38.000Z</time>
      </trkpt>
      <trkpt lat="43.17287" lon="6.60809">
        <ele>16.5</ele>
        <time>2025-10-12T08:42:39.000Z</time>
      </trkpt>
      <trkpt lat="43.17287" lon="6.60809">
        <ele>16.5</ele>
        <time>2025-10-12T08:42:43.000Z</time>
      </trkpt>
      <trkpt lat="43.17287" lon="6.60809">
        <ele>16.5</ele>
        <time>2025-10-12T08:42:44.000Z</time>
      </trkpt>
      <trkpt lat="43.17287" lon="6.60809">
        <ele>16.5</ele>
        <time>2025-10-12T08:42:45.000Z</time>
      </trkpt>
      <trkpt lat="43.17287" lon="6.60809">
        <ele>16.5</ele>
        <time>2025-10-12T08:42:46.000Z</time>
      </trkpt>
      <trkpt lat="43.17287" lon="6.60809">
        <ele>16.5</ele>
        <time>2025-10-12T08:42:47.000Z</time>
      </trkpt>
      <trkpt lat="43.17287" lon="6.60808">
        <ele>16.6</ele>
        <time>2025-10-12T08:43:32.000Z</time>
      </trkpt>
      <trkpt lat="43.17287" lon="6.60809">
        <ele>16.6</ele>
        <time>2025-10-12T08:43:33.000Z</time>
      </trkpt>
      <trkpt lat="43.17287" lon="6.60809">
        <ele>16.6</ele>
        <time>2025-10-12T08:43:34.000Z</time>
      </trkpt>
      <trkpt lat="43.17287" lon="6.60809">
        <ele>16.6</ele>
        <time>2025-10-12T08:43:38.000Z</time>
      </trkpt>
      <trkpt lat="43.17287" lon="6.60809">
        <ele>16.6</ele>
        <time>2025-10-12T08:43:39.000Z</time>
      </trkpt>
      <trkpt lat="43.17287" lon="6.60809">
        <ele>16.6</ele>
        <time>2025-10-12T08:43:40.000Z</time>
      </trkpt>
      <trkpt lat="43.17288" lon="6.6081">
        <ele>16.8</ele>
        <time>2025-10-12T08:44:30.000Z</time>
      </trkpt>
      <trkpt lat="43.17288" lon="6.6081">
        <ele>16.8</ele>
        <time>2025-10-12T08:44:31.000Z</time>
      </trkpt>
      <trkpt lat="43.17288" lon="6.6081">
        <ele>16.8</ele>
        <time>2025-10-12T08:44:35.000Z</time>
      </trkpt>
      <trkpt lat="43.17288" lon="6.6081">
        <ele>16.8</ele>
        <time>2025-10-12T08:44:36.000Z</time>
      </trkpt>
      <trkpt lat="43.17288" lon="6.6081">
        <ele>17</ele>
        <time>2025-10-12T08:44:58.000Z</time>
      </trkpt>
      <trkpt lat="43.17288" lon="6.6081">
        <ele>17</ele>
        <time>2025-10-12T08:44:59.000Z</time>
      </trkpt>
      <trkpt lat="43.17288" lon="6.6081">
        <ele>17</ele>
        <time>2025-10-12T08:45:00.000Z</time>
      </trkpt>
      <trkpt lat="43.17288" lon="6.60812">
        <ele>17.1</ele>
        <time>2025-10-12T08:45:07.000Z</time>
      </trkpt>
      <trkpt lat="43.17288" lon="6.60812">
        <ele>17.1</ele>
        <time>2025-10-12T08:45:08.000Z</time>
      </trkpt>
      <trkpt lat="43.17288" lon="6.60812">
        <ele>17.1</ele>
        <time>2025-10-12T08:45:09.000Z</time>
      </trkpt>
      <trkpt lat="43.17287" lon="6.60812">
        <ele>17.1</ele>
        <time>2025-10-12T08:45:13.000Z</time>
      </trkpt>
      <trkpt lat="43.17287" lon="6.60813">
        <ele>17.1</ele>
        <time>2025-10-12T08:45:14.000Z</time>
      </trkpt>
      <trkpt lat="43.17286" lon="6.60813">
        <ele>17.1</ele>
        <time>2025-10-12T08:45:15.000Z</time>
      </trkpt>
      <trkpt lat="43.17278" lon="6.60818">
        <ele>17.1</ele>
        <time>2025-10-12T08:45:26.000Z</time>
      </trkpt>
      <trkpt lat="43.1727" lon="6.60824">
        <ele>17.1</ele>
        <time>2025-10-12T08:45:35.000Z</time>
      </trkpt>
      <trkpt lat="43.17261" lon="6.60831">
        <ele>17</ele>
        <time>2025-10-12T08:45:45.000Z</time>
      </trkpt>
      <trkpt lat="43.17252" lon="6.60836">
        <ele>17</ele>
        <time>2025-10-12T08:45:55.000Z</time>
      </trkpt>
      <trkpt lat="43.17244" lon="6.60842">
        <ele>17</ele>
        <time>2025-10-12T08:46:06.000Z</time>
      </trkpt>
      <trkpt lat="43.17235" lon="6.60848">
        <ele>17</ele>
        <time>2025-10-12T08:46:17.000Z</time>
      </trkpt>
      <trkpt lat="43.1723" lon="6.60859">
        <ele>17.1</ele>
        <time>2025-10-12T08:46:29.000Z</time>
      </trkpt>
      <trkpt lat="43.17225" lon="6.6087">
        <ele>17.5</ele>
        <time>2025-10-12T08:46:45.000Z</time>
      </trkpt>
      <trkpt lat="43.1722" lon="6.60881">
        <ele>19.4</ele>
        <time>2025-10-12T08:47:13.000Z</time>
      </trkpt>
      <trkpt lat="43.17212" lon="6.60884">
        <ele>20.1</ele>
        <time>2025-10-12T08:47:22.000Z</time>
      </trkpt>
      <trkpt lat="43.17203" lon="6.6088">
        <ele>20.7</ele>
        <time>2025-10-12T08:47:35.000Z</time>
      </trkpt>
      <trkpt lat="43.17194" lon="6.6088">
        <ele>20.8</ele>
        <time>2025-10-12T08:47:48.000Z</time>
      </trkpt>
      <trkpt lat="43.17184" lon="6.60877">
        <ele>20.8</ele>
        <time>2025-10-12T08:48:06.000Z</time>
      </trkpt>
      <trkpt lat="43.17175" lon="6.60875">
        <ele>20.8</ele>
        <time>2025-10-12T08:48:16.000Z</time>
      </trkpt>
      <trkpt lat="43.17166" lon="6.60871">
        <ele>20.8</ele>
        <time>2025-10-12T08:48:26.000Z</time>
      </trkpt>
      <trkpt lat="43.17158" lon="6.60865">
        <ele>20.9</ele>
        <time>2025-10-12T08:48:37.000Z</time>
      </trkpt>
      <trkpt lat="43.17151" lon="6.60856">
        <ele>21.2</ele>
        <time>2025-10-12T08:48:51.000Z</time>
      </trkpt>
      <trkpt lat="43.17142" lon="6.60854">
        <ele>21.9</ele>
        <time>2025-10-12T08:49:04.000Z</time>
      </trkpt>
      <trkpt lat="43.17134" lon="6.60847">
        <ele>22.8</ele>
        <time>2025-10-12T08:49:13.000Z</time>
      </trkpt>
      <trkpt lat="43.17126" lon="6.6084">
        <ele>25.6</ele>
        <time>2025-10-12T08:49:34.000Z</time>
      </trkpt>
      <trkpt lat="43.17125" lon="6.60852">
        <ele>28.5</ele>
        <time>2025-10-12T08:49:56.000Z</time>
      </trkpt>
      <trkpt lat="43.17122" lon="6.6085">
        <ele>31.3</ele>
        <time>2025-10-12T08:50:17.000Z</time>
      </trkpt>
      <trkpt lat="43.17122" lon="6.6085">
        <ele>31.4</ele>
        <time>2025-10-12T08:50:18.000Z</time>
      </trkpt>
      <trkpt lat="43.17122" lon="6.6085">
        <ele>31.4</ele>
        <time>2025-10-12T08:50:19.000Z</time>
      </trkpt>
      <trkpt lat="43.17123" lon="6.60852">
        <ele>32.1</ele>
        <time>2025-10-12T08:50:45.000Z</time>
      </trkpt>
      <trkpt lat="43.17123" lon="6.60852">
        <ele>32.1</ele>
        <time>2025-10-12T08:50:46.000Z</time>
      </trkpt>
      <trkpt lat="43.17115" lon="6.60858">
        <ele>34.3</ele>
        <time>2025-10-12T08:51:12.000Z</time>
      </trkpt>
      <trkpt lat="43.17106" lon="6.60857">
        <ele>36.9</ele>
        <time>2025-10-12T08:51:33.000Z</time>
      </trkpt>
      <trkpt lat="43.17098" lon="6.60865">
        <ele>42.1</ele>
        <time>2025-10-12T08:52:20.000Z</time>
      </trkpt>
      <trkpt lat="43.17089" lon="6.60867">
        <ele>44.7</ele>
        <time>2025-10-12T08:52:46.000Z</time>
      </trkpt>
      <trkpt lat="43.1708" lon="6.60864">
        <ele>46.6</ele>
        <time>2025-10-12T08:53:02.000Z</time>
      </trkpt>
      <trkpt lat="43.17071" lon="6.60869">
        <ele>48.5</ele>
        <time>2025-10-12T08:53:20.000Z</time>
      </trkpt>
      <trkpt lat="43.17068" lon="6.60876">
        <ele>51.5</ele>
        <time>2025-10-12T08:53:53.000Z</time>
      </trkpt>
      <trkpt lat="43.17068" lon="6.60876">
        <ele>51.6</ele>
        <time>2025-10-12T08:53:54.000Z</time>
      </trkpt>
      <trkpt lat="43.17068" lon="6.60877">
        <ele>51.9</ele>
        <time>2025-10-12T08:54:00.000Z</time>
      </trkpt>
      <trkpt lat="43.17068" lon="6.60877">
        <ele>51.9</ele>
        <time>2025-10-12T08:54:01.000Z</time>
      </trkpt>
      <trkpt lat="43.17061" lon="6.60885">
        <ele>54.8</ele>
        <time>2025-10-12T08:54:30.000Z</time>
      </trkpt>
      <trkpt lat="43.17055" lon="6.60896">
        <ele>56.9</ele>
        <time>2025-10-12T08:54:48.000Z</time>
      </trkpt>
      <trkpt lat="43.1705" lon="6.60901">
        <ele>58.8</ele>
        <time>2025-10-12T08:55:05.000Z</time>
      </trkpt>
      <trkpt lat="43.17049" lon="6.60901">
        <ele>58.8</ele>
        <time>2025-10-12T08:55:06.000Z</time>
      </trkpt>
      <trkpt lat="43.17049" lon="6.60902">
        <ele>58.9</ele>
        <time>2025-10-12T08:55:07.000Z</time>
      </trkpt>
      <trkpt lat="43.1705" lon="6.60902">
        <ele>59</ele>
        <time>2025-10-12T08:55:08.000Z</time>
      </trkpt>
      <trkpt lat="43.1705" lon="6.60902">
        <ele>59</ele>
        <time>2025-10-12T08:55:09.000Z</time>
      </trkpt>
      <trkpt lat="43.1705" lon="6.60902">
        <ele>59.1</ele>
        <time>2025-10-12T08:55:12.000Z</time>
      </trkpt>
      <trkpt lat="43.1705" lon="6.60902">
        <ele>59.2</ele>
        <time>2025-10-12T08:55:13.000Z</time>
      </trkpt>
      <trkpt lat="43.17049" lon="6.60902">
        <ele>59.2</ele>
        <time>2025-10-12T08:55:14.000Z</time>
      </trkpt>
      <trkpt lat="43.17049" lon="6.60903">
        <ele>59.2</ele>
        <time>2025-10-12T08:55:15.000Z</time>
      </trkpt>
      <trkpt lat="43.17048" lon="6.60903">
        <ele>59.3</ele>
        <time>2025-10-12T08:55:16.000Z</time>
      </trkpt>
      <trkpt lat="43.1704" lon="6.60909">
        <ele>59.5</ele>
        <time>2025-10-12T08:55:26.000Z</time>
      </trkpt>
      <trkpt lat="43.17035" lon="6.60916">
        <ele>60.1</ele>
        <time>2025-10-12T08:55:45.000Z</time>
      </trkpt>
      <trkpt lat="43.17035" lon="6.60916">
        <ele>60.1</ele>
        <time>2025-10-12T08:55:46.000Z</time>
      </trkpt>
      <trkpt lat="43.17035" lon="6.60916">
        <ele>60.1</ele>
        <time>2025-10-12T08:55:47.000Z</time>
      </trkpt>
      <trkpt lat="43.17035" lon="6.60916">
        <ele>60.3</ele>
        <time>2025-10-12T08:56:18.000Z</time>
      </trkpt>
      <trkpt lat="43.17035" lon="6.60916">
        <ele>60.3</ele>
        <time>2025-10-12T08:56:19.000Z</time>
      </trkpt>
      <trkpt lat="43.17035" lon="6.60916">
        <ele>60.3</ele>
        <time>2025-10-12T08:56:22.000Z</time>
      </trkpt>
      <trkpt lat="43.17035" lon="6.60916">
        <ele>60.3</ele>
        <time>2025-10-12T08:56:23.000Z</time>
      </trkpt>
      <trkpt lat="43.17035" lon="6.60916">
        <ele>60.3</ele>
        <time>2025-10-12T08:56:24.000Z</time>
      </trkpt>
      <trkpt lat="43.17035" lon="6.60916">
        <ele>60.3</ele>
        <time>2025-10-12T08:56:48.000Z</time>
      </trkpt>
      <trkpt lat="43.17035" lon="6.60915">
        <ele>60.3</ele>
        <time>2025-10-12T08:56:49.000Z</time>
      </trkpt>
      <trkpt lat="43.17035" lon="6.60915">
        <ele>60.3</ele>
        <time>2025-10-12T08:56:50.000Z</time>
      </trkpt>
      <trkpt lat="43.17036" lon="6.60915">
        <ele>60.3</ele>
        <time>2025-10-12T08:56:51.000Z</time>
      </trkpt>
      <trkpt lat="43.17036" lon="6.60915">
        <ele>60.3</ele>
        <time>2025-10-12T08:56:52.000Z</time>
      </trkpt>
      <trkpt lat="43.17036" lon="6.60915">
        <ele>60.3</ele>
        <time>2025-10-12T08:56:53.000Z</time>
      </trkpt>
      <trkpt lat="43.17036" lon="6.60915">
        <ele>60.3</ele>
        <time>2025-10-12T08:56:54.000Z</time>
      </trkpt>
      <trkpt lat="43.17036" lon="6.60915">
        <ele>60.3</ele>
        <time>2025-10-12T08:56:55.000Z</time>
      </trkpt>
      <trkpt lat="43.17031" lon="6.60926">
        <ele>61.1</ele>
        <time>2025-10-12T08:57:18.000Z</time>
      </trkpt>
      <trkpt lat="43.17029" lon="6.60939">
        <ele>62.5</ele>
        <time>2025-10-12T08:57:30.000Z</time>
      </trkpt>
      <trkpt lat="43.17022" lon="6.60947">
        <ele>63.7</ele>
        <time>2025-10-12T08:57:40.000Z</time>
      </trkpt>
      <trkpt lat="43.17016" lon="6.60957">
        <ele>64.8</ele>
        <time>2025-10-12T08:57:55.000Z</time>
      </trkpt>
      <trkpt lat="43.17016" lon="6.60959">
        <ele>65.1</ele>
        <time>2025-10-12T08:58:00.000Z</time>
      </trkpt>
      <trkpt lat="43.17016" lon="6.60959">
        <ele>65.2</ele>
        <time>2025-10-12T08:58:01.000Z</time>
      </trkpt>
      <trkpt lat="43.17016" lon="6.60959">
        <ele>65.2</ele>
        <time>2025-10-12T08:58:02.000Z</time>
      </trkpt>
      <trkpt lat="43.17016" lon="6.60959">
        <ele>65.2</ele>
        <time>2025-10-12T08:58:03.000Z</time>
      </trkpt>
      <trkpt lat="43.17016" lon="6.60959">
        <ele>65.3</ele>
        <time>2025-10-12T08:58:04.000Z</time>
      </trkpt>
      <trkpt lat="43.17009" lon="6.60967">
        <ele>66.9</ele>
        <time>2025-10-12T08:58:20.000Z</time>
      </trkpt>
      <trkpt lat="43.17" lon="6.60973">
        <ele>67.7</ele>
        <time>2025-10-12T08:58:31.000Z</time>
      </trkpt>
      <trkpt lat="43.16991" lon="6.60977">
        <ele>68</ele>
        <time>2025-10-12T08:58:41.000Z</time>
      </trkpt>
      <trkpt lat="43.16991" lon="6.60977">
        <ele>68.2</ele>
        <time>2025-10-12T08:58:45.000Z</time>
      </trkpt>
      <trkpt lat="43.16991" lon="6.60977">
        <ele>68.2</ele>
        <time>2025-10-12T08:58:46.000Z</time>
      </trkpt>
      <trkpt lat="43.16991" lon="6.60977">
        <ele>68.2</ele>
        <time>2025-10-12T08:58:47.000Z</time>
      </trkpt>
      <trkpt lat="43.16991" lon="6.60977">
        <ele>68.2</ele>
        <time>2025-10-12T08:58:48.000Z</time>
      </trkpt>
      <trkpt lat="43.16991" lon="6.60977">
        <ele>68.3</ele>
        <time>2025-10-12T08:58:49.000Z</time>
      </trkpt>
      <trkpt lat="43.16991" lon="6.60977">
        <ele>68.3</ele>
        <time>2025-10-12T08:58:50.000Z</time>
      </trkpt>
      <trkpt lat="43.1699" lon="6.60977">
        <ele>69</ele>
        <time>2025-10-12T08:59:11.000Z</time>
      </trkpt>
      <trkpt lat="43.1699" lon="6.60977">
        <ele>69</ele>
        <time>2025-10-12T08:59:12.000Z</time>
      </trkpt>
      <trkpt lat="43.1699" lon="6.60977">
        <ele>69</ele>
        <time>2025-10-12T08:59:13.000Z</time>
      </trkpt>
      <trkpt lat="43.1699" lon="6.60977">
        <ele>69.1</ele>
        <time>2025-10-12T08:59:14.000Z</time>
      </trkpt>
      <trkpt lat="43.1699" lon="6.60977">
        <ele>69.1</ele>
        <time>2025-10-12T08:59:15.000Z</time>
      </trkpt>
      <trkpt lat="43.1699" lon="6.60977">
        <ele>69.1</ele>
        <time>2025-10-12T08:59:16.000Z</time>
      </trkpt>
      <trkpt lat="43.1699" lon="6.60977">
        <ele>69.1</ele>
        <time>2025-10-12T08:59:17.000Z</time>
      </trkpt>
      <trkpt lat="43.1699" lon="6.60977">
        <ele>69.1</ele>
        <time>2025-10-12T08:59:18.000Z</time>
      </trkpt>
      <trkpt lat="43.1699" lon="6.60977">
        <ele>69.1</ele>
        <time>2025-10-12T08:59:19.000Z</time>
      </trkpt>
      <trkpt lat="43.1699" lon="6.60976">
        <ele>69.2</ele>
        <time>2025-10-12T08:59:28.000Z</time>
      </trkpt>
      <trkpt lat="43.1699" lon="6.60976">
        <ele>69.2</ele>
        <time>2025-10-12T08:59:29.000Z</time>
      </trkpt>
      <trkpt lat="43.1699" lon="6.60977">
        <ele>69.2</ele>
        <time>2025-10-12T08:59:33.000Z</time>
      </trkpt>
      <trkpt lat="43.1699" lon="6.60977">
        <ele>69.2</ele>
        <time>2025-10-12T08:59:34.000Z</time>
      </trkpt>
      <trkpt lat="43.1699" lon="6.60977">
        <ele>69.2</ele>
        <time>2025-10-12T08:59:35.000Z</time>
      </trkpt>
      <trkpt lat="43.1699" lon="6.60976">
        <ele>69.3</ele>
        <time>2025-10-12T08:59:38.000Z</time>
      </trkpt>
      <trkpt lat="43.1699" lon="6.60976">
        <ele>69.3</ele>
        <time>2025-10-12T08:59:39.000Z</time>
      </trkpt>
      <trkpt lat="43.1699" lon="6.60976">
        <ele>69.3</ele>
        <time>2025-10-12T08:59:42.000Z</time>
      </trkpt>
      <trkpt lat="43.1699" lon="6.60976">
        <ele>69.3</ele>
        <time>2025-10-12T08:59:43.000Z</time>
      </trkpt>
      <trkpt lat="43.1699" lon="6.60976">
        <ele>69.3</ele>
        <time>2025-10-12T08:59:44.000Z</time>
      </trkpt>
      <trkpt lat="43.16988" lon="6.60976">
        <ele>69.3</ele>
        <time>2025-10-12T08:59:50.000Z</time>
      </trkpt>
      <trkpt lat="43.16988" lon="6.60976">
        <ele>69.3</ele>
        <time>2025-10-12T08:59:51.000Z</time>
      </trkpt>
      <trkpt lat="43.16986" lon="6.60977">
        <ele>69.2</ele>
        <time>2025-10-12T08:59:55.000Z</time>
      </trkpt>
      <trkpt lat="43.16986" lon="6.60977">
        <ele>69.2</ele>
        <time>2025-10-12T08:59:56.000Z</time>
      </trkpt>
      <trkpt lat="43.16985" lon="6.60977">
        <ele>69.2</ele>
        <time>2025-10-12T08:59:57.000Z</time>
      </trkpt>
      <trkpt lat="43.16976" lon="6.60981">
        <ele>68.8</ele>
        <time>2025-10-12T09:00:20.000Z</time>
      </trkpt>
      <trkpt lat="43.16968" lon="6.60987">
        <ele>69.5</ele>
        <time>2025-10-12T09:00:42.000Z</time>
      </trkpt>
      <trkpt lat="43.16961" lon="6.60993">
        <ele>70.6</ele>
        <time>2025-10-12T09:00:55.000Z</time>
      </trkpt>
      <trkpt lat="43.1696" lon="6.60993">
        <ele>70.7</ele>
        <time>2025-10-12T09:00:56.000Z</time>
      </trkpt>
      <trkpt lat="43.1696" lon="6.60994">
        <ele>70.7</ele>
        <time>2025-10-12T09:00:57.000Z</time>
      </trkpt>
      <trkpt lat="43.1696" lon="6.60995">
        <ele>70.8</ele>
        <time>2025-10-12T09:00:58.000Z</time>
      </trkpt>
      <trkpt lat="43.1696" lon="6.60996">
        <ele>70.8</ele>
        <time>2025-10-12T09:00:59.000Z</time>
      </trkpt>
      <trkpt lat="43.16955" lon="6.61007">
        <ele>72.3</ele>
        <time>2025-10-12T09:01:18.000Z</time>
      </trkpt>
      <trkpt lat="43.16953" lon="6.61008">
        <ele>72.9</ele>
        <time>2025-10-12T09:01:27.000Z</time>
      </trkpt>
      <trkpt lat="43.16953" lon="6.61008">
        <ele>73</ele>
        <time>2025-10-12T09:01:28.000Z</time>
      </trkpt>
      <trkpt lat="43.16953" lon="6.61008">
        <ele>73</ele>
        <time>2025-10-12T09:01:29.000Z</time>
      </trkpt>
      <trkpt lat="43.16952" lon="6.61007">
        <ele>73.1</ele>
        <time>2025-10-12T09:01:33.000Z</time>
      </trkpt>
      <trkpt lat="43.16951" lon="6.61008">
        <ele>73.2</ele>
        <time>2025-10-12T09:01:34.000Z</time>
      </trkpt>
      <trkpt lat="43.16949" lon="6.61011">
        <ele>73.6</ele>
        <time>2025-10-12T09:01:45.000Z</time>
      </trkpt>
      <trkpt lat="43.16949" lon="6.61011">
        <ele>73.6</ele>
        <time>2025-10-12T09:01:46.000Z</time>
      </trkpt>
      <trkpt lat="43.16949" lon="6.61011">
        <ele>73.6</ele>
        <time>2025-10-12T09:01:47.000Z</time>
      </trkpt>
      <trkpt lat="43.16949" lon="6.61012">
        <ele>73.7</ele>
        <time>2025-10-12T09:01:48.000Z</time>
      </trkpt>
      <trkpt lat="43.16949" lon="6.61012">
        <ele>73.7</ele>
        <time>2025-10-12T09:01:49.000Z</time>
      </trkpt>
      <trkpt lat="43.16947" lon="6.61025">
        <ele>76.3</ele>
        <time>2025-10-12T09:02:18.000Z</time>
      </trkpt>
      <trkpt lat="43.16941" lon="6.61034">
        <ele>80.9</ele>
        <time>2025-10-12T09:02:53.000Z</time>
      </trkpt>
      <trkpt lat="43.16934" lon="6.61043">
        <ele>82.2</ele>
        <time>2025-10-12T09:03:11.000Z</time>
      </trkpt>
      <trkpt lat="43.16931" lon="6.61053">
        <ele>84.6</ele>
        <time>2025-10-12T09:03:43.000Z</time>
      </trkpt>
      <trkpt lat="43.16931" lon="6.61054">
        <ele>84.7</ele>
        <time>2025-10-12T09:03:44.000Z</time>
      </trkpt>
      <trkpt lat="43.16931" lon="6.61054">
        <ele>84.7</ele>
        <time>2025-10-12T09:03:45.000Z</time>
      </trkpt>
      <trkpt lat="43.16931" lon="6.61054">
        <ele>84.8</ele>
        <time>2025-10-12T09:03:46.000Z</time>
      </trkpt>
      <trkpt lat="43.16931" lon="6.61054">
        <ele>84.9</ele>
        <time>2025-10-12T09:03:47.000Z</time>
      </trkpt>
      <trkpt lat="43.16933" lon="6.61062">
        <ele>87.4</ele>
        <time>2025-10-12T09:04:12.000Z</time>
      </trkpt>
      <trkpt lat="43.16933" lon="6.61062">
        <ele>87.5</ele>
        <time>2025-10-12T09:04:13.000Z</time>
      </trkpt>
      <trkpt lat="43.16933" lon="6.61062">
        <ele>87.6</ele>
        <time>2025-10-12T09:04:14.000Z</time>
      </trkpt>
      <trkpt lat="43.16933" lon="6.61063">
        <ele>87.8</ele>
        <time>2025-10-12T09:04:15.000Z</time>
      </trkpt>
      <trkpt lat="43.16933" lon="6.61063">
        <ele>87.8</ele>
        <time>2025-10-12T09:04:16.000Z</time>
      </trkpt>
      <trkpt lat="43.16933" lon="6.61063">
        <ele>87.9</ele>
        <time>2025-10-12T09:04:17.000Z</time>
      </trkpt>
      <trkpt lat="43.16934" lon="6.61064">
        <ele>88.1</ele>
        <time>2025-10-12T09:04:20.000Z</time>
      </trkpt>
      <trkpt lat="43.16934" lon="6.61064">
        <ele>88.2</ele>
        <time>2025-10-12T09:04:21.000Z</time>
      </trkpt>
      <trkpt lat="43.16934" lon="6.61064">
        <ele>88.3</ele>
        <time>2025-10-12T09:04:25.000Z</time>
      </trkpt>
      <trkpt lat="43.16934" lon="6.61064">
        <ele>88.4</ele>
        <time>2025-10-12T09:04:26.000Z</time>
      </trkpt>
      <trkpt lat="43.16934" lon="6.61064">
        <ele>88.4</ele>
        <time>2025-10-12T09:04:27.000Z</time>
      </trkpt>
      <trkpt lat="43.16929" lon="6.61075">
        <ele>92.3</ele>
        <time>2025-10-12T09:04:58.000Z</time>
      </trkpt>
      <trkpt lat="43.16925" lon="6.61087">
        <ele>94.4</ele>
        <time>2025-10-12T09:05:17.000Z</time>
      </trkpt>
      <trkpt lat="43.16925" lon="6.611">
        <ele>99</ele>
        <time>2025-10-12T09:05:59.000Z</time>
      </trkpt>
      <trkpt lat="43.16929" lon="6.61112">
        <ele>102.7</ele>
        <time>2025-10-12T09:06:30.000Z</time>
      </trkpt>
      <trkpt lat="43.16931" lon="6.61124">
        <ele>106.5</ele>
        <time>2025-10-12T09:07:08.000Z</time>
      </trkpt>
      <trkpt lat="43.16931" lon="6.61137">
        <ele>109.6</ele>
        <time>2025-10-12T09:07:35.000Z</time>
      </trkpt>
      <trkpt lat="43.16932" lon="6.61144">
        <ele>110.8</ele>
        <time>2025-10-12T09:07:50.000Z</time>
      </trkpt>
      <trkpt lat="43.16932" lon="6.61144">
        <ele>110.9</ele>
        <time>2025-10-12T09:07:51.000Z</time>
      </trkpt>
      <trkpt lat="43.16932" lon="6.61145">
        <ele>110.9</ele>
        <time>2025-10-12T09:07:52.000Z</time>
      </trkpt>
      <trkpt lat="43.16932" lon="6.61145">
        <ele>111</ele>
        <time>2025-10-12T09:07:53.000Z</time>
      </trkpt>
      <trkpt lat="43.16932" lon="6.61145">
        <ele>111</ele>
        <time>2025-10-12T09:07:54.000Z</time>
      </trkpt>
      <trkpt lat="43.16932" lon="6.61145">
        <ele>111</ele>
        <time>2025-10-12T09:07:55.000Z</time>
      </trkpt>
      <trkpt lat="43.16932" lon="6.61145">
        <ele>111.1</ele>
        <time>2025-10-12T09:07:56.000Z</time>
      </trkpt>
      <trkpt lat="43.16932" lon="6.61145">
        <ele>111.1</ele>
        <time>2025-10-12T09:07:57.000Z</time>
      </trkpt>
      <trkpt lat="43.16932" lon="6.61145">
        <ele>111.1</ele>
        <time>2025-10-12T09:07:58.000Z</time>
      </trkpt>
      <trkpt lat="43.16932" lon="6.61145">
        <ele>111.2</ele>
        <time>2025-10-12T09:07:59.000Z</time>
      </trkpt>
      <trkpt lat="43.16932" lon="6.61145">
        <ele>111.2</ele>
        <time>2025-10-12T09:08:07.000Z</time>
      </trkpt>
      <trkpt lat="43.16932" lon="6.61145">
        <ele>111.3</ele>
        <time>2025-10-12T09:08:08.000Z</time>
      </trkpt>
      <trkpt lat="43.16932" lon="6.61144">
        <ele>111.3</ele>
        <time>2025-10-12T09:08:09.000Z</time>
      </trkpt>
      <trkpt lat="43.16932" lon="6.61144">
        <ele>111.3</ele>
        <time>2025-10-12T09:08:13.000Z</time>
      </trkpt>
      <trkpt lat="43.16932" lon="6.61144">
        <ele>111.3</ele>
        <time>2025-10-12T09:08:14.000Z</time>
      </trkpt>
      <trkpt lat="43.16932" lon="6.61144">
        <ele>111.3</ele>
        <time>2025-10-12T09:08:20.000Z</time>
      </trkpt>
      <trkpt lat="43.16933" lon="6.61144">
        <ele>111.3</ele>
        <time>2025-10-12T09:08:21.000Z</time>
      </trkpt>
      <trkpt lat="43.16933" lon="6.61145">
        <ele>111.3</ele>
        <time>2025-10-12T09:08:25.000Z</time>
      </trkpt>
      <trkpt lat="43.16933" lon="6.61145">
        <ele>111.3</ele>
        <time>2025-10-12T09:08:26.000Z</time>
      </trkpt>
      <trkpt lat="43.16933" lon="6.61145">
        <ele>111.3</ele>
        <time>2025-10-12T09:08:27.000Z</time>
      </trkpt>
      <trkpt lat="43.16933" lon="6.61145">
        <ele>111.3</ele>
        <time>2025-10-12T09:08:28.000Z</time>
      </trkpt>
      <trkpt lat="43.16933" lon="6.61145">
        <ele>111.3</ele>
        <time>2025-10-12T09:08:29.000Z</time>
      </trkpt>
      <trkpt lat="43.16934" lon="6.61146">
        <ele>111.3</ele>
        <time>2025-10-12T09:08:30.000Z</time>
      </trkpt>
      <trkpt lat="43.16934" lon="6.61146">
        <ele>111.3</ele>
        <time>2025-10-12T09:08:31.000Z</time>
      </trkpt>
      <trkpt lat="43.16935" lon="6.61147">
        <ele>111.5</ele>
        <time>2025-10-12T09:08:40.000Z</time>
      </trkpt>
      <trkpt lat="43.16935" lon="6.61147">
        <ele>111.5</ele>
        <time>2025-10-12T09:08:41.000Z</time>
      </trkpt>
      <trkpt lat="43.16935" lon="6.61147">
        <ele>111.5</ele>
        <time>2025-10-12T09:08:42.000Z</time>
      </trkpt>
      <trkpt lat="43.16935" lon="6.61147">
        <ele>111.5</ele>
        <time>2025-10-12T09:08:43.000Z</time>
      </trkpt>
      <trkpt lat="43.16935" lon="6.61147">
        <ele>111.5</ele>
        <time>2025-10-12T09:08:44.000Z</time>
      </trkpt>
      <trkpt lat="43.16935" lon="6.61147">
        <ele>111.5</ele>
        <time>2025-10-12T09:08:48.000Z</time>
      </trkpt>
      <trkpt lat="43.16935" lon="6.61147">
        <ele>111.5</ele>
        <time>2025-10-12T09:08:49.000Z</time>
      </trkpt>
      <trkpt lat="43.16936" lon="6.61147">
        <ele>111.6</ele>
        <time>2025-10-12T09:09:01.000Z</time>
      </trkpt>
      <trkpt lat="43.16936" lon="6.61147">
        <ele>111.6</ele>
        <time>2025-10-12T09:09:02.000Z</time>
      </trkpt>
      <trkpt lat="43.16936" lon="6.61147">
        <ele>111.6</ele>
        <time>2025-10-12T09:09:03.000Z</time>
      </trkpt>
      <trkpt lat="43.16936" lon="6.61147">
        <ele>111.6</ele>
        <time>2025-10-12T09:09:04.000Z</time>
      </trkpt>
      <trkpt lat="43.16936" lon="6.61147">
        <ele>111.7</ele>
        <time>2025-10-12T09:09:20.000Z</time>
      </trkpt>
      <trkpt lat="43.16936" lon="6.61147">
        <ele>111.7</ele>
        <time>2025-10-12T09:09:21.000Z</time>
      </trkpt>
      <trkpt lat="43.16936" lon="6.61147">
        <ele>111.7</ele>
        <time>2025-10-12T09:09:22.000Z</time>
      </trkpt>
      <trkpt lat="43.16936" lon="6.61147">
        <ele>111.7</ele>
        <time>2025-10-12T09:09:25.000Z</time>
      </trkpt>
      <trkpt lat="43.16936" lon="6.61147">
        <ele>111.7</ele>
        <time>2025-10-12T09:09:26.000Z</time>
      </trkpt>
      <trkpt lat="43.16936" lon="6.61146">
        <ele>111.7</ele>
        <time>2025-10-12T09:09:36.000Z</time>
      </trkpt>
      <trkpt lat="43.16935" lon="6.61146">
        <ele>111.7</ele>
        <time>2025-10-12T09:09:37.000Z</time>
      </trkpt>
      <trkpt lat="43.16935" lon="6.61146">
        <ele>111.7</ele>
        <time>2025-10-12T09:09:38.000Z</time>
      </trkpt>
      <trkpt lat="43.16935" lon="6.61146">
        <ele>111.7</ele>
        <time>2025-10-12T09:09:39.000Z</time>
      </trkpt>
      <trkpt lat="43.16935" lon="6.61146">
        <ele>111.6</ele>
        <time>2025-10-12T09:09:50.000Z</time>
      </trkpt>
      <trkpt lat="43.16935" lon="6.61146">
        <ele>111.6</ele>
        <time>2025-10-12T09:09:51.000Z</time>
      </trkpt>
      <trkpt lat="43.16935" lon="6.61146">
        <ele>111.6</ele>
        <time>2025-10-12T09:09:52.000Z</time>
      </trkpt>
      <trkpt lat="43.16935" lon="6.61147">
        <ele>111.6</ele>
        <time>2025-10-12T09:09:53.000Z</time>
      </trkpt>
      <trkpt lat="43.16935" lon="6.61147">
        <ele>111.6</ele>
        <time>2025-10-12T09:09:54.000Z</time>
      </trkpt>
      <trkpt lat="43.16936" lon="6.61147">
        <ele>111.6</ele>
        <time>2025-10-12T09:09:55.000Z</time>
      </trkpt>
      <trkpt lat="43.16936" lon="6.61147">
        <ele>111.6</ele>
        <time>2025-10-12T09:09:56.000Z</time>
      </trkpt>
      <trkpt lat="43.16936" lon="6.61147">
        <ele>111.6</ele>
        <time>2025-10-12T09:09:57.000Z</time>
      </trkpt>
      <trkpt lat="43.16936" lon="6.61147">
        <ele>111.6</ele>
        <time>2025-10-12T09:09:58.000Z</time>
      </trkpt>
      <trkpt lat="43.16936" lon="6.61147">
        <ele>111.6</ele>
        <time>2025-10-12T09:09:59.000Z</time>
      </trkpt>
      <trkpt lat="43.16935" lon="6.61146">
        <ele>111.6</ele>
        <time>2025-10-12T09:10:30.000Z</time>
      </trkpt>
      <trkpt lat="43.16935" lon="6.61145">
        <ele>111.6</ele>
        <time>2025-10-12T09:10:31.000Z</time>
      </trkpt>
      <trkpt lat="43.16934" lon="6.61145">
        <ele>111.6</ele>
        <time>2025-10-12T09:10:35.000Z</time>
      </trkpt>
      <trkpt lat="43.16934" lon="6.61145">
        <ele>111.6</ele>
        <time>2025-10-12T09:10:36.000Z</time>
      </trkpt>
      <trkpt lat="43.16934" lon="6.61145">
        <ele>111.6</ele>
        <time>2025-10-12T09:10:37.000Z</time>
      </trkpt>
      <trkpt lat="43.16934" lon="6.61146">
        <ele>111.5</ele>
        <time>2025-10-12T09:10:43.000Z</time>
      </trkpt>
      <trkpt lat="43.16934" lon="6.61146">
        <ele>111.5</ele>
        <time>2025-10-12T09:10:44.000Z</time>
      </trkpt>
      <trkpt lat="43.16933" lon="6.61158">
        <ele>111.6</ele>
        <time>2025-10-12T09:11:10.000Z</time>
      </trkpt>
      <trkpt lat="43.16933" lon="6.61171">
        <ele>111.6</ele>
        <time>2025-10-12T09:11:23.000Z</time>
      </trkpt>
      <trkpt lat="43.16928" lon="6.61182">
        <ele>111.5</ele>
        <time>2025-10-12T09:11:37.000Z</time>
      </trkpt>
      <trkpt lat="43.16924" lon="6.61193">
        <ele>111.3</ele>
        <time>2025-10-12T09:11:46.000Z</time>
      </trkpt>
      <trkpt lat="43.16918" lon="6.61204">
        <ele>111</ele>
        <time>2025-10-12T09:11:57.000Z</time>
      </trkpt>
      <trkpt lat="43.16912" lon="6.61213">
        <ele>110.9</ele>
        <time>2025-10-12T09:12:05.000Z</time>
      </trkpt>
      <trkpt lat="43.16909" lon="6.61226">
        <ele>110.8</ele>
        <time>2025-10-12T09:12:15.000Z</time>
      </trkpt>
      <trkpt lat="43.16909" lon="6.6124">
        <ele>110.9</ele>
        <time>2025-10-12T09:12:23.000Z</time>
      </trkpt>
      <trkpt lat="43.16907" lon="6.61253">
        <ele>110.8</ele>
        <time>2025-10-12T09:12:33.000Z</time>
      </trkpt>
      <trkpt lat="43.16903" lon="6.61264">
        <ele>110.4</ele>
        <time>2025-10-12T09:12:48.000Z</time>
      </trkpt>
      <trkpt lat="43.16895" lon="6.61271">
        <ele>109.4</ele>
        <time>2025-10-12T09:13:08.000Z</time>
      </trkpt>
      <trkpt lat="43.16886" lon="6.61277">
        <ele>109.2</ele>
        <time>2025-10-12T09:13:17.000Z</time>
      </trkpt>
      <trkpt lat="43.16879" lon="6.61286">
        <ele>109</ele>
        <time>2025-10-12T09:13:27.000Z</time>
      </trkpt>
      <trkpt lat="43.1687" lon="6.61293">
        <ele>108.8</ele>
        <time>2025-10-12T09:13:37.000Z</time>
      </trkpt>
      <trkpt lat="43.16864" lon="6.61302">
        <ele>108.8</ele>
        <time>2025-10-12T09:13:51.000Z</time>
      </trkpt>
      <trkpt lat="43.16857" lon="6.6131">
        <ele>108.9</ele>
        <time>2025-10-12T09:14:00.000Z</time>
      </trkpt>
      <trkpt lat="43.16849" lon="6.61318">
        <ele>109.1</ele>
        <time>2025-10-12T09:14:10.000Z</time>
      </trkpt>
      <trkpt lat="43.16842" lon="6.61326">
        <ele>109.6</ele>
        <time>2025-10-12T09:14:22.000Z</time>
      </trkpt>
      <trkpt lat="43.16835" lon="6.61334">
        <ele>110.1</ele>
        <time>2025-10-12T09:14:33.000Z</time>
      </trkpt>
      <trkpt lat="43.1683" lon="6.61345">
        <ele>110</ele>
        <time>2025-10-12T09:14:41.000Z</time>
      </trkpt>
      <trkpt lat="43.16822" lon="6.61353">
        <ele>109.9</ele>
        <time>2025-10-12T09:14:52.000Z</time>
      </trkpt>
      <trkpt lat="43.16815" lon="6.6136">
        <ele>109.8</ele>
        <time>2025-10-12T09:15:00.000Z</time>
      </trkpt>
      <trkpt lat="43.16806" lon="6.61368">
        <ele>109.7</ele>
        <time>2025-10-12T09:15:09.000Z</time>
      </trkpt>
      <trkpt lat="43.16799" lon="6.61375">
        <ele>109.6</ele>
        <time>2025-10-12T09:15:19.000Z</time>
      </trkpt>
      <trkpt lat="43.16792" lon="6.61386">
        <ele>109.5</ele>
        <time>2025-10-12T09:15:29.000Z</time>
      </trkpt>
      <trkpt lat="43.16787" lon="6.61397">
        <ele>109.6</ele>
        <time>2025-10-12T09:15:38.000Z</time>
      </trkpt>
      <trkpt lat="43.16783" lon="6.61408">
        <ele>109.6</ele>
        <time>2025-10-12T09:15:47.000Z</time>
      </trkpt>
      <trkpt lat="43.16777" lon="6.6142">
        <ele>109.7</ele>
        <time>2025-10-12T09:15:57.000Z</time>
      </trkpt>
      <trkpt lat="43.16776" lon="6.61432">
        <ele>109.8</ele>
        <time>2025-10-12T09:16:07.000Z</time>
      </trkpt>
      <trkpt lat="43.1677" lon="6.61442">
        <ele>109.8</ele>
        <time>2025-10-12T09:16:17.000Z</time>
      </trkpt>
      <trkpt lat="43.16766" lon="6.61452">
        <ele>109.4</ele>
        <time>2025-10-12T09:16:30.000Z</time>
      </trkpt>
      <trkpt lat="43.16766" lon="6.61452">
        <ele>109.4</ele>
        <time>2025-10-12T09:16:31.000Z</time>
      </trkpt>
      <trkpt lat="43.16766" lon="6.61452">
        <ele>109.3</ele>
        <time>2025-10-12T09:16:32.000Z</time>
      </trkpt>
      <trkpt lat="43.16766" lon="6.61452">
        <ele>109.3</ele>
        <time>2025-10-12T09:16:33.000Z</time>
      </trkpt>
      <trkpt lat="43.16767" lon="6.61452">
        <ele>109.3</ele>
        <time>2025-10-12T09:16:34.000Z</time>
      </trkpt>
      <trkpt lat="43.16767" lon="6.61452">
        <ele>109.3</ele>
        <time>2025-10-12T09:16:35.000Z</time>
      </trkpt>
      <trkpt lat="43.16767" lon="6.61452">
        <ele>109.3</ele>
        <time>2025-10-12T09:16:36.000Z</time>
      </trkpt>
      <trkpt lat="43.16766" lon="6.61453">
        <ele>109.2</ele>
        <time>2025-10-12T09:16:45.000Z</time>
      </trkpt>
      <trkpt lat="43.16766" lon="6.61453">
        <ele>109.2</ele>
        <time>2025-10-12T09:16:46.000Z</time>
      </trkpt>
      <trkpt lat="43.16763" lon="6.61465">
        <ele>109.1</ele>
        <time>2025-10-12T09:16:56.000Z</time>
      </trkpt>
      <trkpt lat="43.16762" lon="6.61478">
        <ele>109.2</ele>
        <time>2025-10-12T09:17:06.000Z</time>
      </trkpt>
      <trkpt lat="43.16759" lon="6.61485">
        <ele>109.5</ele>
        <time>2025-10-12T09:17:18.000Z</time>
      </trkpt>
      <trkpt lat="43.16759" lon="6.61485">
        <ele>109.5</ele>
        <time>2025-10-12T09:17:19.000Z</time>
      </trkpt>
      <trkpt lat="43.16758" lon="6.61487">
        <ele>109.5</ele>
        <time>2025-10-12T09:17:22.000Z</time>
      </trkpt>
      <trkpt lat="43.16758" lon="6.61488">
        <ele>109.5</ele>
        <time>2025-10-12T09:17:23.000Z</time>
      </trkpt>
      <trkpt lat="43.16757" lon="6.61488">
        <ele>109.5</ele>
        <time>2025-10-12T09:17:24.000Z</time>
      </trkpt>
      <trkpt lat="43.16757" lon="6.61489">
        <ele>109.9</ele>
        <time>2025-10-12T09:17:35.000Z</time>
      </trkpt>
      <trkpt lat="43.16757" lon="6.61489">
        <ele>109.9</ele>
        <time>2025-10-12T09:17:36.000Z</time>
      </trkpt>
      <trkpt lat="43.16757" lon="6.61489">
        <ele>110.1</ele>
        <time>2025-10-12T09:17:50.000Z</time>
      </trkpt>
      <trkpt lat="43.16757" lon="6.61489">
        <ele>110.1</ele>
        <time>2025-10-12T09:17:51.000Z</time>
      </trkpt>
      <trkpt lat="43.16754" lon="6.61501">
        <ele>110.3</ele>
        <time>2025-10-12T09:18:04.000Z</time>
      </trkpt>
      <trkpt lat="43.16752" lon="6.61513">
        <ele>110.7</ele>
        <time>2025-10-12T09:18:17.000Z</time>
      </trkpt>
      <trkpt lat="43.16749" lon="6.61525">
        <ele>111.7</ele>
        <time>2025-10-12T09:18:32.000Z</time>
      </trkpt>
      <trkpt lat="43.16742" lon="6.61534">
        <ele>112.2</ele>
        <time>2025-10-12T09:18:43.000Z</time>
      </trkpt>
      <trkpt lat="43.1674" lon="6.61547">
        <ele>112.4</ele>
        <time>2025-10-12T09:18:55.000Z</time>
      </trkpt>
      <trkpt lat="43.16737" lon="6.6156">
        <ele>112.6</ele>
        <time>2025-10-12T09:19:05.000Z</time>
      </trkpt>
      <trkpt lat="43.16735" lon="6.61572">
        <ele>112.7</ele>
        <time>2025-10-12T09:19:15.000Z</time>
      </trkpt>
      <trkpt lat="43.16732" lon="6.61585">
        <ele>113.4</ele>
        <time>2025-10-12T09:19:27.000Z</time>
      </trkpt>
      <trkpt lat="43.16727" lon="6.61597">
        <ele>114.2</ele>
        <time>2025-10-12T09:19:42.000Z</time>
      </trkpt>
      <trkpt lat="43.16719" lon="6.61604">
        <ele>114.2</ele>
        <time>2025-10-12T09:19:55.000Z</time>
      </trkpt>
      <trkpt lat="43.16711" lon="6.61611">
        <ele>114</ele>
        <time>2025-10-12T09:20:04.000Z</time>
      </trkpt>
      <trkpt lat="43.16702" lon="6.61617">
        <ele>113.7</ele>
        <time>2025-10-12T09:20:13.000Z</time>
      </trkpt>
      <trkpt lat="43.16695" lon="6.61627">
        <ele>112.9</ele>
        <time>2025-10-12T09:20:23.000Z</time>
      </trkpt>
      <trkpt lat="43.1669" lon="6.61638">
        <ele>112.2</ele>
        <time>2025-10-12T09:20:34.000Z</time>
      </trkpt>
      <trkpt lat="43.16682" lon="6.61644">
        <ele>111.9</ele>
        <time>2025-10-12T09:20:44.000Z</time>
      </trkpt>
      <trkpt lat="43.16674" lon="6.6165">
        <ele>111.5</ele>
        <time>2025-10-12T09:20:57.000Z</time>
      </trkpt>
      <trkpt lat="43.16664" lon="6.61654">
        <ele>111.3</ele>
        <time>2025-10-12T09:21:06.000Z</time>
      </trkpt>
      <trkpt lat="43.1666" lon="6.61656">
        <ele>110.7</ele>
        <time>2025-10-12T09:21:17.000Z</time>
      </trkpt>
      <trkpt lat="43.1666" lon="6.61656">
        <ele>110.7</ele>
        <time>2025-10-12T09:21:18.000Z</time>
      </trkpt>
      <trkpt lat="43.1666" lon="6.61656">
        <ele>110.7</ele>
        <time>2025-10-12T09:21:19.000Z</time>
      </trkpt>
      <trkpt lat="43.1666" lon="6.61655">
        <ele>110.4</ele>
        <time>2025-10-12T09:21:30.000Z</time>
      </trkpt>
      <trkpt lat="43.16659" lon="6.61655">
        <ele>110.4</ele>
        <time>2025-10-12T09:21:31.000Z</time>
      </trkpt>
      <trkpt lat="43.1665" lon="6.61659">
        <ele>110.3</ele>
        <time>2025-10-12T09:21:42.000Z</time>
      </trkpt>
      <trkpt lat="43.16642" lon="6.61663">
        <ele>110.3</ele>
        <time>2025-10-12T09:21:49.000Z</time>
      </trkpt>
      <trkpt lat="43.16636" lon="6.61673">
        <ele>110.6</ele>
        <time>2025-10-12T09:21:59.000Z</time>
      </trkpt>
      <trkpt lat="43.16629" lon="6.61681">
        <ele>111.1</ele>
        <time>2025-10-12T09:22:06.000Z</time>
      </trkpt>
      <trkpt lat="43.16623" lon="6.61691">
        <ele>111.7</ele>
        <time>2025-10-12T09:22:14.000Z</time>
      </trkpt>
      <trkpt lat="43.16618" lon="6.61703">
        <ele>111.8</ele>
        <time>2025-10-12T09:22:25.000Z</time>
      </trkpt>
      <trkpt lat="43.16612" lon="6.61707">
        <ele>110.6</ele>
        <time>2025-10-12T09:22:40.000Z</time>
      </trkpt>
      <trkpt lat="43.16612" lon="6.61707">
        <ele>110.5</ele>
        <time>2025-10-12T09:22:41.000Z</time>
      </trkpt>
      <trkpt lat="43.16612" lon="6.61707">
        <ele>110.5</ele>
        <time>2025-10-12T09:22:42.000Z</time>
      </trkpt>
      <trkpt lat="43.16612" lon="6.61707">
        <ele>110.4</ele>
        <time>2025-10-12T09:22:43.000Z</time>
      </trkpt>
      <trkpt lat="43.16612" lon="6.61707">
        <ele>110.3</ele>
        <time>2025-10-12T09:22:44.000Z</time>
      </trkpt>
      <trkpt lat="43.16607" lon="6.61718">
        <ele>108.4</ele>
        <time>2025-10-12T09:23:04.000Z</time>
      </trkpt>
      <trkpt lat="43.16602" lon="6.61729">
        <ele>106.6</ele>
        <time>2025-10-12T09:23:17.000Z</time>
      </trkpt>
      <trkpt lat="43.16595" lon="6.61739">
        <ele>105.1</ele>
        <time>2025-10-12T09:23:28.000Z</time>
      </trkpt>
      <trkpt lat="43.16588" lon="6.61748">
        <ele>103.4</ele>
        <time>2025-10-12T09:23:40.000Z</time>
      </trkpt>
      <trkpt lat="43.1658" lon="6.61755">
        <ele>102.2</ele>
        <time>2025-10-12T09:23:50.000Z</time>
      </trkpt>
      <trkpt lat="43.16572" lon="6.61759">
        <ele>101.3</ele>
        <time>2025-10-12T09:24:00.000Z</time>
      </trkpt>
      <trkpt lat="43.16564" lon="6.61765">
        <ele>100.2</ele>
        <time>2025-10-12T09:24:11.000Z</time>
      </trkpt>
      <trkpt lat="43.16555" lon="6.61772">
        <ele>99</ele>
        <time>2025-10-12T09:24:24.000Z</time>
      </trkpt>
      <trkpt lat="43.16547" lon="6.61779">
        <ele>98</ele>
        <time>2025-10-12T09:24:37.000Z</time>
      </trkpt>
      <trkpt lat="43.16537" lon="6.61779">
        <ele>97</ele>
        <time>2025-10-12T09:24:47.000Z</time>
      </trkpt>
      <trkpt lat="43.16529" lon="6.61786">
        <ele>96.2</ele>
        <time>2025-10-12T09:25:00.000Z</time>
      </trkpt>
      <trkpt lat="43.16523" lon="6.61795">
        <ele>95.1</ele>
        <time>2025-10-12T09:25:19.000Z</time>
      </trkpt>
      <trkpt lat="43.16516" lon="6.61803">
        <ele>93.9</ele>
        <time>2025-10-12T09:25:32.000Z</time>
      </trkpt>
      <trkpt lat="43.16508" lon="6.61808">
        <ele>93.1</ele>
        <time>2025-10-12T09:25:40.000Z</time>
      </trkpt>
      <trkpt lat="43.16498" lon="6.6181">
        <ele>92.5</ele>
        <time>2025-10-12T09:25:48.000Z</time>
      </trkpt>
      <trkpt lat="43.16489" lon="6.61814">
        <ele>92.1</ele>
        <time>2025-10-12T09:25:56.000Z</time>
      </trkpt>
      <trkpt lat="43.1648" lon="6.61819">
        <ele>91.9</ele>
        <time>2025-10-12T09:26:05.000Z</time>
      </trkpt>
      <trkpt lat="43.16476" lon="6.6182">
        <ele>91.8</ele>
        <time>2025-10-12T09:26:15.000Z</time>
      </trkpt>
      <trkpt lat="43.16476" lon="6.6182">
        <ele>91.8</ele>
        <time>2025-10-12T09:26:16.000Z</time>
      </trkpt>
      <trkpt lat="43.16476" lon="6.6182">
        <ele>91.8</ele>
        <time>2025-10-12T09:26:17.000Z</time>
      </trkpt>
      <trkpt lat="43.16476" lon="6.61821">
        <ele>91.8</ele>
        <time>2025-10-12T09:26:23.000Z</time>
      </trkpt>
      <trkpt lat="43.16475" lon="6.61821">
        <ele>91.8</ele>
        <time>2025-10-12T09:26:24.000Z</time>
      </trkpt>
      <trkpt lat="43.16466" lon="6.61824">
        <ele>91.9</ele>
        <time>2025-10-12T09:26:33.000Z</time>
      </trkpt>
      <trkpt lat="43.16457" lon="6.61826">
        <ele>92</ele>
        <time>2025-10-12T09:26:41.000Z</time>
      </trkpt>
      <trkpt lat="43.16447" lon="6.61831">
        <ele>92.1</ele>
        <time>2025-10-12T09:26:49.000Z</time>
      </trkpt>
      <trkpt lat="43.16439" lon="6.61838">
        <ele>92</ele>
        <time>2025-10-12T09:26:58.000Z</time>
      </trkpt>
      <trkpt lat="43.16431" lon="6.61845">
        <ele>91.8</ele>
        <time>2025-10-12T09:27:07.000Z</time>
      </trkpt>
      <trkpt lat="43.16423" lon="6.61853">
        <ele>91.2</ele>
        <time>2025-10-12T09:27:15.000Z</time>
      </trkpt>
      <trkpt lat="43.16414" lon="6.61857">
        <ele>90.2</ele>
        <time>2025-10-12T09:27:23.000Z</time>
      </trkpt>
      <trkpt lat="43.16404" lon="6.61859">
        <ele>89.4</ele>
        <time>2025-10-12T09:27:30.000Z</time>
      </trkpt>
      <trkpt lat="43.16395" lon="6.6186">
        <ele>88.8</ele>
        <time>2025-10-12T09:27:38.000Z</time>
      </trkpt>
      <trkpt lat="43.16385" lon="6.6186">
        <ele>88.3</ele>
        <time>2025-10-12T09:27:46.000Z</time>
      </trkpt>
      <trkpt lat="43.16376" lon="6.61863">
        <ele>87.6</ele>
        <time>2025-10-12T09:27:56.000Z</time>
      </trkpt>
      <trkpt lat="43.16369" lon="6.6187">
        <ele>86.8</ele>
        <time>2025-10-12T09:28:05.000Z</time>
      </trkpt>
      <trkpt lat="43.1636" lon="6.61875">
        <ele>85.4</ele>
        <time>2025-10-12T09:28:16.000Z</time>
      </trkpt>
      <trkpt lat="43.1635" lon="6.61878">
        <ele>84.9</ele>
        <time>2025-10-12T09:28:25.000Z</time>
      </trkpt>
      <trkpt lat="43.16342" lon="6.61884">
        <ele>84.5</ele>
        <time>2025-10-12T09:28:33.000Z</time>
      </trkpt>
      <trkpt lat="43.16334" lon="6.61889">
        <ele>84</ele>
        <time>2025-10-12T09:28:40.000Z</time>
      </trkpt>
      <trkpt lat="43.16327" lon="6.61898">
        <ele>83.4</ele>
        <time>2025-10-12T09:28:49.000Z</time>
      </trkpt>
      <trkpt lat="43.16326" lon="6.61898">
        <ele>83.1</ele>
        <time>2025-10-12T09:28:53.000Z</time>
      </trkpt>
      <trkpt lat="43.16326" lon="6.61898">
        <ele>83</ele>
        <time>2025-10-12T09:28:54.000Z</time>
      </trkpt>
      <trkpt lat="43.16326" lon="6.61898">
        <ele>83</ele>
        <time>2025-10-12T09:28:55.000Z</time>
      </trkpt>
      <trkpt lat="43.16327" lon="6.61899">
        <ele>82.7</ele>
        <time>2025-10-12T09:29:02.000Z</time>
      </trkpt>
      <trkpt lat="43.16328" lon="6.61899">
        <ele>82.7</ele>
        <time>2025-10-12T09:29:03.000Z</time>
      </trkpt>
      <trkpt lat="43.16327" lon="6.619">
        <ele>82.7</ele>
        <time>2025-10-12T09:29:04.000Z</time>
      </trkpt>
      <trkpt lat="43.16328" lon="6.619">
        <ele>82.7</ele>
        <time>2025-10-12T09:29:05.000Z</time>
      </trkpt>
      <trkpt lat="43.16328" lon="6.61899">
        <ele>82.7</ele>
        <time>2025-10-12T09:29:06.000Z</time>
      </trkpt>
      <trkpt lat="43.16328" lon="6.61899">
        <ele>82.7</ele>
        <time>2025-10-12T09:29:07.000Z</time>
      </trkpt>
      <trkpt lat="43.16328" lon="6.619">
        <ele>82.7</ele>
        <time>2025-10-12T09:29:08.000Z</time>
      </trkpt>
      <trkpt lat="43.16328" lon="6.619">
        <ele>82.6</ele>
        <time>2025-10-12T09:29:09.000Z</time>
      </trkpt>
      <trkpt lat="43.16328" lon="6.619">
        <ele>82.6</ele>
        <time>2025-10-12T09:29:10.000Z</time>
      </trkpt>
      <trkpt lat="43.16328" lon="6.619">
        <ele>82.6</ele>
        <time>2025-10-12T09:29:11.000Z</time>
      </trkpt>
      <trkpt lat="43.16328" lon="6.619">
        <ele>82.6</ele>
        <time>2025-10-12T09:29:12.000Z</time>
      </trkpt>
      <trkpt lat="43.16327" lon="6.619">
        <ele>82.6</ele>
        <time>2025-10-12T09:29:13.000Z</time>
      </trkpt>
      <trkpt lat="43.16327" lon="6.619">
        <ele>82.6</ele>
        <time>2025-10-12T09:29:14.000Z</time>
      </trkpt>
      <trkpt lat="43.16318" lon="6.61902">
        <ele>82.4</ele>
        <time>2025-10-12T09:29:23.000Z</time>
      </trkpt>
      <trkpt lat="43.16308" lon="6.61899">
        <ele>82.4</ele>
        <time>2025-10-12T09:29:30.000Z</time>
      </trkpt>
      <trkpt lat="43.16299" lon="6.61896">
        <ele>82.5</ele>
        <time>2025-10-12T09:29:39.000Z</time>
      </trkpt>
      <trkpt lat="43.1629" lon="6.61894">
        <ele>82.9</ele>
        <time>2025-10-12T09:29:47.000Z</time>
      </trkpt>
      <trkpt lat="43.1628" lon="6.61891">
        <ele>83.4</ele>
        <time>2025-10-12T09:29:56.000Z</time>
      </trkpt>
      <trkpt lat="43.16273" lon="6.61898">
        <ele>83.3</ele>
        <time>2025-10-12T09:30:05.000Z</time>
      </trkpt>
      <trkpt lat="43.16269" lon="6.6191">
        <ele>82.2</ele>
        <time>2025-10-12T09:30:19.000Z</time>
      </trkpt>
      <trkpt lat="43.16261" lon="6.61917">
        <ele>80.1</ele>
        <time>2025-10-12T09:30:30.000Z</time>
      </trkpt>
      <trkpt lat="43.16253" lon="6.61925">
        <ele>78.7</ele>
        <time>2025-10-12T09:30:39.000Z</time>
      </trkpt>
      <trkpt lat="43.16245" lon="6.61933">
        <ele>78.2</ele>
        <time>2025-10-12T09:30:47.000Z</time>
      </trkpt>
      <trkpt lat="43.16238" lon="6.6194">
        <ele>78.2</ele>
        <time>2025-10-12T09:30:57.000Z</time>
      </trkpt>
      <trkpt lat="43.16234" lon="6.61945">
        <ele>78.6</ele>
        <time>2025-10-12T09:31:12.000Z</time>
      </trkpt>
      <trkpt lat="43.16234" lon="6.61945">
        <ele>78.6</ele>
        <time>2025-10-12T09:31:13.000Z</time>
      </trkpt>
      <trkpt lat="43.16234" lon="6.61945">
        <ele>78.7</ele>
        <time>2025-10-12T09:31:14.000Z</time>
      </trkpt>
      <trkpt lat="43.16234" lon="6.61945">
        <ele>78.7</ele>
        <time>2025-10-12T09:31:15.000Z</time>
      </trkpt>
      <trkpt lat="43.16234" lon="6.61945">
        <ele>78.7</ele>
        <time>2025-10-12T09:31:16.000Z</time>
      </trkpt>
      <trkpt lat="43.16234" lon="6.61945">
        <ele>78.8</ele>
        <time>2025-10-12T09:31:17.000Z</time>
      </trkpt>
      <trkpt lat="43.16234" lon="6.61945">
        <ele>78.8</ele>
        <time>2025-10-12T09:31:18.000Z</time>
      </trkpt>
      <trkpt lat="43.16234" lon="6.61945">
        <ele>78.8</ele>
        <time>2025-10-12T09:31:19.000Z</time>
      </trkpt>
      <trkpt lat="43.16234" lon="6.61944">
        <ele>78.9</ele>
        <time>2025-10-12T09:31:25.000Z</time>
      </trkpt>
      <trkpt lat="43.16233" lon="6.61944">
        <ele>78.9</ele>
        <time>2025-10-12T09:31:26.000Z</time>
      </trkpt>
      <trkpt lat="43.16232" lon="6.61944">
        <ele>78.9</ele>
        <time>2025-10-12T09:31:27.000Z</time>
      </trkpt>
      <trkpt lat="43.16223" lon="6.61944">
        <ele>79.4</ele>
        <time>2025-10-12T09:31:39.000Z</time>
      </trkpt>
      <trkpt lat="43.16213" lon="6.61945">
        <ele>81.1</ele>
        <time>2025-10-12T09:31:53.000Z</time>
      </trkpt>
      <trkpt lat="43.16204" lon="6.61946">
        <ele>82.8</ele>
        <time>2025-10-12T09:32:07.000Z</time>
      </trkpt>
      <trkpt lat="43.16194" lon="6.61949">
        <ele>83.8</ele>
        <time>2025-10-12T09:32:17.000Z</time>
      </trkpt>
      <trkpt lat="43.16185" lon="6.61948">
        <ele>84.6</ele>
        <time>2025-10-12T09:32:27.000Z</time>
      </trkpt>
      <trkpt lat="43.16176" lon="6.61945">
        <ele>85.1</ele>
        <time>2025-10-12T09:32:36.000Z</time>
      </trkpt>
      <trkpt lat="43.16167" lon="6.61942">
        <ele>85.6</ele>
        <time>2025-10-12T09:32:46.000Z</time>
      </trkpt>
      <trkpt lat="43.16158" lon="6.61937">
        <ele>86.1</ele>
        <time>2025-10-12T09:32:58.000Z</time>
      </trkpt>
      <trkpt lat="43.16149" lon="6.61939">
        <ele>86.5</ele>
        <time>2025-10-12T09:33:06.000Z</time>
      </trkpt>
      <trkpt lat="43.1614" lon="6.61942">
        <ele>86.9</ele>
        <time>2025-10-12T09:33:14.000Z</time>
      </trkpt>
      <trkpt lat="43.16132" lon="6.61947">
        <ele>87.1</ele>
        <time>2025-10-12T09:33:22.000Z</time>
      </trkpt>
      <trkpt lat="43.16124" lon="6.61955">
        <ele>87.4</ele>
        <time>2025-10-12T09:33:31.000Z</time>
      </trkpt>
      <trkpt lat="43.1612" lon="6.61966">
        <ele>87.7</ele>
        <time>2025-10-12T09:33:39.000Z</time>
      </trkpt>
      <trkpt lat="43.16121" lon="6.61978">
        <ele>88.2</ele>
        <time>2025-10-12T09:33:48.000Z</time>
      </trkpt>
      <trkpt lat="43.16113" lon="6.61985">
        <ele>88.2</ele>
        <time>2025-10-12T09:33:58.000Z</time>
      </trkpt>
      <trkpt lat="43.16105" lon="6.6198">
        <ele>88</ele>
        <time>2025-10-12T09:34:07.000Z</time>
      </trkpt>
      <trkpt lat="43.16096" lon="6.61975">
        <ele>87.8</ele>
        <time>2025-10-12T09:34:16.000Z</time>
      </trkpt>
      <trkpt lat="43.16086" lon="6.61973">
        <ele>87.5</ele>
        <time>2025-10-12T09:34:25.000Z</time>
      </trkpt>
      <trkpt lat="43.16076" lon="6.61973">
        <ele>86.9</ele>
        <time>2025-10-12T09:34:34.000Z</time>
      </trkpt>
      <trkpt lat="43.16066" lon="6.61971">
        <ele>86.4</ele>
        <time>2025-10-12T09:34:42.000Z</time>
      </trkpt>
      <trkpt lat="43.16057" lon="6.61972">
        <ele>85.6</ele>
        <time>2025-10-12T09:34:51.000Z</time>
      </trkpt>
      <trkpt lat="43.16048" lon="6.6197">
        <ele>84.8</ele>
        <time>2025-10-12T09:35:01.000Z</time>
      </trkpt>
      <trkpt lat="43.16047" lon="6.6197">
        <ele>84.5</ele>
        <time>2025-10-12T09:35:07.000Z</time>
      </trkpt>
      <trkpt lat="43.16047" lon="6.6197">
        <ele>84.4</ele>
        <time>2025-10-12T09:35:08.000Z</time>
      </trkpt>
      <trkpt lat="43.16047" lon="6.6197">
        <ele>84.4</ele>
        <time>2025-10-12T09:35:09.000Z</time>
      </trkpt>
      <trkpt lat="43.16047" lon="6.6197">
        <ele>84.3</ele>
        <time>2025-10-12T09:35:15.000Z</time>
      </trkpt>
      <trkpt lat="43.16047" lon="6.6197">
        <ele>84.2</ele>
        <time>2025-10-12T09:35:16.000Z</time>
      </trkpt>
      <trkpt lat="43.16047" lon="6.6197">
        <ele>84.2</ele>
        <time>2025-10-12T09:35:17.000Z</time>
      </trkpt>
      <trkpt lat="43.16047" lon="6.6197">
        <ele>84.2</ele>
        <time>2025-10-12T09:35:18.000Z</time>
      </trkpt>
      <trkpt lat="43.16047" lon="6.6197">
        <ele>84.2</ele>
        <time>2025-10-12T09:35:19.000Z</time>
      </trkpt>
      <trkpt lat="43.16047" lon="6.61972">
        <ele>84</ele>
        <time>2025-10-12T09:35:37.000Z</time>
      </trkpt>
      <trkpt lat="43.16047" lon="6.61972">
        <ele>84</ele>
        <time>2025-10-12T09:35:38.000Z</time>
      </trkpt>
      <trkpt lat="43.16047" lon="6.61972">
        <ele>84</ele>
        <time>2025-10-12T09:35:39.000Z</time>
      </trkpt>
      <trkpt lat="43.16047" lon="6.61972">
        <ele>84</ele>
        <time>2025-10-12T09:35:40.000Z</time>
      </trkpt>
      <trkpt lat="43.16047" lon="6.61972">
        <ele>84</ele>
        <time>2025-10-12T09:35:41.000Z</time>
      </trkpt>
      <trkpt lat="43.16047" lon="6.61972">
        <ele>84.1</ele>
        <time>2025-10-12T09:35:58.000Z</time>
      </trkpt>
      <trkpt lat="43.16047" lon="6.61972">
        <ele>84.1</ele>
        <time>2025-10-12T09:35:59.000Z</time>
      </trkpt>
      <trkpt lat="43.16047" lon="6.61972">
        <ele>84.1</ele>
        <time>2025-10-12T09:36:00.000Z</time>
      </trkpt>
      <trkpt lat="43.16047" lon="6.61972">
        <ele>84.1</ele>
        <time>2025-10-12T09:36:01.000Z</time>
      </trkpt>
      <trkpt lat="43.16047" lon="6.61972">
        <ele>84.1</ele>
        <time>2025-10-12T09:36:02.000Z</time>
      </trkpt>
      <trkpt lat="43.16049" lon="6.61972">
        <ele>84.2</ele>
        <time>2025-10-12T09:36:43.000Z</time>
      </trkpt>
      <trkpt lat="43.16049" lon="6.61973">
        <ele>84.1</ele>
        <time>2025-10-12T09:36:44.000Z</time>
      </trkpt>
      <trkpt lat="43.16049" lon="6.61974">
        <ele>84.1</ele>
        <time>2025-10-12T09:36:45.000Z</time>
      </trkpt>
      <trkpt lat="43.16042" lon="6.61983">
        <ele>84</ele>
        <time>2025-10-12T09:36:58.000Z</time>
      </trkpt>
      <trkpt lat="43.16034" lon="6.61991">
        <ele>83.7</ele>
        <time>2025-10-12T09:37:08.000Z</time>
      </trkpt>
      <trkpt lat="43.16027" lon="6.61998">
        <ele>83.1</ele>
        <time>2025-10-12T09:37:19.000Z</time>
      </trkpt>
      <trkpt lat="43.16019" lon="6.61995">
        <ele>82.9</ele>
        <time>2025-10-12T09:37:46.000Z</time>
      </trkpt>
      <trkpt lat="43.16018" lon="6.61995">
        <ele>82.9</ele>
        <time>2025-10-12T09:37:47.000Z</time>
      </trkpt>
      <trkpt lat="43.16018" lon="6.61994">
        <ele>82.9</ele>
        <time>2025-10-12T09:37:48.000Z</time>
      </trkpt>
      <trkpt lat="43.16018" lon="6.61994">
        <ele>82.9</ele>
        <time>2025-10-12T09:37:49.000Z</time>
      </trkpt>
      <trkpt lat="43.16018" lon="6.61994">
        <ele>82.9</ele>
        <time>2025-10-12T09:37:50.000Z</time>
      </trkpt>
      <trkpt lat="43.16018" lon="6.61994">
        <ele>82.9</ele>
        <time>2025-10-12T09:37:53.000Z</time>
      </trkpt>
      <trkpt lat="43.16018" lon="6.61994">
        <ele>82.9</ele>
        <time>2025-10-12T09:37:54.000Z</time>
      </trkpt>
      <trkpt lat="43.16018" lon="6.61994">
        <ele>82.9</ele>
        <time>2025-10-12T09:37:55.000Z</time>
      </trkpt>
      <trkpt lat="43.16018" lon="6.61994">
        <ele>82.9</ele>
        <time>2025-10-12T09:37:56.000Z</time>
      </trkpt>
      <trkpt lat="43.16018" lon="6.61994">
        <ele>82.9</ele>
        <time>2025-10-12T09:37:57.000Z</time>
      </trkpt>
      <trkpt lat="43.16018" lon="6.61994">
        <ele>82.9</ele>
        <time>2025-10-12T09:37:58.000Z</time>
      </trkpt>
      <trkpt lat="43.16018" lon="6.61994">
        <ele>82.9</ele>
        <time>2025-10-12T09:37:59.000Z</time>
      </trkpt>
      <trkpt lat="43.16018" lon="6.61994">
        <ele>82.9</ele>
        <time>2025-10-12T09:38:00.000Z</time>
      </trkpt>
      <trkpt lat="43.16018" lon="6.61994">
        <ele>83</ele>
        <time>2025-10-12T09:38:01.000Z</time>
      </trkpt>
      <trkpt lat="43.16018" lon="6.61994">
        <ele>83</ele>
        <time>2025-10-12T09:38:02.000Z</time>
      </trkpt>
      <trkpt lat="43.16018" lon="6.61994">
        <ele>83</ele>
        <time>2025-10-12T09:38:03.000Z</time>
      </trkpt>
      <trkpt lat="43.16018" lon="6.61994">
        <ele>83</ele>
        <time>2025-10-12T09:38:04.000Z</time>
      </trkpt>
      <trkpt lat="43.16018" lon="6.61993">
        <ele>83</ele>
        <time>2025-10-12T09:38:10.000Z</time>
      </trkpt>
      <trkpt lat="43.16018" lon="6.61993">
        <ele>83</ele>
        <time>2025-10-12T09:38:11.000Z</time>
      </trkpt>
      <trkpt lat="43.16018" lon="6.61993">
        <ele>83</ele>
        <time>2025-10-12T09:38:12.000Z</time>
      </trkpt>
      <trkpt lat="43.16018" lon="6.61993">
        <ele>83</ele>
        <time>2025-10-12T09:38:13.000Z</time>
      </trkpt>
      <trkpt lat="43.16018" lon="6.61993">
        <ele>83</ele>
        <time>2025-10-12T09:38:14.000Z</time>
      </trkpt>
      <trkpt lat="43.16018" lon="6.61993">
        <ele>83</ele>
        <time>2025-10-12T09:38:26.000Z</time>
      </trkpt>
      <trkpt lat="43.16018" lon="6.61993">
        <ele>83</ele>
        <time>2025-10-12T09:38:27.000Z</time>
      </trkpt>
      <trkpt lat="43.16018" lon="6.61993">
        <ele>83</ele>
        <time>2025-10-12T09:38:28.000Z</time>
      </trkpt>
      <trkpt lat="43.16017" lon="6.61993">
        <ele>83</ele>
        <time>2025-10-12T09:38:29.000Z</time>
      </trkpt>
      <trkpt lat="43.16017" lon="6.61993">
        <ele>83</ele>
        <time>2025-10-12T09:38:30.000Z</time>
      </trkpt>
      <trkpt lat="43.16017" lon="6.61993">
        <ele>83.1</ele>
        <time>2025-10-12T09:38:48.000Z</time>
      </trkpt>
      <trkpt lat="43.16017" lon="6.61993">
        <ele>83.1</ele>
        <time>2025-10-12T09:38:49.000Z</time>
      </trkpt>
      <trkpt lat="43.16017" lon="6.61993">
        <ele>83.1</ele>
        <time>2025-10-12T09:38:50.000Z</time>
      </trkpt>
      <trkpt lat="43.16017" lon="6.61993">
        <ele>83.1</ele>
        <time>2025-10-12T09:38:51.000Z</time>
      </trkpt>
      <trkpt lat="43.16018" lon="6.61993">
        <ele>83.1</ele>
        <time>2025-10-12T09:38:55.000Z</time>
      </trkpt>
      <trkpt lat="43.16018" lon="6.61993">
        <ele>83.1</ele>
        <time>2025-10-12T09:38:56.000Z</time>
      </trkpt>
      <trkpt lat="43.16018" lon="6.61993">
        <ele>83.1</ele>
        <time>2025-10-12T09:38:57.000Z</time>
      </trkpt>
      <trkpt lat="43.16018" lon="6.61992">
        <ele>83.1</ele>
        <time>2025-10-12T09:38:58.000Z</time>
      </trkpt>
      <trkpt lat="43.16018" lon="6.61992">
        <ele>83.1</ele>
        <time>2025-10-12T09:38:59.000Z</time>
      </trkpt>
      <trkpt lat="43.16018" lon="6.61992">
        <ele>83.1</ele>
        <time>2025-10-12T09:39:02.000Z</time>
      </trkpt>
      <trkpt lat="43.16018" lon="6.61992">
        <ele>83.1</ele>
        <time>2025-10-12T09:39:03.000Z</time>
      </trkpt>
      <trkpt lat="43.16018" lon="6.61992">
        <ele>83.1</ele>
        <time>2025-10-12T09:39:04.000Z</time>
      </trkpt>
      <trkpt lat="43.16018" lon="6.61992">
        <ele>83.1</ele>
        <time>2025-10-12T09:39:05.000Z</time>
      </trkpt>
      <trkpt lat="43.16017" lon="6.61992">
        <ele>83.1</ele>
        <time>2025-10-12T09:39:06.000Z</time>
      </trkpt>
      <trkpt lat="43.16017" lon="6.61991">
        <ele>83.1</ele>
        <time>2025-10-12T09:39:30.000Z</time>
      </trkpt>
      <trkpt lat="43.16017" lon="6.61991">
        <ele>83.1</ele>
        <time>2025-10-12T09:39:31.000Z</time>
      </trkpt>
      <trkpt lat="43.16017" lon="6.61991">
        <ele>83.1</ele>
        <time>2025-10-12T09:39:32.000Z</time>
      </trkpt>
      <trkpt lat="43.16017" lon="6.61991">
        <ele>83.1</ele>
        <time>2025-10-12T09:39:35.000Z</time>
      </trkpt>
      <trkpt lat="43.16017" lon="6.61991">
        <ele>83.1</ele>
        <time>2025-10-12T09:39:36.000Z</time>
      </trkpt>
      <trkpt lat="43.16017" lon="6.61991">
        <ele>83.1</ele>
        <time>2025-10-12T09:39:37.000Z</time>
      </trkpt>
      <trkpt lat="43.16017" lon="6.61991">
        <ele>83.1</ele>
        <time>2025-10-12T09:39:57.000Z</time>
      </trkpt>
      <trkpt lat="43.16017" lon="6.61991">
        <ele>83.1</ele>
        <time>2025-10-12T09:39:58.000Z</time>
      </trkpt>
      <trkpt lat="43.16017" lon="6.61991">
        <ele>83.1</ele>
        <time>2025-10-12T09:39:59.000Z</time>
      </trkpt>
      <trkpt lat="43.16017" lon="6.61991">
        <ele>83.1</ele>
        <time>2025-10-12T09:40:00.000Z</time>
      </trkpt>
      <trkpt lat="43.16017" lon="6.61991">
        <ele>83.1</ele>
        <time>2025-10-12T09:40:01.000Z</time>
      </trkpt>
      <trkpt lat="43.16017" lon="6.61991">
        <ele>83.1</ele>
        <time>2025-10-12T09:40:05.000Z</time>
      </trkpt>
      <trkpt lat="43.16017" lon="6.61991">
        <ele>83.1</ele>
        <time>2025-10-12T09:40:06.000Z</time>
      </trkpt>
      <trkpt lat="43.16017" lon="6.61991">
        <ele>83.1</ele>
        <time>2025-10-12T09:40:07.000Z</time>
      </trkpt>
      <trkpt lat="43.16017" lon="6.61991">
        <ele>83.1</ele>
        <time>2025-10-12T09:40:08.000Z</time>
      </trkpt>
      <trkpt lat="43.16017" lon="6.61991">
        <ele>83.1</ele>
        <time>2025-10-12T09:40:09.000Z</time>
      </trkpt>
      <trkpt lat="43.16016" lon="6.61991">
        <ele>83.1</ele>
        <time>2025-10-12T09:40:30.000Z</time>
      </trkpt>
      <trkpt lat="43.16016" lon="6.61991">
        <ele>83.1</ele>
        <time>2025-10-12T09:40:31.000Z</time>
      </trkpt>
      <trkpt lat="43.16016" lon="6.6199">
        <ele>83.1</ele>
        <time>2025-10-12T09:40:42.000Z</time>
      </trkpt>
      <trkpt lat="43.16016" lon="6.6199">
        <ele>83.1</ele>
        <time>2025-10-12T09:40:43.000Z</time>
      </trkpt>
      <trkpt lat="43.16016" lon="6.6199">
        <ele>83.1</ele>
        <time>2025-10-12T09:40:44.000Z</time>
      </trkpt>
      <trkpt lat="43.16017" lon="6.6199">
        <ele>83.1</ele>
        <time>2025-10-12T09:40:50.000Z</time>
      </trkpt>
      <trkpt lat="43.16017" lon="6.6199">
        <ele>83.1</ele>
        <time>2025-10-12T09:40:51.000Z</time>
      </trkpt>
      <trkpt lat="43.16017" lon="6.61991">
        <ele>83.1</ele>
        <time>2025-10-12T09:40:57.000Z</time>
      </trkpt>
      <trkpt lat="43.16017" lon="6.61991">
        <ele>83.1</ele>
        <time>2025-10-12T09:40:58.000Z</time>
      </trkpt>
      <trkpt lat="43.16017" lon="6.61991">
        <ele>83.1</ele>
        <time>2025-10-12T09:40:59.000Z</time>
      </trkpt>
      <trkpt lat="43.16017" lon="6.61991">
        <ele>83.2</ele>
        <time>2025-10-12T09:41:05.000Z</time>
      </trkpt>
      <trkpt lat="43.16017" lon="6.6199">
        <ele>83.2</ele>
        <time>2025-10-12T09:41:06.000Z</time>
      </trkpt>
      <trkpt lat="43.16017" lon="6.6199">
        <ele>83.2</ele>
        <time>2025-10-12T09:41:07.000Z</time>
      </trkpt>
      <trkpt lat="43.1601" lon="6.61992">
        <ele>83</ele>
        <time>2025-10-12T09:41:30.000Z</time>
      </trkpt>
      <trkpt lat="43.1601" lon="6.61992">
        <ele>83</ele>
        <time>2025-10-12T09:41:31.000Z</time>
      </trkpt>
      <trkpt lat="43.1601" lon="6.61993">
        <ele>82.9</ele>
        <time>2025-10-12T09:41:32.000Z</time>
      </trkpt>
      <trkpt lat="43.1601" lon="6.61993">
        <ele>82.9</ele>
        <time>2025-10-12T09:41:33.000Z</time>
      </trkpt>
      <trkpt lat="43.1601" lon="6.61993">
        <ele>82.9</ele>
        <time>2025-10-12T09:41:34.000Z</time>
      </trkpt>
      <trkpt lat="43.16002" lon="6.62">
        <ele>78.5</ele>
        <time>2025-10-12T09:42:14.000Z</time>
      </trkpt>
      <trkpt lat="43.16007" lon="6.62011">
        <ele>76.2</ele>
        <time>2025-10-12T09:42:40.000Z</time>
      </trkpt>
      <trkpt lat="43.16014" lon="6.62017">
        <ele>77.1</ele>
        <time>2025-10-12T09:42:57.000Z</time>
      </trkpt>
      <trkpt lat="43.16014" lon="6.62017">
        <ele>77.2</ele>
        <time>2025-10-12T09:42:58.000Z</time>
      </trkpt>
      <trkpt lat="43.16014" lon="6.62017">
        <ele>77.2</ele>
        <time>2025-10-12T09:42:59.000Z</time>
      </trkpt>
      <trkpt lat="43.16015" lon="6.62018">
        <ele>77.5</ele>
        <time>2025-10-12T09:43:10.000Z</time>
      </trkpt>
      <trkpt lat="43.16015" lon="6.62019">
        <ele>77.5</ele>
        <time>2025-10-12T09:43:11.000Z</time>
      </trkpt>
      <trkpt lat="43.16016" lon="6.6202">
        <ele>77.5</ele>
        <time>2025-10-12T09:43:12.000Z</time>
      </trkpt>
      <trkpt lat="43.16025" lon="6.62025">
        <ele>77.5</ele>
        <time>2025-10-12T09:43:24.000Z</time>
      </trkpt>
      <trkpt lat="43.16033" lon="6.62029">
        <ele>77.1</ele>
        <time>2025-10-12T09:43:35.000Z</time>
      </trkpt>
      <trkpt lat="43.16035" lon="6.62033">
        <ele>76.5</ele>
        <time>2025-10-12T09:43:42.000Z</time>
      </trkpt>
      <trkpt lat="43.16035" lon="6.62033">
        <ele>76.4</ele>
        <time>2025-10-12T09:43:43.000Z</time>
      </trkpt>
      <trkpt lat="43.16035" lon="6.62033">
        <ele>76.3</ele>
        <time>2025-10-12T09:43:44.000Z</time>
      </trkpt>
      <trkpt lat="43.16035" lon="6.62033">
        <ele>75.8</ele>
        <time>2025-10-12T09:43:50.000Z</time>
      </trkpt>
      <trkpt lat="43.16035" lon="6.62034">
        <ele>75.8</ele>
        <time>2025-10-12T09:43:51.000Z</time>
      </trkpt>
      <trkpt lat="43.16035" lon="6.62034">
        <ele>75.7</ele>
        <time>2025-10-12T09:43:52.000Z</time>
      </trkpt>
      <trkpt lat="43.1604" lon="6.62044">
        <ele>72.2</ele>
        <time>2025-10-12T09:44:15.000Z</time>
      </trkpt>
      <trkpt lat="43.16041" lon="6.62056">
        <ele>68.3</ele>
        <time>2025-10-12T09:44:32.000Z</time>
      </trkpt>
      <trkpt lat="43.16048" lon="6.62066">
        <ele>64.8</ele>
        <time>2025-10-12T09:44:48.000Z</time>
      </trkpt>
      <trkpt lat="43.16054" lon="6.62076">
        <ele>64.2</ele>
        <time>2025-10-12T09:44:58.000Z</time>
      </trkpt>
      <trkpt lat="43.1606" lon="6.62087">
        <ele>62.6</ele>
        <time>2025-10-12T09:45:12.000Z</time>
      </trkpt>
      <trkpt lat="43.16065" lon="6.62097">
        <ele>60.2</ele>
        <time>2025-10-12T09:45:35.000Z</time>
      </trkpt>
      <trkpt lat="43.16068" lon="6.62109">
        <ele>56.5</ele>
        <time>2025-10-12T09:46:02.000Z</time>
      </trkpt>
      <trkpt lat="43.16071" lon="6.62117">
        <ele>54.6</ele>
        <time>2025-10-12T09:46:21.000Z</time>
      </trkpt>
      <trkpt lat="43.16071" lon="6.62117">
        <ele>54.5</ele>
        <time>2025-10-12T09:46:22.000Z</time>
      </trkpt>
      <trkpt lat="43.16071" lon="6.62117">
        <ele>54.4</ele>
        <time>2025-10-12T09:46:27.000Z</time>
      </trkpt>
      <trkpt lat="43.16072" lon="6.62118">
        <ele>54.3</ele>
        <time>2025-10-12T09:46:28.000Z</time>
      </trkpt>
      <trkpt lat="43.16072" lon="6.62118">
        <ele>54.3</ele>
        <time>2025-10-12T09:46:29.000Z</time>
      </trkpt>
      <trkpt lat="43.16075" lon="6.62127">
        <ele>52.4</ele>
        <time>2025-10-12T09:46:45.000Z</time>
      </trkpt>
      <trkpt lat="43.16075" lon="6.62127">
        <ele>52.2</ele>
        <time>2025-10-12T09:46:46.000Z</time>
      </trkpt>
      <trkpt lat="43.16075" lon="6.62127">
        <ele>52.1</ele>
        <time>2025-10-12T09:46:47.000Z</time>
      </trkpt>
      <trkpt lat="43.16074" lon="6.62127">
        <ele>51.7</ele>
        <time>2025-10-12T09:46:53.000Z</time>
      </trkpt>
      <trkpt lat="43.16074" lon="6.62127">
        <ele>51.6</ele>
        <time>2025-10-12T09:46:54.000Z</time>
      </trkpt>
      <trkpt lat="43.16073" lon="6.6214">
        <ele>49</ele>
        <time>2025-10-12T09:47:12.000Z</time>
      </trkpt>
      <trkpt lat="43.16074" lon="6.62153">
        <ele>46.2</ele>
        <time>2025-10-12T09:47:31.000Z</time>
      </trkpt>
      <trkpt lat="43.1608" lon="6.62162">
        <ele>45.4</ele>
        <time>2025-10-12T09:47:40.000Z</time>
      </trkpt>
      <trkpt lat="43.16084" lon="6.62173">
        <ele>44.6</ele>
        <time>2025-10-12T09:47:56.000Z</time>
      </trkpt>
      <trkpt lat="43.16091" lon="6.62182">
        <ele>43.1</ele>
        <time>2025-10-12T09:48:15.000Z</time>
      </trkpt>
      <trkpt lat="43.16098" lon="6.62189">
        <ele>43.6</ele>
        <time>2025-10-12T09:48:27.000Z</time>
      </trkpt>
      <trkpt lat="43.16106" lon="6.62196">
        <ele>43.6</ele>
        <time>2025-10-12T09:48:37.000Z</time>
      </trkpt>
      <trkpt lat="43.16115" lon="6.62203">
        <ele>42.7</ele>
        <time>2025-10-12T09:48:51.000Z</time>
      </trkpt>
      <trkpt lat="43.16123" lon="6.62208">
        <ele>41</ele>
        <time>2025-10-12T09:49:06.000Z</time>
      </trkpt>
      <trkpt lat="43.16132" lon="6.62212">
        <ele>40.3</ele>
        <time>2025-10-12T09:49:16.000Z</time>
      </trkpt>
      <trkpt lat="43.16139" lon="6.62212">
        <ele>39.3</ele>
        <time>2025-10-12T09:49:31.000Z</time>
      </trkpt>
      <trkpt lat="43.16139" lon="6.62212">
        <ele>39.2</ele>
        <time>2025-10-12T09:49:32.000Z</time>
      </trkpt>
      <trkpt lat="43.1614" lon="6.62213">
        <ele>38.8</ele>
        <time>2025-10-12T09:49:43.000Z</time>
      </trkpt>
      <trkpt lat="43.1614" lon="6.62213">
        <ele>38.8</ele>
        <time>2025-10-12T09:49:44.000Z</time>
      </trkpt>
      <trkpt lat="43.16141" lon="6.62213">
        <ele>38.8</ele>
        <time>2025-10-12T09:49:45.000Z</time>
      </trkpt>
      <trkpt lat="43.16149" lon="6.62207">
        <ele>38.7</ele>
        <time>2025-10-12T09:49:57.000Z</time>
      </trkpt>
      <trkpt lat="43.16155" lon="6.62198">
        <ele>37.8</ele>
        <time>2025-10-12T09:50:13.000Z</time>
      </trkpt>
      <trkpt lat="43.16155" lon="6.62198">
        <ele>37.8</ele>
        <time>2025-10-12T09:50:14.000Z</time>
      </trkpt>
      <trkpt lat="43.16155" lon="6.62198">
        <ele>37.6</ele>
        <time>2025-10-12T09:50:22.000Z</time>
      </trkpt>
      <trkpt lat="43.16155" lon="6.62197">
        <ele>37.5</ele>
        <time>2025-10-12T09:50:23.000Z</time>
      </trkpt>
      <trkpt lat="43.16155" lon="6.62197">
        <ele>37.5</ele>
        <time>2025-10-12T09:50:24.000Z</time>
      </trkpt>
      <trkpt lat="43.16164" lon="6.62199">
        <ele>37.3</ele>
        <time>2025-10-12T09:50:37.000Z</time>
      </trkpt>
      <trkpt lat="43.16173" lon="6.62202">
        <ele>36.6</ele>
        <time>2025-10-12T09:50:59.000Z</time>
      </trkpt>
      <trkpt lat="43.16179" lon="6.62192">
        <ele>35.4</ele>
        <time>2025-10-12T09:51:09.000Z</time>
      </trkpt>
      <trkpt lat="43.16186" lon="6.62184">
        <ele>34.1</ele>
        <time>2025-10-12T09:51:20.000Z</time>
      </trkpt>
      <trkpt lat="43.16193" lon="6.62175">
        <ele>33</ele>
        <time>2025-10-12T09:51:32.000Z</time>
      </trkpt>
      <trkpt lat="43.16196" lon="6.62172">
        <ele>32.1</ele>
        <time>2025-10-12T09:51:43.000Z</time>
      </trkpt>
      <trkpt lat="43.16196" lon="6.62172">
        <ele>32.1</ele>
        <time>2025-10-12T09:51:44.000Z</time>
      </trkpt>
      <trkpt lat="43.16196" lon="6.62172">
        <ele>31.9</ele>
        <time>2025-10-12T09:51:47.000Z</time>
      </trkpt>
      <trkpt lat="43.16196" lon="6.62172">
        <ele>31.9</ele>
        <time>2025-10-12T09:51:48.000Z</time>
      </trkpt>
      <trkpt lat="43.16196" lon="6.62172">
        <ele>31.8</ele>
        <time>2025-10-12T09:51:49.000Z</time>
      </trkpt>
      <trkpt lat="43.16196" lon="6.62171">
        <ele>31.6</ele>
        <time>2025-10-12T09:51:55.000Z</time>
      </trkpt>
      <trkpt lat="43.16196" lon="6.62171">
        <ele>31.5</ele>
        <time>2025-10-12T09:51:56.000Z</time>
      </trkpt>
      <trkpt lat="43.16196" lon="6.62171">
        <ele>31.5</ele>
        <time>2025-10-12T09:51:57.000Z</time>
      </trkpt>
      <trkpt lat="43.16196" lon="6.6217">
        <ele>31.3</ele>
        <time>2025-10-12T09:52:08.000Z</time>
      </trkpt>
      <trkpt lat="43.16196" lon="6.6217">
        <ele>31.3</ele>
        <time>2025-10-12T09:52:09.000Z</time>
      </trkpt>
      <trkpt lat="43.16196" lon="6.62169">
        <ele>31.2</ele>
        <time>2025-10-12T09:52:10.000Z</time>
      </trkpt>
      <trkpt lat="43.16197" lon="6.62164">
        <ele>30.1</ele>
        <time>2025-10-12T09:52:23.000Z</time>
      </trkpt>
      <trkpt lat="43.16197" lon="6.62164">
        <ele>30</ele>
        <time>2025-10-12T09:52:24.000Z</time>
      </trkpt>
      <trkpt lat="43.16198" lon="6.62164">
        <ele>29.5</ele>
        <time>2025-10-12T09:52:32.000Z</time>
      </trkpt>
      <trkpt lat="43.16198" lon="6.62164">
        <ele>29.4</ele>
        <time>2025-10-12T09:52:33.000Z</time>
      </trkpt>
      <trkpt lat="43.16198" lon="6.62164">
        <ele>29.3</ele>
        <time>2025-10-12T09:52:34.000Z</time>
      </trkpt>
      <trkpt lat="43.16207" lon="6.62165">
        <ele>27.5</ele>
        <time>2025-10-12T09:52:44.000Z</time>
      </trkpt>
      <trkpt lat="43.16216" lon="6.62168">
        <ele>25.7</ele>
        <time>2025-10-12T09:52:55.000Z</time>
      </trkpt>
      <trkpt lat="43.16225" lon="6.62164">
        <ele>25.3</ele>
        <time>2025-10-12T09:53:04.000Z</time>
      </trkpt>
      <trkpt lat="43.1623" lon="6.62154">
        <ele>25.4</ele>
        <time>2025-10-12T09:53:13.000Z</time>
      </trkpt>
      <trkpt lat="43.16237" lon="6.62145">
        <ele>26.2</ele>
        <time>2025-10-12T09:53:23.000Z</time>
      </trkpt>
      <trkpt lat="43.16245" lon="6.62136">
        <ele>26.6</ele>
        <time>2025-10-12T09:53:40.000Z</time>
      </trkpt>
      <trkpt lat="43.16254" lon="6.62135">
        <ele>26.1</ele>
        <time>2025-10-12T09:53:53.000Z</time>
      </trkpt>
      <trkpt lat="43.16264" lon="6.62133">
        <ele>23.7</ele>
        <time>2025-10-12T09:54:14.000Z</time>
      </trkpt>
      <trkpt lat="43.16273" lon="6.62131">
        <ele>22.8</ele>
        <time>2025-10-12T09:54:26.000Z</time>
      </trkpt>
      <trkpt lat="43.16282" lon="6.62128">
        <ele>22.3</ele>
        <time>2025-10-12T09:54:36.000Z</time>
      </trkpt>
      <trkpt lat="43.1629" lon="6.62124">
        <ele>22.5</ele>
        <time>2025-10-12T09:54:54.000Z</time>
      </trkpt>
      <trkpt lat="43.16291" lon="6.62124">
        <ele>22.9</ele>
        <time>2025-10-12T09:55:00.000Z</time>
      </trkpt>
      <trkpt lat="43.16291" lon="6.62124">
        <ele>23</ele>
        <time>2025-10-12T09:55:01.000Z</time>
      </trkpt>
      <trkpt lat="43.16291" lon="6.62124">
        <ele>23.3</ele>
        <time>2025-10-12T09:55:12.000Z</time>
      </trkpt>
      <trkpt lat="43.16291" lon="6.62124">
        <ele>23.3</ele>
        <time>2025-10-12T09:55:13.000Z</time>
      </trkpt>
      <trkpt lat="43.16291" lon="6.62125">
        <ele>23.3</ele>
        <time>2025-10-12T09:55:14.000Z</time>
      </trkpt>
      <trkpt lat="43.16298" lon="6.62132">
        <ele>22.1</ele>
        <time>2025-10-12T09:55:29.000Z</time>
      </trkpt>
      <trkpt lat="43.16308" lon="6.62135">
        <ele>20.5</ele>
        <time>2025-10-12T09:55:41.000Z</time>
      </trkpt>
      <trkpt lat="43.1631" lon="6.62135">
        <ele>20.5</ele>
        <time>2025-10-12T09:55:48.000Z</time>
      </trkpt>
      <trkpt lat="43.16311" lon="6.62135">
        <ele>20.4</ele>
        <time>2025-10-12T09:55:49.000Z</time>
      </trkpt>
      <trkpt lat="43.16312" lon="6.62135">
        <ele>20.4</ele>
        <time>2025-10-12T09:55:50.000Z</time>
      </trkpt>
      <trkpt lat="43.16313" lon="6.62135">
        <ele>20.4</ele>
        <time>2025-10-12T09:55:51.000Z</time>
      </trkpt>
      <trkpt lat="43.16323" lon="6.62138">
        <ele>20.3</ele>
        <time>2025-10-12T09:56:01.000Z</time>
      </trkpt>
      <trkpt lat="43.16329" lon="6.62147">
        <ele>20.4</ele>
        <time>2025-10-12T09:56:16.000Z</time>
      </trkpt>
      <trkpt lat="43.16338" lon="6.62151">
        <ele>21.6</ele>
        <time>2025-10-12T09:56:29.000Z</time>
      </trkpt>
      <trkpt lat="43.16347" lon="6.62151">
        <ele>22.6</ele>
        <time>2025-10-12T09:56:48.000Z</time>
      </trkpt>
      <trkpt lat="43.16356" lon="6.62148">
        <ele>23</ele>
        <time>2025-10-12T09:56:57.000Z</time>
      </trkpt>
      <trkpt lat="43.16365" lon="6.6215">
        <ele>23.5</ele>
        <time>2025-10-12T09:57:10.000Z</time>
      </trkpt>
      <trkpt lat="43.16374" lon="6.62156">
        <ele>23.6</ele>
        <time>2025-10-12T09:57:22.000Z</time>
      </trkpt>
      <trkpt lat="43.16381" lon="6.62164">
        <ele>22.9</ele>
        <time>2025-10-12T09:57:39.000Z</time>
      </trkpt>
      <trkpt lat="43.16387" lon="6.62173">
        <ele>21.7</ele>
        <time>2025-10-12T09:57:51.000Z</time>
      </trkpt>
      <trkpt lat="43.16394" lon="6.62183">
        <ele>21.1</ele>
        <time>2025-10-12T09:58:02.000Z</time>
      </trkpt>
      <trkpt lat="43.16403" lon="6.62184">
        <ele>21.6</ele>
        <time>2025-10-12T09:58:21.000Z</time>
      </trkpt>
      <trkpt lat="43.16412" lon="6.62186">
        <ele>21.5</ele>
        <time>2025-10-12T09:58:32.000Z</time>
      </trkpt>
      <trkpt lat="43.16422" lon="6.62187">
        <ele>21.8</ele>
        <time>2025-10-12T09:58:48.000Z</time>
      </trkpt>
      <trkpt lat="43.16431" lon="6.62185">
        <ele>21.6</ele>
        <time>2025-10-12T09:59:11.000Z</time>
      </trkpt>
      <trkpt lat="43.1644" lon="6.62191">
        <ele>22.1</ele>
        <time>2025-10-12T09:59:23.000Z</time>
      </trkpt>
      <trkpt lat="43.16448" lon="6.62199">
        <ele>22.3</ele>
        <time>2025-10-12T09:59:33.000Z</time>
      </trkpt>
      <trkpt lat="43.16457" lon="6.62202">
        <ele>22</ele>
        <time>2025-10-12T09:59:44.000Z</time>
      </trkpt>
      <trkpt lat="43.16464" lon="6.62209">
        <ele>22</ele>
        <time>2025-10-12T09:59:52.000Z</time>
      </trkpt>
      <trkpt lat="43.16472" lon="6.62217">
        <ele>22</ele>
        <time>2025-10-12T10:00:02.000Z</time>
      </trkpt>
      <trkpt lat="43.16479" lon="6.62225">
        <ele>22.1</ele>
        <time>2025-10-12T10:00:10.000Z</time>
      </trkpt>
      <trkpt lat="43.16486" lon="6.62234">
        <ele>22.2</ele>
        <time>2025-10-12T10:00:21.000Z</time>
      </trkpt>
      <trkpt lat="43.16493" lon="6.62243">
        <ele>22.6</ele>
        <time>2025-10-12T10:00:33.000Z</time>
      </trkpt>
      <trkpt lat="43.16502" lon="6.62248">
        <ele>22.8</ele>
        <time>2025-10-12T10:00:43.000Z</time>
      </trkpt>
      <trkpt lat="43.16508" lon="6.62257">
        <ele>23.1</ele>
        <time>2025-10-12T10:00:54.000Z</time>
      </trkpt>
      <trkpt lat="43.16517" lon="6.62263">
        <ele>23.6</ele>
        <time>2025-10-12T10:01:05.000Z</time>
      </trkpt>
      <trkpt lat="43.16522" lon="6.62273">
        <ele>24.2</ele>
        <time>2025-10-12T10:01:16.000Z</time>
      </trkpt>
      <trkpt lat="43.16531" lon="6.62278">
        <ele>24.7</ele>
        <time>2025-10-12T10:01:26.000Z</time>
      </trkpt>
      <trkpt lat="43.16536" lon="6.62281">
        <ele>25.4</ele>
        <time>2025-10-12T10:01:38.000Z</time>
      </trkpt>
      <trkpt lat="43.16536" lon="6.62282">
        <ele>25.4</ele>
        <time>2025-10-12T10:01:39.000Z</time>
      </trkpt>
      <trkpt lat="43.16536" lon="6.62282">
        <ele>25.4</ele>
        <time>2025-10-12T10:01:40.000Z</time>
      </trkpt>
      <trkpt lat="43.16536" lon="6.62282">
        <ele>25.4</ele>
        <time>2025-10-12T10:01:41.000Z</time>
      </trkpt>
      <trkpt lat="43.16536" lon="6.62282">
        <ele>25.4</ele>
        <time>2025-10-12T10:01:42.000Z</time>
      </trkpt>
      <trkpt lat="43.16542" lon="6.62292">
        <ele>24.5</ele>
        <time>2025-10-12T10:02:07.000Z</time>
      </trkpt>
      <trkpt lat="43.16547" lon="6.62295">
        <ele>23.7</ele>
        <time>2025-10-12T10:02:15.000Z</time>
      </trkpt>
      <trkpt lat="43.16547" lon="6.62295">
        <ele>23.6</ele>
        <time>2025-10-12T10:02:16.000Z</time>
      </trkpt>
      <trkpt lat="43.16547" lon="6.62295">
        <ele>23.6</ele>
        <time>2025-10-12T10:02:17.000Z</time>
      </trkpt>
      <trkpt lat="43.16548" lon="6.62296">
        <ele>23.5</ele>
        <time>2025-10-12T10:02:18.000Z</time>
      </trkpt>
      <trkpt lat="43.16549" lon="6.62297">
        <ele>23.4</ele>
        <time>2025-10-12T10:02:19.000Z</time>
      </trkpt>
      <trkpt lat="43.16556" lon="6.62305">
        <ele>23.2</ele>
        <time>2025-10-12T10:02:28.000Z</time>
      </trkpt>
      <trkpt lat="43.16564" lon="6.62311">
        <ele>23.4</ele>
        <time>2025-10-12T10:02:40.000Z</time>
      </trkpt>
      <trkpt lat="43.16567" lon="6.62324">
        <ele>23.7</ele>
        <time>2025-10-12T10:02:51.000Z</time>
      </trkpt>
      <trkpt lat="43.16573" lon="6.62333">
        <ele>23.1</ele>
        <time>2025-10-12T10:03:02.000Z</time>
      </trkpt>
      <trkpt lat="43.16578" lon="6.62344">
        <ele>22.5</ele>
        <time>2025-10-12T10:03:12.000Z</time>
      </trkpt>
      <trkpt lat="43.16585" lon="6.62351">
        <ele>22.2</ele>
        <time>2025-10-12T10:03:25.000Z</time>
      </trkpt>
      <trkpt lat="43.16585" lon="6.62351">
        <ele>22.2</ele>
        <time>2025-10-12T10:03:26.000Z</time>
      </trkpt>
      <trkpt lat="43.16586" lon="6.62352">
        <ele>22.1</ele>
        <time>2025-10-12T10:03:30.000Z</time>
      </trkpt>
      <trkpt lat="43.16587" lon="6.62353">
        <ele>22.1</ele>
        <time>2025-10-12T10:03:31.000Z</time>
      </trkpt>
      <trkpt lat="43.16587" lon="6.62355">
        <ele>22.1</ele>
        <time>2025-10-12T10:03:32.000Z</time>
      </trkpt>
      <trkpt lat="43.16595" lon="6.62363">
        <ele>21.8</ele>
        <time>2025-10-12T10:03:41.000Z</time>
      </trkpt>
      <trkpt lat="43.16603" lon="6.6237">
        <ele>21.4</ele>
        <time>2025-10-12T10:03:49.000Z</time>
      </trkpt>
      <trkpt lat="43.16605" lon="6.62375">
        <ele>20.7</ele>
        <time>2025-10-12T10:04:02.000Z</time>
      </trkpt>
      <trkpt lat="43.16605" lon="6.62376">
        <ele>20.7</ele>
        <time>2025-10-12T10:04:03.000Z</time>
      </trkpt>
      <trkpt lat="43.16605" lon="6.62376">
        <ele>20.6</ele>
        <time>2025-10-12T10:04:04.000Z</time>
      </trkpt>
      <trkpt lat="43.16605" lon="6.62376">
        <ele>20.6</ele>
        <time>2025-10-12T10:04:05.000Z</time>
      </trkpt>
      <trkpt lat="43.16605" lon="6.62376">
        <ele>20.6</ele>
        <time>2025-10-12T10:04:06.000Z</time>
      </trkpt>
      <trkpt lat="43.16605" lon="6.62376">
        <ele>20.6</ele>
        <time>2025-10-12T10:04:07.000Z</time>
      </trkpt>
      <trkpt lat="43.16605" lon="6.62376">
        <ele>20.5</ele>
        <time>2025-10-12T10:04:08.000Z</time>
      </trkpt>
      <trkpt lat="43.16605" lon="6.62376">
        <ele>20.5</ele>
        <time>2025-10-12T10:04:09.000Z</time>
      </trkpt>
      <trkpt lat="43.16605" lon="6.62376">
        <ele>20.5</ele>
        <time>2025-10-12T10:04:15.000Z</time>
      </trkpt>
      <trkpt lat="43.16605" lon="6.62376">
        <ele>20.5</ele>
        <time>2025-10-12T10:04:16.000Z</time>
      </trkpt>
      <trkpt lat="43.16605" lon="6.62376">
        <ele>20.5</ele>
        <time>2025-10-12T10:04:17.000Z</time>
      </trkpt>
      <trkpt lat="43.16605" lon="6.62376">
        <ele>20.5</ele>
        <time>2025-10-12T10:04:18.000Z</time>
      </trkpt>
      <trkpt lat="43.16605" lon="6.62376">
        <ele>20.5</ele>
        <time>2025-10-12T10:04:19.000Z</time>
      </trkpt>
      <trkpt lat="43.16604" lon="6.62376">
        <ele>20.4</ele>
        <time>2025-10-12T10:04:28.000Z</time>
      </trkpt>
      <trkpt lat="43.16604" lon="6.62377">
        <ele>20.4</ele>
        <time>2025-10-12T10:04:29.000Z</time>
      </trkpt>
      <trkpt lat="43.16604" lon="6.62377">
        <ele>20.4</ele>
        <time>2025-10-12T10:04:30.000Z</time>
      </trkpt>
      <trkpt lat="43.16605" lon="6.6238">
        <ele>20.2</ele>
        <time>2025-10-12T10:04:40.000Z</time>
      </trkpt>
      <trkpt lat="43.16605" lon="6.6238">
        <ele>20.2</ele>
        <time>2025-10-12T10:04:41.000Z</time>
      </trkpt>
      <trkpt lat="43.16605" lon="6.6238">
        <ele>20.1</ele>
        <time>2025-10-12T10:04:42.000Z</time>
      </trkpt>
      <trkpt lat="43.16605" lon="6.6238">
        <ele>20.1</ele>
        <time>2025-10-12T10:04:43.000Z</time>
      </trkpt>
      <trkpt lat="43.16605" lon="6.6238">
        <ele>20.1</ele>
        <time>2025-10-12T10:04:44.000Z</time>
      </trkpt>
      <trkpt lat="43.16605" lon="6.62381">
        <ele>20</ele>
        <time>2025-10-12T10:04:45.000Z</time>
      </trkpt>
      <trkpt lat="43.16605" lon="6.62381">
        <ele>20</ele>
        <time>2025-10-12T10:04:46.000Z</time>
      </trkpt>
      <trkpt lat="43.16605" lon="6.62382">
        <ele>20</ele>
        <time>2025-10-12T10:04:47.000Z</time>
      </trkpt>
      <trkpt lat="43.16605" lon="6.62383">
        <ele>19.9</ele>
        <time>2025-10-12T10:04:48.000Z</time>
      </trkpt>
      <trkpt lat="43.16604" lon="6.62384">
        <ele>19.9</ele>
        <time>2025-10-12T10:04:49.000Z</time>
      </trkpt>
      <trkpt lat="43.16602" lon="6.62387">
        <ele>19.3</ele>
        <time>2025-10-12T10:05:18.000Z</time>
      </trkpt>
      <trkpt lat="43.16602" lon="6.62387">
        <ele>19.3</ele>
        <time>2025-10-12T10:05:19.000Z</time>
      </trkpt>
      <trkpt lat="43.16602" lon="6.62387">
        <ele>19.3</ele>
        <time>2025-10-12T10:05:20.000Z</time>
      </trkpt>
      <trkpt lat="43.16603" lon="6.62387">
        <ele>19.2</ele>
        <time>2025-10-12T10:05:21.000Z</time>
      </trkpt>
      <trkpt lat="43.16603" lon="6.62387">
        <ele>19.2</ele>
        <time>2025-10-12T10:05:22.000Z</time>
      </trkpt>
      <trkpt lat="43.16603" lon="6.62387">
        <ele>19.1</ele>
        <time>2025-10-12T10:05:28.000Z</time>
      </trkpt>
      <trkpt lat="43.16603" lon="6.62387">
        <ele>19.1</ele>
        <time>2025-10-12T10:05:29.000Z</time>
      </trkpt>
      <trkpt lat="43.16603" lon="6.62387">
        <ele>19.1</ele>
        <time>2025-10-12T10:05:30.000Z</time>
      </trkpt>
      <trkpt lat="43.16603" lon="6.62387">
        <ele>19.2</ele>
        <time>2025-10-12T10:05:31.000Z</time>
      </trkpt>
      <trkpt lat="43.16603" lon="6.62387">
        <ele>19.2</ele>
        <time>2025-10-12T10:05:32.000Z</time>
      </trkpt>
      <trkpt lat="43.16603" lon="6.62387">
        <ele>19.2</ele>
        <time>2025-10-12T10:05:33.000Z</time>
      </trkpt>
      <trkpt lat="43.16603" lon="6.62387">
        <ele>19.1</ele>
        <time>2025-10-12T10:05:34.000Z</time>
      </trkpt>
      <trkpt lat="43.16603" lon="6.62387">
        <ele>19.1</ele>
        <time>2025-10-12T10:05:35.000Z</time>
      </trkpt>
      <trkpt lat="43.16603" lon="6.62387">
        <ele>19.1</ele>
        <time>2025-10-12T10:05:36.000Z</time>
      </trkpt>
      <trkpt lat="43.16603" lon="6.62387">
        <ele>19</ele>
        <time>2025-10-12T10:05:37.000Z</time>
      </trkpt>
      <trkpt lat="43.16603" lon="6.62387">
        <ele>19.1</ele>
        <time>2025-10-12T10:05:46.000Z</time>
      </trkpt>
      <trkpt lat="43.16603" lon="6.62387">
        <ele>19.1</ele>
        <time>2025-10-12T10:05:47.000Z</time>
      </trkpt>
      <trkpt lat="43.16603" lon="6.62387">
        <ele>19.1</ele>
        <time>2025-10-12T10:05:55.000Z</time>
      </trkpt>
      <trkpt lat="43.16603" lon="6.62387">
        <ele>19.1</ele>
        <time>2025-10-12T10:06:00.000Z</time>
      </trkpt>
      <trkpt lat="43.16603" lon="6.62387">
        <ele>19.1</ele>
        <time>2025-10-12T10:06:01.000Z</time>
      </trkpt>
      <trkpt lat="43.16603" lon="6.62387">
        <ele>19.2</ele>
        <time>2025-10-12T10:06:17.000Z</time>
      </trkpt>
      <trkpt lat="43.16603" lon="6.62387">
        <ele>19.2</ele>
        <time>2025-10-12T10:06:18.000Z</time>
      </trkpt>
      <trkpt lat="43.16603" lon="6.62388">
        <ele>19.2</ele>
        <time>2025-10-12T10:06:19.000Z</time>
      </trkpt>
      <trkpt lat="43.16603" lon="6.62388">
        <ele>19.2</ele>
        <time>2025-10-12T10:06:25.000Z</time>
      </trkpt>
      <trkpt lat="43.16603" lon="6.62388">
        <ele>19.2</ele>
        <time>2025-10-12T10:06:26.000Z</time>
      </trkpt>
      <trkpt lat="43.16603" lon="6.62388">
        <ele>19.2</ele>
        <time>2025-10-12T10:06:27.000Z</time>
      </trkpt>
      <trkpt lat="43.16603" lon="6.62388">
        <ele>19.2</ele>
        <time>2025-10-12T10:06:30.000Z</time>
      </trkpt>
      <trkpt lat="43.16603" lon="6.62388">
        <ele>19.2</ele>
        <time>2025-10-12T10:06:31.000Z</time>
      </trkpt>
      <trkpt lat="43.16603" lon="6.62388">
        <ele>19.2</ele>
        <time>2025-10-12T10:06:32.000Z</time>
      </trkpt>
      <trkpt lat="43.16603" lon="6.62388">
        <ele>19.1</ele>
        <time>2025-10-12T10:06:33.000Z</time>
      </trkpt>
      <trkpt lat="43.16603" lon="6.62388">
        <ele>19.1</ele>
        <time>2025-10-12T10:06:34.000Z</time>
      </trkpt>
      <trkpt lat="43.16603" lon="6.62388">
        <ele>19.1</ele>
        <time>2025-10-12T10:06:35.000Z</time>
      </trkpt>
      <trkpt lat="43.16603" lon="6.62388">
        <ele>19.1</ele>
        <time>2025-10-12T10:06:42.000Z</time>
      </trkpt>
      <trkpt lat="43.16603" lon="6.62388">
        <ele>19.1</ele>
        <time>2025-10-12T10:06:43.000Z</time>
      </trkpt>
      <trkpt lat="43.16603" lon="6.62388">
        <ele>19.1</ele>
        <time>2025-10-12T10:06:44.000Z</time>
      </trkpt>
      <trkpt lat="43.16603" lon="6.62388">
        <ele>19.1</ele>
        <time>2025-10-12T10:06:45.000Z</time>
      </trkpt>
      <trkpt lat="43.16603" lon="6.62388">
        <ele>19.1</ele>
        <time>2025-10-12T10:06:46.000Z</time>
      </trkpt>
      <trkpt lat="43.16603" lon="6.62388">
        <ele>19.1</ele>
        <time>2025-10-12T10:06:47.000Z</time>
      </trkpt>
      <trkpt lat="43.16603" lon="6.62388">
        <ele>19.1</ele>
        <time>2025-10-12T10:06:48.000Z</time>
      </trkpt>
      <trkpt lat="43.16603" lon="6.62388">
        <ele>19.1</ele>
        <time>2025-10-12T10:06:49.000Z</time>
      </trkpt>
      <trkpt lat="43.16603" lon="6.62388">
        <ele>19.1</ele>
        <time>2025-10-12T10:06:50.000Z</time>
      </trkpt>
      <trkpt lat="43.16603" lon="6.62388">
        <ele>19.1</ele>
        <time>2025-10-12T10:06:51.000Z</time>
      </trkpt>
      <trkpt lat="43.16603" lon="6.62388">
        <ele>19.1</ele>
        <time>2025-10-12T10:06:52.000Z</time>
      </trkpt>
      <trkpt lat="43.16603" lon="6.62388">
        <ele>19.1</ele>
        <time>2025-10-12T10:06:53.000Z</time>
      </trkpt>
      <trkpt lat="43.16603" lon="6.62388">
        <ele>19.1</ele>
        <time>2025-10-12T10:06:54.000Z</time>
      </trkpt>
      <trkpt lat="43.16603" lon="6.62388">
        <ele>19.1</ele>
        <time>2025-10-12T10:06:55.000Z</time>
      </trkpt>
      <trkpt lat="43.16603" lon="6.62388">
        <ele>19.1</ele>
        <time>2025-10-12T10:06:56.000Z</time>
      </trkpt>
      <trkpt lat="43.16603" lon="6.62388">
        <ele>19.1</ele>
        <time>2025-10-12T10:06:57.000Z</time>
      </trkpt>
      <trkpt lat="43.16603" lon="6.62388">
        <ele>19.1</ele>
        <time>2025-10-12T10:06:58.000Z</time>
      </trkpt>
      <trkpt lat="43.16603" lon="6.62388">
        <ele>19.1</ele>
        <time>2025-10-12T10:06:59.000Z</time>
      </trkpt>
      <trkpt lat="43.16603" lon="6.62388">
        <ele>19</ele>
        <time>2025-10-12T10:07:05.000Z</time>
      </trkpt>
      <trkpt lat="43.16603" lon="6.62388">
        <ele>19</ele>
        <time>2025-10-12T10:07:06.000Z</time>
      </trkpt>
      <trkpt lat="43.16603" lon="6.62388">
        <ele>19</ele>
        <time>2025-10-12T10:07:40.000Z</time>
      </trkpt>
      <trkpt lat="43.16603" lon="6.62388">
        <ele>19</ele>
        <time>2025-10-12T10:07:41.000Z</time>
      </trkpt>
      <trkpt lat="43.16603" lon="6.62388">
        <ele>19</ele>
        <time>2025-10-12T10:07:42.000Z</time>
      </trkpt>
      <trkpt lat="43.16603" lon="6.62388">
        <ele>19</ele>
        <time>2025-10-12T10:07:43.000Z</time>
      </trkpt>
      <trkpt lat="43.16603" lon="6.62388">
        <ele>19</ele>
        <time>2025-10-12T10:07:44.000Z</time>
      </trkpt>
      <trkpt lat="43.16602" lon="6.62388">
        <ele>18.8</ele>
        <time>2025-10-12T10:08:40.000Z</time>
      </trkpt>
      <trkpt lat="43.16603" lon="6.62388">
        <ele>18.8</ele>
        <time>2025-10-12T10:08:41.000Z</time>
      </trkpt>
      <trkpt lat="43.16603" lon="6.62388">
        <ele>18.8</ele>
        <time>2025-10-12T10:08:45.000Z</time>
      </trkpt>
      <trkpt lat="43.16603" lon="6.62388">
        <ele>18.8</ele>
        <time>2025-10-12T10:08:46.000Z</time>
      </trkpt>
      <trkpt lat="43.16603" lon="6.62388">
        <ele>18.8</ele>
        <time>2025-10-12T10:08:47.000Z</time>
      </trkpt>
      <trkpt lat="43.16603" lon="6.62388">
        <ele>18.8</ele>
        <time>2025-10-12T10:08:48.000Z</time>
      </trkpt>
      <trkpt lat="43.16603" lon="6.62388">
        <ele>18.8</ele>
        <time>2025-10-12T10:08:49.000Z</time>
      </trkpt>
      <trkpt lat="43.16603" lon="6.62388">
        <ele>18.8</ele>
        <time>2025-10-12T10:08:50.000Z</time>
      </trkpt>
      <trkpt lat="43.16603" lon="6.62388">
        <ele>18.8</ele>
        <time>2025-10-12T10:08:51.000Z</time>
      </trkpt>
      <trkpt lat="43.16603" lon="6.62388">
        <ele>19</ele>
        <time>2025-10-12T10:09:27.000Z</time>
      </trkpt>
      <trkpt lat="43.16603" lon="6.62388">
        <ele>19</ele>
        <time>2025-10-12T10:09:28.000Z</time>
      </trkpt>
      <trkpt lat="43.16603" lon="6.62388">
        <ele>19</ele>
        <time>2025-10-12T10:09:29.000Z</time>
      </trkpt>
      <trkpt lat="43.16603" lon="6.62388">
        <ele>19</ele>
        <time>2025-10-12T10:09:30.000Z</time>
      </trkpt>
      <trkpt lat="43.16603" lon="6.62388">
        <ele>19</ele>
        <time>2025-10-12T10:09:31.000Z</time>
      </trkpt>
      <trkpt lat="43.16603" lon="6.62389">
        <ele>18.9</ele>
        <time>2025-10-12T10:09:40.000Z</time>
      </trkpt>
      <trkpt lat="43.16603" lon="6.62389">
        <ele>18.9</ele>
        <time>2025-10-12T10:09:41.000Z</time>
      </trkpt>
      <trkpt lat="43.16604" lon="6.62389">
        <ele>19</ele>
        <time>2025-10-12T10:09:48.000Z</time>
      </trkpt>
      <trkpt lat="43.16604" lon="6.62389">
        <ele>19</ele>
        <time>2025-10-12T10:09:49.000Z</time>
      </trkpt>
      <trkpt lat="43.16604" lon="6.62389">
        <ele>19.1</ele>
        <time>2025-10-12T10:09:57.000Z</time>
      </trkpt>
      <trkpt lat="43.16604" lon="6.62389">
        <ele>19.1</ele>
        <time>2025-10-12T10:09:58.000Z</time>
      </trkpt>
      <trkpt lat="43.16605" lon="6.6239">
        <ele>19.1</ele>
        <time>2025-10-12T10:09:59.000Z</time>
      </trkpt>
      <trkpt lat="43.16605" lon="6.6239">
        <ele>19.2</ele>
        <time>2025-10-12T10:10:05.000Z</time>
      </trkpt>
      <trkpt lat="43.16605" lon="6.6239">
        <ele>19.2</ele>
        <time>2025-10-12T10:10:06.000Z</time>
      </trkpt>
      <trkpt lat="43.16605" lon="6.6239">
        <ele>19.2</ele>
        <time>2025-10-12T10:10:07.000Z</time>
      </trkpt>
      <trkpt lat="43.16605" lon="6.6239">
        <ele>19.3</ele>
        <time>2025-10-12T10:10:11.000Z</time>
      </trkpt>
      <trkpt lat="43.16605" lon="6.6239">
        <ele>19.3</ele>
        <time>2025-10-12T10:10:12.000Z</time>
      </trkpt>
      <trkpt lat="43.16607" lon="6.62402">
        <ele>21.8</ele>
        <time>2025-10-12T10:10:42.000Z</time>
      </trkpt>
      <trkpt lat="43.16607" lon="6.62403">
        <ele>22.4</ele>
        <time>2025-10-12T10:10:52.000Z</time>
      </trkpt>
      <trkpt lat="43.16607" lon="6.62404">
        <ele>22.5</ele>
        <time>2025-10-12T10:10:53.000Z</time>
      </trkpt>
      <trkpt lat="43.16607" lon="6.62404">
        <ele>22.5</ele>
        <time>2025-10-12T10:10:54.000Z</time>
      </trkpt>
      <trkpt lat="43.16607" lon="6.62405">
        <ele>22.6</ele>
        <time>2025-10-12T10:10:55.000Z</time>
      </trkpt>
      <trkpt lat="43.16607" lon="6.62406">
        <ele>22.7</ele>
        <time>2025-10-12T10:10:56.000Z</time>
      </trkpt>
      <trkpt lat="43.16613" lon="6.62414">
        <ele>24.7</ele>
        <time>2025-10-12T10:11:22.000Z</time>
      </trkpt>
      <trkpt lat="43.16615" lon="6.62427">
        <ele>27</ele>
        <time>2025-10-12T10:11:42.000Z</time>
      </trkpt>
      <trkpt lat="43.16619" lon="6.62438">
        <ele>29.1</ele>
        <time>2025-10-12T10:12:06.000Z</time>
      </trkpt>
      <trkpt lat="43.16627" lon="6.62445">
        <ele>31.7</ele>
        <time>2025-10-12T10:12:25.000Z</time>
      </trkpt>
      <trkpt lat="43.16634" lon="6.62453">
        <ele>33.8</ele>
        <time>2025-10-12T10:12:46.000Z</time>
      </trkpt>
      <trkpt lat="43.16637" lon="6.62465">
        <ele>35.3</ele>
        <time>2025-10-12T10:13:02.000Z</time>
      </trkpt>
      <trkpt lat="43.16643" lon="6.62474">
        <ele>36.3</ele>
        <time>2025-10-12T10:13:13.000Z</time>
      </trkpt>
      <trkpt lat="43.16645" lon="6.62487">
        <ele>36.6</ele>
        <time>2025-10-12T10:13:24.000Z</time>
      </trkpt>
      <trkpt lat="43.16645" lon="6.625">
        <ele>36.5</ele>
        <time>2025-10-12T10:13:32.000Z</time>
      </trkpt>
      <trkpt lat="43.16645" lon="6.62512">
        <ele>36.1</ele>
        <time>2025-10-12T10:13:41.000Z</time>
      </trkpt>
      <trkpt lat="43.1664" lon="6.62524">
        <ele>36.1</ele>
        <time>2025-10-12T10:14:05.000Z</time>
      </trkpt>
      <trkpt lat="43.16636" lon="6.62536">
        <ele>36</ele>
        <time>2025-10-12T10:14:15.000Z</time>
      </trkpt>
      <trkpt lat="43.16638" lon="6.62548">
        <ele>36</ele>
        <time>2025-10-12T10:14:27.000Z</time>
      </trkpt>
      <trkpt lat="43.1664" lon="6.6256">
        <ele>36.4</ele>
        <time>2025-10-12T10:14:38.000Z</time>
      </trkpt>
      <trkpt lat="43.16648" lon="6.62569">
        <ele>37.8</ele>
        <time>2025-10-12T10:14:55.000Z</time>
      </trkpt>
      <trkpt lat="43.16656" lon="6.62576">
        <ele>40.3</ele>
        <time>2025-10-12T10:15:18.000Z</time>
      </trkpt>
      <trkpt lat="43.16663" lon="6.62583">
        <ele>41.4</ele>
        <time>2025-10-12T10:15:31.000Z</time>
      </trkpt>
      <trkpt lat="43.16669" lon="6.62593">
        <ele>42.4</ele>
        <time>2025-10-12T10:15:42.000Z</time>
      </trkpt>
      <trkpt lat="43.16678" lon="6.62597">
        <ele>43.2</ele>
        <time>2025-10-12T10:15:54.000Z</time>
      </trkpt>
      <trkpt lat="43.16679" lon="6.6261">
        <ele>43.9</ele>
        <time>2025-10-12T10:16:10.000Z</time>
      </trkpt>
      <trkpt lat="43.16683" lon="6.62621">
        <ele>43.4</ele>
        <time>2025-10-12T10:16:24.000Z</time>
      </trkpt>
      <trkpt lat="43.16692" lon="6.62625">
        <ele>43.3</ele>
        <time>2025-10-12T10:16:39.000Z</time>
      </trkpt>
      <trkpt lat="43.16702" lon="6.62627">
        <ele>43.9</ele>
        <time>2025-10-12T10:16:53.000Z</time>
      </trkpt>
      <trkpt lat="43.16711" lon="6.62628">
        <ele>46</ele>
        <time>2025-10-12T10:17:12.000Z</time>
      </trkpt>
      <trkpt lat="43.16719" lon="6.62632">
        <ele>47.4</ele>
        <time>2025-10-12T10:17:25.000Z</time>
      </trkpt>
      <trkpt lat="43.16728" lon="6.62635">
        <ele>48.5</ele>
        <time>2025-10-12T10:17:44.000Z</time>
      </trkpt>
      <trkpt lat="43.16738" lon="6.62636">
        <ele>48.8</ele>
        <time>2025-10-12T10:17:56.000Z</time>
      </trkpt>
      <trkpt lat="43.16747" lon="6.62633">
        <ele>49</ele>
        <time>2025-10-12T10:18:05.000Z</time>
      </trkpt>
      <trkpt lat="43.16756" lon="6.62632">
        <ele>49.2</ele>
        <time>2025-10-12T10:18:16.000Z</time>
      </trkpt>
      <trkpt lat="43.16762" lon="6.62633">
        <ele>49.6</ele>
        <time>2025-10-12T10:18:28.000Z</time>
      </trkpt>
      <trkpt lat="43.16762" lon="6.62633">
        <ele>49.6</ele>
        <time>2025-10-12T10:18:29.000Z</time>
      </trkpt>
      <trkpt lat="43.16763" lon="6.62633">
        <ele>49.8</ele>
        <time>2025-10-12T10:18:57.000Z</time>
      </trkpt>
      <trkpt lat="43.16763" lon="6.62633">
        <ele>49.8</ele>
        <time>2025-10-12T10:18:58.000Z</time>
      </trkpt>
      <trkpt lat="43.16764" lon="6.62633">
        <ele>49.8</ele>
        <time>2025-10-12T10:18:59.000Z</time>
      </trkpt>
      <trkpt lat="43.16773" lon="6.62633">
        <ele>50.1</ele>
        <time>2025-10-12T10:19:13.000Z</time>
      </trkpt>
      <trkpt lat="43.16781" lon="6.62639">
        <ele>48.9</ele>
        <time>2025-10-12T10:19:41.000Z</time>
      </trkpt>
      <trkpt lat="43.16781" lon="6.62639">
        <ele>48.5</ele>
        <time>2025-10-12T10:19:45.000Z</time>
      </trkpt>
      <trkpt lat="43.16781" lon="6.62639">
        <ele>48.5</ele>
        <time>2025-10-12T10:19:46.000Z</time>
      </trkpt>
      <trkpt lat="43.16781" lon="6.62641">
        <ele>48.1</ele>
        <time>2025-10-12T10:19:53.000Z</time>
      </trkpt>
      <trkpt lat="43.16782" lon="6.62641">
        <ele>48</ele>
        <time>2025-10-12T10:19:54.000Z</time>
      </trkpt>
      <trkpt lat="43.16788" lon="6.62651">
        <ele>45.8</ele>
        <time>2025-10-12T10:20:14.000Z</time>
      </trkpt>
      <trkpt lat="43.16793" lon="6.62661">
        <ele>42.8</ele>
        <time>2025-10-12T10:20:31.000Z</time>
      </trkpt>
      <trkpt lat="43.16799" lon="6.62671">
        <ele>40.8</ele>
        <time>2025-10-12T10:20:48.000Z</time>
      </trkpt>
      <trkpt lat="43.16806" lon="6.62679">
        <ele>39.3</ele>
        <time>2025-10-12T10:21:00.000Z</time>
      </trkpt>
      <trkpt lat="43.16812" lon="6.62688">
        <ele>37.2</ele>
        <time>2025-10-12T10:21:14.000Z</time>
      </trkpt>
      <trkpt lat="43.16817" lon="6.62699">
        <ele>31.9</ele>
        <time>2025-10-12T10:22:01.000Z</time>
      </trkpt>
      <trkpt lat="43.16824" lon="6.62707">
        <ele>29.2</ele>
        <time>2025-10-12T10:22:25.000Z</time>
      </trkpt>
      <trkpt lat="43.16833" lon="6.62713">
        <ele>28</ele>
        <time>2025-10-12T10:22:37.000Z</time>
      </trkpt>
      <trkpt lat="43.16842" lon="6.62717">
        <ele>26.5</ele>
        <time>2025-10-12T10:22:47.000Z</time>
      </trkpt>
      <trkpt lat="43.16849" lon="6.62725">
        <ele>25.1</ele>
        <time>2025-10-12T10:22:59.000Z</time>
      </trkpt>
      <trkpt lat="43.16858" lon="6.62731">
        <ele>22.7</ele>
        <time>2025-10-12T10:23:19.000Z</time>
      </trkpt>
      <trkpt lat="43.16867" lon="6.62733">
        <ele>21</ele>
        <time>2025-10-12T10:23:32.000Z</time>
      </trkpt>
      <trkpt lat="43.16876" lon="6.62736">
        <ele>21.4</ele>
        <time>2025-10-12T10:23:46.000Z</time>
      </trkpt>
      <trkpt lat="43.1688" lon="6.62748">
        <ele>21.5</ele>
        <time>2025-10-12T10:24:01.000Z</time>
      </trkpt>
      <trkpt lat="43.16888" lon="6.62753">
        <ele>21</ele>
        <time>2025-10-12T10:24:11.000Z</time>
      </trkpt>
      <trkpt lat="43.16898" lon="6.62756">
        <ele>20.3</ele>
        <time>2025-10-12T10:24:23.000Z</time>
      </trkpt>
      <trkpt lat="43.16902" lon="6.62758">
        <ele>20.3</ele>
        <time>2025-10-12T10:24:35.000Z</time>
      </trkpt>
      <trkpt lat="43.16902" lon="6.62758">
        <ele>20.3</ele>
        <time>2025-10-12T10:24:36.000Z</time>
      </trkpt>
      <trkpt lat="43.16902" lon="6.62758">
        <ele>20.3</ele>
        <time>2025-10-12T10:24:37.000Z</time>
      </trkpt>
      <trkpt lat="43.16903" lon="6.62759">
        <ele>20.3</ele>
        <time>2025-10-12T10:24:38.000Z</time>
      </trkpt>
      <trkpt lat="43.16903" lon="6.62759">
        <ele>20.3</ele>
        <time>2025-10-12T10:24:39.000Z</time>
      </trkpt>
      <trkpt lat="43.16911" lon="6.62766">
        <ele>21</ele>
        <time>2025-10-12T10:24:51.000Z</time>
      </trkpt>
      <trkpt lat="43.16917" lon="6.62776">
        <ele>24.3</ele>
        <time>2025-10-12T10:25:22.000Z</time>
      </trkpt>
      <trkpt lat="43.16923" lon="6.62785">
        <ele>25.2</ele>
        <time>2025-10-12T10:25:48.000Z</time>
      </trkpt>
      <trkpt lat="43.16927" lon="6.62797">
        <ele>24.8</ele>
        <time>2025-10-12T10:25:57.000Z</time>
      </trkpt>
      <trkpt lat="43.16932" lon="6.62808">
        <ele>26.4</ele>
        <time>2025-10-12T10:26:28.000Z</time>
      </trkpt>
      <trkpt lat="43.16933" lon="6.62809">
        <ele>27</ele>
        <time>2025-10-12T10:26:35.000Z</time>
      </trkpt>
      <trkpt lat="43.16933" lon="6.62809">
        <ele>27.1</ele>
        <time>2025-10-12T10:26:36.000Z</time>
      </trkpt>
      <trkpt lat="43.16933" lon="6.62809">
        <ele>27.2</ele>
        <time>2025-10-12T10:26:37.000Z</time>
      </trkpt>
      <trkpt lat="43.16933" lon="6.62809">
        <ele>27.2</ele>
        <time>2025-10-12T10:26:38.000Z</time>
      </trkpt>
      <trkpt lat="43.16933" lon="6.6281">
        <ele>27.2</ele>
        <time>2025-10-12T10:26:39.000Z</time>
      </trkpt>
      <trkpt lat="43.1694" lon="6.6281">
        <ele>30.2</ele>
        <time>2025-10-12T10:27:18.000Z</time>
      </trkpt>
      <trkpt lat="43.1694" lon="6.6281">
        <ele>30.3</ele>
        <time>2025-10-12T10:27:19.000Z</time>
      </trkpt>
      <trkpt lat="43.16941" lon="6.6281">
        <ele>30.4</ele>
        <time>2025-10-12T10:27:22.000Z</time>
      </trkpt>
      <trkpt lat="43.16941" lon="6.6281">
        <ele>30.4</ele>
        <time>2025-10-12T10:27:23.000Z</time>
      </trkpt>
      <trkpt lat="43.16942" lon="6.6281">
        <ele>30.5</ele>
        <time>2025-10-12T10:27:24.000Z</time>
      </trkpt>
      <trkpt lat="43.16942" lon="6.6281">
        <ele>30.5</ele>
        <time>2025-10-12T10:27:28.000Z</time>
      </trkpt>
      <trkpt lat="43.16942" lon="6.6281">
        <ele>30.5</ele>
        <time>2025-10-12T10:27:29.000Z</time>
      </trkpt>
      <trkpt lat="43.16943" lon="6.6281">
        <ele>30.5</ele>
        <time>2025-10-12T10:27:30.000Z</time>
      </trkpt>
      <trkpt lat="43.16943" lon="6.6281">
        <ele>30.5</ele>
        <time>2025-10-12T10:27:31.000Z</time>
      </trkpt>
      <trkpt lat="43.16943" lon="6.62811">
        <ele>30.5</ele>
        <time>2025-10-12T10:27:32.000Z</time>
      </trkpt>
      <trkpt lat="43.16944" lon="6.62811">
        <ele>30.6</ele>
        <time>2025-10-12T10:27:37.000Z</time>
      </trkpt>
      <trkpt lat="43.16944" lon="6.62811">
        <ele>30.6</ele>
        <time>2025-10-12T10:27:38.000Z</time>
      </trkpt>
      <trkpt lat="43.16944" lon="6.62811">
        <ele>30.7</ele>
        <time>2025-10-12T10:27:39.000Z</time>
      </trkpt>
      <trkpt lat="43.16944" lon="6.62811">
        <ele>30.7</ele>
        <time>2025-10-12T10:27:40.000Z</time>
      </trkpt>
      <trkpt lat="43.16944" lon="6.62811">
        <ele>30.7</ele>
        <time>2025-10-12T10:27:41.000Z</time>
      </trkpt>
      <trkpt lat="43.16945" lon="6.62811">
        <ele>30.7</ele>
        <time>2025-10-12T10:27:42.000Z</time>
      </trkpt>
      <trkpt lat="43.16951" lon="6.62801">
        <ele>34.4</ele>
        <time>2025-10-12T10:28:25.000Z</time>
      </trkpt>
      <trkpt lat="43.16953" lon="6.62803">
        <ele>36</ele>
        <time>2025-10-12T10:28:45.000Z</time>
      </trkpt>
      <trkpt lat="43.16953" lon="6.62802">
        <ele>36.1</ele>
        <time>2025-10-12T10:28:46.000Z</time>
      </trkpt>
      <trkpt lat="43.16953" lon="6.62802">
        <ele>36.1</ele>
        <time>2025-10-12T10:28:47.000Z</time>
      </trkpt>
      <trkpt lat="43.16953" lon="6.62802">
        <ele>36.2</ele>
        <time>2025-10-12T10:28:48.000Z</time>
      </trkpt>
      <trkpt lat="43.16953" lon="6.62802">
        <ele>36.2</ele>
        <time>2025-10-12T10:28:49.000Z</time>
      </trkpt>
      <trkpt lat="43.16953" lon="6.62802">
        <ele>36.3</ele>
        <time>2025-10-12T10:28:50.000Z</time>
      </trkpt>
      <trkpt lat="43.16953" lon="6.62802">
        <ele>36.3</ele>
        <time>2025-10-12T10:28:51.000Z</time>
      </trkpt>
      <trkpt lat="43.16953" lon="6.62802">
        <ele>36.4</ele>
        <time>2025-10-12T10:28:52.000Z</time>
      </trkpt>
      <trkpt lat="43.16953" lon="6.62802">
        <ele>36.6</ele>
        <time>2025-10-12T10:29:01.000Z</time>
      </trkpt>
      <trkpt lat="43.16954" lon="6.62802">
        <ele>36.6</ele>
        <time>2025-10-12T10:29:02.000Z</time>
      </trkpt>
      <trkpt lat="43.16954" lon="6.62802">
        <ele>36.7</ele>
        <time>2025-10-12T10:29:05.000Z</time>
      </trkpt>
      <trkpt lat="43.16954" lon="6.62802">
        <ele>36.7</ele>
        <time>2025-10-12T10:29:06.000Z</time>
      </trkpt>
      <trkpt lat="43.16954" lon="6.62802">
        <ele>36.7</ele>
        <time>2025-10-12T10:29:07.000Z</time>
      </trkpt>
      <trkpt lat="43.16954" lon="6.62802">
        <ele>36.7</ele>
        <time>2025-10-12T10:29:08.000Z</time>
      </trkpt>
      <trkpt lat="43.16954" lon="6.62802">
        <ele>36.7</ele>
        <time>2025-10-12T10:29:09.000Z</time>
      </trkpt>
      <trkpt lat="43.16954" lon="6.62802">
        <ele>36.7</ele>
        <time>2025-10-12T10:29:10.000Z</time>
      </trkpt>
      <trkpt lat="43.16955" lon="6.62802">
        <ele>36.8</ele>
        <time>2025-10-12T10:29:13.000Z</time>
      </trkpt>
      <trkpt lat="43.16955" lon="6.62802">
        <ele>36.8</ele>
        <time>2025-10-12T10:29:14.000Z</time>
      </trkpt>
      <trkpt lat="43.16955" lon="6.62802">
        <ele>36.8</ele>
        <time>2025-10-12T10:29:15.000Z</time>
      </trkpt>
      <trkpt lat="43.16955" lon="6.62802">
        <ele>36.9</ele>
        <time>2025-10-12T10:29:16.000Z</time>
      </trkpt>
      <trkpt lat="43.16955" lon="6.62802">
        <ele>36.9</ele>
        <time>2025-10-12T10:29:17.000Z</time>
      </trkpt>
      <trkpt lat="43.16959" lon="6.62795">
        <ele>39.1</ele>
        <time>2025-10-12T10:29:40.000Z</time>
      </trkpt>
      <trkpt lat="43.16959" lon="6.62794">
        <ele>39.2</ele>
        <time>2025-10-12T10:29:41.000Z</time>
      </trkpt>
      <trkpt lat="43.16959" lon="6.62794">
        <ele>39.2</ele>
        <time>2025-10-12T10:29:42.000Z</time>
      </trkpt>
      <trkpt lat="43.16959" lon="6.62794">
        <ele>39.3</ele>
        <time>2025-10-12T10:29:43.000Z</time>
      </trkpt>
      <trkpt lat="43.16958" lon="6.62793">
        <ele>39.4</ele>
        <time>2025-10-12T10:29:44.000Z</time>
      </trkpt>
      <trkpt lat="43.16958" lon="6.62793">
        <ele>39.5</ele>
        <time>2025-10-12T10:29:52.000Z</time>
      </trkpt>
      <trkpt lat="43.16958" lon="6.62793">
        <ele>39.5</ele>
        <time>2025-10-12T10:29:53.000Z</time>
      </trkpt>
      <trkpt lat="43.16958" lon="6.62793">
        <ele>39.5</ele>
        <time>2025-10-12T10:29:54.000Z</time>
      </trkpt>
      <trkpt lat="43.16958" lon="6.62793">
        <ele>39.4</ele>
        <time>2025-10-12T10:30:40.000Z</time>
      </trkpt>
      <trkpt lat="43.16958" lon="6.62793">
        <ele>39.4</ele>
        <time>2025-10-12T10:30:41.000Z</time>
      </trkpt>
      <trkpt lat="43.16958" lon="6.62793">
        <ele>39.4</ele>
        <time>2025-10-12T10:30:42.000Z</time>
      </trkpt>
      <trkpt lat="43.16958" lon="6.62793">
        <ele>39.4</ele>
        <time>2025-10-12T10:30:43.000Z</time>
      </trkpt>
      <trkpt lat="43.16958" lon="6.62793">
        <ele>39.4</ele>
        <time>2025-10-12T10:30:44.000Z</time>
      </trkpt>
      <trkpt lat="43.16957" lon="6.62793">
        <ele>39.3</ele>
        <time>2025-10-12T10:31:38.000Z</time>
      </trkpt>
      <trkpt lat="43.16957" lon="6.62793">
        <ele>39.2</ele>
        <time>2025-10-12T10:31:39.000Z</time>
      </trkpt>
      <trkpt lat="43.16957" lon="6.62793">
        <ele>39.3</ele>
        <time>2025-10-12T10:31:46.000Z</time>
      </trkpt>
      <trkpt lat="43.16957" lon="6.62793">
        <ele>39.3</ele>
        <time>2025-10-12T10:31:47.000Z</time>
      </trkpt>
      <trkpt lat="43.16957" lon="6.62793">
        <ele>39.4</ele>
        <time>2025-10-12T10:32:12.000Z</time>
      </trkpt>
      <trkpt lat="43.16957" lon="6.62793">
        <ele>39.4</ele>
        <time>2025-10-12T10:32:13.000Z</time>
      </trkpt>
      <trkpt lat="43.16957" lon="6.62793">
        <ele>39.4</ele>
        <time>2025-10-12T10:32:14.000Z</time>
      </trkpt>
      <trkpt lat="43.16957" lon="6.62793">
        <ele>39.4</ele>
        <time>2025-10-12T10:32:15.000Z</time>
      </trkpt>
      <trkpt lat="43.16957" lon="6.62793">
        <ele>39.4</ele>
        <time>2025-10-12T10:32:16.000Z</time>
      </trkpt>
      <trkpt lat="43.16957" lon="6.62793">
        <ele>39.4</ele>
        <time>2025-10-12T10:32:23.000Z</time>
      </trkpt>
      <trkpt lat="43.16957" lon="6.62793">
        <ele>39.4</ele>
        <time>2025-10-12T10:32:24.000Z</time>
      </trkpt>
      <trkpt lat="43.16957" lon="6.62793">
        <ele>39.4</ele>
        <time>2025-10-12T10:32:25.000Z</time>
      </trkpt>
      <trkpt lat="43.16957" lon="6.62793">
        <ele>39.4</ele>
        <time>2025-10-12T10:32:26.000Z</time>
      </trkpt>
      <trkpt lat="43.16957" lon="6.62793">
        <ele>39.4</ele>
        <time>2025-10-12T10:32:27.000Z</time>
      </trkpt>
      <trkpt lat="43.16957" lon="6.62793">
        <ele>39.4</ele>
        <time>2025-10-12T10:32:36.000Z</time>
      </trkpt>
      <trkpt lat="43.16957" lon="6.62792">
        <ele>39.4</ele>
        <time>2025-10-12T10:32:37.000Z</time>
      </trkpt>
      <trkpt lat="43.16966" lon="6.62796">
        <ele>40.3</ele>
        <time>2025-10-12T10:32:56.000Z</time>
      </trkpt>
      <trkpt lat="43.16974" lon="6.62801">
        <ele>44.2</ele>
        <time>2025-10-12T10:33:19.000Z</time>
      </trkpt>
      <trkpt lat="43.16975" lon="6.62801">
        <ele>44.6</ele>
        <time>2025-10-12T10:33:25.000Z</time>
      </trkpt>
      <trkpt lat="43.16975" lon="6.62801">
        <ele>44.6</ele>
        <time>2025-10-12T10:33:26.000Z</time>
      </trkpt>
      <trkpt lat="43.16974" lon="6.62802">
        <ele>44.7</ele>
        <time>2025-10-12T10:33:32.000Z</time>
      </trkpt>
      <trkpt lat="43.16974" lon="6.62802">
        <ele>44.8</ele>
        <time>2025-10-12T10:33:33.000Z</time>
      </trkpt>
      <trkpt lat="43.16974" lon="6.62803">
        <ele>44.8</ele>
        <time>2025-10-12T10:33:34.000Z</time>
      </trkpt>
      <trkpt lat="43.16975" lon="6.62815">
        <ele>46.8</ele>
        <time>2025-10-12T10:33:54.000Z</time>
      </trkpt>
      <trkpt lat="43.16979" lon="6.62826">
        <ele>48.9</ele>
        <time>2025-10-12T10:34:10.000Z</time>
      </trkpt>
      <trkpt lat="43.1698" lon="6.62826">
        <ele>49.6</ele>
        <time>2025-10-12T10:34:18.000Z</time>
      </trkpt>
      <trkpt lat="43.1698" lon="6.62826">
        <ele>49.7</ele>
        <time>2025-10-12T10:34:19.000Z</time>
      </trkpt>
      <trkpt lat="43.1698" lon="6.62826">
        <ele>49.7</ele>
        <time>2025-10-12T10:34:20.000Z</time>
      </trkpt>
      <trkpt lat="43.16981" lon="6.62827">
        <ele>49.8</ele>
        <time>2025-10-12T10:34:23.000Z</time>
      </trkpt>
      <trkpt lat="43.16981" lon="6.62827">
        <ele>49.9</ele>
        <time>2025-10-12T10:34:24.000Z</time>
      </trkpt>
      <trkpt lat="43.16984" lon="6.62839">
        <ele>50.8</ele>
        <time>2025-10-12T10:34:34.000Z</time>
      </trkpt>
      <trkpt lat="43.16986" lon="6.62851">
        <ele>50.9</ele>
        <time>2025-10-12T10:34:43.000Z</time>
      </trkpt>
      <trkpt lat="43.16988" lon="6.62864">
        <ele>50.4</ele>
        <time>2025-10-12T10:34:52.000Z</time>
      </trkpt>
      <trkpt lat="43.16991" lon="6.62877">
        <ele>47</ele>
        <time>2025-10-12T10:35:13.000Z</time>
      </trkpt>
      <trkpt lat="43.16995" lon="6.62887">
        <ele>44.3</ele>
        <time>2025-10-12T10:35:32.000Z</time>
      </trkpt>
      <trkpt lat="43.17002" lon="6.62897">
        <ele>42.8</ele>
        <time>2025-10-12T10:35:44.000Z</time>
      </trkpt>
      <trkpt lat="43.1701" lon="6.62904">
        <ele>42.3</ele>
        <time>2025-10-12T10:35:54.000Z</time>
      </trkpt>
      <trkpt lat="43.17011" lon="6.62904">
        <ele>42.2</ele>
        <time>2025-10-12T10:35:57.000Z</time>
      </trkpt>
      <trkpt lat="43.17011" lon="6.62904">
        <ele>42.2</ele>
        <time>2025-10-12T10:35:58.000Z</time>
      </trkpt>
      <trkpt lat="43.17011" lon="6.62904">
        <ele>42.2</ele>
        <time>2025-10-12T10:35:59.000Z</time>
      </trkpt>
      <trkpt lat="43.17012" lon="6.62905">
        <ele>42.3</ele>
        <time>2025-10-12T10:36:02.000Z</time>
      </trkpt>
      <trkpt lat="43.17012" lon="6.62905">
        <ele>42.4</ele>
        <time>2025-10-12T10:36:03.000Z</time>
      </trkpt>
      <trkpt lat="43.17012" lon="6.62904">
        <ele>42.4</ele>
        <time>2025-10-12T10:36:04.000Z</time>
      </trkpt>
      <trkpt lat="43.1702" lon="6.62911">
        <ele>43.2</ele>
        <time>2025-10-12T10:36:19.000Z</time>
      </trkpt>
      <trkpt lat="43.17026" lon="6.62921">
        <ele>43.3</ele>
        <time>2025-10-12T10:36:36.000Z</time>
      </trkpt>
      <trkpt lat="43.17019" lon="6.62929">
        <ele>40.2</ele>
        <time>2025-10-12T10:37:09.000Z</time>
      </trkpt>
      <trkpt lat="43.17014" lon="6.6293">
        <ele>38.5</ele>
        <time>2025-10-12T10:37:22.000Z</time>
      </trkpt>
      <trkpt lat="43.17014" lon="6.62931">
        <ele>38.3</ele>
        <time>2025-10-12T10:37:23.000Z</time>
      </trkpt>
      <trkpt lat="43.17013" lon="6.62931">
        <ele>38.2</ele>
        <time>2025-10-12T10:37:24.000Z</time>
      </trkpt>
      <trkpt lat="43.17013" lon="6.62931">
        <ele>38.1</ele>
        <time>2025-10-12T10:37:25.000Z</time>
      </trkpt>
      <trkpt lat="43.17013" lon="6.62931">
        <ele>37.9</ele>
        <time>2025-10-12T10:37:26.000Z</time>
      </trkpt>
      <trkpt lat="43.17015" lon="6.62943">
        <ele>34.4</ele>
        <time>2025-10-12T10:37:52.000Z</time>
      </trkpt>
      <trkpt lat="43.17006" lon="6.62947">
        <ele>31.1</ele>
        <time>2025-10-12T10:38:14.000Z</time>
      </trkpt>
      <trkpt lat="43.16997" lon="6.62945">
        <ele>28.1</ele>
        <time>2025-10-12T10:38:36.000Z</time>
      </trkpt>
      <trkpt lat="43.16994" lon="6.62951">
        <ele>24.3</ele>
        <time>2025-10-12T10:39:10.000Z</time>
      </trkpt>
      <trkpt lat="43.16994" lon="6.62951">
        <ele>24.2</ele>
        <time>2025-10-12T10:39:11.000Z</time>
      </trkpt>
      <trkpt lat="43.16993" lon="6.62952">
        <ele>23.8</ele>
        <time>2025-10-12T10:39:22.000Z</time>
      </trkpt>
      <trkpt lat="43.16993" lon="6.62952">
        <ele>23.8</ele>
        <time>2025-10-12T10:39:23.000Z</time>
      </trkpt>
      <trkpt lat="43.16993" lon="6.62952">
        <ele>23.7</ele>
        <time>2025-10-12T10:39:24.000Z</time>
      </trkpt>
      <trkpt lat="43.1699" lon="6.62965">
        <ele>21.8</ele>
        <time>2025-10-12T10:39:42.000Z</time>
      </trkpt>
      <trkpt lat="43.16998" lon="6.62972">
        <ele>19.8</ele>
        <time>2025-10-12T10:39:54.000Z</time>
      </trkpt>
      <trkpt lat="43.17003" lon="6.62983">
        <ele>17.5</ele>
        <time>2025-10-12T10:40:06.000Z</time>
      </trkpt>
      <trkpt lat="43.17012" lon="6.62988">
        <ele>16.3</ele>
        <time>2025-10-12T10:40:15.000Z</time>
      </trkpt>
      <trkpt lat="43.17022" lon="6.62987">
        <ele>15.5</ele>
        <time>2025-10-12T10:40:25.000Z</time>
      </trkpt>
      <trkpt lat="43.17031" lon="6.62988">
        <ele>14.8</ele>
        <time>2025-10-12T10:40:38.000Z</time>
      </trkpt>
      <trkpt lat="43.1704" lon="6.62993">
        <ele>13.4</ele>
        <time>2025-10-12T10:40:53.000Z</time>
      </trkpt>
      <trkpt lat="43.17049" lon="6.62989">
        <ele>11.7</ele>
        <time>2025-10-12T10:41:06.000Z</time>
      </trkpt>
      <trkpt lat="43.17058" lon="6.62988">
        <ele>11.1</ele>
        <time>2025-10-12T10:41:16.000Z</time>
      </trkpt>
      <trkpt lat="43.17067" lon="6.62991">
        <ele>11.3</ele>
        <time>2025-10-12T10:41:27.000Z</time>
      </trkpt>
      <trkpt lat="43.1707" lon="6.62992">
        <ele>11.9</ele>
        <time>2025-10-12T10:41:40.000Z</time>
      </trkpt>
      <trkpt lat="43.1707" lon="6.62993">
        <ele>11.9</ele>
        <time>2025-10-12T10:41:41.000Z</time>
      </trkpt>
      <trkpt lat="43.1707" lon="6.62993">
        <ele>11.9</ele>
        <time>2025-10-12T10:41:42.000Z</time>
      </trkpt>
      <trkpt lat="43.1707" lon="6.62993">
        <ele>11.9</ele>
        <time>2025-10-12T10:41:43.000Z</time>
      </trkpt>
      <trkpt lat="43.1707" lon="6.62993">
        <ele>11.9</ele>
        <time>2025-10-12T10:41:44.000Z</time>
      </trkpt>
      <trkpt lat="43.1707" lon="6.62993">
        <ele>12</ele>
        <time>2025-10-12T10:41:45.000Z</time>
      </trkpt>
      <trkpt lat="43.17071" lon="6.62994">
        <ele>12</ele>
        <time>2025-10-12T10:41:46.000Z</time>
      </trkpt>
      <trkpt lat="43.17071" lon="6.62994">
        <ele>12</ele>
        <time>2025-10-12T10:41:47.000Z</time>
      </trkpt>
      <trkpt lat="43.17071" lon="6.62994">
        <ele>12.1</ele>
        <time>2025-10-12T10:41:48.000Z</time>
      </trkpt>
      <trkpt lat="43.17071" lon="6.62994">
        <ele>12.1</ele>
        <time>2025-10-12T10:41:49.000Z</time>
      </trkpt>
      <trkpt lat="43.17071" lon="6.62995">
        <ele>12.2</ele>
        <time>2025-10-12T10:41:53.000Z</time>
      </trkpt>
      <trkpt lat="43.17071" lon="6.62995">
        <ele>12.2</ele>
        <time>2025-10-12T10:41:54.000Z</time>
      </trkpt>
      <trkpt lat="43.17071" lon="6.62995">
        <ele>12.2</ele>
        <time>2025-10-12T10:41:55.000Z</time>
      </trkpt>
      <trkpt lat="43.17071" lon="6.62995">
        <ele>12.3</ele>
        <time>2025-10-12T10:41:58.000Z</time>
      </trkpt>
      <trkpt lat="43.17071" lon="6.62995">
        <ele>12.3</ele>
        <time>2025-10-12T10:41:59.000Z</time>
      </trkpt>
      <trkpt lat="43.17071" lon="6.62995">
        <ele>12.3</ele>
        <time>2025-10-12T10:42:00.000Z</time>
      </trkpt>
      <trkpt lat="43.17071" lon="6.62995">
        <ele>12.3</ele>
        <time>2025-10-12T10:42:01.000Z</time>
      </trkpt>
      <trkpt lat="43.17071" lon="6.62995">
        <ele>12.4</ele>
        <time>2025-10-12T10:42:02.000Z</time>
      </trkpt>
      <trkpt lat="43.17072" lon="6.62994">
        <ele>12.3</ele>
        <time>2025-10-12T10:42:35.000Z</time>
      </trkpt>
      <trkpt lat="43.17072" lon="6.62994">
        <ele>12.3</ele>
        <time>2025-10-12T10:42:36.000Z</time>
      </trkpt>
      <trkpt lat="43.17072" lon="6.62994">
        <ele>12.3</ele>
        <time>2025-10-12T10:42:40.000Z</time>
      </trkpt>
      <trkpt lat="43.17072" lon="6.62994">
        <ele>12.3</ele>
        <time>2025-10-12T10:42:41.000Z</time>
      </trkpt>
      <trkpt lat="43.17072" lon="6.62994">
        <ele>12.3</ele>
        <time>2025-10-12T10:42:42.000Z</time>
      </trkpt>
      <trkpt lat="43.17072" lon="6.62993">
        <ele>12.3</ele>
        <time>2025-10-12T10:42:58.000Z</time>
      </trkpt>
      <trkpt lat="43.17073" lon="6.62992">
        <ele>12.3</ele>
        <time>2025-10-12T10:42:59.000Z</time>
      </trkpt>
      <trkpt lat="43.17073" lon="6.62992">
        <ele>12.3</ele>
        <time>2025-10-12T10:43:00.000Z</time>
      </trkpt>
      <trkpt lat="43.17073" lon="6.62991">
        <ele>12.3</ele>
        <time>2025-10-12T10:43:01.000Z</time>
      </trkpt>
      <trkpt lat="43.17073" lon="6.62991">
        <ele>12.3</ele>
        <time>2025-10-12T10:43:02.000Z</time>
      </trkpt>
      <trkpt lat="43.17073" lon="6.6299">
        <ele>12.3</ele>
        <time>2025-10-12T10:43:03.000Z</time>
      </trkpt>
      <trkpt lat="43.17073" lon="6.6299">
        <ele>12.3</ele>
        <time>2025-10-12T10:43:04.000Z</time>
      </trkpt>
      <trkpt lat="43.17074" lon="6.6299">
        <ele>12.3</ele>
        <time>2025-10-12T10:43:05.000Z</time>
      </trkpt>
      <trkpt lat="43.17074" lon="6.6299">
        <ele>12.3</ele>
        <time>2025-10-12T10:43:06.000Z</time>
      </trkpt>
      <trkpt lat="43.17073" lon="6.6299">
        <ele>12.3</ele>
        <time>2025-10-12T10:43:07.000Z</time>
      </trkpt>
      <trkpt lat="43.17073" lon="6.6299">
        <ele>12.3</ele>
        <time>2025-10-12T10:43:08.000Z</time>
      </trkpt>
      <trkpt lat="43.17073" lon="6.6299">
        <ele>12.3</ele>
        <time>2025-10-12T10:43:09.000Z</time>
      </trkpt>
      <trkpt lat="43.17073" lon="6.6299">
        <ele>12.3</ele>
        <time>2025-10-12T10:43:10.000Z</time>
      </trkpt>
      <trkpt lat="43.17073" lon="6.6299">
        <ele>12.3</ele>
        <time>2025-10-12T10:43:11.000Z</time>
      </trkpt>
      <trkpt lat="43.17073" lon="6.6299">
        <ele>12.3</ele>
        <time>2025-10-12T10:43:12.000Z</time>
      </trkpt>
      <trkpt lat="43.17073" lon="6.62989">
        <ele>12.3</ele>
        <time>2025-10-12T10:43:13.000Z</time>
      </trkpt>
      <trkpt lat="43.17073" lon="6.62989">
        <ele>12.3</ele>
        <time>2025-10-12T10:43:14.000Z</time>
      </trkpt>
      <trkpt lat="43.17072" lon="6.62989">
        <ele>12.3</ele>
        <time>2025-10-12T10:43:15.000Z</time>
      </trkpt>
      <trkpt lat="43.17072" lon="6.62989">
        <ele>12.3</ele>
        <time>2025-10-12T10:43:18.000Z</time>
      </trkpt>
      <trkpt lat="43.17072" lon="6.62989">
        <ele>12.3</ele>
        <time>2025-10-12T10:43:19.000Z</time>
      </trkpt>
      <trkpt lat="43.17072" lon="6.62989">
        <ele>12.3</ele>
        <time>2025-10-12T10:43:25.000Z</time>
      </trkpt>
      <trkpt lat="43.17072" lon="6.62989">
        <ele>12.3</ele>
        <time>2025-10-12T10:43:26.000Z</time>
      </trkpt>
      <trkpt lat="43.17072" lon="6.62989">
        <ele>12.3</ele>
        <time>2025-10-12T10:43:30.000Z</time>
      </trkpt>
      <trkpt lat="43.17072" lon="6.62989">
        <ele>12.3</ele>
        <time>2025-10-12T10:43:31.000Z</time>
      </trkpt>
      <trkpt lat="43.17072" lon="6.62989">
        <ele>12.4</ele>
        <time>2025-10-12T10:43:32.000Z</time>
      </trkpt>
      <trkpt lat="43.17072" lon="6.62989">
        <ele>12.4</ele>
        <time>2025-10-12T10:43:40.000Z</time>
      </trkpt>
      <trkpt lat="43.17072" lon="6.62989">
        <ele>12.4</ele>
        <time>2025-10-12T10:43:41.000Z</time>
      </trkpt>
      <trkpt lat="43.17072" lon="6.62989">
        <ele>12.4</ele>
        <time>2025-10-12T10:43:42.000Z</time>
      </trkpt>
      <trkpt lat="43.17072" lon="6.62989">
        <ele>12.4</ele>
        <time>2025-10-12T10:43:43.000Z</time>
      </trkpt>
      <trkpt lat="43.17072" lon="6.62989">
        <ele>12.4</ele>
        <time>2025-10-12T10:43:44.000Z</time>
      </trkpt>
      <trkpt lat="43.17072" lon="6.6299">
        <ele>12.4</ele>
        <time>2025-10-12T10:43:45.000Z</time>
      </trkpt>
      <trkpt lat="43.17071" lon="6.6299">
        <ele>12.4</ele>
        <time>2025-10-12T10:44:05.000Z</time>
      </trkpt>
      <trkpt lat="43.17071" lon="6.6299">
        <ele>12.4</ele>
        <time>2025-10-12T10:44:06.000Z</time>
      </trkpt>
      <trkpt lat="43.17071" lon="6.6299">
        <ele>12.4</ele>
        <time>2025-10-12T10:44:07.000Z</time>
      </trkpt>
      <trkpt lat="43.17071" lon="6.6299">
        <ele>12.4</ele>
        <time>2025-10-12T10:44:08.000Z</time>
      </trkpt>
      <trkpt lat="43.17071" lon="6.6299">
        <ele>12.4</ele>
        <time>2025-10-12T10:44:09.000Z</time>
      </trkpt>
      <trkpt lat="43.17071" lon="6.6299">
        <ele>12.4</ele>
        <time>2025-10-12T10:44:10.000Z</time>
      </trkpt>
      <trkpt lat="43.17071" lon="6.6299">
        <ele>12.4</ele>
        <time>2025-10-12T10:44:11.000Z</time>
      </trkpt>
      <trkpt lat="43.17071" lon="6.6299">
        <ele>12.4</ele>
        <time>2025-10-12T10:44:12.000Z</time>
      </trkpt>
      <trkpt lat="43.17071" lon="6.6299">
        <ele>12.4</ele>
        <time>2025-10-12T10:44:15.000Z</time>
      </trkpt>
      <trkpt lat="43.17071" lon="6.6299">
        <ele>12.4</ele>
        <time>2025-10-12T10:44:16.000Z</time>
      </trkpt>
      <trkpt lat="43.17071" lon="6.6299">
        <ele>12.4</ele>
        <time>2025-10-12T10:44:17.000Z</time>
      </trkpt>
      <trkpt lat="43.17071" lon="6.6299">
        <ele>12.4</ele>
        <time>2025-10-12T10:44:18.000Z</time>
      </trkpt>
      <trkpt lat="43.17071" lon="6.6299">
        <ele>12.4</ele>
        <time>2025-10-12T10:44:19.000Z</time>
      </trkpt>
      <trkpt lat="43.17071" lon="6.6299">
        <ele>12.4</ele>
        <time>2025-10-12T10:44:20.000Z</time>
      </trkpt>
      <trkpt lat="43.17071" lon="6.6299">
        <ele>12.4</ele>
        <time>2025-10-12T10:44:21.000Z</time>
      </trkpt>
      <trkpt lat="43.17071" lon="6.6299">
        <ele>12.4</ele>
        <time>2025-10-12T10:44:22.000Z</time>
      </trkpt>
      <trkpt lat="43.17071" lon="6.6299">
        <ele>12.3</ele>
        <time>2025-10-12T10:44:25.000Z</time>
      </trkpt>
      <trkpt lat="43.17071" lon="6.62991">
        <ele>12.3</ele>
        <time>2025-10-12T10:44:26.000Z</time>
      </trkpt>
      <trkpt lat="43.17071" lon="6.62991">
        <ele>12.3</ele>
        <time>2025-10-12T10:44:27.000Z</time>
      </trkpt>
      <trkpt lat="43.17071" lon="6.62991">
        <ele>12.3</ele>
        <time>2025-10-12T10:44:28.000Z</time>
      </trkpt>
      <trkpt lat="43.17071" lon="6.62991">
        <ele>12.3</ele>
        <time>2025-10-12T10:44:29.000Z</time>
      </trkpt>
      <trkpt lat="43.17072" lon="6.62992">
        <ele>12.3</ele>
        <time>2025-10-12T10:44:30.000Z</time>
      </trkpt>
      <trkpt lat="43.17072" lon="6.62992">
        <ele>12.3</ele>
        <time>2025-10-12T10:44:31.000Z</time>
      </trkpt>
      <trkpt lat="43.17073" lon="6.62993">
        <ele>12.3</ele>
        <time>2025-10-12T10:44:32.000Z</time>
      </trkpt>
      <trkpt lat="43.17074" lon="6.62994">
        <ele>12.3</ele>
        <time>2025-10-12T10:44:38.000Z</time>
      </trkpt>
      <trkpt lat="43.17074" lon="6.62994">
        <ele>12.3</ele>
        <time>2025-10-12T10:44:39.000Z</time>
      </trkpt>
      <trkpt lat="43.17075" lon="6.62996">
        <ele>12.2</ele>
        <time>2025-10-12T10:44:48.000Z</time>
      </trkpt>
      <trkpt lat="43.17075" lon="6.62996">
        <ele>12.1</ele>
        <time>2025-10-12T10:44:49.000Z</time>
      </trkpt>
      <trkpt lat="43.17074" lon="6.6301">
        <ele>12.1</ele>
        <time>2025-10-12T10:45:02.000Z</time>
      </trkpt>
      <trkpt lat="43.17077" lon="6.63022">
        <ele>12.1</ele>
        <time>2025-10-12T10:45:09.000Z</time>
      </trkpt>
      <trkpt lat="43.17085" lon="6.63028">
        <ele>12</ele>
        <time>2025-10-12T10:45:21.000Z</time>
      </trkpt>
      <trkpt lat="43.17093" lon="6.63031">
        <ele>11.4</ele>
        <time>2025-10-12T10:45:32.000Z</time>
      </trkpt>
      <trkpt lat="43.17095" lon="6.63033">
        <ele>11.4</ele>
        <time>2025-10-12T10:45:38.000Z</time>
      </trkpt>
      <trkpt lat="43.17095" lon="6.63033">
        <ele>11.4</ele>
        <time>2025-10-12T10:45:39.000Z</time>
      </trkpt>
      <trkpt lat="43.17095" lon="6.63033">
        <ele>11.4</ele>
        <time>2025-10-12T10:45:40.000Z</time>
      </trkpt>
      <trkpt lat="43.17095" lon="6.63033">
        <ele>11.4</ele>
        <time>2025-10-12T10:45:41.000Z</time>
      </trkpt>
      <trkpt lat="43.17096" lon="6.63033">
        <ele>11.3</ele>
        <time>2025-10-12T10:45:47.000Z</time>
      </trkpt>
      <trkpt lat="43.17096" lon="6.63033">
        <ele>11.3</ele>
        <time>2025-10-12T10:45:48.000Z</time>
      </trkpt>
      <trkpt lat="43.17096" lon="6.63034">
        <ele>11.3</ele>
        <time>2025-10-12T10:45:49.000Z</time>
      </trkpt>
      <trkpt lat="43.17096" lon="6.63034">
        <ele>11.3</ele>
        <time>2025-10-12T10:45:50.000Z</time>
      </trkpt>
      <trkpt lat="43.17096" lon="6.63035">
        <ele>11.3</ele>
        <time>2025-10-12T10:45:51.000Z</time>
      </trkpt>
      <trkpt lat="43.17096" lon="6.63035">
        <ele>11.3</ele>
        <time>2025-10-12T10:45:55.000Z</time>
      </trkpt>
      <trkpt lat="43.17096" lon="6.63035">
        <ele>11.3</ele>
        <time>2025-10-12T10:45:56.000Z</time>
      </trkpt>
      <trkpt lat="43.17096" lon="6.63035">
        <ele>11.3</ele>
        <time>2025-10-12T10:45:57.000Z</time>
      </trkpt>
      <trkpt lat="43.17096" lon="6.63036">
        <ele>11.3</ele>
        <time>2025-10-12T10:46:03.000Z</time>
      </trkpt>
      <trkpt lat="43.17096" lon="6.63036">
        <ele>11.3</ele>
        <time>2025-10-12T10:46:04.000Z</time>
      </trkpt>
      <trkpt lat="43.17097" lon="6.63035">
        <ele>11.3</ele>
        <time>2025-10-12T10:46:08.000Z</time>
      </trkpt>
      <trkpt lat="43.17097" lon="6.63035">
        <ele>11.3</ele>
        <time>2025-10-12T10:46:09.000Z</time>
      </trkpt>
      <trkpt lat="43.17097" lon="6.63036">
        <ele>11.3</ele>
        <time>2025-10-12T10:46:10.000Z</time>
      </trkpt>
      <trkpt lat="43.17098" lon="6.63036">
        <ele>11.3</ele>
        <time>2025-10-12T10:46:11.000Z</time>
      </trkpt>
      <trkpt lat="43.17098" lon="6.63037">
        <ele>11.3</ele>
        <time>2025-10-12T10:46:12.000Z</time>
      </trkpt>
      <trkpt lat="43.17101" lon="6.63041">
        <ele>11.3</ele>
        <time>2025-10-12T10:46:27.000Z</time>
      </trkpt>
      <trkpt lat="43.17102" lon="6.6304">
        <ele>11.3</ele>
        <time>2025-10-12T10:46:28.000Z</time>
      </trkpt>
      <trkpt lat="43.17102" lon="6.6304">
        <ele>11.3</ele>
        <time>2025-10-12T10:46:29.000Z</time>
      </trkpt>
      <trkpt lat="43.17102" lon="6.6304">
        <ele>11.4</ele>
        <time>2025-10-12T10:46:30.000Z</time>
      </trkpt>
      <trkpt lat="43.17102" lon="6.6304">
        <ele>11.4</ele>
        <time>2025-10-12T10:46:31.000Z</time>
      </trkpt>
      <trkpt lat="43.17111" lon="6.63045">
        <ele>12.6</ele>
        <time>2025-10-12T10:46:50.000Z</time>
      </trkpt>
      <trkpt lat="43.17118" lon="6.63054">
        <ele>13.5</ele>
        <time>2025-10-12T10:47:00.000Z</time>
      </trkpt>
      <trkpt lat="43.17125" lon="6.63061">
        <ele>15</ele>
        <time>2025-10-12T10:47:20.000Z</time>
      </trkpt>
      <trkpt lat="43.17131" lon="6.63072">
        <ele>16.9</ele>
        <time>2025-10-12T10:47:41.000Z</time>
      </trkpt>
      <trkpt lat="43.17134" lon="6.63085">
        <ele>16.7</ele>
        <time>2025-10-12T10:47:51.000Z</time>
      </trkpt>
      <trkpt lat="43.17135" lon="6.63092">
        <ele>16.1</ele>
        <time>2025-10-12T10:48:08.000Z</time>
      </trkpt>
      <trkpt lat="43.17135" lon="6.63092">
        <ele>16.1</ele>
        <time>2025-10-12T10:48:09.000Z</time>
      </trkpt>
      <trkpt lat="43.17135" lon="6.63092">
        <ele>16</ele>
        <time>2025-10-12T10:48:10.000Z</time>
      </trkpt>
      <trkpt lat="43.17135" lon="6.63092">
        <ele>16</ele>
        <time>2025-10-12T10:48:11.000Z</time>
      </trkpt>
      <trkpt lat="43.17134" lon="6.63093">
        <ele>15.9</ele>
        <time>2025-10-12T10:48:12.000Z</time>
      </trkpt>
      <trkpt lat="43.17129" lon="6.63105">
        <ele>14.7</ele>
        <time>2025-10-12T10:48:25.000Z</time>
      </trkpt>
      <trkpt lat="43.17129" lon="6.63117">
        <ele>14.5</ele>
        <time>2025-10-12T10:48:35.000Z</time>
      </trkpt>
      <trkpt lat="43.17129" lon="6.6313">
        <ele>14.5</ele>
        <time>2025-10-12T10:48:45.000Z</time>
      </trkpt>
      <trkpt lat="43.17128" lon="6.63142">
        <ele>14.5</ele>
        <time>2025-10-12T10:48:55.000Z</time>
      </trkpt>
      <trkpt lat="43.17123" lon="6.63154">
        <ele>14.4</ele>
        <time>2025-10-12T10:49:10.000Z</time>
      </trkpt>
      <trkpt lat="43.17116" lon="6.63162">
        <ele>14.3</ele>
        <time>2025-10-12T10:49:30.000Z</time>
      </trkpt>
      <trkpt lat="43.17109" lon="6.6317">
        <ele>13.7</ele>
        <time>2025-10-12T10:49:39.000Z</time>
      </trkpt>
      <trkpt lat="43.17107" lon="6.63182">
        <ele>12</ele>
        <time>2025-10-12T10:49:50.000Z</time>
      </trkpt>
      <trkpt lat="43.17113" lon="6.63192">
        <ele>11.7</ele>
        <time>2025-10-12T10:50:01.000Z</time>
      </trkpt>
      <trkpt lat="43.17119" lon="6.63202">
        <ele>11.6</ele>
        <time>2025-10-12T10:50:10.000Z</time>
      </trkpt>
      <trkpt lat="43.17127" lon="6.63208">
        <ele>11.5</ele>
        <time>2025-10-12T10:50:20.000Z</time>
      </trkpt>
      <trkpt lat="43.17136" lon="6.63206">
        <ele>11.3</ele>
        <time>2025-10-12T10:50:30.000Z</time>
      </trkpt>
      <trkpt lat="43.17145" lon="6.63203">
        <ele>11</ele>
        <time>2025-10-12T10:50:51.000Z</time>
      </trkpt>
      <trkpt lat="43.17154" lon="6.63203">
        <ele>11.2</ele>
        <time>2025-10-12T10:51:05.000Z</time>
      </trkpt>
      <trkpt lat="43.17164" lon="6.63203">
        <ele>10.9</ele>
        <time>2025-10-12T10:51:29.000Z</time>
      </trkpt>
      <trkpt lat="43.17173" lon="6.63207">
        <ele>10.1</ele>
        <time>2025-10-12T10:51:42.000Z</time>
      </trkpt>
      <trkpt lat="43.17182" lon="6.63211">
        <ele>9.9</ele>
        <time>2025-10-12T10:51:52.000Z</time>
      </trkpt>
      <trkpt lat="43.17191" lon="6.63215">
        <ele>9.8</ele>
        <time>2025-10-12T10:52:08.000Z</time>
      </trkpt>
      <trkpt lat="43.17198" lon="6.63223">
        <ele>9.8</ele>
        <time>2025-10-12T10:52:32.000Z</time>
      </trkpt>
      <trkpt lat="43.17204" lon="6.63233">
        <ele>8.8</ele>
        <time>2025-10-12T10:52:47.000Z</time>
      </trkpt>
      <trkpt lat="43.17212" lon="6.63238">
        <ele>8.1</ele>
        <time>2025-10-12T10:53:10.000Z</time>
      </trkpt>
      <trkpt lat="43.17218" lon="6.63248">
        <ele>6.8</ele>
        <time>2025-10-12T10:53:29.000Z</time>
      </trkpt>
      <trkpt lat="43.17226" lon="6.63254">
        <ele>6.7</ele>
        <time>2025-10-12T10:53:46.000Z</time>
      </trkpt>
      <trkpt lat="43.17233" lon="6.63259">
        <ele>6.6</ele>
        <time>2025-10-12T10:54:05.000Z</time>
      </trkpt>
      <trkpt lat="43.17233" lon="6.63259">
        <ele>6.6</ele>
        <time>2025-10-12T10:54:06.000Z</time>
      </trkpt>
      <trkpt lat="43.17233" lon="6.63259">
        <ele>6.6</ele>
        <time>2025-10-12T10:54:07.000Z</time>
      </trkpt>
      <trkpt lat="43.17233" lon="6.6326">
        <ele>6.6</ele>
        <time>2025-10-12T10:54:08.000Z</time>
      </trkpt>
      <trkpt lat="43.17233" lon="6.63261">
        <ele>6.6</ele>
        <time>2025-10-12T10:54:09.000Z</time>
      </trkpt>
      <trkpt lat="43.17236" lon="6.63273">
        <ele>6.7</ele>
        <time>2025-10-12T10:54:22.000Z</time>
      </trkpt>
      <trkpt lat="43.17237" lon="6.63286">
        <ele>6.7</ele>
        <time>2025-10-12T10:54:32.000Z</time>
      </trkpt>
      <trkpt lat="43.17241" lon="6.63297">
        <ele>6.6</ele>
        <time>2025-10-12T10:54:43.000Z</time>
      </trkpt>
      <trkpt lat="43.17244" lon="6.63309">
        <ele>6.6</ele>
        <time>2025-10-12T10:54:52.000Z</time>
      </trkpt>
      <trkpt lat="43.17249" lon="6.6332">
        <ele>6.6</ele>
        <time>2025-10-12T10:55:04.000Z</time>
      </trkpt>
      <trkpt lat="43.17252" lon="6.63332">
        <ele>6.6</ele>
        <time>2025-10-12T10:55:17.000Z</time>
      </trkpt>
      <trkpt lat="43.17256" lon="6.63344">
        <ele>6.5</ele>
        <time>2025-10-12T10:55:28.000Z</time>
      </trkpt>
      <trkpt lat="43.17258" lon="6.63357">
        <ele>6.5</ele>
        <time>2025-10-12T10:55:39.000Z</time>
      </trkpt>
      <trkpt lat="43.17261" lon="6.6337">
        <ele>6.5</ele>
        <time>2025-10-12T10:55:50.000Z</time>
      </trkpt>
      <trkpt lat="43.17264" lon="6.63382">
        <ele>6.5</ele>
        <time>2025-10-12T10:56:01.000Z</time>
      </trkpt>
      <trkpt lat="43.17266" lon="6.63395">
        <ele>6.4</ele>
        <time>2025-10-12T10:56:15.000Z</time>
      </trkpt>
      <trkpt lat="43.17268" lon="6.63408">
        <ele>6.4</ele>
        <time>2025-10-12T10:56:25.000Z</time>
      </trkpt>
      <trkpt lat="43.1727" lon="6.63421">
        <ele>6.4</ele>
        <time>2025-10-12T10:56:35.000Z</time>
      </trkpt>
      <trkpt lat="43.17272" lon="6.63434">
        <ele>6.4</ele>
        <time>2025-10-12T10:56:47.000Z</time>
      </trkpt>
      <trkpt lat="43.17276" lon="6.63446">
        <ele>6.4</ele>
        <time>2025-10-12T10:57:01.000Z</time>
      </trkpt>
      <trkpt lat="43.17276" lon="6.63459">
        <ele>6.4</ele>
        <time>2025-10-12T10:57:12.000Z</time>
      </trkpt>
      <trkpt lat="43.17277" lon="6.63469">
        <ele>6.4</ele>
        <time>2025-10-12T10:57:22.000Z</time>
      </trkpt>
      <trkpt lat="43.17277" lon="6.63469">
        <ele>6.4</ele>
        <time>2025-10-12T10:57:23.000Z</time>
      </trkpt>
      <trkpt lat="43.17277" lon="6.63469">
        <ele>6.4</ele>
        <time>2025-10-12T10:57:24.000Z</time>
      </trkpt>
      <trkpt lat="43.17277" lon="6.63471">
        <ele>6.4</ele>
        <time>2025-10-12T10:57:27.000Z</time>
      </trkpt>
      <trkpt lat="43.17277" lon="6.63472">
        <ele>6.4</ele>
        <time>2025-10-12T10:57:28.000Z</time>
      </trkpt>
      <trkpt lat="43.17277" lon="6.63474">
        <ele>6.5</ele>
        <time>2025-10-12T10:57:29.000Z</time>
      </trkpt>
      <trkpt lat="43.17278" lon="6.63486">
        <ele>6.5</ele>
        <time>2025-10-12T10:57:38.000Z</time>
      </trkpt>
      <trkpt lat="43.1728" lon="6.635">
        <ele>6.5</ele>
        <time>2025-10-12T10:57:48.000Z</time>
      </trkpt>
      <trkpt lat="43.1728" lon="6.63513">
        <ele>6.4</ele>
        <time>2025-10-12T10:57:57.000Z</time>
      </trkpt>
      <trkpt lat="43.1728" lon="6.63526">
        <ele>6.5</ele>
        <time>2025-10-12T10:58:08.000Z</time>
      </trkpt>
      <trkpt lat="43.1728" lon="6.63539">
        <ele>6.5</ele>
        <time>2025-10-12T10:58:18.000Z</time>
      </trkpt>
      <trkpt lat="43.17279" lon="6.63552">
        <ele>6.5</ele>
        <time>2025-10-12T10:58:34.000Z</time>
      </trkpt>
      <trkpt lat="43.17279" lon="6.63565">
        <ele>6.4</ele>
        <time>2025-10-12T10:58:44.000Z</time>
      </trkpt>
      <trkpt lat="43.17278" lon="6.63578">
        <ele>6.4</ele>
        <time>2025-10-12T10:58:56.000Z</time>
      </trkpt>
      <trkpt lat="43.17276" lon="6.63591">
        <ele>6.4</ele>
        <time>2025-10-12T10:59:06.000Z</time>
      </trkpt>
      <trkpt lat="43.17275" lon="6.63604">
        <ele>6.4</ele>
        <time>2025-10-12T10:59:17.000Z</time>
      </trkpt>
      <trkpt lat="43.17274" lon="6.63616">
        <ele>6.5</ele>
        <time>2025-10-12T10:59:29.000Z</time>
      </trkpt>
      <trkpt lat="43.17273" lon="6.63628">
        <ele>6.5</ele>
        <time>2025-10-12T10:59:39.000Z</time>
      </trkpt>
      <trkpt lat="43.17272" lon="6.63641">
        <ele>6.5</ele>
        <time>2025-10-12T10:59:49.000Z</time>
      </trkpt>
      <trkpt lat="43.1727" lon="6.63653">
        <ele>6.5</ele>
        <time>2025-10-12T10:59:59.000Z</time>
      </trkpt>
      <trkpt lat="43.1727" lon="6.63666">
        <ele>6.6</ele>
        <time>2025-10-12T11:00:09.000Z</time>
      </trkpt>
      <trkpt lat="43.17272" lon="6.63678">
        <ele>6.6</ele>
        <time>2025-10-12T11:00:20.000Z</time>
      </trkpt>
      <trkpt lat="43.17271" lon="6.63691">
        <ele>6.7</ele>
        <time>2025-10-12T11:00:30.000Z</time>
      </trkpt>
      <trkpt lat="43.1727" lon="6.63703">
        <ele>6.7</ele>
        <time>2025-10-12T11:00:45.000Z</time>
      </trkpt>
      <trkpt lat="43.17269" lon="6.63704">
        <ele>6.7</ele>
        <time>2025-10-12T11:00:50.000Z</time>
      </trkpt>
      <trkpt lat="43.17269" lon="6.63704">
        <ele>6.7</ele>
        <time>2025-10-12T11:00:51.000Z</time>
      </trkpt>
      <trkpt lat="43.17269" lon="6.63704">
        <ele>6.7</ele>
        <time>2025-10-12T11:00:52.000Z</time>
      </trkpt>
      <trkpt lat="43.1727" lon="6.63704">
        <ele>6.7</ele>
        <time>2025-10-12T11:00:53.000Z</time>
      </trkpt>
      <trkpt lat="43.1727" lon="6.63705">
        <ele>6.7</ele>
        <time>2025-10-12T11:00:54.000Z</time>
      </trkpt>
      <trkpt lat="43.1727" lon="6.63705">
        <ele>6.7</ele>
        <time>2025-10-12T11:00:55.000Z</time>
      </trkpt>
      <trkpt lat="43.17268" lon="6.63708">
        <ele>8</ele>
        <time>2025-10-12T11:01:15.000Z</time>
      </trkpt>
      <trkpt lat="43.17268" lon="6.63708">
        <ele>8.1</ele>
        <time>2025-10-12T11:01:16.000Z</time>
      </trkpt>
      <trkpt lat="43.17268" lon="6.63709">
        <ele>8.7</ele>
        <time>2025-10-12T11:01:23.000Z</time>
      </trkpt>
      <trkpt lat="43.17267" lon="6.6371">
        <ele>8.7</ele>
        <time>2025-10-12T11:01:24.000Z</time>
      </trkpt>
      <trkpt lat="43.17262" lon="6.6372">
        <ele>9</ele>
        <time>2025-10-12T11:01:38.000Z</time>
      </trkpt>
      <trkpt lat="43.17257" lon="6.63731">
        <ele>9.5</ele>
        <time>2025-10-12T11:01:57.000Z</time>
      </trkpt>
      <trkpt lat="43.17255" lon="6.6374">
        <ele>10.1</ele>
        <time>2025-10-12T11:02:10.000Z</time>
      </trkpt>
      <trkpt lat="43.17254" lon="6.6374">
        <ele>10.1</ele>
        <time>2025-10-12T11:02:11.000Z</time>
      </trkpt>
      <trkpt lat="43.17253" lon="6.6374">
        <ele>10.2</ele>
        <time>2025-10-12T11:02:12.000Z</time>
      </trkpt>
      <trkpt lat="43.17253" lon="6.6374">
        <ele>10.2</ele>
        <time>2025-10-12T11:02:13.000Z</time>
      </trkpt>
      <trkpt lat="43.17252" lon="6.63741">
        <ele>10.2</ele>
        <time>2025-10-12T11:02:14.000Z</time>
      </trkpt>
      <trkpt lat="43.17251" lon="6.63753">
        <ele>10.7</ele>
        <time>2025-10-12T11:02:28.000Z</time>
      </trkpt>
      <trkpt lat="43.17253" lon="6.63765">
        <ele>12</ele>
        <time>2025-10-12T11:02:53.000Z</time>
      </trkpt>
      <trkpt lat="43.1725" lon="6.63777">
        <ele>13.6</ele>
        <time>2025-10-12T11:03:17.000Z</time>
      </trkpt>
      <trkpt lat="43.1725" lon="6.63789">
        <ele>15</ele>
        <time>2025-10-12T11:03:44.000Z</time>
      </trkpt>
      <trkpt lat="43.1725" lon="6.63798">
        <ele>14.7</ele>
        <time>2025-10-12T11:04:02.000Z</time>
      </trkpt>
      <trkpt lat="43.1725" lon="6.63798">
        <ele>14.6</ele>
        <time>2025-10-12T11:04:03.000Z</time>
      </trkpt>
      <trkpt lat="43.1725" lon="6.63798">
        <ele>14.6</ele>
        <time>2025-10-12T11:04:04.000Z</time>
      </trkpt>
      <trkpt lat="43.17251" lon="6.63799">
        <ele>14.5</ele>
        <time>2025-10-12T11:04:05.000Z</time>
      </trkpt>
      <trkpt lat="43.17251" lon="6.63799">
        <ele>14.5</ele>
        <time>2025-10-12T11:04:06.000Z</time>
      </trkpt>
      <trkpt lat="43.17255" lon="6.63806">
        <ele>13.7</ele>
        <time>2025-10-12T11:04:28.000Z</time>
      </trkpt>
      <trkpt lat="43.17255" lon="6.63807">
        <ele>13.7</ele>
        <time>2025-10-12T11:04:29.000Z</time>
      </trkpt>
      <trkpt lat="43.17255" lon="6.63807">
        <ele>13.7</ele>
        <time>2025-10-12T11:04:30.000Z</time>
      </trkpt>
      <trkpt lat="43.17254" lon="6.63808">
        <ele>13.6</ele>
        <time>2025-10-12T11:04:31.000Z</time>
      </trkpt>
      <trkpt lat="43.17256" lon="6.6382">
        <ele>15</ele>
        <time>2025-10-12T11:05:04.000Z</time>
      </trkpt>
      <trkpt lat="43.17256" lon="6.6382">
        <ele>15.4</ele>
        <time>2025-10-12T11:05:07.000Z</time>
      </trkpt>
      <trkpt lat="43.17256" lon="6.6382">
        <ele>15.4</ele>
        <time>2025-10-12T11:05:08.000Z</time>
      </trkpt>
      <trkpt lat="43.17256" lon="6.6382">
        <ele>15.5</ele>
        <time>2025-10-12T11:05:09.000Z</time>
      </trkpt>
      <trkpt lat="43.17256" lon="6.63821">
        <ele>16</ele>
        <time>2025-10-12T11:05:18.000Z</time>
      </trkpt>
      <trkpt lat="43.17256" lon="6.63821">
        <ele>16</ele>
        <time>2025-10-12T11:05:19.000Z</time>
      </trkpt>
      <trkpt lat="43.17256" lon="6.63822">
        <ele>16.1</ele>
        <time>2025-10-12T11:05:20.000Z</time>
      </trkpt>
      <trkpt lat="43.17253" lon="6.63833">
        <ele>16</ele>
        <time>2025-10-12T11:05:36.000Z</time>
      </trkpt>
      <trkpt lat="43.17253" lon="6.63836">
        <ele>15.8</ele>
        <time>2025-10-12T11:05:45.000Z</time>
      </trkpt>
      <trkpt lat="43.17253" lon="6.63836">
        <ele>15.8</ele>
        <time>2025-10-12T11:05:46.000Z</time>
      </trkpt>
      <trkpt lat="43.17253" lon="6.63836">
        <ele>15.8</ele>
        <time>2025-10-12T11:05:47.000Z</time>
      </trkpt>
      <trkpt lat="43.17253" lon="6.63836">
        <ele>15.8</ele>
        <time>2025-10-12T11:05:48.000Z</time>
      </trkpt>
      <trkpt lat="43.17253" lon="6.63836">
        <ele>15.8</ele>
        <time>2025-10-12T11:05:49.000Z</time>
      </trkpt>
      <trkpt lat="43.17253" lon="6.63836">
        <ele>15.7</ele>
        <time>2025-10-12T11:05:50.000Z</time>
      </trkpt>
      <trkpt lat="43.17253" lon="6.63836">
        <ele>15.7</ele>
        <time>2025-10-12T11:05:51.000Z</time>
      </trkpt>
      <trkpt lat="43.17253" lon="6.63836">
        <ele>15.8</ele>
        <time>2025-10-12T11:06:13.000Z</time>
      </trkpt>
      <trkpt lat="43.17253" lon="6.63836">
        <ele>15.8</ele>
        <time>2025-10-12T11:06:14.000Z</time>
      </trkpt>
      <trkpt lat="43.17253" lon="6.63836">
        <ele>15.8</ele>
        <time>2025-10-12T11:06:15.000Z</time>
      </trkpt>
      <trkpt lat="43.17253" lon="6.63836">
        <ele>15.8</ele>
        <time>2025-10-12T11:06:16.000Z</time>
      </trkpt>
      <trkpt lat="43.17253" lon="6.63836">
        <ele>15.8</ele>
        <time>2025-10-12T11:06:17.000Z</time>
      </trkpt>
      <trkpt lat="43.17253" lon="6.63836">
        <ele>15.8</ele>
        <time>2025-10-12T11:06:25.000Z</time>
      </trkpt>
      <trkpt lat="43.17253" lon="6.63836">
        <ele>15.8</ele>
        <time>2025-10-12T11:06:26.000Z</time>
      </trkpt>
      <trkpt lat="43.1726" lon="6.63846">
        <ele>16</ele>
        <time>2025-10-12T11:07:08.000Z</time>
      </trkpt>
      <trkpt lat="43.17266" lon="6.63856">
        <ele>15.2</ele>
        <time>2025-10-12T11:07:19.000Z</time>
      </trkpt>
      <trkpt lat="43.1727" lon="6.63868">
        <ele>13.8</ele>
        <time>2025-10-12T11:07:32.000Z</time>
      </trkpt>
      <trkpt lat="43.17274" lon="6.63879">
        <ele>13.1</ele>
        <time>2025-10-12T11:07:46.000Z</time>
      </trkpt>
      <trkpt lat="43.17277" lon="6.63892">
        <ele>12.6</ele>
        <time>2025-10-12T11:07:59.000Z</time>
      </trkpt>
      <trkpt lat="43.17278" lon="6.63904">
        <ele>11.4</ele>
        <time>2025-10-12T11:08:12.000Z</time>
      </trkpt>
      <trkpt lat="43.17278" lon="6.63918">
        <ele>10.6</ele>
        <time>2025-10-12T11:08:26.000Z</time>
      </trkpt>
      <trkpt lat="43.17285" lon="6.63926">
        <ele>10.5</ele>
        <time>2025-10-12T11:08:35.000Z</time>
      </trkpt>
      <trkpt lat="43.17294" lon="6.63933">
        <ele>10.5</ele>
        <time>2025-10-12T11:08:44.000Z</time>
      </trkpt>
      <trkpt lat="43.17294" lon="6.63945">
        <ele>9.9</ele>
        <time>2025-10-12T11:09:13.000Z</time>
      </trkpt>
      <trkpt lat="43.17286" lon="6.63949">
        <ele>9.2</ele>
        <time>2025-10-12T11:09:23.000Z</time>
      </trkpt>
      <trkpt lat="43.17278" lon="6.63956">
        <ele>9</ele>
        <time>2025-10-12T11:09:32.000Z</time>
      </trkpt>
      <trkpt lat="43.17272" lon="6.63966">
        <ele>8.9</ele>
        <time>2025-10-12T11:09:42.000Z</time>
      </trkpt>
      <trkpt lat="43.17265" lon="6.63975">
        <ele>8.7</ele>
        <time>2025-10-12T11:09:53.000Z</time>
      </trkpt>
      <trkpt lat="43.17257" lon="6.63983">
        <ele>8.7</ele>
        <time>2025-10-12T11:10:04.000Z</time>
      </trkpt>
      <trkpt lat="43.17249" lon="6.63991">
        <ele>8.6</ele>
        <time>2025-10-12T11:10:20.000Z</time>
      </trkpt>
      <trkpt lat="43.17249" lon="6.64001">
        <ele>8.5</ele>
        <time>2025-10-12T11:10:43.000Z</time>
      </trkpt>
      <trkpt lat="43.17249" lon="6.64001">
        <ele>8.5</ele>
        <time>2025-10-12T11:10:44.000Z</time>
      </trkpt>
      <trkpt lat="43.17249" lon="6.64001">
        <ele>8.4</ele>
        <time>2025-10-12T11:10:45.000Z</time>
      </trkpt>
      <trkpt lat="43.17249" lon="6.64001">
        <ele>8.4</ele>
        <time>2025-10-12T11:10:46.000Z</time>
      </trkpt>
      <trkpt lat="43.17249" lon="6.64001">
        <ele>8.4</ele>
        <time>2025-10-12T11:10:47.000Z</time>
      </trkpt>
      <trkpt lat="43.17249" lon="6.64001">
        <ele>8.4</ele>
        <time>2025-10-12T11:10:48.000Z</time>
      </trkpt>
      <trkpt lat="43.17249" lon="6.64001">
        <ele>8.4</ele>
        <time>2025-10-12T11:10:49.000Z</time>
      </trkpt>
      <trkpt lat="43.17249" lon="6.64001">
        <ele>8.4</ele>
        <time>2025-10-12T11:11:00.000Z</time>
      </trkpt>
      <trkpt lat="43.17249" lon="6.64001">
        <ele>8.3</ele>
        <time>2025-10-12T11:11:01.000Z</time>
      </trkpt>
      <trkpt lat="43.17249" lon="6.64001">
        <ele>8.3</ele>
        <time>2025-10-12T11:11:02.000Z</time>
      </trkpt>
      <trkpt lat="43.17249" lon="6.64002">
        <ele>8.3</ele>
        <time>2025-10-12T11:11:05.000Z</time>
      </trkpt>
      <trkpt lat="43.17249" lon="6.64002">
        <ele>8.3</ele>
        <time>2025-10-12T11:11:06.000Z</time>
      </trkpt>
      <trkpt lat="43.17249" lon="6.64002">
        <ele>8.3</ele>
        <time>2025-10-12T11:11:07.000Z</time>
      </trkpt>
      <trkpt lat="43.17249" lon="6.64002">
        <ele>8.3</ele>
        <time>2025-10-12T11:11:08.000Z</time>
      </trkpt>
      <trkpt lat="43.17249" lon="6.64002">
        <ele>8.3</ele>
        <time>2025-10-12T11:11:09.000Z</time>
      </trkpt>
      <trkpt lat="43.17249" lon="6.64002">
        <ele>8.3</ele>
        <time>2025-10-12T11:11:10.000Z</time>
      </trkpt>
      <trkpt lat="43.17249" lon="6.64002">
        <ele>8.3</ele>
        <time>2025-10-12T11:11:11.000Z</time>
      </trkpt>
      <trkpt lat="43.17249" lon="6.64002">
        <ele>8.3</ele>
        <time>2025-10-12T11:11:12.000Z</time>
      </trkpt>
      <trkpt lat="43.17249" lon="6.64002">
        <ele>8.3</ele>
        <time>2025-10-12T11:11:15.000Z</time>
      </trkpt>
      <trkpt lat="43.17249" lon="6.64002">
        <ele>8.3</ele>
        <time>2025-10-12T11:11:16.000Z</time>
      </trkpt>
      <trkpt lat="43.17252" lon="6.64006">
        <ele>8.1</ele>
        <time>2025-10-12T11:11:30.000Z</time>
      </trkpt>
      <trkpt lat="43.17252" lon="6.64006">
        <ele>8.1</ele>
        <time>2025-10-12T11:11:31.000Z</time>
      </trkpt>
      <trkpt lat="43.17252" lon="6.64005">
        <ele>7.9</ele>
        <time>2025-10-12T11:11:48.000Z</time>
      </trkpt>
      <trkpt lat="43.17252" lon="6.64005">
        <ele>7.9</ele>
        <time>2025-10-12T11:11:49.000Z</time>
      </trkpt>
      <trkpt lat="43.17249" lon="6.64001">
        <ele>7.9</ele>
        <time>2025-10-12T11:12:05.000Z</time>
      </trkpt>
      <trkpt lat="43.17249" lon="6.64001">
        <ele>7.9</ele>
        <time>2025-10-12T11:12:06.000Z</time>
      </trkpt>
      <trkpt lat="43.17249" lon="6.64001">
        <ele>8</ele>
        <time>2025-10-12T11:12:12.000Z</time>
      </trkpt>
      <trkpt lat="43.17249" lon="6.64001">
        <ele>8</ele>
        <time>2025-10-12T11:12:13.000Z</time>
      </trkpt>
      <trkpt lat="43.17249" lon="6.64001">
        <ele>8</ele>
        <time>2025-10-12T11:12:14.000Z</time>
      </trkpt>
      <trkpt lat="43.17249" lon="6.64001">
        <ele>8</ele>
        <time>2025-10-12T11:12:15.000Z</time>
      </trkpt>
      <trkpt lat="43.17249" lon="6.64001">
        <ele>8</ele>
        <time>2025-10-12T11:12:16.000Z</time>
      </trkpt>
      <trkpt lat="43.17249" lon="6.64002">
        <ele>8.1</ele>
        <time>2025-10-12T11:12:23.000Z</time>
      </trkpt>
      <trkpt lat="43.17249" lon="6.64001">
        <ele>8.1</ele>
        <time>2025-10-12T11:12:24.000Z</time>
      </trkpt>
      <trkpt lat="43.17249" lon="6.64001">
        <ele>8.1</ele>
        <time>2025-10-12T11:12:31.000Z</time>
      </trkpt>
      <trkpt lat="43.17249" lon="6.64001">
        <ele>8.1</ele>
        <time>2025-10-12T11:12:32.000Z</time>
      </trkpt>
      <trkpt lat="43.17249" lon="6.64001">
        <ele>8.2</ele>
        <time>2025-10-12T11:12:38.000Z</time>
      </trkpt>
      <trkpt lat="43.17249" lon="6.64001">
        <ele>8.2</ele>
        <time>2025-10-12T11:12:39.000Z</time>
      </trkpt>
      <trkpt lat="43.17249" lon="6.64001">
        <ele>8.2</ele>
        <time>2025-10-12T11:12:40.000Z</time>
      </trkpt>
      <trkpt lat="43.17249" lon="6.64001">
        <ele>8.2</ele>
        <time>2025-10-12T11:12:41.000Z</time>
      </trkpt>
      <trkpt lat="43.17249" lon="6.64001">
        <ele>8.2</ele>
        <time>2025-10-12T11:12:42.000Z</time>
      </trkpt>
      <trkpt lat="43.17249" lon="6.64001">
        <ele>8.2</ele>
        <time>2025-10-12T11:13:05.000Z</time>
      </trkpt>
      <trkpt lat="43.17249" lon="6.64001">
        <ele>8.2</ele>
        <time>2025-10-12T11:13:06.000Z</time>
      </trkpt>
      <trkpt lat="43.17249" lon="6.64001">
        <ele>8.2</ele>
        <time>2025-10-12T11:13:07.000Z</time>
      </trkpt>
      <trkpt lat="43.17249" lon="6.64001">
        <ele>8.2</ele>
        <time>2025-10-12T11:13:08.000Z</time>
      </trkpt>
      <trkpt lat="43.17249" lon="6.64001">
        <ele>8.2</ele>
        <time>2025-10-12T11:13:09.000Z</time>
      </trkpt>
      <trkpt lat="43.17249" lon="6.64001">
        <ele>8.2</ele>
        <time>2025-10-12T11:13:10.000Z</time>
      </trkpt>
      <trkpt lat="43.17249" lon="6.64001">
        <ele>8.2</ele>
        <time>2025-10-12T11:13:11.000Z</time>
      </trkpt>
      <trkpt lat="43.17249" lon="6.64001">
        <ele>8.2</ele>
        <time>2025-10-12T11:13:12.000Z</time>
      </trkpt>
      <trkpt lat="43.17249" lon="6.64001">
        <ele>8.2</ele>
        <time>2025-10-12T11:13:13.000Z</time>
      </trkpt>
      <trkpt lat="43.17249" lon="6.64001">
        <ele>8.2</ele>
        <time>2025-10-12T11:13:14.000Z</time>
      </trkpt>
      <trkpt lat="43.17249" lon="6.64001">
        <ele>8.3</ele>
        <time>2025-10-12T11:13:45.000Z</time>
      </trkpt>
      <trkpt lat="43.17249" lon="6.64001">
        <ele>8.3</ele>
        <time>2025-10-12T11:13:46.000Z</time>
      </trkpt>
      <trkpt lat="43.17249" lon="6.64001">
        <ele>8.3</ele>
        <time>2025-10-12T11:13:47.000Z</time>
      </trkpt>
      <trkpt lat="43.17249" lon="6.64001">
        <ele>8.3</ele>
        <time>2025-10-12T11:13:48.000Z</time>
      </trkpt>
      <trkpt lat="43.17249" lon="6.64001">
        <ele>8.3</ele>
        <time>2025-10-12T11:13:49.000Z</time>
      </trkpt>
      <trkpt lat="43.17249" lon="6.64002">
        <ele>8.4</ele>
        <time>2025-10-12T11:14:15.000Z</time>
      </trkpt>
      <trkpt lat="43.17249" lon="6.64002">
        <ele>8.4</ele>
        <time>2025-10-12T11:14:16.000Z</time>
      </trkpt>
      <trkpt lat="43.17248" lon="6.64002">
        <ele>8.4</ele>
        <time>2025-10-12T11:14:17.000Z</time>
      </trkpt>
      <trkpt lat="43.17248" lon="6.64002">
        <ele>8.4</ele>
        <time>2025-10-12T11:14:28.000Z</time>
      </trkpt>
      <trkpt lat="43.17248" lon="6.64002">
        <ele>8.4</ele>
        <time>2025-10-12T11:14:29.000Z</time>
      </trkpt>
      <trkpt lat="43.17248" lon="6.64002">
        <ele>8.4</ele>
        <time>2025-10-12T11:14:30.000Z</time>
      </trkpt>
      <trkpt lat="43.17249" lon="6.64002">
        <ele>8.5</ele>
        <time>2025-10-12T11:16:05.000Z</time>
      </trkpt>
      <trkpt lat="43.17249" lon="6.64002">
        <ele>8.5</ele>
        <time>2025-10-12T11:16:06.000Z</time>
      </trkpt>
      <trkpt lat="43.17249" lon="6.64002">
        <ele>8.5</ele>
        <time>2025-10-12T11:16:10.000Z</time>
      </trkpt>
      <trkpt lat="43.17249" lon="6.64002">
        <ele>8.5</ele>
        <time>2025-10-12T11:16:11.000Z</time>
      </trkpt>
      <trkpt lat="43.17248" lon="6.64002">
        <ele>8.5</ele>
        <time>2025-10-12T11:16:12.000Z</time>
      </trkpt>
      <trkpt lat="43.17248" lon="6.64001">
        <ele>8.5</ele>
        <time>2025-10-12T11:16:13.000Z</time>
      </trkpt>
      <trkpt lat="43.17248" lon="6.64001">
        <ele>8.5</ele>
        <time>2025-10-12T11:16:14.000Z</time>
      </trkpt>
      <trkpt lat="43.17248" lon="6.64002">
        <ele>8.5</ele>
        <time>2025-10-12T11:16:23.000Z</time>
      </trkpt>
      <trkpt lat="43.17248" lon="6.64002">
        <ele>8.5</ele>
        <time>2025-10-12T11:16:24.000Z</time>
      </trkpt>
      <trkpt lat="43.17248" lon="6.64002">
        <ele>8.5</ele>
        <time>2025-10-12T11:16:25.000Z</time>
      </trkpt>
      <trkpt lat="43.17248" lon="6.64002">
        <ele>8.5</ele>
        <time>2025-10-12T11:16:26.000Z</time>
      </trkpt>
      <trkpt lat="43.17248" lon="6.64002">
        <ele>8.5</ele>
        <time>2025-10-12T11:16:27.000Z</time>
      </trkpt>
      <trkpt lat="43.17248" lon="6.64002">
        <ele>8.6</ele>
        <time>2025-10-12T11:16:28.000Z</time>
      </trkpt>
      <trkpt lat="43.17248" lon="6.64002">
        <ele>8.6</ele>
        <time>2025-10-12T11:16:29.000Z</time>
      </trkpt>
      <trkpt lat="43.17248" lon="6.64002">
        <ele>8.6</ele>
        <time>2025-10-12T11:16:37.000Z</time>
      </trkpt>
      <trkpt lat="43.17248" lon="6.64002">
        <ele>8.6</ele>
        <time>2025-10-12T11:16:38.000Z</time>
      </trkpt>
      <trkpt lat="43.17248" lon="6.64002">
        <ele>8.6</ele>
        <time>2025-10-12T11:16:39.000Z</time>
      </trkpt>
      <trkpt lat="43.17248" lon="6.64002">
        <ele>8.6</ele>
        <time>2025-10-12T11:16:40.000Z</time>
      </trkpt>
      <trkpt lat="43.17248" lon="6.64002">
        <ele>8.6</ele>
        <time>2025-10-12T11:16:41.000Z</time>
      </trkpt>
      <trkpt lat="43.17248" lon="6.64002">
        <ele>8.6</ele>
        <time>2025-10-12T11:16:42.000Z</time>
      </trkpt>
      <trkpt lat="43.17248" lon="6.64003">
        <ele>8.6</ele>
        <time>2025-10-12T11:16:48.000Z</time>
      </trkpt>
      <trkpt lat="43.17249" lon="6.64003">
        <ele>8.6</ele>
        <time>2025-10-12T11:16:49.000Z</time>
      </trkpt>
      <trkpt lat="43.17249" lon="6.64004">
        <ele>8.6</ele>
        <time>2025-10-12T11:16:50.000Z</time>
      </trkpt>
      <trkpt lat="43.17249" lon="6.64004">
        <ele>8.6</ele>
        <time>2025-10-12T11:16:58.000Z</time>
      </trkpt>
      <trkpt lat="43.17249" lon="6.64004">
        <ele>8.6</ele>
        <time>2025-10-12T11:16:59.000Z</time>
      </trkpt>
      <trkpt lat="43.17249" lon="6.64004">
        <ele>8.6</ele>
        <time>2025-10-12T11:17:00.000Z</time>
      </trkpt>
      <trkpt lat="43.17249" lon="6.64004">
        <ele>8.6</ele>
        <time>2025-10-12T11:17:07.000Z</time>
      </trkpt>
      <trkpt lat="43.17249" lon="6.64004">
        <ele>8.6</ele>
        <time>2025-10-12T11:17:08.000Z</time>
      </trkpt>
      <trkpt lat="43.17249" lon="6.64004">
        <ele>8.6</ele>
        <time>2025-10-12T11:17:09.000Z</time>
      </trkpt>
      <trkpt lat="43.17249" lon="6.64004">
        <ele>8.6</ele>
        <time>2025-10-12T11:17:10.000Z</time>
      </trkpt>
      <trkpt lat="43.17249" lon="6.64004">
        <ele>8.5</ele>
        <time>2025-10-12T11:17:11.000Z</time>
      </trkpt>
      <trkpt lat="43.17249" lon="6.64004">
        <ele>8.4</ele>
        <time>2025-10-12T11:18:05.000Z</time>
      </trkpt>
      <trkpt lat="43.17249" lon="6.64004">
        <ele>8.4</ele>
        <time>2025-10-12T11:18:06.000Z</time>
      </trkpt>
      <trkpt lat="43.17249" lon="6.64004">
        <ele>8.4</ele>
        <time>2025-10-12T11:18:07.000Z</time>
      </trkpt>
      <trkpt lat="43.17249" lon="6.64004">
        <ele>8.4</ele>
        <time>2025-10-12T11:18:08.000Z</time>
      </trkpt>
      <trkpt lat="43.17249" lon="6.64004">
        <ele>8.4</ele>
        <time>2025-10-12T11:18:09.000Z</time>
      </trkpt>
      <trkpt lat="43.17249" lon="6.64004">
        <ele>8.4</ele>
        <time>2025-10-12T11:18:10.000Z</time>
      </trkpt>
      <trkpt lat="43.17249" lon="6.64004">
        <ele>8.4</ele>
        <time>2025-10-12T11:18:28.000Z</time>
      </trkpt>
      <trkpt lat="43.17249" lon="6.64004">
        <ele>8.4</ele>
        <time>2025-10-12T11:18:29.000Z</time>
      </trkpt>
      <trkpt lat="43.17249" lon="6.64004">
        <ele>8.4</ele>
        <time>2025-10-12T11:18:30.000Z</time>
      </trkpt>
      <trkpt lat="43.17249" lon="6.64004">
        <ele>8.4</ele>
        <time>2025-10-12T11:18:35.000Z</time>
      </trkpt>
      <trkpt lat="43.17249" lon="6.64004">
        <ele>8.4</ele>
        <time>2025-10-12T11:18:36.000Z</time>
      </trkpt>
      <trkpt lat="43.17249" lon="6.64004">
        <ele>8.4</ele>
        <time>2025-10-12T11:19:27.000Z</time>
      </trkpt>
      <trkpt lat="43.17249" lon="6.64004">
        <ele>8.4</ele>
        <time>2025-10-12T11:19:28.000Z</time>
      </trkpt>
      <trkpt lat="43.17249" lon="6.64004">
        <ele>8.4</ele>
        <time>2025-10-12T11:19:29.000Z</time>
      </trkpt>
      <trkpt lat="43.17249" lon="6.64004">
        <ele>8.4</ele>
        <time>2025-10-12T11:19:30.000Z</time>
      </trkpt>
      <trkpt lat="43.17249" lon="6.64004">
        <ele>8.4</ele>
        <time>2025-10-12T11:19:31.000Z</time>
      </trkpt>
      <trkpt lat="43.17249" lon="6.64005">
        <ele>8.6</ele>
        <time>2025-10-12T11:20:57.000Z</time>
      </trkpt>
      <trkpt lat="43.17249" lon="6.64005">
        <ele>8.6</ele>
        <time>2025-10-12T11:20:58.000Z</time>
      </trkpt>
      <trkpt lat="43.17249" lon="6.64005">
        <ele>8.6</ele>
        <time>2025-10-12T11:20:59.000Z</time>
      </trkpt>
      <trkpt lat="43.17249" lon="6.64005">
        <ele>8.6</ele>
        <time>2025-10-12T11:21:00.000Z</time>
      </trkpt>
      <trkpt lat="43.17249" lon="6.64005">
        <ele>8.6</ele>
        <time>2025-10-12T11:21:01.000Z</time>
      </trkpt>
      <trkpt lat="43.17249" lon="6.64005">
        <ele>8.7</ele>
        <time>2025-10-12T11:21:52.000Z</time>
      </trkpt>
      <trkpt lat="43.1725" lon="6.64004">
        <ele>8.7</ele>
        <time>2025-10-12T11:21:53.000Z</time>
      </trkpt>
      <trkpt lat="43.1725" lon="6.64004">
        <ele>8.7</ele>
        <time>2025-10-12T11:21:54.000Z</time>
      </trkpt>
      <trkpt lat="43.17247" lon="6.64001">
        <ele>8.8</ele>
        <time>2025-10-12T11:22:10.000Z</time>
      </trkpt>
      <trkpt lat="43.17247" lon="6.64001">
        <ele>8.8</ele>
        <time>2025-10-12T11:22:11.000Z</time>
      </trkpt>
      <trkpt lat="43.17247" lon="6.64001">
        <ele>8.8</ele>
        <time>2025-10-12T11:22:12.000Z</time>
      </trkpt>
      <trkpt lat="43.17247" lon="6.64001">
        <ele>9.1</ele>
        <time>2025-10-12T11:22:55.000Z</time>
      </trkpt>
      <trkpt lat="43.17247" lon="6.64001">
        <ele>9.1</ele>
        <time>2025-10-12T11:22:56.000Z</time>
      </trkpt>
      <trkpt lat="43.17247" lon="6.64001">
        <ele>9.1</ele>
        <time>2025-10-12T11:22:57.000Z</time>
      </trkpt>
      <trkpt lat="43.17247" lon="6.64001">
        <ele>9.1</ele>
        <time>2025-10-12T11:23:00.000Z</time>
      </trkpt>
      <trkpt lat="43.17247" lon="6.64001">
        <ele>9.1</ele>
        <time>2025-10-12T11:23:01.000Z</time>
      </trkpt>
      <trkpt lat="43.17246" lon="6.64002">
        <ele>9.5</ele>
        <time>2025-10-12T11:28:00.000Z</time>
      </trkpt>
      <trkpt lat="43.17246" lon="6.64002">
        <ele>9.5</ele>
        <time>2025-10-12T11:28:01.000Z</time>
      </trkpt>
      <trkpt lat="43.17246" lon="6.64002">
        <ele>9.5</ele>
        <time>2025-10-12T11:28:02.000Z</time>
      </trkpt>
      <trkpt lat="43.17246" lon="6.64002">
        <ele>9.5</ele>
        <time>2025-10-12T11:28:03.000Z</time>
      </trkpt>
      <trkpt lat="43.17246" lon="6.64002">
        <ele>9.5</ele>
        <time>2025-10-12T11:28:04.000Z</time>
      </trkpt>
      <trkpt lat="43.17246" lon="6.64002">
        <ele>9.4</ele>
        <time>2025-10-12T11:31:05.000Z</time>
      </trkpt>
      <trkpt lat="43.17246" lon="6.64002">
        <ele>9.4</ele>
        <time>2025-10-12T11:31:06.000Z</time>
      </trkpt>
      <trkpt lat="43.17246" lon="6.64002">
        <ele>9.4</ele>
        <time>2025-10-12T11:31:07.000Z</time>
      </trkpt>
      <trkpt lat="43.17246" lon="6.64002">
        <ele>9.4</ele>
        <time>2025-10-12T11:31:08.000Z</time>
      </trkpt>
      <trkpt lat="43.17246" lon="6.64002">
        <ele>9.4</ele>
        <time>2025-10-12T11:31:09.000Z</time>
      </trkpt>
      <trkpt lat="43.17246" lon="6.64002">
        <ele>9.3</ele>
        <time>2025-10-12T11:31:35.000Z</time>
      </trkpt>
      <trkpt lat="43.17246" lon="6.64002">
        <ele>9.3</ele>
        <time>2025-10-12T11:31:36.000Z</time>
      </trkpt>
      <trkpt lat="43.17246" lon="6.64002">
        <ele>9.3</ele>
        <time>2025-10-12T11:31:37.000Z</time>
      </trkpt>
      <trkpt lat="43.17246" lon="6.64002">
        <ele>9.3</ele>
        <time>2025-10-12T11:31:38.000Z</time>
      </trkpt>
      <trkpt lat="43.17246" lon="6.64002">
        <ele>9.3</ele>
        <time>2025-10-12T11:31:39.000Z</time>
      </trkpt>
      <trkpt lat="43.17246" lon="6.64003">
        <ele>9.2</ele>
        <time>2025-10-12T11:33:37.000Z</time>
      </trkpt>
      <trkpt lat="43.17246" lon="6.64003">
        <ele>9.2</ele>
        <time>2025-10-12T11:33:38.000Z</time>
      </trkpt>
      <trkpt lat="43.17246" lon="6.64003">
        <ele>9.2</ele>
        <time>2025-10-12T11:33:39.000Z</time>
      </trkpt>
      <trkpt lat="43.17246" lon="6.64003">
        <ele>9.2</ele>
        <time>2025-10-12T11:33:40.000Z</time>
      </trkpt>
      <trkpt lat="43.17246" lon="6.64003">
        <ele>9.2</ele>
        <time>2025-10-12T11:33:41.000Z</time>
      </trkpt>
      <trkpt lat="43.17246" lon="6.64003">
        <ele>9.2</ele>
        <time>2025-10-12T11:33:42.000Z</time>
      </trkpt>
      <trkpt lat="43.17246" lon="6.64003">
        <ele>9.3</ele>
        <time>2025-10-12T11:33:47.000Z</time>
      </trkpt>
      <trkpt lat="43.17246" lon="6.64003">
        <ele>9.3</ele>
        <time>2025-10-12T11:33:48.000Z</time>
      </trkpt>
      <trkpt lat="43.17246" lon="6.64003">
        <ele>9.3</ele>
        <time>2025-10-12T11:33:49.000Z</time>
      </trkpt>
      <trkpt lat="43.17246" lon="6.64003">
        <ele>9.3</ele>
        <time>2025-10-12T11:33:50.000Z</time>
      </trkpt>
      <trkpt lat="43.17246" lon="6.64003">
        <ele>9.3</ele>
        <time>2025-10-12T11:33:51.000Z</time>
      </trkpt>
      <trkpt lat="43.17246" lon="6.64003">
        <ele>9.3</ele>
        <time>2025-10-12T11:33:52.000Z</time>
      </trkpt>
      <trkpt lat="43.17246" lon="6.64003">
        <ele>9.3</ele>
        <time>2025-10-12T11:35:13.000Z</time>
      </trkpt>
      <trkpt lat="43.17246" lon="6.64003">
        <ele>9.3</ele>
        <time>2025-10-12T11:35:14.000Z</time>
      </trkpt>
      <trkpt lat="43.17246" lon="6.64003">
        <ele>9.3</ele>
        <time>2025-10-12T11:35:15.000Z</time>
      </trkpt>
      <trkpt lat="43.17246" lon="6.64003">
        <ele>9.3</ele>
        <time>2025-10-12T11:35:16.000Z</time>
      </trkpt>
      <trkpt lat="43.17246" lon="6.64003">
        <ele>9.3</ele>
        <time>2025-10-12T11:35:17.000Z</time>
      </trkpt>
      <trkpt lat="43.17246" lon="6.64003">
        <ele>9.3</ele>
        <time>2025-10-12T11:38:46.000Z</time>
      </trkpt>
      <trkpt lat="43.17246" lon="6.64003">
        <ele>9.3</ele>
        <time>2025-10-12T11:38:47.000Z</time>
      </trkpt>
      <trkpt lat="43.17246" lon="6.64003">
        <ele>9.4</ele>
        <time>2025-10-12T11:38:48.000Z</time>
      </trkpt>
      <trkpt lat="43.17246" lon="6.64003">
        <ele>9.4</ele>
        <time>2025-10-12T11:38:49.000Z</time>
      </trkpt>
      <trkpt lat="43.17246" lon="6.64003">
        <ele>9.4</ele>
        <time>2025-10-12T11:39:37.000Z</time>
      </trkpt>
      <trkpt lat="43.17246" lon="6.64003">
        <ele>9.4</ele>
        <time>2025-10-12T11:39:38.000Z</time>
      </trkpt>
      <trkpt lat="43.17246" lon="6.64003">
        <ele>9.4</ele>
        <time>2025-10-12T11:39:39.000Z</time>
      </trkpt>
      <trkpt lat="43.17246" lon="6.64003">
        <ele>9.4</ele>
        <time>2025-10-12T11:39:40.000Z</time>
      </trkpt>
      <trkpt lat="43.17246" lon="6.64003">
        <ele>9.4</ele>
        <time>2025-10-12T11:39:41.000Z</time>
      </trkpt>
      <trkpt lat="43.17246" lon="6.64003">
        <ele>9.4</ele>
        <time>2025-10-12T11:40:15.000Z</time>
      </trkpt>
      <trkpt lat="43.17246" lon="6.64003">
        <ele>9.4</ele>
        <time>2025-10-12T11:40:16.000Z</time>
      </trkpt>
      <trkpt lat="43.17246" lon="6.64003">
        <ele>9.4</ele>
        <time>2025-10-12T11:40:17.000Z</time>
      </trkpt>
      <trkpt lat="43.17246" lon="6.64003">
        <ele>9.4</ele>
        <time>2025-10-12T11:40:18.000Z</time>
      </trkpt>
      <trkpt lat="43.17246" lon="6.64003">
        <ele>9.4</ele>
        <time>2025-10-12T11:40:19.000Z</time>
      </trkpt>
      <trkpt lat="43.17246" lon="6.64003">
        <ele>9.5</ele>
        <time>2025-10-12T11:43:43.000Z</time>
      </trkpt>
      <trkpt lat="43.17246" lon="6.64003">
        <ele>9.5</ele>
        <time>2025-10-12T11:43:44.000Z</time>
      </trkpt>
      <trkpt lat="43.17246" lon="6.64003">
        <ele>9.5</ele>
        <time>2025-10-12T11:43:45.000Z</time>
      </trkpt>
      <trkpt lat="43.17246" lon="6.64003">
        <ele>9.5</ele>
        <time>2025-10-12T11:43:46.000Z</time>
      </trkpt>
      <trkpt lat="43.17246" lon="6.64003">
        <ele>9.5</ele>
        <time>2025-10-12T11:43:47.000Z</time>
      </trkpt>
      <trkpt lat="43.17246" lon="6.64003">
        <ele>9.5</ele>
        <time>2025-10-12T11:43:56.000Z</time>
      </trkpt>
      <trkpt lat="43.17246" lon="6.64003">
        <ele>9.5</ele>
        <time>2025-10-12T11:43:57.000Z</time>
      </trkpt>
      <trkpt lat="43.17246" lon="6.64003">
        <ele>9.5</ele>
        <time>2025-10-12T11:43:58.000Z</time>
      </trkpt>
      <trkpt lat="43.17246" lon="6.64003">
        <ele>9.5</ele>
        <time>2025-10-12T11:43:59.000Z</time>
      </trkpt>
      <trkpt lat="43.17246" lon="6.64004">
        <ele>9.9</ele>
        <time>2025-10-12T11:47:02.000Z</time>
      </trkpt>
      <trkpt lat="43.17246" lon="6.64004">
        <ele>9.9</ele>
        <time>2025-10-12T11:47:03.000Z</time>
      </trkpt>
      <trkpt lat="43.17246" lon="6.64004">
        <ele>9.9</ele>
        <time>2025-10-12T11:47:04.000Z</time>
      </trkpt>
      <trkpt lat="43.17246" lon="6.64004">
        <ele>10</ele>
        <time>2025-10-12T11:47:13.000Z</time>
      </trkpt>
      <trkpt lat="43.17246" lon="6.64004">
        <ele>10</ele>
        <time>2025-10-12T11:47:14.000Z</time>
      </trkpt>
      <trkpt lat="43.17246" lon="6.64004">
        <ele>10</ele>
        <time>2025-10-12T11:47:15.000Z</time>
      </trkpt>
      <trkpt lat="43.17246" lon="6.64004">
        <ele>10</ele>
        <time>2025-10-12T11:47:16.000Z</time>
      </trkpt>
      <trkpt lat="43.17246" lon="6.64004">
        <ele>10</ele>
        <time>2025-10-12T11:47:17.000Z</time>
      </trkpt>
      <trkpt lat="43.17246" lon="6.64003">
        <ele>10.5</ele>
        <time>2025-10-12T11:47:43.000Z</time>
      </trkpt>
      <trkpt lat="43.17246" lon="6.64003">
        <ele>10.5</ele>
        <time>2025-10-12T11:47:44.000Z</time>
      </trkpt>
      <trkpt lat="43.17246" lon="6.64003">
        <ele>10.5</ele>
        <time>2025-10-12T11:47:45.000Z</time>
      </trkpt>
      <trkpt lat="43.17246" lon="6.64003">
        <ele>10.5</ele>
        <time>2025-10-12T11:47:46.000Z</time>
      </trkpt>
      <trkpt lat="43.17246" lon="6.64003">
        <ele>10.6</ele>
        <time>2025-10-12T11:47:47.000Z</time>
      </trkpt>
      <trkpt lat="43.17246" lon="6.64003">
        <ele>10.6</ele>
        <time>2025-10-12T11:47:50.000Z</time>
      </trkpt>
      <trkpt lat="43.17246" lon="6.64003">
        <ele>10.6</ele>
        <time>2025-10-12T11:47:51.000Z</time>
      </trkpt>
      <trkpt lat="43.17245" lon="6.64003">
        <ele>10.6</ele>
        <time>2025-10-12T11:47:52.000Z</time>
      </trkpt>
      <trkpt lat="43.17245" lon="6.64003">
        <ele>10.7</ele>
        <time>2025-10-12T11:47:53.000Z</time>
      </trkpt>
      <trkpt lat="43.17245" lon="6.64003">
        <ele>10.7</ele>
        <time>2025-10-12T11:47:54.000Z</time>
      </trkpt>
      <trkpt lat="43.17245" lon="6.64003">
        <ele>10.7</ele>
        <time>2025-10-12T11:47:55.000Z</time>
      </trkpt>
      <trkpt lat="43.17245" lon="6.64001">
        <ele>10.7</ele>
        <time>2025-10-12T11:47:56.000Z</time>
      </trkpt>
      <trkpt lat="43.17245" lon="6.64002">
        <ele>10.7</ele>
        <time>2025-10-12T11:47:57.000Z</time>
      </trkpt>
      <trkpt lat="43.17245" lon="6.64002">
        <ele>10.7</ele>
        <time>2025-10-12T11:47:58.000Z</time>
      </trkpt>
      <trkpt lat="43.17245" lon="6.64002">
        <ele>10.8</ele>
        <time>2025-10-12T11:47:59.000Z</time>
      </trkpt>
      <trkpt lat="43.17245" lon="6.64002">
        <ele>10.8</ele>
        <time>2025-10-12T11:48:00.000Z</time>
      </trkpt>
      <trkpt lat="43.17245" lon="6.64002">
        <ele>10.8</ele>
        <time>2025-10-12T11:48:03.000Z</time>
      </trkpt>
      <trkpt lat="43.17245" lon="6.64002">
        <ele>10.9</ele>
        <time>2025-10-12T11:48:13.000Z</time>
      </trkpt>
      <trkpt lat="43.17245" lon="6.64002">
        <ele>10.9</ele>
        <time>2025-10-12T11:48:14.000Z</time>
      </trkpt>
      <trkpt lat="43.17245" lon="6.64002">
        <ele>10.9</ele>
        <time>2025-10-12T11:48:15.000Z</time>
      </trkpt>
      <trkpt lat="43.17246" lon="6.64002">
        <ele>10.9</ele>
        <time>2025-10-12T11:48:22.000Z</time>
      </trkpt>
      <trkpt lat="43.17246" lon="6.64002">
        <ele>10.8</ele>
        <time>2025-10-12T11:48:23.000Z</time>
      </trkpt>
      <trkpt lat="43.17246" lon="6.64002">
        <ele>10.8</ele>
        <time>2025-10-12T11:48:24.000Z</time>
      </trkpt>
      <trkpt lat="43.17246" lon="6.64003">
        <ele>10.8</ele>
        <time>2025-10-12T11:48:25.000Z</time>
      </trkpt>
      <trkpt lat="43.17246" lon="6.64003">
        <ele>10.8</ele>
        <time>2025-10-12T11:48:26.000Z</time>
      </trkpt>
      <trkpt lat="43.17246" lon="6.64003">
        <ele>10.8</ele>
        <time>2025-10-12T11:48:27.000Z</time>
      </trkpt>
      <trkpt lat="43.17246" lon="6.64003">
        <ele>10.8</ele>
        <time>2025-10-12T11:48:28.000Z</time>
      </trkpt>
      <trkpt lat="43.17246" lon="6.64003">
        <ele>10.8</ele>
        <time>2025-10-12T11:48:29.000Z</time>
      </trkpt>
      <trkpt lat="43.17246" lon="6.64003">
        <ele>10.8</ele>
        <time>2025-10-12T11:48:30.000Z</time>
      </trkpt>
      <trkpt lat="43.17246" lon="6.64002">
        <ele>10.7</ele>
        <time>2025-10-12T11:48:48.000Z</time>
      </trkpt>
      <trkpt lat="43.17245" lon="6.64002">
        <ele>10.7</ele>
        <time>2025-10-12T11:48:49.000Z</time>
      </trkpt>
      <trkpt lat="43.17245" lon="6.64002">
        <ele>10.7</ele>
        <time>2025-10-12T11:48:50.000Z</time>
      </trkpt>
      <trkpt lat="43.17245" lon="6.64002">
        <ele>10.7</ele>
        <time>2025-10-12T11:48:51.000Z</time>
      </trkpt>
      <trkpt lat="43.17245" lon="6.64002">
        <ele>10.7</ele>
        <time>2025-10-12T11:48:52.000Z</time>
      </trkpt>
      <trkpt lat="43.17245" lon="6.64001">
        <ele>10.7</ele>
        <time>2025-10-12T11:48:53.000Z</time>
      </trkpt>
      <trkpt lat="43.17245" lon="6.64001">
        <ele>10.7</ele>
        <time>2025-10-12T11:48:54.000Z</time>
      </trkpt>
      <trkpt lat="43.1724" lon="6.63998">
        <ele>10.7</ele>
        <time>2025-10-12T11:49:15.000Z</time>
      </trkpt>
      <trkpt lat="43.1724" lon="6.63998">
        <ele>10.7</ele>
        <time>2025-10-12T11:49:16.000Z</time>
      </trkpt>
      <trkpt lat="43.1724" lon="6.63998">
        <ele>10.7</ele>
        <time>2025-10-12T11:49:17.000Z</time>
      </trkpt>
      <trkpt lat="43.1724" lon="6.63998">
        <ele>10.7</ele>
        <time>2025-10-12T11:49:48.000Z</time>
      </trkpt>
      <trkpt lat="43.1724" lon="6.63998">
        <ele>10.7</ele>
        <time>2025-10-12T11:49:49.000Z</time>
      </trkpt>
      <trkpt lat="43.1724" lon="6.63998">
        <ele>10.7</ele>
        <time>2025-10-12T11:49:50.000Z</time>
      </trkpt>
      <trkpt lat="43.17239" lon="6.63998">
        <ele>10.7</ele>
        <time>2025-10-12T11:49:56.000Z</time>
      </trkpt>
      <trkpt lat="43.17239" lon="6.63998">
        <ele>10.7</ele>
        <time>2025-10-12T11:49:57.000Z</time>
      </trkpt>
      <trkpt lat="43.17238" lon="6.64">
        <ele>10.6</ele>
        <time>2025-10-12T11:50:11.000Z</time>
      </trkpt>
      <trkpt lat="43.17239" lon="6.64001">
        <ele>10.6</ele>
        <time>2025-10-12T11:50:12.000Z</time>
      </trkpt>
      <trkpt lat="43.17239" lon="6.64001">
        <ele>10.6</ele>
        <time>2025-10-12T11:50:16.000Z</time>
      </trkpt>
      <trkpt lat="43.17239" lon="6.64001">
        <ele>10.6</ele>
        <time>2025-10-12T11:50:17.000Z</time>
      </trkpt>
      <trkpt lat="43.17239" lon="6.64001">
        <ele>10.5</ele>
        <time>2025-10-12T11:50:38.000Z</time>
      </trkpt>
      <trkpt lat="43.17239" lon="6.64001">
        <ele>10.5</ele>
        <time>2025-10-12T11:50:39.000Z</time>
      </trkpt>
      <trkpt lat="43.17239" lon="6.64001">
        <ele>10.5</ele>
        <time>2025-10-12T11:50:40.000Z</time>
      </trkpt>
      <trkpt lat="43.17239" lon="6.64001">
        <ele>10.5</ele>
        <time>2025-10-12T11:50:41.000Z</time>
      </trkpt>
      <trkpt lat="43.17239" lon="6.64001">
        <ele>10.5</ele>
        <time>2025-10-12T11:50:53.000Z</time>
      </trkpt>
      <trkpt lat="43.17239" lon="6.64001">
        <ele>10.5</ele>
        <time>2025-10-12T11:50:54.000Z</time>
      </trkpt>
      <trkpt lat="43.17238" lon="6.64">
        <ele>10.6</ele>
        <time>2025-10-12T11:50:58.000Z</time>
      </trkpt>
      <trkpt lat="43.17238" lon="6.64">
        <ele>10.6</ele>
        <time>2025-10-12T11:50:59.000Z</time>
      </trkpt>
      <trkpt lat="43.17238" lon="6.64">
        <ele>10.6</ele>
        <time>2025-10-12T11:51:00.000Z</time>
      </trkpt>
      <trkpt lat="43.17238" lon="6.64">
        <ele>10.5</ele>
        <time>2025-10-12T11:51:08.000Z</time>
      </trkpt>
      <trkpt lat="43.17238" lon="6.64">
        <ele>10.5</ele>
        <time>2025-10-12T11:51:09.000Z</time>
      </trkpt>
      <trkpt lat="43.17238" lon="6.64">
        <ele>10.5</ele>
        <time>2025-10-12T11:51:10.000Z</time>
      </trkpt>
      <trkpt lat="43.17238" lon="6.64">
        <ele>10.5</ele>
        <time>2025-10-12T11:51:11.000Z</time>
      </trkpt>
      <trkpt lat="43.17238" lon="6.64">
        <ele>10.5</ele>
        <time>2025-10-12T11:51:12.000Z</time>
      </trkpt>
      <trkpt lat="43.17238" lon="6.64">
        <ele>10.5</ele>
        <time>2025-10-12T11:51:13.000Z</time>
      </trkpt>
      <trkpt lat="43.17238" lon="6.64">
        <ele>10.5</ele>
        <time>2025-10-12T11:51:14.000Z</time>
      </trkpt>
      <trkpt lat="43.17238" lon="6.64">
        <ele>10.5</ele>
        <time>2025-10-12T11:51:15.000Z</time>
      </trkpt>
      <trkpt lat="43.17238" lon="6.64">
        <ele>10.5</ele>
        <time>2025-10-12T11:51:16.000Z</time>
      </trkpt>
      <trkpt lat="43.17238" lon="6.64">
        <ele>10.5</ele>
        <time>2025-10-12T11:51:17.000Z</time>
      </trkpt>
      <trkpt lat="43.17238" lon="6.64">
        <ele>10.5</ele>
        <time>2025-10-12T11:51:28.000Z</time>
      </trkpt>
      <trkpt lat="43.17238" lon="6.64">
        <ele>10.5</ele>
        <time>2025-10-12T11:51:29.000Z</time>
      </trkpt>
      <trkpt lat="43.17238" lon="6.64">
        <ele>10.5</ele>
        <time>2025-10-12T11:51:33.000Z</time>
      </trkpt>
      <trkpt lat="43.17238" lon="6.64">
        <ele>10.5</ele>
        <time>2025-10-12T11:51:34.000Z</time>
      </trkpt>
      <trkpt lat="43.17238" lon="6.64">
        <ele>10.5</ele>
        <time>2025-10-12T11:51:35.000Z</time>
      </trkpt>
      <trkpt lat="43.17238" lon="6.64">
        <ele>10.5</ele>
        <time>2025-10-12T11:51:47.000Z</time>
      </trkpt>
      <trkpt lat="43.17238" lon="6.64">
        <ele>10.5</ele>
        <time>2025-10-12T11:51:48.000Z</time>
      </trkpt>
      <trkpt lat="43.17238" lon="6.64">
        <ele>10.5</ele>
        <time>2025-10-12T11:51:49.000Z</time>
      </trkpt>
      <trkpt lat="43.17238" lon="6.64">
        <ele>10.5</ele>
        <time>2025-10-12T11:51:53.000Z</time>
      </trkpt>
      <trkpt lat="43.17238" lon="6.64">
        <ele>10.5</ele>
        <time>2025-10-12T11:51:54.000Z</time>
      </trkpt>
      <trkpt lat="43.17238" lon="6.64">
        <ele>10.5</ele>
        <time>2025-10-12T11:52:01.000Z</time>
      </trkpt>
      <trkpt lat="43.17238" lon="6.64">
        <ele>10.5</ele>
        <time>2025-10-12T11:52:02.000Z</time>
      </trkpt>
      <trkpt lat="43.17238" lon="6.63999">
        <ele>10.5</ele>
        <time>2025-10-12T11:52:07.000Z</time>
      </trkpt>
      <trkpt lat="43.17238" lon="6.63999">
        <ele>10.5</ele>
        <time>2025-10-12T11:52:08.000Z</time>
      </trkpt>
      <trkpt lat="43.17238" lon="6.63999">
        <ele>10.5</ele>
        <time>2025-10-12T11:52:09.000Z</time>
      </trkpt>
      <trkpt lat="43.17236" lon="6.63995">
        <ele>10.5</ele>
        <time>2025-10-12T11:52:13.000Z</time>
      </trkpt>
      <trkpt lat="43.17236" lon="6.63994">
        <ele>10.5</ele>
        <time>2025-10-12T11:52:14.000Z</time>
      </trkpt>
      <trkpt lat="43.17235" lon="6.63994">
        <ele>10.5</ele>
        <time>2025-10-12T11:52:15.000Z</time>
      </trkpt>
      <trkpt lat="43.17235" lon="6.63994">
        <ele>10.5</ele>
        <time>2025-10-12T11:52:18.000Z</time>
      </trkpt>
      <trkpt lat="43.17235" lon="6.63994">
        <ele>10.5</ele>
        <time>2025-10-12T11:52:19.000Z</time>
      </trkpt>
      <trkpt lat="43.17235" lon="6.63994">
        <ele>10.5</ele>
        <time>2025-10-12T11:52:27.000Z</time>
      </trkpt>
      <trkpt lat="43.17235" lon="6.63994">
        <ele>10.5</ele>
        <time>2025-10-12T11:52:28.000Z</time>
      </trkpt>
      <trkpt lat="43.17235" lon="6.63994">
        <ele>10.5</ele>
        <time>2025-10-12T11:52:29.000Z</time>
      </trkpt>
      <trkpt lat="43.17235" lon="6.63994">
        <ele>10.5</ele>
        <time>2025-10-12T11:52:33.000Z</time>
      </trkpt>
      <trkpt lat="43.17235" lon="6.63994">
        <ele>10.5</ele>
        <time>2025-10-12T11:52:34.000Z</time>
      </trkpt>
      <trkpt lat="43.17235" lon="6.63994">
        <ele>10.5</ele>
        <time>2025-10-12T11:52:47.000Z</time>
      </trkpt>
      <trkpt lat="43.17235" lon="6.63994">
        <ele>10.5</ele>
        <time>2025-10-12T11:52:48.000Z</time>
      </trkpt>
      <trkpt lat="43.17235" lon="6.63994">
        <ele>10.5</ele>
        <time>2025-10-12T11:52:49.000Z</time>
      </trkpt>
      <trkpt lat="43.17235" lon="6.63994">
        <ele>10.5</ele>
        <time>2025-10-12T11:52:50.000Z</time>
      </trkpt>
      <trkpt lat="43.17235" lon="6.63994">
        <ele>10.5</ele>
        <time>2025-10-12T11:52:51.000Z</time>
      </trkpt>
      <trkpt lat="43.17235" lon="6.63994">
        <ele>10.5</ele>
        <time>2025-10-12T11:52:52.000Z</time>
      </trkpt>
      <trkpt lat="43.17235" lon="6.63994">
        <ele>10.5</ele>
        <time>2025-10-12T11:52:56.000Z</time>
      </trkpt>
      <trkpt lat="43.17235" lon="6.63994">
        <ele>10.5</ele>
        <time>2025-10-12T11:52:57.000Z</time>
      </trkpt>
      <trkpt lat="43.17235" lon="6.63994">
        <ele>10.5</ele>
        <time>2025-10-12T11:53:00.000Z</time>
      </trkpt>
      <trkpt lat="43.17235" lon="6.63994">
        <ele>10.5</ele>
        <time>2025-10-12T11:53:01.000Z</time>
      </trkpt>
      <trkpt lat="43.17235" lon="6.63994">
        <ele>10.5</ele>
        <time>2025-10-12T11:53:02.000Z</time>
      </trkpt>
      <trkpt lat="43.17235" lon="6.63994">
        <ele>10.5</ele>
        <time>2025-10-12T11:53:03.000Z</time>
      </trkpt>
      <trkpt lat="43.17235" lon="6.63994">
        <ele>10.5</ele>
        <time>2025-10-12T11:53:04.000Z</time>
      </trkpt>
      <trkpt lat="43.17235" lon="6.63994">
        <ele>10.5</ele>
        <time>2025-10-12T11:53:05.000Z</time>
      </trkpt>
      <trkpt lat="43.17235" lon="6.63994">
        <ele>10.5</ele>
        <time>2025-10-12T11:53:06.000Z</time>
      </trkpt>
      <trkpt lat="43.17235" lon="6.63994">
        <ele>10.5</ele>
        <time>2025-10-12T11:53:07.000Z</time>
      </trkpt>
      <trkpt lat="43.17236" lon="6.63994">
        <ele>10.5</ele>
        <time>2025-10-12T11:53:25.000Z</time>
      </trkpt>
      <trkpt lat="43.17236" lon="6.63994">
        <ele>10.5</ele>
        <time>2025-10-12T11:53:26.000Z</time>
      </trkpt>
      <trkpt lat="43.17236" lon="6.63994">
        <ele>10.4</ele>
        <time>2025-10-12T11:53:27.000Z</time>
      </trkpt>
      <trkpt lat="43.17238" lon="6.63999">
        <ele>10.5</ele>
        <time>2025-10-12T11:53:36.000Z</time>
      </trkpt>
      <trkpt lat="43.17238" lon="6.63999">
        <ele>10.5</ele>
        <time>2025-10-12T11:53:37.000Z</time>
      </trkpt>
      <trkpt lat="43.17238" lon="6.63999">
        <ele>10.5</ele>
        <time>2025-10-12T11:54:18.000Z</time>
      </trkpt>
      <trkpt lat="43.17238" lon="6.63999">
        <ele>10.5</ele>
        <time>2025-10-12T11:54:19.000Z</time>
      </trkpt>
      <trkpt lat="43.17238" lon="6.63999">
        <ele>10.5</ele>
        <time>2025-10-12T11:54:20.000Z</time>
      </trkpt>
      <trkpt lat="43.17238" lon="6.63999">
        <ele>10.5</ele>
        <time>2025-10-12T11:54:21.000Z</time>
      </trkpt>
      <trkpt lat="43.17239" lon="6.63999">
        <ele>10.5</ele>
        <time>2025-10-12T11:54:22.000Z</time>
      </trkpt>
      <trkpt lat="43.17239" lon="6.63999">
        <ele>10.5</ele>
        <time>2025-10-12T11:54:28.000Z</time>
      </trkpt>
      <trkpt lat="43.17239" lon="6.63999">
        <ele>10.4</ele>
        <time>2025-10-12T11:54:29.000Z</time>
      </trkpt>
      <trkpt lat="43.17239" lon="6.63999">
        <ele>10.5</ele>
        <time>2025-10-12T11:54:33.000Z</time>
      </trkpt>
      <trkpt lat="43.17239" lon="6.63999">
        <ele>10.5</ele>
        <time>2025-10-12T11:54:34.000Z</time>
      </trkpt>
      <trkpt lat="43.17239" lon="6.63999">
        <ele>10.5</ele>
        <time>2025-10-12T11:54:35.000Z</time>
      </trkpt>
      <trkpt lat="43.17239" lon="6.63999">
        <ele>10.5</ele>
        <time>2025-10-12T11:54:40.000Z</time>
      </trkpt>
      <trkpt lat="43.17239" lon="6.63999">
        <ele>10.4</ele>
        <time>2025-10-12T11:54:41.000Z</time>
      </trkpt>
      <trkpt lat="43.17239" lon="6.63999">
        <ele>10.4</ele>
        <time>2025-10-12T11:54:42.000Z</time>
      </trkpt>
      <trkpt lat="43.17239" lon="6.63999">
        <ele>10.4</ele>
        <time>2025-10-12T11:54:43.000Z</time>
      </trkpt>
      <trkpt lat="43.17239" lon="6.63999">
        <ele>10.4</ele>
        <time>2025-10-12T11:54:44.000Z</time>
      </trkpt>
      <trkpt lat="43.17239" lon="6.63999">
        <ele>10.4</ele>
        <time>2025-10-12T11:54:45.000Z</time>
      </trkpt>
      <trkpt lat="43.17239" lon="6.63999">
        <ele>10.4</ele>
        <time>2025-10-12T11:54:46.000Z</time>
      </trkpt>
      <trkpt lat="43.17239" lon="6.63999">
        <ele>10.4</ele>
        <time>2025-10-12T11:54:47.000Z</time>
      </trkpt>
      <trkpt lat="43.17239" lon="6.63999">
        <ele>10.4</ele>
        <time>2025-10-12T11:54:48.000Z</time>
      </trkpt>
      <trkpt lat="43.17239" lon="6.63999">
        <ele>10.4</ele>
        <time>2025-10-12T11:54:49.000Z</time>
      </trkpt>
      <trkpt lat="43.17239" lon="6.63999">
        <ele>10.5</ele>
        <time>2025-10-12T11:55:23.000Z</time>
      </trkpt>
      <trkpt lat="43.17239" lon="6.63999">
        <ele>10.5</ele>
        <time>2025-10-12T11:55:24.000Z</time>
      </trkpt>
      <trkpt lat="43.17239" lon="6.63999">
        <ele>10.5</ele>
        <time>2025-10-12T11:55:25.000Z</time>
      </trkpt>
      <trkpt lat="43.17239" lon="6.63999">
        <ele>10.5</ele>
        <time>2025-10-12T11:55:26.000Z</time>
      </trkpt>
      <trkpt lat="43.17239" lon="6.63999">
        <ele>10.5</ele>
        <time>2025-10-12T11:55:27.000Z</time>
      </trkpt>
      <trkpt lat="43.17239" lon="6.64">
        <ele>10.5</ele>
        <time>2025-10-12T11:55:58.000Z</time>
      </trkpt>
      <trkpt lat="43.17239" lon="6.64001">
        <ele>10.5</ele>
        <time>2025-10-12T11:55:59.000Z</time>
      </trkpt>
      <trkpt lat="43.17248" lon="6.64004">
        <ele>10.6</ele>
        <time>2025-10-12T11:56:17.000Z</time>
      </trkpt>
      <trkpt lat="43.17248" lon="6.64006">
        <ele>10.6</ele>
        <time>2025-10-12T11:56:23.000Z</time>
      </trkpt>
      <trkpt lat="43.17248" lon="6.64006">
        <ele>10.5</ele>
        <time>2025-10-12T11:56:24.000Z</time>
      </trkpt>
      <trkpt lat="43.17248" lon="6.64006">
        <ele>10.5</ele>
        <time>2025-10-12T11:56:25.000Z</time>
      </trkpt>
      <trkpt lat="43.17248" lon="6.64006">
        <ele>10.5</ele>
        <time>2025-10-12T11:56:33.000Z</time>
      </trkpt>
      <trkpt lat="43.17248" lon="6.64005">
        <ele>10.5</ele>
        <time>2025-10-12T11:56:34.000Z</time>
      </trkpt>
      <trkpt lat="43.17248" lon="6.64004">
        <ele>10.5</ele>
        <time>2025-10-12T11:56:43.000Z</time>
      </trkpt>
      <trkpt lat="43.17248" lon="6.64004">
        <ele>10.5</ele>
        <time>2025-10-12T11:56:44.000Z</time>
      </trkpt>
      <trkpt lat="43.17248" lon="6.64004">
        <ele>10.4</ele>
        <time>2025-10-12T11:57:08.000Z</time>
      </trkpt>
      <trkpt lat="43.17248" lon="6.64004">
        <ele>10.4</ele>
        <time>2025-10-12T11:57:09.000Z</time>
      </trkpt>
      <trkpt lat="43.17248" lon="6.64004">
        <ele>10.4</ele>
        <time>2025-10-12T11:57:13.000Z</time>
      </trkpt>
      <trkpt lat="43.17248" lon="6.64004">
        <ele>10.4</ele>
        <time>2025-10-12T11:57:14.000Z</time>
      </trkpt>
      <trkpt lat="43.17248" lon="6.64004">
        <ele>10.4</ele>
        <time>2025-10-12T11:57:40.000Z</time>
      </trkpt>
      <trkpt lat="43.17248" lon="6.64004">
        <ele>10.4</ele>
        <time>2025-10-12T11:57:41.000Z</time>
      </trkpt>
      <trkpt lat="43.17248" lon="6.64004">
        <ele>10.4</ele>
        <time>2025-10-12T11:57:42.000Z</time>
      </trkpt>
      <trkpt lat="43.17248" lon="6.64004">
        <ele>10.4</ele>
        <time>2025-10-12T11:57:43.000Z</time>
      </trkpt>
      <trkpt lat="43.17248" lon="6.64004">
        <ele>10.4</ele>
        <time>2025-10-12T11:57:44.000Z</time>
      </trkpt>
      <trkpt lat="43.17248" lon="6.64004">
        <ele>10.5</ele>
        <time>2025-10-12T11:58:05.000Z</time>
      </trkpt>
      <trkpt lat="43.17248" lon="6.64004">
        <ele>10.5</ele>
        <time>2025-10-12T11:58:06.000Z</time>
      </trkpt>
      <trkpt lat="43.17248" lon="6.64004">
        <ele>10.5</ele>
        <time>2025-10-12T11:58:07.000Z</time>
      </trkpt>
      <trkpt lat="43.17248" lon="6.64004">
        <ele>10.5</ele>
        <time>2025-10-12T11:58:08.000Z</time>
      </trkpt>
      <trkpt lat="43.17248" lon="6.64004">
        <ele>10.5</ele>
        <time>2025-10-12T11:58:09.000Z</time>
      </trkpt>
      <trkpt lat="43.17248" lon="6.64004">
        <ele>10.5</ele>
        <time>2025-10-12T11:59:03.000Z</time>
      </trkpt>
      <trkpt lat="43.17248" lon="6.64004">
        <ele>10.5</ele>
        <time>2025-10-12T11:59:04.000Z</time>
      </trkpt>
      <trkpt lat="43.17248" lon="6.64004">
        <ele>10.5</ele>
        <time>2025-10-12T11:59:05.000Z</time>
      </trkpt>
      <trkpt lat="43.17248" lon="6.64004">
        <ele>10.5</ele>
        <time>2025-10-12T11:59:06.000Z</time>
      </trkpt>
      <trkpt lat="43.17248" lon="6.64004">
        <ele>10.5</ele>
        <time>2025-10-12T11:59:07.000Z</time>
      </trkpt>
      <trkpt lat="43.17248" lon="6.64004">
        <ele>10.5</ele>
        <time>2025-10-12T11:59:08.000Z</time>
      </trkpt>
      <trkpt lat="43.17248" lon="6.64003">
        <ele>10.5</ele>
        <time>2025-10-12T11:59:09.000Z</time>
      </trkpt>
      <trkpt lat="43.17248" lon="6.64004">
        <ele>10.5</ele>
        <time>2025-10-12T11:59:10.000Z</time>
      </trkpt>
      <trkpt lat="43.17248" lon="6.64004">
        <ele>10.5</ele>
        <time>2025-10-12T11:59:11.000Z</time>
      </trkpt>
      <trkpt lat="43.17248" lon="6.64004">
        <ele>10.5</ele>
        <time>2025-10-12T11:59:12.000Z</time>
      </trkpt>
      <trkpt lat="43.17248" lon="6.64004">
        <ele>10.5</ele>
        <time>2025-10-12T11:59:13.000Z</time>
      </trkpt>
      <trkpt lat="43.17248" lon="6.64004">
        <ele>10.5</ele>
        <time>2025-10-12T11:59:14.000Z</time>
      </trkpt>
      <trkpt lat="43.17248" lon="6.64004">
        <ele>10.5</ele>
        <time>2025-10-12T11:59:15.000Z</time>
      </trkpt>
      <trkpt lat="43.17248" lon="6.64004">
        <ele>10.5</ele>
        <time>2025-10-12T11:59:16.000Z</time>
      </trkpt>
      <trkpt lat="43.17248" lon="6.64004">
        <ele>10.5</ele>
        <time>2025-10-12T11:59:23.000Z</time>
      </trkpt>
      <trkpt lat="43.17248" lon="6.64004">
        <ele>10.5</ele>
        <time>2025-10-12T11:59:24.000Z</time>
      </trkpt>
      <trkpt lat="43.17248" lon="6.64004">
        <ele>10.5</ele>
        <time>2025-10-12T11:59:25.000Z</time>
      </trkpt>
      <trkpt lat="43.17248" lon="6.64004">
        <ele>10.5</ele>
        <time>2025-10-12T11:59:26.000Z</time>
      </trkpt>
      <trkpt lat="43.17248" lon="6.64004">
        <ele>10.5</ele>
        <time>2025-10-12T11:59:27.000Z</time>
      </trkpt>
      <trkpt lat="43.17248" lon="6.64004">
        <ele>10.5</ele>
        <time>2025-10-12T11:59:31.000Z</time>
      </trkpt>
      <trkpt lat="43.17248" lon="6.64004">
        <ele>10.5</ele>
        <time>2025-10-12T11:59:32.000Z</time>
      </trkpt>
      <trkpt lat="43.17248" lon="6.64004">
        <ele>10.5</ele>
        <time>2025-10-12T11:59:33.000Z</time>
      </trkpt>
      <trkpt lat="43.17248" lon="6.64004">
        <ele>10.5</ele>
        <time>2025-10-12T11:59:34.000Z</time>
      </trkpt>
      <trkpt lat="43.17249" lon="6.64004">
        <ele>10.5</ele>
        <time>2025-10-12T11:59:35.000Z</time>
      </trkpt>
      <trkpt lat="43.17249" lon="6.64003">
        <ele>10.5</ele>
        <time>2025-10-12T11:59:36.000Z</time>
      </trkpt>
      <trkpt lat="43.17249" lon="6.64002">
        <ele>10.5</ele>
        <time>2025-10-12T11:59:37.000Z</time>
      </trkpt>
      <trkpt lat="43.17242" lon="6.63993">
        <ele>10.6</ele>
        <time>2025-10-12T11:59:52.000Z</time>
      </trkpt>
      <trkpt lat="43.17235" lon="6.63984">
        <ele>10.6</ele>
        <time>2025-10-12T12:00:03.000Z</time>
      </trkpt>
      <trkpt lat="43.17227" lon="6.63981">
        <ele>10.4</ele>
        <time>2025-10-12T12:00:23.000Z</time>
      </trkpt>
      <trkpt lat="43.17227" lon="6.63981">
        <ele>10.4</ele>
        <time>2025-10-12T12:00:24.000Z</time>
      </trkpt>
      <trkpt lat="43.17227" lon="6.63981">
        <ele>10.3</ele>
        <time>2025-10-12T12:00:25.000Z</time>
      </trkpt>
      <trkpt lat="43.17227" lon="6.6398">
        <ele>10.3</ele>
        <time>2025-10-12T12:00:26.000Z</time>
      </trkpt>
      <trkpt lat="43.17227" lon="6.63979">
        <ele>10.2</ele>
        <time>2025-10-12T12:00:33.000Z</time>
      </trkpt>
      <trkpt lat="43.17227" lon="6.63979">
        <ele>10.2</ele>
        <time>2025-10-12T12:00:34.000Z</time>
      </trkpt>
      <trkpt lat="43.17226" lon="6.63978">
        <ele>10</ele>
        <time>2025-10-12T12:00:46.000Z</time>
      </trkpt>
      <trkpt lat="43.17226" lon="6.63978">
        <ele>10</ele>
        <time>2025-10-12T12:00:47.000Z</time>
      </trkpt>
      <trkpt lat="43.17226" lon="6.63978">
        <ele>10</ele>
        <time>2025-10-12T12:00:48.000Z</time>
      </trkpt>
      <trkpt lat="43.17226" lon="6.63978">
        <ele>10</ele>
        <time>2025-10-12T12:00:49.000Z</time>
      </trkpt>
      <trkpt lat="43.17225" lon="6.63979">
        <ele>10</ele>
        <time>2025-10-12T12:00:52.000Z</time>
      </trkpt>
      <trkpt lat="43.17225" lon="6.63979">
        <ele>10</ele>
        <time>2025-10-12T12:00:53.000Z</time>
      </trkpt>
      <trkpt lat="43.17225" lon="6.63979">
        <ele>10</ele>
        <time>2025-10-12T12:00:54.000Z</time>
      </trkpt>
      <trkpt lat="43.17225" lon="6.63979">
        <ele>10</ele>
        <time>2025-10-12T12:00:58.000Z</time>
      </trkpt>
      <trkpt lat="43.17225" lon="6.63979">
        <ele>10</ele>
        <time>2025-10-12T12:00:59.000Z</time>
      </trkpt>
      <trkpt lat="43.17225" lon="6.63979">
        <ele>10</ele>
        <time>2025-10-12T12:01:00.000Z</time>
      </trkpt>
      <trkpt lat="43.17225" lon="6.63979">
        <ele>9.9</ele>
        <time>2025-10-12T12:01:03.000Z</time>
      </trkpt>
      <trkpt lat="43.17225" lon="6.63979">
        <ele>9.9</ele>
        <time>2025-10-12T12:01:04.000Z</time>
      </trkpt>
      <trkpt lat="43.17225" lon="6.63979">
        <ele>9.9</ele>
        <time>2025-10-12T12:01:05.000Z</time>
      </trkpt>
      <trkpt lat="43.17225" lon="6.63979">
        <ele>9.9</ele>
        <time>2025-10-12T12:01:06.000Z</time>
      </trkpt>
      <trkpt lat="43.17225" lon="6.63979">
        <ele>9.9</ele>
        <time>2025-10-12T12:01:07.000Z</time>
      </trkpt>
      <trkpt lat="43.17225" lon="6.63979">
        <ele>9.9</ele>
        <time>2025-10-12T12:01:08.000Z</time>
      </trkpt>
      <trkpt lat="43.17225" lon="6.63979">
        <ele>9.9</ele>
        <time>2025-10-12T12:01:09.000Z</time>
      </trkpt>
      <trkpt lat="43.17224" lon="6.63979">
        <ele>9.8</ele>
        <time>2025-10-12T12:01:18.000Z</time>
      </trkpt>
      <trkpt lat="43.17224" lon="6.63979">
        <ele>9.8</ele>
        <time>2025-10-12T12:01:19.000Z</time>
      </trkpt>
      <trkpt lat="43.17224" lon="6.63979">
        <ele>9.8</ele>
        <time>2025-10-12T12:01:20.000Z</time>
      </trkpt>
      <trkpt lat="43.17224" lon="6.63979">
        <ele>9.8</ele>
        <time>2025-10-12T12:01:21.000Z</time>
      </trkpt>
      <trkpt lat="43.17224" lon="6.63979">
        <ele>9.8</ele>
        <time>2025-10-12T12:01:22.000Z</time>
      </trkpt>
      <trkpt lat="43.17224" lon="6.63979">
        <ele>9.8</ele>
        <time>2025-10-12T12:01:26.000Z</time>
      </trkpt>
      <trkpt lat="43.17224" lon="6.63979">
        <ele>9.8</ele>
        <time>2025-10-12T12:01:27.000Z</time>
      </trkpt>
      <trkpt lat="43.17224" lon="6.63979">
        <ele>9.8</ele>
        <time>2025-10-12T12:01:33.000Z</time>
      </trkpt>
      <trkpt lat="43.17224" lon="6.63979">
        <ele>9.8</ele>
        <time>2025-10-12T12:01:34.000Z</time>
      </trkpt>
      <trkpt lat="43.17224" lon="6.63979">
        <ele>9.8</ele>
        <time>2025-10-12T12:01:35.000Z</time>
      </trkpt>
      <trkpt lat="43.17224" lon="6.63979">
        <ele>9.8</ele>
        <time>2025-10-12T12:01:36.000Z</time>
      </trkpt>
      <trkpt lat="43.17224" lon="6.63979">
        <ele>9.8</ele>
        <time>2025-10-12T12:01:40.000Z</time>
      </trkpt>
      <trkpt lat="43.17224" lon="6.63979">
        <ele>9.8</ele>
        <time>2025-10-12T12:01:41.000Z</time>
      </trkpt>
      <trkpt lat="43.17224" lon="6.63979">
        <ele>9.8</ele>
        <time>2025-10-12T12:01:42.000Z</time>
      </trkpt>
      <trkpt lat="43.17224" lon="6.63979">
        <ele>9.8</ele>
        <time>2025-10-12T12:01:46.000Z</time>
      </trkpt>
      <trkpt lat="43.17224" lon="6.63979">
        <ele>9.8</ele>
        <time>2025-10-12T12:01:47.000Z</time>
      </trkpt>
      <trkpt lat="43.17224" lon="6.63979">
        <ele>9.8</ele>
        <time>2025-10-12T12:01:51.000Z</time>
      </trkpt>
      <trkpt lat="43.17224" lon="6.63979">
        <ele>9.8</ele>
        <time>2025-10-12T12:01:52.000Z</time>
      </trkpt>
      <trkpt lat="43.17224" lon="6.63979">
        <ele>9.8</ele>
        <time>2025-10-12T12:01:53.000Z</time>
      </trkpt>
      <trkpt lat="43.17224" lon="6.63978">
        <ele>9.8</ele>
        <time>2025-10-12T12:01:54.000Z</time>
      </trkpt>
      <trkpt lat="43.17224" lon="6.63978">
        <ele>9.8</ele>
        <time>2025-10-12T12:01:55.000Z</time>
      </trkpt>
      <trkpt lat="43.17224" lon="6.63978">
        <ele>9.8</ele>
        <time>2025-10-12T12:01:56.000Z</time>
      </trkpt>
      <trkpt lat="43.17225" lon="6.63978">
        <ele>9.8</ele>
        <time>2025-10-12T12:01:57.000Z</time>
      </trkpt>
      <trkpt lat="43.17225" lon="6.63977">
        <ele>9.8</ele>
        <time>2025-10-12T12:02:01.000Z</time>
      </trkpt>
      <trkpt lat="43.17225" lon="6.63977">
        <ele>9.8</ele>
        <time>2025-10-12T12:02:02.000Z</time>
      </trkpt>
      <trkpt lat="43.17225" lon="6.63976">
        <ele>9.9</ele>
        <time>2025-10-12T12:02:10.000Z</time>
      </trkpt>
      <trkpt lat="43.17225" lon="6.63976">
        <ele>9.9</ele>
        <time>2025-10-12T12:02:11.000Z</time>
      </trkpt>
      <trkpt lat="43.17225" lon="6.63976">
        <ele>9.9</ele>
        <time>2025-10-12T12:02:12.000Z</time>
      </trkpt>
      <trkpt lat="43.17225" lon="6.63977">
        <ele>9.9</ele>
        <time>2025-10-12T12:02:31.000Z</time>
      </trkpt>
      <trkpt lat="43.17224" lon="6.63978">
        <ele>9.9</ele>
        <time>2025-10-12T12:02:32.000Z</time>
      </trkpt>
      <trkpt lat="43.17222" lon="6.6398">
        <ele>9.9</ele>
        <time>2025-10-12T12:02:35.000Z</time>
      </trkpt>
      <trkpt lat="43.17222" lon="6.6398">
        <ele>9.9</ele>
        <time>2025-10-12T12:02:36.000Z</time>
      </trkpt>
      <trkpt lat="43.17222" lon="6.63981">
        <ele>9.9</ele>
        <time>2025-10-12T12:02:37.000Z</time>
      </trkpt>
      <trkpt lat="43.17222" lon="6.63981">
        <ele>9.9</ele>
        <time>2025-10-12T12:02:43.000Z</time>
      </trkpt>
      <trkpt lat="43.17222" lon="6.63981">
        <ele>9.9</ele>
        <time>2025-10-12T12:02:44.000Z</time>
      </trkpt>
      <trkpt lat="43.17222" lon="6.63981">
        <ele>9.9</ele>
        <time>2025-10-12T12:02:45.000Z</time>
      </trkpt>
      <trkpt lat="43.17222" lon="6.63981">
        <ele>9.9</ele>
        <time>2025-10-12T12:02:46.000Z</time>
      </trkpt>
      <trkpt lat="43.17222" lon="6.63981">
        <ele>9.9</ele>
        <time>2025-10-12T12:02:53.000Z</time>
      </trkpt>
      <trkpt lat="43.17222" lon="6.63981">
        <ele>9.9</ele>
        <time>2025-10-12T12:02:54.000Z</time>
      </trkpt>
      <trkpt lat="43.17222" lon="6.63981">
        <ele>9.9</ele>
        <time>2025-10-12T12:02:55.000Z</time>
      </trkpt>
      <trkpt lat="43.17222" lon="6.63981">
        <ele>9.9</ele>
        <time>2025-10-12T12:02:56.000Z</time>
      </trkpt>
      <trkpt lat="43.17222" lon="6.63981">
        <ele>9.9</ele>
        <time>2025-10-12T12:02:57.000Z</time>
      </trkpt>
      <trkpt lat="43.17222" lon="6.63981">
        <ele>9.9</ele>
        <time>2025-10-12T12:02:58.000Z</time>
      </trkpt>
      <trkpt lat="43.17222" lon="6.63981">
        <ele>9.9</ele>
        <time>2025-10-12T12:02:59.000Z</time>
      </trkpt>
      <trkpt lat="43.17222" lon="6.63981">
        <ele>9.9</ele>
        <time>2025-10-12T12:03:11.000Z</time>
      </trkpt>
      <trkpt lat="43.17222" lon="6.63981">
        <ele>9.9</ele>
        <time>2025-10-12T12:03:12.000Z</time>
      </trkpt>
      <trkpt lat="43.17222" lon="6.63981">
        <ele>9.8</ele>
        <time>2025-10-12T12:03:13.000Z</time>
      </trkpt>
      <trkpt lat="43.17222" lon="6.63981">
        <ele>9.8</ele>
        <time>2025-10-12T12:03:14.000Z</time>
      </trkpt>
      <trkpt lat="43.17222" lon="6.63979">
        <ele>9.7</ele>
        <time>2025-10-12T12:05:21.000Z</time>
      </trkpt>
      <trkpt lat="43.17222" lon="6.63979">
        <ele>9.7</ele>
        <time>2025-10-12T12:05:22.000Z</time>
      </trkpt>
      <trkpt lat="43.17222" lon="6.63979">
        <ele>9.7</ele>
        <time>2025-10-12T12:05:23.000Z</time>
      </trkpt>
      <trkpt lat="43.17222" lon="6.63979">
        <ele>9.7</ele>
        <time>2025-10-12T12:05:24.000Z</time>
      </trkpt>
      <trkpt lat="43.17222" lon="6.63977">
        <ele>9.7</ele>
        <time>2025-10-12T12:07:28.000Z</time>
      </trkpt>
      <trkpt lat="43.17222" lon="6.63977">
        <ele>9.7</ele>
        <time>2025-10-12T12:07:29.000Z</time>
      </trkpt>
      <trkpt lat="43.17222" lon="6.63977">
        <ele>9.7</ele>
        <time>2025-10-12T12:07:30.000Z</time>
      </trkpt>
      <trkpt lat="43.17222" lon="6.63977">
        <ele>9.7</ele>
        <time>2025-10-12T12:07:31.000Z</time>
      </trkpt>
      <trkpt lat="43.17222" lon="6.63976">
        <ele>9.8</ele>
        <time>2025-10-12T12:09:57.000Z</time>
      </trkpt>
      <trkpt lat="43.17222" lon="6.63976">
        <ele>9.8</ele>
        <time>2025-10-12T12:09:58.000Z</time>
      </trkpt>
      <trkpt lat="43.17222" lon="6.63976">
        <ele>9.8</ele>
        <time>2025-10-12T12:09:59.000Z</time>
      </trkpt>
      <trkpt lat="43.17222" lon="6.63976">
        <ele>9.8</ele>
        <time>2025-10-12T12:10:00.000Z</time>
      </trkpt>
      <trkpt lat="43.17222" lon="6.63976">
        <ele>9.8</ele>
        <time>2025-10-12T12:10:01.000Z</time>
      </trkpt>
      <trkpt lat="43.17222" lon="6.63976">
        <ele>9.8</ele>
        <time>2025-10-12T12:10:38.000Z</time>
      </trkpt>
      <trkpt lat="43.17222" lon="6.63976">
        <ele>9.8</ele>
        <time>2025-10-12T12:10:39.000Z</time>
      </trkpt>
      <trkpt lat="43.17223" lon="6.63976">
        <ele>9.8</ele>
        <time>2025-10-12T12:10:40.000Z</time>
      </trkpt>
      <trkpt lat="43.17223" lon="6.63976">
        <ele>9.8</ele>
        <time>2025-10-12T12:10:45.000Z</time>
      </trkpt>
      <trkpt lat="43.17223" lon="6.63976">
        <ele>9.8</ele>
        <time>2025-10-12T12:10:46.000Z</time>
      </trkpt>
      <trkpt lat="43.17223" lon="6.63976">
        <ele>9.8</ele>
        <time>2025-10-12T12:10:47.000Z</time>
      </trkpt>
      <trkpt lat="43.17223" lon="6.63976">
        <ele>9.8</ele>
        <time>2025-10-12T12:10:58.000Z</time>
      </trkpt>
      <trkpt lat="43.17223" lon="6.63976">
        <ele>9.9</ele>
        <time>2025-10-12T12:10:59.000Z</time>
      </trkpt>
      <trkpt lat="43.17223" lon="6.63976">
        <ele>9.9</ele>
        <time>2025-10-12T12:11:02.000Z</time>
      </trkpt>
      <trkpt lat="43.17223" lon="6.63976">
        <ele>9.9</ele>
        <time>2025-10-12T12:11:03.000Z</time>
      </trkpt>
      <trkpt lat="43.17223" lon="6.63976">
        <ele>9.9</ele>
        <time>2025-10-12T12:11:04.000Z</time>
      </trkpt>
      <trkpt lat="43.17223" lon="6.63976">
        <ele>9.9</ele>
        <time>2025-10-12T12:11:05.000Z</time>
      </trkpt>
      <trkpt lat="43.17223" lon="6.63976">
        <ele>9.9</ele>
        <time>2025-10-12T12:11:06.000Z</time>
      </trkpt>
      <trkpt lat="43.17224" lon="6.63979">
        <ele>9.9</ele>
        <time>2025-10-12T12:11:30.000Z</time>
      </trkpt>
      <trkpt lat="43.17224" lon="6.63979">
        <ele>9.9</ele>
        <time>2025-10-12T12:11:31.000Z</time>
      </trkpt>
      <trkpt lat="43.17224" lon="6.63979">
        <ele>9.9</ele>
        <time>2025-10-12T12:11:32.000Z</time>
      </trkpt>
      <trkpt lat="43.17224" lon="6.63979">
        <ele>9.9</ele>
        <time>2025-10-12T12:11:33.000Z</time>
      </trkpt>
      <trkpt lat="43.17224" lon="6.63979">
        <ele>9.9</ele>
        <time>2025-10-12T12:11:34.000Z</time>
      </trkpt>
      <trkpt lat="43.17224" lon="6.63979">
        <ele>9.9</ele>
        <time>2025-10-12T12:11:35.000Z</time>
      </trkpt>
      <trkpt lat="43.17224" lon="6.63979">
        <ele>9.8</ele>
        <time>2025-10-12T12:11:36.000Z</time>
      </trkpt>
      <trkpt lat="43.17224" lon="6.63979">
        <ele>9.8</ele>
        <time>2025-10-12T12:11:37.000Z</time>
      </trkpt>
      <trkpt lat="43.17224" lon="6.63979">
        <ele>9.8</ele>
        <time>2025-10-12T12:11:38.000Z</time>
      </trkpt>
      <trkpt lat="43.17224" lon="6.63979">
        <ele>9.8</ele>
        <time>2025-10-12T12:11:39.000Z</time>
      </trkpt>
      <trkpt lat="43.17224" lon="6.63979">
        <ele>9.8</ele>
        <time>2025-10-12T12:11:43.000Z</time>
      </trkpt>
      <trkpt lat="43.17224" lon="6.63979">
        <ele>9.8</ele>
        <time>2025-10-12T12:11:44.000Z</time>
      </trkpt>
      <trkpt lat="43.17224" lon="6.63979">
        <ele>9.8</ele>
        <time>2025-10-12T12:11:45.000Z</time>
      </trkpt>
      <trkpt lat="43.17224" lon="6.63979">
        <ele>9.8</ele>
        <time>2025-10-12T12:11:51.000Z</time>
      </trkpt>
      <trkpt lat="43.17224" lon="6.63979">
        <ele>9.8</ele>
        <time>2025-10-12T12:11:52.000Z</time>
      </trkpt>
      <trkpt lat="43.17224" lon="6.63979">
        <ele>9.8</ele>
        <time>2025-10-12T12:11:53.000Z</time>
      </trkpt>
      <trkpt lat="43.17224" lon="6.63978">
        <ele>9.8</ele>
        <time>2025-10-12T12:11:54.000Z</time>
      </trkpt>
      <trkpt lat="43.17225" lon="6.63979">
        <ele>9.6</ele>
        <time>2025-10-12T12:13:08.000Z</time>
      </trkpt>
      <trkpt lat="43.17225" lon="6.63979">
        <ele>9.6</ele>
        <time>2025-10-12T12:13:09.000Z</time>
      </trkpt>
      <trkpt lat="43.17225" lon="6.63979">
        <ele>9.6</ele>
        <time>2025-10-12T12:13:15.000Z</time>
      </trkpt>
      <trkpt lat="43.17225" lon="6.63979">
        <ele>9.6</ele>
        <time>2025-10-12T12:13:16.000Z</time>
      </trkpt>
      <trkpt lat="43.17226" lon="6.63981">
        <ele>10.1</ele>
        <time>2025-10-12T12:22:32.000Z</time>
      </trkpt>
      <trkpt lat="43.17226" lon="6.63981">
        <ele>10.1</ele>
        <time>2025-10-12T12:22:33.000Z</time>
      </trkpt>
      <trkpt lat="43.17226" lon="6.63981">
        <ele>10.1</ele>
        <time>2025-10-12T12:22:34.000Z</time>
      </trkpt>
      <trkpt lat="43.17226" lon="6.63981">
        <ele>10.1</ele>
        <time>2025-10-12T12:22:38.000Z</time>
      </trkpt>
      <trkpt lat="43.17226" lon="6.63981">
        <ele>10.1</ele>
        <time>2025-10-12T12:22:39.000Z</time>
      </trkpt>
      <trkpt lat="43.17226" lon="6.63981">
        <ele>10.1</ele>
        <time>2025-10-12T12:24:48.000Z</time>
      </trkpt>
      <trkpt lat="43.17226" lon="6.63981">
        <ele>10.1</ele>
        <time>2025-10-12T12:24:49.000Z</time>
      </trkpt>
      <trkpt lat="43.17226" lon="6.63981">
        <ele>10.1</ele>
        <time>2025-10-12T12:24:50.000Z</time>
      </trkpt>
      <trkpt lat="43.17226" lon="6.63981">
        <ele>10.1</ele>
        <time>2025-10-12T12:24:51.000Z</time>
      </trkpt>
      <trkpt lat="43.17226" lon="6.63981">
        <ele>10</ele>
        <time>2025-10-12T12:25:16.000Z</time>
      </trkpt>
      <trkpt lat="43.17226" lon="6.63981">
        <ele>10</ele>
        <time>2025-10-12T12:25:17.000Z</time>
      </trkpt>
      <trkpt lat="43.17226" lon="6.63981">
        <ele>10</ele>
        <time>2025-10-12T12:25:18.000Z</time>
      </trkpt>
      <trkpt lat="43.17226" lon="6.63981">
        <ele>10</ele>
        <time>2025-10-12T12:25:19.000Z</time>
      </trkpt>
      <trkpt lat="43.17227" lon="6.63986">
        <ele>10</ele>
        <time>2025-10-12T12:26:15.000Z</time>
      </trkpt>
      <trkpt lat="43.17227" lon="6.63986">
        <ele>10</ele>
        <time>2025-10-12T12:26:16.000Z</time>
      </trkpt>
      <trkpt lat="43.17227" lon="6.63986">
        <ele>10</ele>
        <time>2025-10-12T12:26:17.000Z</time>
      </trkpt>
      <trkpt lat="43.17227" lon="6.63986">
        <ele>10</ele>
        <time>2025-10-12T12:26:18.000Z</time>
      </trkpt>
      <trkpt lat="43.17227" lon="6.63986">
        <ele>10</ele>
        <time>2025-10-12T12:26:19.000Z</time>
      </trkpt>
      <trkpt lat="43.17226" lon="6.63987">
        <ele>10</ele>
        <time>2025-10-12T12:26:46.000Z</time>
      </trkpt>
      <trkpt lat="43.17226" lon="6.63987">
        <ele>10</ele>
        <time>2025-10-12T12:26:47.000Z</time>
      </trkpt>
      <trkpt lat="43.17225" lon="6.63987">
        <ele>10</ele>
        <time>2025-10-12T12:26:48.000Z</time>
      </trkpt>
      <trkpt lat="43.17225" lon="6.63986">
        <ele>10</ele>
        <time>2025-10-12T12:26:49.000Z</time>
      </trkpt>
      <trkpt lat="43.17224" lon="6.63982">
        <ele>10.2</ele>
        <time>2025-10-12T12:28:02.000Z</time>
      </trkpt>
      <trkpt lat="43.17224" lon="6.63982">
        <ele>10.2</ele>
        <time>2025-10-12T12:28:03.000Z</time>
      </trkpt>
      <trkpt lat="43.17224" lon="6.63982">
        <ele>10.2</ele>
        <time>2025-10-12T12:28:04.000Z</time>
      </trkpt>
      <trkpt lat="43.17224" lon="6.63982">
        <ele>10.2</ele>
        <time>2025-10-12T12:28:05.000Z</time>
      </trkpt>
      <trkpt lat="43.17224" lon="6.63982">
        <ele>10.2</ele>
        <time>2025-10-12T12:28:06.000Z</time>
      </trkpt>
      <trkpt lat="43.17224" lon="6.63981">
        <ele>10.3</ele>
        <time>2025-10-12T12:28:28.000Z</time>
      </trkpt>
      <trkpt lat="43.17224" lon="6.63981">
        <ele>10.3</ele>
        <time>2025-10-12T12:28:29.000Z</time>
      </trkpt>
      <trkpt lat="43.17223" lon="6.63981">
        <ele>10.3</ele>
        <time>2025-10-12T12:28:30.000Z</time>
      </trkpt>
      <trkpt lat="43.17222" lon="6.63981">
        <ele>10.3</ele>
        <time>2025-10-12T12:28:31.000Z</time>
      </trkpt>
      <trkpt lat="43.17222" lon="6.6398">
        <ele>10.3</ele>
        <time>2025-10-12T12:28:32.000Z</time>
      </trkpt>
      <trkpt lat="43.17223" lon="6.63975">
        <ele>10.4</ele>
        <time>2025-10-12T12:29:33.000Z</time>
      </trkpt>
      <trkpt lat="43.17223" lon="6.63975">
        <ele>10.4</ele>
        <time>2025-10-12T12:29:34.000Z</time>
      </trkpt>
      <trkpt lat="43.17223" lon="6.63975">
        <ele>10.4</ele>
        <time>2025-10-12T12:29:35.000Z</time>
      </trkpt>
      <trkpt lat="43.17223" lon="6.63975">
        <ele>10.4</ele>
        <time>2025-10-12T12:29:36.000Z</time>
      </trkpt>
      <trkpt lat="43.17224" lon="6.63977">
        <ele>10.5</ele>
        <time>2025-10-12T12:30:11.000Z</time>
      </trkpt>
      <trkpt lat="43.17224" lon="6.63977">
        <ele>10.5</ele>
        <time>2025-10-12T12:30:12.000Z</time>
      </trkpt>
      <trkpt lat="43.17224" lon="6.63979">
        <ele>10.6</ele>
        <time>2025-10-12T12:30:25.000Z</time>
      </trkpt>
      <trkpt lat="43.17224" lon="6.63979">
        <ele>10.6</ele>
        <time>2025-10-12T12:30:26.000Z</time>
      </trkpt>
      <trkpt lat="43.17224" lon="6.63979">
        <ele>10.6</ele>
        <time>2025-10-12T12:30:27.000Z</time>
      </trkpt>
      <trkpt lat="43.17224" lon="6.63979">
        <ele>10.6</ele>
        <time>2025-10-12T12:30:28.000Z</time>
      </trkpt>
      <trkpt lat="43.17224" lon="6.63979">
        <ele>10.6</ele>
        <time>2025-10-12T12:30:29.000Z</time>
      </trkpt>
      <trkpt lat="43.17223" lon="6.63978">
        <ele>10.7</ele>
        <time>2025-10-12T12:30:36.000Z</time>
      </trkpt>
      <trkpt lat="43.17223" lon="6.63978">
        <ele>10.7</ele>
        <time>2025-10-12T12:30:37.000Z</time>
      </trkpt>
      <trkpt lat="43.17223" lon="6.63978">
        <ele>10.7</ele>
        <time>2025-10-12T12:30:40.000Z</time>
      </trkpt>
      <trkpt lat="43.17223" lon="6.63978">
        <ele>10.7</ele>
        <time>2025-10-12T12:30:41.000Z</time>
      </trkpt>
      <trkpt lat="43.17223" lon="6.63978">
        <ele>10.7</ele>
        <time>2025-10-12T12:30:42.000Z</time>
      </trkpt>
      <trkpt lat="43.17223" lon="6.63978">
        <ele>10.8</ele>
        <time>2025-10-12T12:30:43.000Z</time>
      </trkpt>
      <trkpt lat="43.17223" lon="6.63978">
        <ele>10.8</ele>
        <time>2025-10-12T12:30:44.000Z</time>
      </trkpt>
      <trkpt lat="43.17223" lon="6.63978">
        <ele>10.8</ele>
        <time>2025-10-12T12:30:48.000Z</time>
      </trkpt>
      <trkpt lat="43.17223" lon="6.63978">
        <ele>10.8</ele>
        <time>2025-10-12T12:30:49.000Z</time>
      </trkpt>
      <trkpt lat="43.17223" lon="6.63978">
        <ele>10.8</ele>
        <time>2025-10-12T12:30:52.000Z</time>
      </trkpt>
      <trkpt lat="43.17223" lon="6.63978">
        <ele>10.8</ele>
        <time>2025-10-12T12:30:53.000Z</time>
      </trkpt>
      <trkpt lat="43.17223" lon="6.63978">
        <ele>10.8</ele>
        <time>2025-10-12T12:30:54.000Z</time>
      </trkpt>
      <trkpt lat="43.17223" lon="6.63978">
        <ele>11</ele>
        <time>2025-10-12T12:31:13.000Z</time>
      </trkpt>
      <trkpt lat="43.17223" lon="6.63978">
        <ele>11</ele>
        <time>2025-10-12T12:31:14.000Z</time>
      </trkpt>
      <trkpt lat="43.17223" lon="6.63978">
        <ele>11</ele>
        <time>2025-10-12T12:31:15.000Z</time>
      </trkpt>
      <trkpt lat="43.17223" lon="6.63978">
        <ele>11</ele>
        <time>2025-10-12T12:31:18.000Z</time>
      </trkpt>
      <trkpt lat="43.17223" lon="6.63978">
        <ele>11</ele>
        <time>2025-10-12T12:31:19.000Z</time>
      </trkpt>
      <trkpt lat="43.17223" lon="6.63978">
        <ele>11.1</ele>
        <time>2025-10-12T12:31:36.000Z</time>
      </trkpt>
      <trkpt lat="43.17223" lon="6.63978">
        <ele>11.1</ele>
        <time>2025-10-12T12:31:37.000Z</time>
      </trkpt>
      <trkpt lat="43.17223" lon="6.63978">
        <ele>11.1</ele>
        <time>2025-10-12T12:31:41.000Z</time>
      </trkpt>
      <trkpt lat="43.17223" lon="6.63978">
        <ele>11.1</ele>
        <time>2025-10-12T12:31:42.000Z</time>
      </trkpt>
      <trkpt lat="43.17223" lon="6.63978">
        <ele>11.1</ele>
        <time>2025-10-12T12:32:07.000Z</time>
      </trkpt>
      <trkpt lat="43.17223" lon="6.63978">
        <ele>11.1</ele>
        <time>2025-10-12T12:32:08.000Z</time>
      </trkpt>
      <trkpt lat="43.17223" lon="6.63978">
        <ele>11.1</ele>
        <time>2025-10-12T12:32:09.000Z</time>
      </trkpt>
      <trkpt lat="43.17223" lon="6.63978">
        <ele>11.1</ele>
        <time>2025-10-12T12:32:10.000Z</time>
      </trkpt>
      <trkpt lat="43.17223" lon="6.63978">
        <ele>11.1</ele>
        <time>2025-10-12T12:32:11.000Z</time>
      </trkpt>
      <trkpt lat="43.17223" lon="6.63978">
        <ele>11.1</ele>
        <time>2025-10-12T12:32:12.000Z</time>
      </trkpt>
      <trkpt lat="43.17223" lon="6.63978">
        <ele>11.1</ele>
        <time>2025-10-12T12:32:13.000Z</time>
      </trkpt>
      <trkpt lat="43.17223" lon="6.63978">
        <ele>11.1</ele>
        <time>2025-10-12T12:32:14.000Z</time>
      </trkpt>
      <trkpt lat="43.17223" lon="6.63978">
        <ele>11.1</ele>
        <time>2025-10-12T12:32:15.000Z</time>
      </trkpt>
      <trkpt lat="43.17223" lon="6.63978">
        <ele>11.1</ele>
        <time>2025-10-12T12:32:16.000Z</time>
      </trkpt>
      <trkpt lat="43.17223" lon="6.63978">
        <ele>11.2</ele>
        <time>2025-10-12T12:32:56.000Z</time>
      </trkpt>
      <trkpt lat="43.17223" lon="6.63978">
        <ele>11.2</ele>
        <time>2025-10-12T12:32:57.000Z</time>
      </trkpt>
      <trkpt lat="43.17223" lon="6.63978">
        <ele>11.2</ele>
        <time>2025-10-12T12:33:00.000Z</time>
      </trkpt>
      <trkpt lat="43.17223" lon="6.63978">
        <ele>11.2</ele>
        <time>2025-10-12T12:33:01.000Z</time>
      </trkpt>
      <trkpt lat="43.17223" lon="6.63978">
        <ele>11.2</ele>
        <time>2025-10-12T12:33:13.000Z</time>
      </trkpt>
      <trkpt lat="43.17223" lon="6.63978">
        <ele>11.2</ele>
        <time>2025-10-12T12:33:14.000Z</time>
      </trkpt>
      <trkpt lat="43.17223" lon="6.63978">
        <ele>11.2</ele>
        <time>2025-10-12T12:33:15.000Z</time>
      </trkpt>
      <trkpt lat="43.17223" lon="6.63978">
        <ele>11.2</ele>
        <time>2025-10-12T12:33:16.000Z</time>
      </trkpt>
      <trkpt lat="43.17223" lon="6.63978">
        <ele>11.2</ele>
        <time>2025-10-12T12:33:17.000Z</time>
      </trkpt>
      <trkpt lat="43.17223" lon="6.63978">
        <ele>11.2</ele>
        <time>2025-10-12T12:33:40.000Z</time>
      </trkpt>
      <trkpt lat="43.17223" lon="6.63978">
        <ele>11.2</ele>
        <time>2025-10-12T12:33:41.000Z</time>
      </trkpt>
      <trkpt lat="43.17223" lon="6.63978">
        <ele>11.3</ele>
        <time>2025-10-12T12:33:45.000Z</time>
      </trkpt>
      <trkpt lat="43.17223" lon="6.63978">
        <ele>11.3</ele>
        <time>2025-10-12T12:33:46.000Z</time>
      </trkpt>
      <trkpt lat="43.17223" lon="6.63978">
        <ele>11.3</ele>
        <time>2025-10-12T12:34:11.000Z</time>
      </trkpt>
      <trkpt lat="43.17223" lon="6.63978">
        <ele>11.3</ele>
        <time>2025-10-12T12:34:12.000Z</time>
      </trkpt>
      <trkpt lat="43.17223" lon="6.63978">
        <ele>11.3</ele>
        <time>2025-10-12T12:34:15.000Z</time>
      </trkpt>
      <trkpt lat="43.17223" lon="6.63978">
        <ele>11.3</ele>
        <time>2025-10-12T12:34:16.000Z</time>
      </trkpt>
      <trkpt lat="43.17223" lon="6.63978">
        <ele>11.3</ele>
        <time>2025-10-12T12:35:16.000Z</time>
      </trkpt>
      <trkpt lat="43.17223" lon="6.63978">
        <ele>11.3</ele>
        <time>2025-10-12T12:35:17.000Z</time>
      </trkpt>
      <trkpt lat="43.17223" lon="6.63978">
        <ele>11.3</ele>
        <time>2025-10-12T12:35:21.000Z</time>
      </trkpt>
      <trkpt lat="43.17223" lon="6.63978">
        <ele>11.3</ele>
        <time>2025-10-12T12:35:22.000Z</time>
      </trkpt>
      <trkpt lat="43.17223" lon="6.63978">
        <ele>11.3</ele>
        <time>2025-10-12T12:35:45.000Z</time>
      </trkpt>
      <trkpt lat="43.17223" lon="6.63978">
        <ele>11.3</ele>
        <time>2025-10-12T12:35:46.000Z</time>
      </trkpt>
      <trkpt lat="43.17223" lon="6.63978">
        <ele>11.3</ele>
        <time>2025-10-12T12:35:47.000Z</time>
      </trkpt>
      <trkpt lat="43.17223" lon="6.63978">
        <ele>11.3</ele>
        <time>2025-10-12T12:35:48.000Z</time>
      </trkpt>
      <trkpt lat="43.17223" lon="6.63978">
        <ele>11.3</ele>
        <time>2025-10-12T12:35:49.000Z</time>
      </trkpt>
      <trkpt lat="43.17223" lon="6.63978">
        <ele>11.3</ele>
        <time>2025-10-12T12:35:52.000Z</time>
      </trkpt>
      <trkpt lat="43.17223" lon="6.63978">
        <ele>11.3</ele>
        <time>2025-10-12T12:35:53.000Z</time>
      </trkpt>
      <trkpt lat="43.17223" lon="6.63978">
        <ele>11.3</ele>
        <time>2025-10-12T12:35:54.000Z</time>
      </trkpt>
      <trkpt lat="43.17223" lon="6.63978">
        <ele>11.3</ele>
        <time>2025-10-12T12:35:55.000Z</time>
      </trkpt>
      <trkpt lat="43.17223" lon="6.63978">
        <ele>11.3</ele>
        <time>2025-10-12T12:35:56.000Z</time>
      </trkpt>
      <trkpt lat="43.17223" lon="6.63978">
        <ele>11.3</ele>
        <time>2025-10-12T12:35:57.000Z</time>
      </trkpt>
      <trkpt lat="43.17223" lon="6.63978">
        <ele>11.3</ele>
        <time>2025-10-12T12:35:58.000Z</time>
      </trkpt>
      <trkpt lat="43.17223" lon="6.63978">
        <ele>11.3</ele>
        <time>2025-10-12T12:35:59.000Z</time>
      </trkpt>
      <trkpt lat="43.17223" lon="6.63978">
        <ele>11.3</ele>
        <time>2025-10-12T12:36:00.000Z</time>
      </trkpt>
      <trkpt lat="43.17223" lon="6.63978">
        <ele>11.3</ele>
        <time>2025-10-12T12:36:01.000Z</time>
      </trkpt>
      <trkpt lat="43.17223" lon="6.63978">
        <ele>11.3</ele>
        <time>2025-10-12T12:36:13.000Z</time>
      </trkpt>
      <trkpt lat="43.17223" lon="6.63978">
        <ele>11.3</ele>
        <time>2025-10-12T12:36:14.000Z</time>
      </trkpt>
      <trkpt lat="43.17223" lon="6.63979">
        <ele>11.3</ele>
        <time>2025-10-12T12:36:15.000Z</time>
      </trkpt>
      <trkpt lat="43.17228" lon="6.6399">
        <ele>11.3</ele>
        <time>2025-10-12T12:36:27.000Z</time>
      </trkpt>
      <trkpt lat="43.17228" lon="6.63991">
        <ele>11.4</ele>
        <time>2025-10-12T12:36:32.000Z</time>
      </trkpt>
      <trkpt lat="43.17228" lon="6.63991">
        <ele>11.4</ele>
        <time>2025-10-12T12:36:33.000Z</time>
      </trkpt>
      <trkpt lat="43.17228" lon="6.63992">
        <ele>11.4</ele>
        <time>2025-10-12T12:36:34.000Z</time>
      </trkpt>
      <trkpt lat="43.17229" lon="6.63992">
        <ele>11.4</ele>
        <time>2025-10-12T12:36:35.000Z</time>
      </trkpt>
      <trkpt lat="43.1723" lon="6.63993">
        <ele>11.4</ele>
        <time>2025-10-12T12:36:36.000Z</time>
      </trkpt>
      <trkpt lat="43.17231" lon="6.63996">
        <ele>11.4</ele>
        <time>2025-10-12T12:36:45.000Z</time>
      </trkpt>
      <trkpt lat="43.17231" lon="6.63996">
        <ele>11.5</ele>
        <time>2025-10-12T12:36:46.000Z</time>
      </trkpt>
      <trkpt lat="43.17232" lon="6.63996">
        <ele>11.6</ele>
        <time>2025-10-12T12:36:55.000Z</time>
      </trkpt>
      <trkpt lat="43.17232" lon="6.63996">
        <ele>11.6</ele>
        <time>2025-10-12T12:36:56.000Z</time>
      </trkpt>
      <trkpt lat="43.17232" lon="6.63996">
        <ele>11.6</ele>
        <time>2025-10-12T12:36:57.000Z</time>
      </trkpt>
      <trkpt lat="43.17232" lon="6.63996">
        <ele>11.6</ele>
        <time>2025-10-12T12:36:58.000Z</time>
      </trkpt>
      <trkpt lat="43.17232" lon="6.63996">
        <ele>11.6</ele>
        <time>2025-10-12T12:36:59.000Z</time>
      </trkpt>
      <trkpt lat="43.17232" lon="6.63996">
        <ele>11.7</ele>
        <time>2025-10-12T12:37:13.000Z</time>
      </trkpt>
      <trkpt lat="43.17232" lon="6.63996">
        <ele>11.7</ele>
        <time>2025-10-12T12:37:14.000Z</time>
      </trkpt>
      <trkpt lat="43.17232" lon="6.63996">
        <ele>11.8</ele>
        <time>2025-10-12T12:37:15.000Z</time>
      </trkpt>
      <trkpt lat="43.17232" lon="6.63996">
        <ele>11.8</ele>
        <time>2025-10-12T12:37:16.000Z</time>
      </trkpt>
      <trkpt lat="43.17232" lon="6.63996">
        <ele>11.8</ele>
        <time>2025-10-12T12:37:17.000Z</time>
      </trkpt>
      <trkpt lat="43.17232" lon="6.63996">
        <ele>11.8</ele>
        <time>2025-10-12T12:37:18.000Z</time>
      </trkpt>
      <trkpt lat="43.17232" lon="6.63996">
        <ele>11.8</ele>
        <time>2025-10-12T12:37:19.000Z</time>
      </trkpt>
      <trkpt lat="43.17232" lon="6.63996">
        <ele>11.8</ele>
        <time>2025-10-12T12:37:20.000Z</time>
      </trkpt>
      <trkpt lat="43.17232" lon="6.63996">
        <ele>11.8</ele>
        <time>2025-10-12T12:37:21.000Z</time>
      </trkpt>
      <trkpt lat="43.17232" lon="6.63997">
        <ele>12</ele>
        <time>2025-10-12T12:37:47.000Z</time>
      </trkpt>
      <trkpt lat="43.17232" lon="6.63997">
        <ele>12</ele>
        <time>2025-10-12T12:37:48.000Z</time>
      </trkpt>
      <trkpt lat="43.17233" lon="6.63997">
        <ele>12</ele>
        <time>2025-10-12T12:37:49.000Z</time>
      </trkpt>
      <trkpt lat="43.17242" lon="6.63992">
        <ele>12.1</ele>
        <time>2025-10-12T12:38:02.000Z</time>
      </trkpt>
      <trkpt lat="43.17251" lon="6.63987">
        <ele>12.2</ele>
        <time>2025-10-12T12:38:14.000Z</time>
      </trkpt>
      <trkpt lat="43.17252" lon="6.63987">
        <ele>12.3</ele>
        <time>2025-10-12T12:38:22.000Z</time>
      </trkpt>
      <trkpt lat="43.17252" lon="6.63987">
        <ele>12.3</ele>
        <time>2025-10-12T12:38:23.000Z</time>
      </trkpt>
      <trkpt lat="43.17252" lon="6.63986">
        <ele>12.3</ele>
        <time>2025-10-12T12:38:24.000Z</time>
      </trkpt>
      <trkpt lat="43.17253" lon="6.63986">
        <ele>12.3</ele>
        <time>2025-10-12T12:38:25.000Z</time>
      </trkpt>
      <trkpt lat="43.17254" lon="6.63985">
        <ele>12.3</ele>
        <time>2025-10-12T12:38:26.000Z</time>
      </trkpt>
      <trkpt lat="43.17254" lon="6.63985">
        <ele>12.3</ele>
        <time>2025-10-12T12:38:27.000Z</time>
      </trkpt>
      <trkpt lat="43.17261" lon="6.63976">
        <ele>12.5</ele>
        <time>2025-10-12T12:38:43.000Z</time>
      </trkpt>
      <trkpt lat="43.17268" lon="6.63969">
        <ele>12.6</ele>
        <time>2025-10-12T12:38:55.000Z</time>
      </trkpt>
      <trkpt lat="43.17276" lon="6.63961">
        <ele>12.6</ele>
        <time>2025-10-12T12:39:05.000Z</time>
      </trkpt>
      <trkpt lat="43.17282" lon="6.63951">
        <ele>12.6</ele>
        <time>2025-10-12T12:39:16.000Z</time>
      </trkpt>
      <trkpt lat="43.17291" lon="6.63949">
        <ele>12.8</ele>
        <time>2025-10-12T12:39:27.000Z</time>
      </trkpt>
      <trkpt lat="43.17299" lon="6.6394">
        <ele>12.9</ele>
        <time>2025-10-12T12:39:39.000Z</time>
      </trkpt>
      <trkpt lat="43.17305" lon="6.63931">
        <ele>14.2</ele>
        <time>2025-10-12T12:39:56.000Z</time>
      </trkpt>
      <trkpt lat="43.17314" lon="6.63926">
        <ele>15.1</ele>
        <time>2025-10-12T12:40:07.000Z</time>
      </trkpt>
      <trkpt lat="43.17321" lon="6.6392">
        <ele>15.9</ele>
        <time>2025-10-12T12:40:20.000Z</time>
      </trkpt>
      <trkpt lat="43.17321" lon="6.6392">
        <ele>16</ele>
        <time>2025-10-12T12:40:21.000Z</time>
      </trkpt>
      <trkpt lat="43.17321" lon="6.6392">
        <ele>16.2</ele>
        <time>2025-10-12T12:40:25.000Z</time>
      </trkpt>
      <trkpt lat="43.17322" lon="6.6392">
        <ele>16.2</ele>
        <time>2025-10-12T12:40:26.000Z</time>
      </trkpt>
      <trkpt lat="43.17331" lon="6.63919">
        <ele>17.2</ele>
        <time>2025-10-12T12:40:39.000Z</time>
      </trkpt>
      <trkpt lat="43.1734" lon="6.63923">
        <ele>17.6</ele>
        <time>2025-10-12T12:40:48.000Z</time>
      </trkpt>
      <trkpt lat="43.17349" lon="6.63928">
        <ele>17.5</ele>
        <time>2025-10-12T12:40:58.000Z</time>
      </trkpt>
      <trkpt lat="43.17358" lon="6.63932">
        <ele>17.4</ele>
        <time>2025-10-12T12:41:07.000Z</time>
      </trkpt>
      <trkpt lat="43.17364" lon="6.63937">
        <ele>17.1</ele>
        <time>2025-10-12T12:41:18.000Z</time>
      </trkpt>
      <trkpt lat="43.17364" lon="6.63937">
        <ele>17</ele>
        <time>2025-10-12T12:41:19.000Z</time>
      </trkpt>
      <trkpt lat="43.17364" lon="6.63938">
        <ele>16.9</ele>
        <time>2025-10-12T12:41:22.000Z</time>
      </trkpt>
      <trkpt lat="43.17365" lon="6.63939">
        <ele>16.9</ele>
        <time>2025-10-12T12:41:23.000Z</time>
      </trkpt>
      <trkpt lat="43.17365" lon="6.63939">
        <ele>16.9</ele>
        <time>2025-10-12T12:41:24.000Z</time>
      </trkpt>
      <trkpt lat="43.17374" lon="6.63944">
        <ele>16.7</ele>
        <time>2025-10-12T12:41:34.000Z</time>
      </trkpt>
      <trkpt lat="43.17376" lon="6.63944">
        <ele>16.6</ele>
        <time>2025-10-12T12:41:42.000Z</time>
      </trkpt>
      <trkpt lat="43.17376" lon="6.63944">
        <ele>16.6</ele>
        <time>2025-10-12T12:41:43.000Z</time>
      </trkpt>
      <trkpt lat="43.17376" lon="6.63944">
        <ele>16.6</ele>
        <time>2025-10-12T12:41:44.000Z</time>
      </trkpt>
      <trkpt lat="43.17376" lon="6.63944">
        <ele>16.5</ele>
        <time>2025-10-12T12:41:52.000Z</time>
      </trkpt>
      <trkpt lat="43.17376" lon="6.63944">
        <ele>16.5</ele>
        <time>2025-10-12T12:41:53.000Z</time>
      </trkpt>
      <trkpt lat="43.17376" lon="6.63943">
        <ele>16.5</ele>
        <time>2025-10-12T12:41:54.000Z</time>
      </trkpt>
      <trkpt lat="43.17376" lon="6.63943">
        <ele>16.5</ele>
        <time>2025-10-12T12:41:55.000Z</time>
      </trkpt>
      <trkpt lat="43.17376" lon="6.63944">
        <ele>16.5</ele>
        <time>2025-10-12T12:41:56.000Z</time>
      </trkpt>
      <trkpt lat="43.17376" lon="6.63944">
        <ele>16.5</ele>
        <time>2025-10-12T12:41:57.000Z</time>
      </trkpt>
      <trkpt lat="43.17377" lon="6.63944">
        <ele>16.5</ele>
        <time>2025-10-12T12:41:58.000Z</time>
      </trkpt>
      <trkpt lat="43.17377" lon="6.63944">
        <ele>16.5</ele>
        <time>2025-10-12T12:41:59.000Z</time>
      </trkpt>
      <trkpt lat="43.17386" lon="6.6395">
        <ele>16.4</ele>
        <time>2025-10-12T12:42:10.000Z</time>
      </trkpt>
      <trkpt lat="43.17393" lon="6.63959">
        <ele>16.3</ele>
        <time>2025-10-12T12:42:20.000Z</time>
      </trkpt>
      <trkpt lat="43.17403" lon="6.63962">
        <ele>16.2</ele>
        <time>2025-10-12T12:42:29.000Z</time>
      </trkpt>
      <trkpt lat="43.17412" lon="6.63966">
        <ele>16.2</ele>
        <time>2025-10-12T12:42:37.000Z</time>
      </trkpt>
      <trkpt lat="43.1742" lon="6.63972">
        <ele>16.1</ele>
        <time>2025-10-12T12:42:46.000Z</time>
      </trkpt>
      <trkpt lat="43.17426" lon="6.63982">
        <ele>16.2</ele>
        <time>2025-10-12T12:42:55.000Z</time>
      </trkpt>
      <trkpt lat="43.17434" lon="6.63987">
        <ele>16.2</ele>
        <time>2025-10-12T12:43:03.000Z</time>
      </trkpt>
      <trkpt lat="43.17444" lon="6.63987">
        <ele>16.3</ele>
        <time>2025-10-12T12:43:11.000Z</time>
      </trkpt>
      <trkpt lat="43.17453" lon="6.63987">
        <ele>16.5</ele>
        <time>2025-10-12T12:43:19.000Z</time>
      </trkpt>
      <trkpt lat="43.17463" lon="6.63988">
        <ele>16.6</ele>
        <time>2025-10-12T12:43:29.000Z</time>
      </trkpt>
      <trkpt lat="43.17473" lon="6.63986">
        <ele>16.6</ele>
        <time>2025-10-12T12:43:38.000Z</time>
      </trkpt>
      <trkpt lat="43.17482" lon="6.63984">
        <ele>16.6</ele>
        <time>2025-10-12T12:43:46.000Z</time>
      </trkpt>
      <trkpt lat="43.17491" lon="6.63982">
        <ele>16.7</ele>
        <time>2025-10-12T12:43:57.000Z</time>
      </trkpt>
      <trkpt lat="43.175" lon="6.63984">
        <ele>16.7</ele>
        <time>2025-10-12T12:44:05.000Z</time>
      </trkpt>
      <trkpt lat="43.17508" lon="6.6399">
        <ele>16.8</ele>
        <time>2025-10-12T12:44:13.000Z</time>
      </trkpt>
      <trkpt lat="43.17518" lon="6.63994">
        <ele>17</ele>
        <time>2025-10-12T12:44:22.000Z</time>
      </trkpt>
      <trkpt lat="43.17528" lon="6.63995">
        <ele>17.2</ele>
        <time>2025-10-12T12:44:31.000Z</time>
      </trkpt>
      <trkpt lat="43.17537" lon="6.63996">
        <ele>17.6</ele>
        <time>2025-10-12T12:44:39.000Z</time>
      </trkpt>
      <trkpt lat="43.17544" lon="6.64004">
        <ele>18.2</ele>
        <time>2025-10-12T12:44:50.000Z</time>
      </trkpt>
      <trkpt lat="43.17552" lon="6.63997">
        <ele>18.7</ele>
        <time>2025-10-12T12:45:02.000Z</time>
      </trkpt>
      <trkpt lat="43.17558" lon="6.63987">
        <ele>19.8</ele>
        <time>2025-10-12T12:45:19.000Z</time>
      </trkpt>
      <trkpt lat="43.17561" lon="6.63975">
        <ele>20.7</ele>
        <time>2025-10-12T12:45:29.000Z</time>
      </trkpt>
      <trkpt lat="43.17565" lon="6.63968">
        <ele>22.2</ele>
        <time>2025-10-12T12:45:42.000Z</time>
      </trkpt>
      <trkpt lat="43.17565" lon="6.63968">
        <ele>22.3</ele>
        <time>2025-10-12T12:45:43.000Z</time>
      </trkpt>
      <trkpt lat="43.17565" lon="6.63968">
        <ele>22.3</ele>
        <time>2025-10-12T12:45:44.000Z</time>
      </trkpt>
      <trkpt lat="43.17565" lon="6.63967">
        <ele>22.4</ele>
        <time>2025-10-12T12:45:45.000Z</time>
      </trkpt>
      <trkpt lat="43.17566" lon="6.63966">
        <ele>22.5</ele>
        <time>2025-10-12T12:45:46.000Z</time>
      </trkpt>
      <trkpt lat="43.1757" lon="6.63955">
        <ele>23.2</ele>
        <time>2025-10-12T12:46:03.000Z</time>
      </trkpt>
      <trkpt lat="43.17577" lon="6.63947">
        <ele>25.1</ele>
        <time>2025-10-12T12:46:22.000Z</time>
      </trkpt>
      <trkpt lat="43.17581" lon="6.63935">
        <ele>26.8</ele>
        <time>2025-10-12T12:46:39.000Z</time>
      </trkpt>
      <trkpt lat="43.17586" lon="6.6393">
        <ele>27.6</ele>
        <time>2025-10-12T12:46:53.000Z</time>
      </trkpt>
      <trkpt lat="43.17586" lon="6.6393">
        <ele>27.7</ele>
        <time>2025-10-12T12:46:54.000Z</time>
      </trkpt>
      <trkpt lat="43.17586" lon="6.6393">
        <ele>28</ele>
        <time>2025-10-12T12:47:03.000Z</time>
      </trkpt>
      <trkpt lat="43.17585" lon="6.6393">
        <ele>28</ele>
        <time>2025-10-12T12:47:04.000Z</time>
      </trkpt>
      <trkpt lat="43.17593" lon="6.63923">
        <ele>28.8</ele>
        <time>2025-10-12T12:47:24.000Z</time>
      </trkpt>
      <trkpt lat="43.17599" lon="6.63913">
        <ele>30.1</ele>
        <time>2025-10-12T12:47:36.000Z</time>
      </trkpt>
      <trkpt lat="43.17605" lon="6.63904">
        <ele>31.5</ele>
        <time>2025-10-12T12:47:53.000Z</time>
      </trkpt>
      <trkpt lat="43.17613" lon="6.63895">
        <ele>33</ele>
        <time>2025-10-12T12:48:10.000Z</time>
      </trkpt>
      <trkpt lat="43.17617" lon="6.63883">
        <ele>34.7</ele>
        <time>2025-10-12T12:48:28.000Z</time>
      </trkpt>
      <trkpt lat="43.17621" lon="6.63872">
        <ele>36.3</ele>
        <time>2025-10-12T12:48:46.000Z</time>
      </trkpt>
      <trkpt lat="43.17625" lon="6.6386">
        <ele>37</ele>
        <time>2025-10-12T12:48:55.000Z</time>
      </trkpt>
      <trkpt lat="43.17629" lon="6.63848">
        <ele>38</ele>
        <time>2025-10-12T12:49:11.000Z</time>
      </trkpt>
      <trkpt lat="43.17632" lon="6.63835">
        <ele>38.5</ele>
        <time>2025-10-12T12:49:18.000Z</time>
      </trkpt>
      <trkpt lat="43.17636" lon="6.63822">
        <ele>39.2</ele>
        <time>2025-10-12T12:49:28.000Z</time>
      </trkpt>
      <trkpt lat="43.1764" lon="6.63811">
        <ele>39.7</ele>
        <time>2025-10-12T12:49:36.000Z</time>
      </trkpt>
      <trkpt lat="43.17641" lon="6.63799">
        <ele>40.4</ele>
        <time>2025-10-12T12:49:49.000Z</time>
      </trkpt>
      <trkpt lat="43.17643" lon="6.63785">
        <ele>40.8</ele>
        <time>2025-10-12T12:49:58.000Z</time>
      </trkpt>
      <trkpt lat="43.17643" lon="6.63773">
        <ele>41.1</ele>
        <time>2025-10-12T12:50:06.000Z</time>
      </trkpt>
      <trkpt lat="43.17646" lon="6.6376">
        <ele>41.4</ele>
        <time>2025-10-12T12:50:17.000Z</time>
      </trkpt>
      <trkpt lat="43.17649" lon="6.63748">
        <ele>41.6</ele>
        <time>2025-10-12T12:50:26.000Z</time>
      </trkpt>
      <trkpt lat="43.17652" lon="6.63736">
        <ele>41.8</ele>
        <time>2025-10-12T12:50:35.000Z</time>
      </trkpt>
      <trkpt lat="43.17654" lon="6.63723">
        <ele>41.9</ele>
        <time>2025-10-12T12:50:45.000Z</time>
      </trkpt>
      <trkpt lat="43.17657" lon="6.63711">
        <ele>42.1</ele>
        <time>2025-10-12T12:50:55.000Z</time>
      </trkpt>
      <trkpt lat="43.1766" lon="6.63699">
        <ele>42.7</ele>
        <time>2025-10-12T12:51:06.000Z</time>
      </trkpt>
      <trkpt lat="43.17663" lon="6.63687">
        <ele>44</ele>
        <time>2025-10-12T12:51:20.000Z</time>
      </trkpt>
      <trkpt lat="43.17668" lon="6.63676">
        <ele>45.3</ele>
        <time>2025-10-12T12:51:33.000Z</time>
      </trkpt>
      <trkpt lat="43.17673" lon="6.63664">
        <ele>46.3</ele>
        <time>2025-10-12T12:51:45.000Z</time>
      </trkpt>
      <trkpt lat="43.17677" lon="6.63654">
        <ele>47.3</ele>
        <time>2025-10-12T12:51:56.000Z</time>
      </trkpt>
      <trkpt lat="43.17682" lon="6.63643">
        <ele>48.8</ele>
        <time>2025-10-12T12:52:14.000Z</time>
      </trkpt>
      <trkpt lat="43.17688" lon="6.63632">
        <ele>50.7</ele>
        <time>2025-10-12T12:52:31.000Z</time>
      </trkpt>
      <trkpt lat="43.17693" lon="6.63621">
        <ele>51.5</ele>
        <time>2025-10-12T12:52:41.000Z</time>
      </trkpt>
      <trkpt lat="43.17698" lon="6.6361">
        <ele>52</ele>
        <time>2025-10-12T12:52:52.000Z</time>
      </trkpt>
      <trkpt lat="43.17704" lon="6.636">
        <ele>53.6</ele>
        <time>2025-10-12T12:53:11.000Z</time>
      </trkpt>
      <trkpt lat="43.17711" lon="6.63591">
        <ele>55</ele>
        <time>2025-10-12T12:53:23.000Z</time>
      </trkpt>
      <trkpt lat="43.17716" lon="6.6358">
        <ele>55.9</ele>
        <time>2025-10-12T12:53:33.000Z</time>
      </trkpt>
      <trkpt lat="43.17721" lon="6.63569">
        <ele>56.6</ele>
        <time>2025-10-12T12:53:42.000Z</time>
      </trkpt>
      <trkpt lat="43.17725" lon="6.63558">
        <ele>57.6</ele>
        <time>2025-10-12T12:53:53.000Z</time>
      </trkpt>
      <trkpt lat="43.17728" lon="6.63545">
        <ele>58.4</ele>
        <time>2025-10-12T12:54:02.000Z</time>
      </trkpt>
      <trkpt lat="43.17732" lon="6.63533">
        <ele>58.9</ele>
        <time>2025-10-12T12:54:12.000Z</time>
      </trkpt>
      <trkpt lat="43.17737" lon="6.63522">
        <ele>59.4</ele>
        <time>2025-10-12T12:54:21.000Z</time>
      </trkpt>
      <trkpt lat="43.17743" lon="6.63511">
        <ele>59.8</ele>
        <time>2025-10-12T12:54:30.000Z</time>
      </trkpt>
      <trkpt lat="43.1775" lon="6.63501">
        <ele>60.2</ele>
        <time>2025-10-12T12:54:39.000Z</time>
      </trkpt>
      <trkpt lat="43.17757" lon="6.63493">
        <ele>60.6</ele>
        <time>2025-10-12T12:54:49.000Z</time>
      </trkpt>
      <trkpt lat="43.17765" lon="6.63487">
        <ele>60.9</ele>
        <time>2025-10-12T12:54:59.000Z</time>
      </trkpt>
      <trkpt lat="43.17773" lon="6.63481">
        <ele>61.1</ele>
        <time>2025-10-12T12:55:08.000Z</time>
      </trkpt>
      <trkpt lat="43.17782" lon="6.63475">
        <ele>61.4</ele>
        <time>2025-10-12T12:55:18.000Z</time>
      </trkpt>
      <trkpt lat="43.17791" lon="6.63471">
        <ele>61.7</ele>
        <time>2025-10-12T12:55:29.000Z</time>
      </trkpt>
      <trkpt lat="43.17797" lon="6.63469">
        <ele>62</ele>
        <time>2025-10-12T12:55:40.000Z</time>
      </trkpt>
      <trkpt lat="43.17797" lon="6.63469">
        <ele>62</ele>
        <time>2025-10-12T12:55:41.000Z</time>
      </trkpt>
      <trkpt lat="43.17797" lon="6.63469">
        <ele>62</ele>
        <time>2025-10-12T12:55:42.000Z</time>
      </trkpt>
      <trkpt lat="43.17798" lon="6.63469">
        <ele>62</ele>
        <time>2025-10-12T12:55:43.000Z</time>
      </trkpt>
      <trkpt lat="43.17798" lon="6.63469">
        <ele>62</ele>
        <time>2025-10-12T12:55:44.000Z</time>
      </trkpt>
      <trkpt lat="43.17799" lon="6.63468">
        <ele>62</ele>
        <time>2025-10-12T12:55:45.000Z</time>
      </trkpt>
      <trkpt lat="43.17799" lon="6.63468">
        <ele>62.1</ele>
        <time>2025-10-12T12:55:50.000Z</time>
      </trkpt>
      <trkpt lat="43.17799" lon="6.63468">
        <ele>62.1</ele>
        <time>2025-10-12T12:55:51.000Z</time>
      </trkpt>
      <trkpt lat="43.17799" lon="6.63468">
        <ele>62.2</ele>
        <time>2025-10-12T12:55:55.000Z</time>
      </trkpt>
      <trkpt lat="43.17799" lon="6.63468">
        <ele>62.2</ele>
        <time>2025-10-12T12:55:56.000Z</time>
      </trkpt>
      <trkpt lat="43.17799" lon="6.63468">
        <ele>62.2</ele>
        <time>2025-10-12T12:55:57.000Z</time>
      </trkpt>
      <trkpt lat="43.17799" lon="6.63468">
        <ele>62.2</ele>
        <time>2025-10-12T12:56:03.000Z</time>
      </trkpt>
      <trkpt lat="43.17799" lon="6.63468">
        <ele>62.2</ele>
        <time>2025-10-12T12:56:04.000Z</time>
      </trkpt>
      <trkpt lat="43.17799" lon="6.63467">
        <ele>62.3</ele>
        <time>2025-10-12T12:56:05.000Z</time>
      </trkpt>
      <trkpt lat="43.17799" lon="6.63467">
        <ele>62.3</ele>
        <time>2025-10-12T12:56:06.000Z</time>
      </trkpt>
      <trkpt lat="43.17799" lon="6.63467">
        <ele>62.3</ele>
        <time>2025-10-12T12:56:07.000Z</time>
      </trkpt>
      <trkpt lat="43.17799" lon="6.63467">
        <ele>62.3</ele>
        <time>2025-10-12T12:56:08.000Z</time>
      </trkpt>
      <trkpt lat="43.17799" lon="6.63468">
        <ele>62.3</ele>
        <time>2025-10-12T12:56:09.000Z</time>
      </trkpt>
      <trkpt lat="43.17799" lon="6.63468">
        <ele>62.3</ele>
        <time>2025-10-12T12:56:10.000Z</time>
      </trkpt>
      <trkpt lat="43.17799" lon="6.63468">
        <ele>62.3</ele>
        <time>2025-10-12T12:56:11.000Z</time>
      </trkpt>
      <trkpt lat="43.17799" lon="6.63468">
        <ele>62.3</ele>
        <time>2025-10-12T12:56:12.000Z</time>
      </trkpt>
      <trkpt lat="43.17799" lon="6.63468">
        <ele>62.3</ele>
        <time>2025-10-12T12:56:13.000Z</time>
      </trkpt>
      <trkpt lat="43.17799" lon="6.63468">
        <ele>62.3</ele>
        <time>2025-10-12T12:56:14.000Z</time>
      </trkpt>
      <trkpt lat="43.17799" lon="6.63468">
        <ele>62.3</ele>
        <time>2025-10-12T12:56:15.000Z</time>
      </trkpt>
      <trkpt lat="43.17799" lon="6.63468">
        <ele>62.3</ele>
        <time>2025-10-12T12:56:22.000Z</time>
      </trkpt>
      <trkpt lat="43.17799" lon="6.63468">
        <ele>62.4</ele>
        <time>2025-10-12T12:56:23.000Z</time>
      </trkpt>
      <trkpt lat="43.17799" lon="6.63468">
        <ele>62.4</ele>
        <time>2025-10-12T12:56:24.000Z</time>
      </trkpt>
      <trkpt lat="43.17799" lon="6.63468">
        <ele>62.4</ele>
        <time>2025-10-12T12:56:25.000Z</time>
      </trkpt>
      <trkpt lat="43.17799" lon="6.63468">
        <ele>62.4</ele>
        <time>2025-10-12T12:56:26.000Z</time>
      </trkpt>
      <trkpt lat="43.17799" lon="6.63468">
        <ele>62.4</ele>
        <time>2025-10-12T12:56:27.000Z</time>
      </trkpt>
      <trkpt lat="43.17799" lon="6.63467">
        <ele>62.4</ele>
        <time>2025-10-12T12:56:28.000Z</time>
      </trkpt>
      <trkpt lat="43.17799" lon="6.63468">
        <ele>62.4</ele>
        <time>2025-10-12T12:56:29.000Z</time>
      </trkpt>
      <trkpt lat="43.17799" lon="6.63468">
        <ele>62.4</ele>
        <time>2025-10-12T12:56:30.000Z</time>
      </trkpt>
      <trkpt lat="43.17799" lon="6.63468">
        <ele>62.5</ele>
        <time>2025-10-12T12:56:43.000Z</time>
      </trkpt>
      <trkpt lat="43.17799" lon="6.63468">
        <ele>62.5</ele>
        <time>2025-10-12T12:56:44.000Z</time>
      </trkpt>
      <trkpt lat="43.178" lon="6.63468">
        <ele>62.6</ele>
        <time>2025-10-12T12:57:10.000Z</time>
      </trkpt>
      <trkpt lat="43.178" lon="6.63468">
        <ele>62.6</ele>
        <time>2025-10-12T12:57:11.000Z</time>
      </trkpt>
      <trkpt lat="43.178" lon="6.63468">
        <ele>62.6</ele>
        <time>2025-10-12T12:57:12.000Z</time>
      </trkpt>
      <trkpt lat="43.178" lon="6.63468">
        <ele>62.6</ele>
        <time>2025-10-12T12:57:13.000Z</time>
      </trkpt>
      <trkpt lat="43.178" lon="6.63468">
        <ele>62.6</ele>
        <time>2025-10-12T12:57:14.000Z</time>
      </trkpt>
      <trkpt lat="43.178" lon="6.63467">
        <ele>62.6</ele>
        <time>2025-10-12T12:57:17.000Z</time>
      </trkpt>
      <trkpt lat="43.178" lon="6.63467">
        <ele>62.6</ele>
        <time>2025-10-12T12:57:18.000Z</time>
      </trkpt>
      <trkpt lat="43.178" lon="6.63467">
        <ele>62.6</ele>
        <time>2025-10-12T12:57:19.000Z</time>
      </trkpt>
      <trkpt lat="43.178" lon="6.63468">
        <ele>62.6</ele>
        <time>2025-10-12T12:57:22.000Z</time>
      </trkpt>
      <trkpt lat="43.178" lon="6.63468">
        <ele>62.6</ele>
        <time>2025-10-12T12:57:23.000Z</time>
      </trkpt>
      <trkpt lat="43.178" lon="6.63468">
        <ele>62.6</ele>
        <time>2025-10-12T12:57:24.000Z</time>
      </trkpt>
      <trkpt lat="43.178" lon="6.63468">
        <ele>62.6</ele>
        <time>2025-10-12T12:57:30.000Z</time>
      </trkpt>
      <trkpt lat="43.178" lon="6.63468">
        <ele>62.6</ele>
        <time>2025-10-12T12:57:31.000Z</time>
      </trkpt>
      <trkpt lat="43.178" lon="6.63468">
        <ele>62.6</ele>
        <time>2025-10-12T12:57:32.000Z</time>
      </trkpt>
      <trkpt lat="43.178" lon="6.63468">
        <ele>62.6</ele>
        <time>2025-10-12T12:57:33.000Z</time>
      </trkpt>
      <trkpt lat="43.178" lon="6.63468">
        <ele>62.6</ele>
        <time>2025-10-12T12:57:34.000Z</time>
      </trkpt>
      <trkpt lat="43.17799" lon="6.63468">
        <ele>62.7</ele>
        <time>2025-10-12T12:57:52.000Z</time>
      </trkpt>
      <trkpt lat="43.17799" lon="6.63468">
        <ele>62.7</ele>
        <time>2025-10-12T12:57:53.000Z</time>
      </trkpt>
      <trkpt lat="43.17799" lon="6.63468">
        <ele>62.7</ele>
        <time>2025-10-12T12:57:54.000Z</time>
      </trkpt>
      <trkpt lat="43.17799" lon="6.63468">
        <ele>62.7</ele>
        <time>2025-10-12T12:57:55.000Z</time>
      </trkpt>
      <trkpt lat="43.17799" lon="6.63468">
        <ele>62.7</ele>
        <time>2025-10-12T12:57:56.000Z</time>
      </trkpt>
      <trkpt lat="43.17799" lon="6.63468">
        <ele>62.7</ele>
        <time>2025-10-12T12:57:57.000Z</time>
      </trkpt>
      <trkpt lat="43.17799" lon="6.63468">
        <ele>62.7</ele>
        <time>2025-10-12T12:58:15.000Z</time>
      </trkpt>
      <trkpt lat="43.17799" lon="6.63468">
        <ele>62.7</ele>
        <time>2025-10-12T12:58:16.000Z</time>
      </trkpt>
      <trkpt lat="43.17799" lon="6.63468">
        <ele>62.7</ele>
        <time>2025-10-12T12:58:17.000Z</time>
      </trkpt>
      <trkpt lat="43.17799" lon="6.63468">
        <ele>62.7</ele>
        <time>2025-10-12T12:58:18.000Z</time>
      </trkpt>
      <trkpt lat="43.17799" lon="6.63468">
        <ele>62.7</ele>
        <time>2025-10-12T12:58:19.000Z</time>
      </trkpt>
      <trkpt lat="43.17799" lon="6.63468">
        <ele>62.7</ele>
        <time>2025-10-12T12:58:20.000Z</time>
      </trkpt>
      <trkpt lat="43.178" lon="6.63468">
        <ele>62.7</ele>
        <time>2025-10-12T12:58:21.000Z</time>
      </trkpt>
      <trkpt lat="43.178" lon="6.63468">
        <ele>62.7</ele>
        <time>2025-10-12T12:58:22.000Z</time>
      </trkpt>
      <trkpt lat="43.178" lon="6.63468">
        <ele>62.7</ele>
        <time>2025-10-12T12:58:25.000Z</time>
      </trkpt>
      <trkpt lat="43.178" lon="6.63468">
        <ele>62.7</ele>
        <time>2025-10-12T12:58:26.000Z</time>
      </trkpt>
      <trkpt lat="43.178" lon="6.63468">
        <ele>62.7</ele>
        <time>2025-10-12T12:58:27.000Z</time>
      </trkpt>
      <trkpt lat="43.17801" lon="6.63467">
        <ele>62.8</ele>
        <time>2025-10-12T12:58:40.000Z</time>
      </trkpt>
      <trkpt lat="43.178" lon="6.63467">
        <ele>62.8</ele>
        <time>2025-10-12T12:58:41.000Z</time>
      </trkpt>
      <trkpt lat="43.178" lon="6.63466">
        <ele>62.8</ele>
        <time>2025-10-12T12:58:42.000Z</time>
      </trkpt>
      <trkpt lat="43.178" lon="6.63466">
        <ele>62.8</ele>
        <time>2025-10-12T12:58:45.000Z</time>
      </trkpt>
      <trkpt lat="43.178" lon="6.63466">
        <ele>62.8</ele>
        <time>2025-10-12T12:58:46.000Z</time>
      </trkpt>
      <trkpt lat="43.17801" lon="6.63466">
        <ele>62.8</ele>
        <time>2025-10-12T12:58:50.000Z</time>
      </trkpt>
      <trkpt lat="43.17801" lon="6.63466">
        <ele>62.8</ele>
        <time>2025-10-12T12:58:51.000Z</time>
      </trkpt>
      <trkpt lat="43.1781" lon="6.63461">
        <ele>62.8</ele>
        <time>2025-10-12T12:59:04.000Z</time>
      </trkpt>
      <trkpt lat="43.17818" lon="6.63455">
        <ele>62.8</ele>
        <time>2025-10-12T12:59:13.000Z</time>
      </trkpt>
      <trkpt lat="43.17825" lon="6.63447">
        <ele>62.7</ele>
        <time>2025-10-12T12:59:21.000Z</time>
      </trkpt>
      <trkpt lat="43.17832" lon="6.63438">
        <ele>62.7</ele>
        <time>2025-10-12T12:59:29.000Z</time>
      </trkpt>
      <trkpt lat="43.17838" lon="6.63429">
        <ele>62.4</ele>
        <time>2025-10-12T12:59:38.000Z</time>
      </trkpt>
      <trkpt lat="43.17843" lon="6.63418">
        <ele>62</ele>
        <time>2025-10-12T12:59:48.000Z</time>
      </trkpt>
      <trkpt lat="43.17849" lon="6.63409">
        <ele>61.6</ele>
        <time>2025-10-12T12:59:58.000Z</time>
      </trkpt>
      <trkpt lat="43.17857" lon="6.63403">
        <ele>61.4</ele>
        <time>2025-10-12T13:00:10.000Z</time>
      </trkpt>
      <trkpt lat="43.17867" lon="6.63401">
        <ele>61.5</ele>
        <time>2025-10-12T13:00:20.000Z</time>
      </trkpt>
      <trkpt lat="43.17875" lon="6.63394">
        <ele>61.8</ele>
        <time>2025-10-12T13:00:32.000Z</time>
      </trkpt>
      <trkpt lat="43.17882" lon="6.63386">
        <ele>61.8</ele>
        <time>2025-10-12T13:00:39.000Z</time>
      </trkpt>
      <trkpt lat="43.1789" lon="6.63377">
        <ele>61.8</ele>
        <time>2025-10-12T13:00:48.000Z</time>
      </trkpt>
      <trkpt lat="43.17897" lon="6.63369">
        <ele>61.6</ele>
        <time>2025-10-12T13:00:58.000Z</time>
      </trkpt>
      <trkpt lat="43.17904" lon="6.63361">
        <ele>61.5</ele>
        <time>2025-10-12T13:01:09.000Z</time>
      </trkpt>
      <trkpt lat="43.17911" lon="6.63351">
        <ele>60.9</ele>
        <time>2025-10-12T13:01:19.000Z</time>
      </trkpt>
      <trkpt lat="43.17917" lon="6.63341">
        <ele>60.1</ele>
        <time>2025-10-12T13:01:30.000Z</time>
      </trkpt>
      <trkpt lat="43.17925" lon="6.63333">
        <ele>60.1</ele>
        <time>2025-10-12T13:01:41.000Z</time>
      </trkpt>
      <trkpt lat="43.17933" lon="6.63324">
        <ele>59.8</ele>
        <time>2025-10-12T13:01:51.000Z</time>
      </trkpt>
      <trkpt lat="43.17941" lon="6.63318">
        <ele>59.5</ele>
        <time>2025-10-12T13:02:00.000Z</time>
      </trkpt>
      <trkpt lat="43.17948" lon="6.63309">
        <ele>59.6</ele>
        <time>2025-10-12T13:02:12.000Z</time>
      </trkpt>
      <trkpt lat="43.17955" lon="6.633">
        <ele>60.2</ele>
        <time>2025-10-12T13:02:25.000Z</time>
      </trkpt>
      <trkpt lat="43.17962" lon="6.63293">
        <ele>61</ele>
        <time>2025-10-12T13:02:37.000Z</time>
      </trkpt>
      <trkpt lat="43.1797" lon="6.63286">
        <ele>62.4</ele>
        <time>2025-10-12T13:02:51.000Z</time>
      </trkpt>
      <trkpt lat="43.17978" lon="6.6328">
        <ele>63.6</ele>
        <time>2025-10-12T13:03:02.000Z</time>
      </trkpt>
      <trkpt lat="43.17986" lon="6.63275">
        <ele>64.8</ele>
        <time>2025-10-12T13:03:13.000Z</time>
      </trkpt>
      <trkpt lat="43.17995" lon="6.63273">
        <ele>65.5</ele>
        <time>2025-10-12T13:03:25.000Z</time>
      </trkpt>
      <trkpt lat="43.18005" lon="6.6327">
        <ele>66.1</ele>
        <time>2025-10-12T13:03:37.000Z</time>
      </trkpt>
      <trkpt lat="43.18013" lon="6.63265">
        <ele>66.4</ele>
        <time>2025-10-12T13:03:47.000Z</time>
      </trkpt>
      <trkpt lat="43.18021" lon="6.63257">
        <ele>66.5</ele>
        <time>2025-10-12T13:03:56.000Z</time>
      </trkpt>
      <trkpt lat="43.18029" lon="6.63248">
        <ele>66.4</ele>
        <time>2025-10-12T13:04:03.000Z</time>
      </trkpt>
      <trkpt lat="43.18034" lon="6.63238">
        <ele>66.3</ele>
        <time>2025-10-12T13:04:10.000Z</time>
      </trkpt>
      <trkpt lat="43.18042" lon="6.63231">
        <ele>66.1</ele>
        <time>2025-10-12T13:04:20.000Z</time>
      </trkpt>
      <trkpt lat="43.1805" lon="6.63225">
        <ele>65.9</ele>
        <time>2025-10-12T13:04:29.000Z</time>
      </trkpt>
      <trkpt lat="43.18051" lon="6.63225">
        <ele>65.7</ele>
        <time>2025-10-12T13:04:35.000Z</time>
      </trkpt>
      <trkpt lat="43.18051" lon="6.63224">
        <ele>65.7</ele>
        <time>2025-10-12T13:04:36.000Z</time>
      </trkpt>
      <trkpt lat="43.18051" lon="6.63224">
        <ele>65.6</ele>
        <time>2025-10-12T13:04:37.000Z</time>
      </trkpt>
      <trkpt lat="43.18052" lon="6.63224">
        <ele>65.6</ele>
        <time>2025-10-12T13:04:38.000Z</time>
      </trkpt>
      <trkpt lat="43.18053" lon="6.63224">
        <ele>65.6</ele>
        <time>2025-10-12T13:04:39.000Z</time>
      </trkpt>
      <trkpt lat="43.18061" lon="6.63218">
        <ele>64.6</ele>
        <time>2025-10-12T13:04:54.000Z</time>
      </trkpt>
      <trkpt lat="43.18066" lon="6.63208">
        <ele>63.1</ele>
        <time>2025-10-12T13:05:07.000Z</time>
      </trkpt>
      <trkpt lat="43.18072" lon="6.63199">
        <ele>59.8</ele>
        <time>2025-10-12T13:05:28.000Z</time>
      </trkpt>
      <trkpt lat="43.18076" lon="6.63187">
        <ele>58.3</ele>
        <time>2025-10-12T13:05:41.000Z</time>
      </trkpt>
      <trkpt lat="43.18082" lon="6.63177">
        <ele>57.1</ele>
        <time>2025-10-12T13:05:52.000Z</time>
      </trkpt>
      <trkpt lat="43.18088" lon="6.63166">
        <ele>56.1</ele>
        <time>2025-10-12T13:06:00.000Z</time>
      </trkpt>
      <trkpt lat="43.18093" lon="6.63155">
        <ele>55</ele>
        <time>2025-10-12T13:06:09.000Z</time>
      </trkpt>
      <trkpt lat="43.18097" lon="6.63143">
        <ele>54.2</ele>
        <time>2025-10-12T13:06:18.000Z</time>
      </trkpt>
      <trkpt lat="43.18099" lon="6.6313">
        <ele>53.6</ele>
        <time>2025-10-12T13:06:28.000Z</time>
      </trkpt>
      <trkpt lat="43.18105" lon="6.6312">
        <ele>53.3</ele>
        <time>2025-10-12T13:06:37.000Z</time>
      </trkpt>
      <trkpt lat="43.1811" lon="6.6311">
        <ele>52.9</ele>
        <time>2025-10-12T13:06:44.000Z</time>
      </trkpt>
      <trkpt lat="43.18117" lon="6.63099">
        <ele>52.8</ele>
        <time>2025-10-12T13:06:52.000Z</time>
      </trkpt>
      <trkpt lat="43.1812" lon="6.63088">
        <ele>52.8</ele>
        <time>2025-10-12T13:07:02.000Z</time>
      </trkpt>
      <trkpt lat="43.18125" lon="6.63077">
        <ele>52.8</ele>
        <time>2025-10-12T13:07:09.000Z</time>
      </trkpt>
      <trkpt lat="43.18131" lon="6.63067">
        <ele>52.7</ele>
        <time>2025-10-12T13:07:16.000Z</time>
      </trkpt>
      <trkpt lat="43.18135" lon="6.63055">
        <ele>52.3</ele>
        <time>2025-10-12T13:07:25.000Z</time>
      </trkpt>
      <trkpt lat="43.18137" lon="6.63043">
        <ele>51.7</ele>
        <time>2025-10-12T13:07:33.000Z</time>
      </trkpt>
      <trkpt lat="43.18142" lon="6.63032">
        <ele>50.8</ele>
        <time>2025-10-12T13:07:42.000Z</time>
      </trkpt>
      <trkpt lat="43.18147" lon="6.63019">
        <ele>50.1</ele>
        <time>2025-10-12T13:07:52.000Z</time>
      </trkpt>
      <trkpt lat="43.18152" lon="6.63009">
        <ele>49.4</ele>
        <time>2025-10-12T13:08:00.000Z</time>
      </trkpt>
      <trkpt lat="43.18157" lon="6.62998">
        <ele>48.7</ele>
        <time>2025-10-12T13:08:09.000Z</time>
      </trkpt>
      <trkpt lat="43.18163" lon="6.6299">
        <ele>48.2</ele>
        <time>2025-10-12T13:08:18.000Z</time>
      </trkpt>
      <trkpt lat="43.18172" lon="6.62983">
        <ele>47.8</ele>
        <time>2025-10-12T13:08:28.000Z</time>
      </trkpt>
      <trkpt lat="43.1818" lon="6.62975">
        <ele>47.5</ele>
        <time>2025-10-12T13:08:37.000Z</time>
      </trkpt>
      <trkpt lat="43.18188" lon="6.62968">
        <ele>47.1</ele>
        <time>2025-10-12T13:08:45.000Z</time>
      </trkpt>
      <trkpt lat="43.18197" lon="6.62963">
        <ele>46.2</ele>
        <time>2025-10-12T13:08:55.000Z</time>
      </trkpt>
      <trkpt lat="43.18206" lon="6.62967">
        <ele>45.8</ele>
        <time>2025-10-12T13:09:05.000Z</time>
      </trkpt>
      <trkpt lat="43.18214" lon="6.62971">
        <ele>45.3</ele>
        <time>2025-10-12T13:09:15.000Z</time>
      </trkpt>
      <trkpt lat="43.18222" lon="6.62964">
        <ele>44.7</ele>
        <time>2025-10-12T13:09:24.000Z</time>
      </trkpt>
      <trkpt lat="43.18229" lon="6.62954">
        <ele>44</ele>
        <time>2025-10-12T13:09:32.000Z</time>
      </trkpt>
      <trkpt lat="43.18233" lon="6.62942">
        <ele>43.3</ele>
        <time>2025-10-12T13:09:44.000Z</time>
      </trkpt>
      <trkpt lat="43.18239" lon="6.62932">
        <ele>43</ele>
        <time>2025-10-12T13:09:54.000Z</time>
      </trkpt>
      <trkpt lat="43.18248" lon="6.62932">
        <ele>42.8</ele>
        <time>2025-10-12T13:10:04.000Z</time>
      </trkpt>
      <trkpt lat="43.18258" lon="6.62935">
        <ele>42.8</ele>
        <time>2025-10-12T13:10:14.000Z</time>
      </trkpt>
      <trkpt lat="43.18267" lon="6.62939">
        <ele>42.9</ele>
        <time>2025-10-12T13:10:24.000Z</time>
      </trkpt>
      <trkpt lat="43.18275" lon="6.62933">
        <ele>43.1</ele>
        <time>2025-10-12T13:10:34.000Z</time>
      </trkpt>
      <trkpt lat="43.18284" lon="6.62927">
        <ele>43.4</ele>
        <time>2025-10-12T13:10:43.000Z</time>
      </trkpt>
      <trkpt lat="43.18287" lon="6.62928">
        <ele>44.1</ele>
        <time>2025-10-12T13:10:55.000Z</time>
      </trkpt>
      <trkpt lat="43.18287" lon="6.62928">
        <ele>44.2</ele>
        <time>2025-10-12T13:10:56.000Z</time>
      </trkpt>
      <trkpt lat="43.18287" lon="6.62928">
        <ele>44.3</ele>
        <time>2025-10-12T13:11:00.000Z</time>
      </trkpt>
      <trkpt lat="43.18287" lon="6.62928">
        <ele>44.4</ele>
        <time>2025-10-12T13:11:01.000Z</time>
      </trkpt>
      <trkpt lat="43.18287" lon="6.62928">
        <ele>44.4</ele>
        <time>2025-10-12T13:11:02.000Z</time>
      </trkpt>
      <trkpt lat="43.18287" lon="6.62928">
        <ele>44.4</ele>
        <time>2025-10-12T13:11:03.000Z</time>
      </trkpt>
      <trkpt lat="43.18287" lon="6.62928">
        <ele>44.5</ele>
        <time>2025-10-12T13:11:04.000Z</time>
      </trkpt>
      <trkpt lat="43.18287" lon="6.62928">
        <ele>44.7</ele>
        <time>2025-10-12T13:11:20.000Z</time>
      </trkpt>
      <trkpt lat="43.18287" lon="6.62928">
        <ele>44.7</ele>
        <time>2025-10-12T13:11:21.000Z</time>
      </trkpt>
      <trkpt lat="43.18287" lon="6.62928">
        <ele>44.7</ele>
        <time>2025-10-12T13:11:22.000Z</time>
      </trkpt>
      <trkpt lat="43.18287" lon="6.62928">
        <ele>44.7</ele>
        <time>2025-10-12T13:11:23.000Z</time>
      </trkpt>
      <trkpt lat="43.18287" lon="6.62928">
        <ele>44.7</ele>
        <time>2025-10-12T13:11:24.000Z</time>
      </trkpt>
      <trkpt lat="43.18287" lon="6.62928">
        <ele>44.8</ele>
        <time>2025-10-12T13:11:33.000Z</time>
      </trkpt>
      <trkpt lat="43.18287" lon="6.62928">
        <ele>44.8</ele>
        <time>2025-10-12T13:11:34.000Z</time>
      </trkpt>
      <trkpt lat="43.18287" lon="6.62929">
        <ele>44.8</ele>
        <time>2025-10-12T13:11:41.000Z</time>
      </trkpt>
      <trkpt lat="43.18287" lon="6.62929">
        <ele>44.8</ele>
        <time>2025-10-12T13:11:42.000Z</time>
      </trkpt>
      <trkpt lat="43.18286" lon="6.62929">
        <ele>44.8</ele>
        <time>2025-10-12T13:11:57.000Z</time>
      </trkpt>
      <trkpt lat="43.18286" lon="6.62929">
        <ele>44.8</ele>
        <time>2025-10-12T13:11:58.000Z</time>
      </trkpt>
      <trkpt lat="43.18286" lon="6.62929">
        <ele>44.8</ele>
        <time>2025-10-12T13:11:59.000Z</time>
      </trkpt>
      <trkpt lat="43.18286" lon="6.62929">
        <ele>44.8</ele>
        <time>2025-10-12T13:12:02.000Z</time>
      </trkpt>
      <trkpt lat="43.18286" lon="6.62929">
        <ele>44.8</ele>
        <time>2025-10-12T13:12:03.000Z</time>
      </trkpt>
      <trkpt lat="43.18286" lon="6.62929">
        <ele>44.8</ele>
        <time>2025-10-12T13:12:04.000Z</time>
      </trkpt>
      <trkpt lat="43.18286" lon="6.62929">
        <ele>44.8</ele>
        <time>2025-10-12T13:12:53.000Z</time>
      </trkpt>
      <trkpt lat="43.18286" lon="6.62929">
        <ele>44.8</ele>
        <time>2025-10-12T13:12:54.000Z</time>
      </trkpt>
      <trkpt lat="43.18286" lon="6.62929">
        <ele>44.8</ele>
        <time>2025-10-12T13:12:55.000Z</time>
      </trkpt>
      <trkpt lat="43.18286" lon="6.62929">
        <ele>44.8</ele>
        <time>2025-10-12T13:12:56.000Z</time>
      </trkpt>
      <trkpt lat="43.18286" lon="6.62929">
        <ele>44.8</ele>
        <time>2025-10-12T13:13:02.000Z</time>
      </trkpt>
      <trkpt lat="43.18286" lon="6.62929">
        <ele>44.8</ele>
        <time>2025-10-12T13:13:03.000Z</time>
      </trkpt>
      <trkpt lat="43.18286" lon="6.62929">
        <ele>44.8</ele>
        <time>2025-10-12T13:13:04.000Z</time>
      </trkpt>
      <trkpt lat="43.18286" lon="6.62929">
        <ele>44.8</ele>
        <time>2025-10-12T13:13:10.000Z</time>
      </trkpt>
      <trkpt lat="43.18286" lon="6.62929">
        <ele>44.8</ele>
        <time>2025-10-12T13:13:11.000Z</time>
      </trkpt>
      <trkpt lat="43.18286" lon="6.62928">
        <ele>44.8</ele>
        <time>2025-10-12T13:13:26.000Z</time>
      </trkpt>
      <trkpt lat="43.18286" lon="6.62928">
        <ele>44.8</ele>
        <time>2025-10-12T13:13:27.000Z</time>
      </trkpt>
      <trkpt lat="43.18286" lon="6.62928">
        <ele>44.8</ele>
        <time>2025-10-12T13:13:30.000Z</time>
      </trkpt>
      <trkpt lat="43.18286" lon="6.62928">
        <ele>44.8</ele>
        <time>2025-10-12T13:13:31.000Z</time>
      </trkpt>
      <trkpt lat="43.18286" lon="6.62928">
        <ele>44.8</ele>
        <time>2025-10-12T13:13:32.000Z</time>
      </trkpt>
      <trkpt lat="43.18286" lon="6.62929">
        <ele>44.7</ele>
        <time>2025-10-12T13:13:55.000Z</time>
      </trkpt>
      <trkpt lat="43.18286" lon="6.62929">
        <ele>44.7</ele>
        <time>2025-10-12T13:13:56.000Z</time>
      </trkpt>
      <trkpt lat="43.18286" lon="6.62929">
        <ele>44.7</ele>
        <time>2025-10-12T13:13:57.000Z</time>
      </trkpt>
      <trkpt lat="43.18286" lon="6.62929">
        <ele>44.7</ele>
        <time>2025-10-12T13:13:58.000Z</time>
      </trkpt>
      <trkpt lat="43.18286" lon="6.62929">
        <ele>44.7</ele>
        <time>2025-10-12T13:13:59.000Z</time>
      </trkpt>
      <trkpt lat="43.18286" lon="6.62929">
        <ele>44.7</ele>
        <time>2025-10-12T13:15:17.000Z</time>
      </trkpt>
      <trkpt lat="43.18286" lon="6.62929">
        <ele>44.7</ele>
        <time>2025-10-12T13:15:18.000Z</time>
      </trkpt>
      <trkpt lat="43.18286" lon="6.62929">
        <ele>44.7</ele>
        <time>2025-10-12T13:15:19.000Z</time>
      </trkpt>
      <trkpt lat="43.18286" lon="6.62929">
        <ele>44.7</ele>
        <time>2025-10-12T13:15:20.000Z</time>
      </trkpt>
      <trkpt lat="43.18286" lon="6.62929">
        <ele>44.7</ele>
        <time>2025-10-12T13:15:21.000Z</time>
      </trkpt>
      <trkpt lat="43.18286" lon="6.62929">
        <ele>44.7</ele>
        <time>2025-10-12T13:15:30.000Z</time>
      </trkpt>
      <trkpt lat="43.18286" lon="6.62929">
        <ele>44.7</ele>
        <time>2025-10-12T13:15:31.000Z</time>
      </trkpt>
      <trkpt lat="43.18286" lon="6.6293">
        <ele>44.9</ele>
        <time>2025-10-12T13:15:46.000Z</time>
      </trkpt>
      <trkpt lat="43.18286" lon="6.6293">
        <ele>44.9</ele>
        <time>2025-10-12T13:15:47.000Z</time>
      </trkpt>
      <trkpt lat="43.18286" lon="6.6293">
        <ele>44.9</ele>
        <time>2025-10-12T13:16:15.000Z</time>
      </trkpt>
      <trkpt lat="43.18286" lon="6.6293">
        <ele>44.9</ele>
        <time>2025-10-12T13:16:16.000Z</time>
      </trkpt>
      <trkpt lat="43.18286" lon="6.6293">
        <ele>45</ele>
        <time>2025-10-12T13:16:17.000Z</time>
      </trkpt>
      <trkpt lat="43.18286" lon="6.6293">
        <ele>45</ele>
        <time>2025-10-12T13:16:18.000Z</time>
      </trkpt>
      <trkpt lat="43.18286" lon="6.6293">
        <ele>45</ele>
        <time>2025-10-12T13:16:19.000Z</time>
      </trkpt>
      <trkpt lat="43.18286" lon="6.6293">
        <ele>45</ele>
        <time>2025-10-12T13:16:22.000Z</time>
      </trkpt>
      <trkpt lat="43.18286" lon="6.6293">
        <ele>45</ele>
        <time>2025-10-12T13:16:23.000Z</time>
      </trkpt>
      <trkpt lat="43.18286" lon="6.62929">
        <ele>45</ele>
        <time>2025-10-12T13:16:24.000Z</time>
      </trkpt>
      <trkpt lat="43.18286" lon="6.62929">
        <ele>45</ele>
        <time>2025-10-12T13:16:28.000Z</time>
      </trkpt>
      <trkpt lat="43.18286" lon="6.62929">
        <ele>45</ele>
        <time>2025-10-12T13:16:29.000Z</time>
      </trkpt>
      <trkpt lat="43.18287" lon="6.62931">
        <ele>45</ele>
        <time>2025-10-12T13:17:08.000Z</time>
      </trkpt>
      <trkpt lat="43.18288" lon="6.62931">
        <ele>45</ele>
        <time>2025-10-12T13:17:09.000Z</time>
      </trkpt>
      <trkpt lat="43.18297" lon="6.62931">
        <ele>45.2</ele>
        <time>2025-10-12T13:17:22.000Z</time>
      </trkpt>
      <trkpt lat="43.18299" lon="6.62932">
        <ele>45.9</ele>
        <time>2025-10-12T13:17:36.000Z</time>
      </trkpt>
      <trkpt lat="43.18299" lon="6.62932">
        <ele>45.9</ele>
        <time>2025-10-12T13:17:37.000Z</time>
      </trkpt>
      <trkpt lat="43.183" lon="6.62932">
        <ele>46.2</ele>
        <time>2025-10-12T13:17:45.000Z</time>
      </trkpt>
      <trkpt lat="43.183" lon="6.62933">
        <ele>46.2</ele>
        <time>2025-10-12T13:17:46.000Z</time>
      </trkpt>
      <trkpt lat="43.18309" lon="6.62939">
        <ele>46.3</ele>
        <time>2025-10-12T13:17:57.000Z</time>
      </trkpt>
      <trkpt lat="43.18318" lon="6.62944">
        <ele>46.4</ele>
        <time>2025-10-12T13:18:06.000Z</time>
      </trkpt>
      <trkpt lat="43.18327" lon="6.62946">
        <ele>46.5</ele>
        <time>2025-10-12T13:18:16.000Z</time>
      </trkpt>
      <trkpt lat="43.18337" lon="6.62948">
        <ele>46.7</ele>
        <time>2025-10-12T13:18:27.000Z</time>
      </trkpt>
      <trkpt lat="43.18346" lon="6.62948">
        <ele>47.1</ele>
        <time>2025-10-12T13:18:38.000Z</time>
      </trkpt>
      <trkpt lat="43.18356" lon="6.62948">
        <ele>47.4</ele>
        <time>2025-10-12T13:18:49.000Z</time>
      </trkpt>
      <trkpt lat="43.18365" lon="6.6295">
        <ele>47.7</ele>
        <time>2025-10-12T13:19:00.000Z</time>
      </trkpt>
      <trkpt lat="43.18374" lon="6.62951">
        <ele>48</ele>
        <time>2025-10-12T13:19:09.000Z</time>
      </trkpt>
      <trkpt lat="43.18384" lon="6.6295">
        <ele>48.2</ele>
        <time>2025-10-12T13:19:18.000Z</time>
      </trkpt>
      <trkpt lat="43.18393" lon="6.62947">
        <ele>48.3</ele>
        <time>2025-10-12T13:19:27.000Z</time>
      </trkpt>
      <trkpt lat="43.18402" lon="6.62944">
        <ele>48.5</ele>
        <time>2025-10-12T13:19:38.000Z</time>
      </trkpt>
      <trkpt lat="43.18412" lon="6.62943">
        <ele>48.7</ele>
        <time>2025-10-12T13:19:48.000Z</time>
      </trkpt>
      <trkpt lat="43.1842" lon="6.62949">
        <ele>48.8</ele>
        <time>2025-10-12T13:20:00.000Z</time>
      </trkpt>
      <trkpt lat="43.1843" lon="6.62953">
        <ele>49.2</ele>
        <time>2025-10-12T13:20:12.000Z</time>
      </trkpt>
      <trkpt lat="43.18439" lon="6.62956">
        <ele>50</ele>
        <time>2025-10-12T13:20:22.000Z</time>
      </trkpt>
      <trkpt lat="43.18449" lon="6.62956">
        <ele>50.7</ele>
        <time>2025-10-12T13:20:31.000Z</time>
      </trkpt>
      <trkpt lat="43.18458" lon="6.62953">
        <ele>51</ele>
        <time>2025-10-12T13:20:40.000Z</time>
      </trkpt>
      <trkpt lat="43.18466" lon="6.62948">
        <ele>51.4</ele>
        <time>2025-10-12T13:20:49.000Z</time>
      </trkpt>
      <trkpt lat="43.18475" lon="6.62945">
        <ele>51.8</ele>
        <time>2025-10-12T13:20:59.000Z</time>
      </trkpt>
      <trkpt lat="43.18485" lon="6.62943">
        <ele>52.5</ele>
        <time>2025-10-12T13:21:10.000Z</time>
      </trkpt>
      <trkpt lat="43.18494" lon="6.62942">
        <ele>53</ele>
        <time>2025-10-12T13:21:19.000Z</time>
      </trkpt>
      <trkpt lat="43.18503" lon="6.6294">
        <ele>53.2</ele>
        <time>2025-10-12T13:21:29.000Z</time>
      </trkpt>
      <trkpt lat="43.18512" lon="6.62937">
        <ele>53.3</ele>
        <time>2025-10-12T13:21:38.000Z</time>
      </trkpt>
      <trkpt lat="43.18521" lon="6.62937">
        <ele>53.5</ele>
        <time>2025-10-12T13:21:48.000Z</time>
      </trkpt>
      <trkpt lat="43.18531" lon="6.62933">
        <ele>53.7</ele>
        <time>2025-10-12T13:21:57.000Z</time>
      </trkpt>
      <trkpt lat="43.1854" lon="6.6293">
        <ele>53.9</ele>
        <time>2025-10-12T13:22:06.000Z</time>
      </trkpt>
      <trkpt lat="43.18548" lon="6.62923">
        <ele>54.1</ele>
        <time>2025-10-12T13:22:17.000Z</time>
      </trkpt>
      <trkpt lat="43.18556" lon="6.62917">
        <ele>54.5</ele>
        <time>2025-10-12T13:22:26.000Z</time>
      </trkpt>
      <trkpt lat="43.18566" lon="6.62918">
        <ele>55.4</ele>
        <time>2025-10-12T13:22:39.000Z</time>
      </trkpt>
      <trkpt lat="43.18575" lon="6.62919">
        <ele>56.1</ele>
        <time>2025-10-12T13:22:49.000Z</time>
      </trkpt>
      <trkpt lat="43.18584" lon="6.62917">
        <ele>56.7</ele>
        <time>2025-10-12T13:22:59.000Z</time>
      </trkpt>
      <trkpt lat="43.18593" lon="6.62919">
        <ele>57.5</ele>
        <time>2025-10-12T13:23:10.000Z</time>
      </trkpt>
      <trkpt lat="43.18603" lon="6.62917">
        <ele>58.1</ele>
        <time>2025-10-12T13:23:19.000Z</time>
      </trkpt>
      <trkpt lat="43.18612" lon="6.62912">
        <ele>58.5</ele>
        <time>2025-10-12T13:23:28.000Z</time>
      </trkpt>
      <trkpt lat="43.1862" lon="6.62906">
        <ele>58.8</ele>
        <time>2025-10-12T13:23:36.000Z</time>
      </trkpt>
      <trkpt lat="43.18628" lon="6.62899">
        <ele>59.1</ele>
        <time>2025-10-12T13:23:45.000Z</time>
      </trkpt>
      <trkpt lat="43.18634" lon="6.62889">
        <ele>59.5</ele>
        <time>2025-10-12T13:23:56.000Z</time>
      </trkpt>
      <trkpt lat="43.18642" lon="6.62882">
        <ele>60.8</ele>
        <time>2025-10-12T13:24:09.000Z</time>
      </trkpt>
      <trkpt lat="43.18651" lon="6.62881">
        <ele>61.6</ele>
        <time>2025-10-12T13:24:20.000Z</time>
      </trkpt>
      <trkpt lat="43.18661" lon="6.62881">
        <ele>62.1</ele>
        <time>2025-10-12T13:24:34.000Z</time>
      </trkpt>
      <trkpt lat="43.1867" lon="6.62878">
        <ele>62.8</ele>
        <time>2025-10-12T13:24:45.000Z</time>
      </trkpt>
      <trkpt lat="43.18674" lon="6.62877">
        <ele>63.3</ele>
        <time>2025-10-12T13:24:53.000Z</time>
      </trkpt>
      <trkpt lat="43.18674" lon="6.62877">
        <ele>63.4</ele>
        <time>2025-10-12T13:24:54.000Z</time>
      </trkpt>
      <trkpt lat="43.18675" lon="6.62877">
        <ele>63.4</ele>
        <time>2025-10-12T13:24:55.000Z</time>
      </trkpt>
      <trkpt lat="43.18676" lon="6.62877">
        <ele>63.5</ele>
        <time>2025-10-12T13:24:56.000Z</time>
      </trkpt>
      <trkpt lat="43.18684" lon="6.62871">
        <ele>63.9</ele>
        <time>2025-10-12T13:25:07.000Z</time>
      </trkpt>
      <trkpt lat="43.18686" lon="6.62868">
        <ele>64.2</ele>
        <time>2025-10-12T13:25:17.000Z</time>
      </trkpt>
      <trkpt lat="43.18686" lon="6.62868">
        <ele>64.2</ele>
        <time>2025-10-12T13:25:18.000Z</time>
      </trkpt>
      <trkpt lat="43.18686" lon="6.62868">
        <ele>64.2</ele>
        <time>2025-10-12T13:25:19.000Z</time>
      </trkpt>
      <trkpt lat="43.18686" lon="6.62868">
        <ele>64.4</ele>
        <time>2025-10-12T13:25:27.000Z</time>
      </trkpt>
      <trkpt lat="43.18687" lon="6.62868">
        <ele>64.4</ele>
        <time>2025-10-12T13:25:28.000Z</time>
      </trkpt>
      <trkpt lat="43.18687" lon="6.62868">
        <ele>64.4</ele>
        <time>2025-10-12T13:25:29.000Z</time>
      </trkpt>
      <trkpt lat="43.18687" lon="6.62868">
        <ele>64.4</ele>
        <time>2025-10-12T13:25:30.000Z</time>
      </trkpt>
      <trkpt lat="43.18687" lon="6.62868">
        <ele>64.4</ele>
        <time>2025-10-12T13:25:31.000Z</time>
      </trkpt>
      <trkpt lat="43.18687" lon="6.62868">
        <ele>64.5</ele>
        <time>2025-10-12T13:25:35.000Z</time>
      </trkpt>
      <trkpt lat="43.18687" lon="6.62868">
        <ele>64.5</ele>
        <time>2025-10-12T13:25:36.000Z</time>
      </trkpt>
      <trkpt lat="43.18687" lon="6.62868">
        <ele>64.5</ele>
        <time>2025-10-12T13:25:40.000Z</time>
      </trkpt>
      <trkpt lat="43.18687" lon="6.62868">
        <ele>64.5</ele>
        <time>2025-10-12T13:25:41.000Z</time>
      </trkpt>
      <trkpt lat="43.18687" lon="6.62868">
        <ele>64.5</ele>
        <time>2025-10-12T13:25:42.000Z</time>
      </trkpt>
      <trkpt lat="43.18687" lon="6.62868">
        <ele>64.5</ele>
        <time>2025-10-12T13:26:02.000Z</time>
      </trkpt>
      <trkpt lat="43.18687" lon="6.62869">
        <ele>64.5</ele>
        <time>2025-10-12T13:26:03.000Z</time>
      </trkpt>
      <trkpt lat="43.18687" lon="6.62869">
        <ele>64.5</ele>
        <time>2025-10-12T13:26:04.000Z</time>
      </trkpt>
      <trkpt lat="43.18687" lon="6.62868">
        <ele>64.5</ele>
        <time>2025-10-12T13:26:05.000Z</time>
      </trkpt>
      <trkpt lat="43.18687" lon="6.62868">
        <ele>64.5</ele>
        <time>2025-10-12T13:26:06.000Z</time>
      </trkpt>
      <trkpt lat="43.18687" lon="6.62868">
        <ele>64.5</ele>
        <time>2025-10-12T13:26:07.000Z</time>
      </trkpt>
      <trkpt lat="43.18687" lon="6.62869">
        <ele>64.6</ele>
        <time>2025-10-12T13:26:13.000Z</time>
      </trkpt>
      <trkpt lat="43.18687" lon="6.62869">
        <ele>64.6</ele>
        <time>2025-10-12T13:26:14.000Z</time>
      </trkpt>
      <trkpt lat="43.18687" lon="6.62869">
        <ele>64.6</ele>
        <time>2025-10-12T13:26:15.000Z</time>
      </trkpt>
      <trkpt lat="43.18687" lon="6.62869">
        <ele>64.5</ele>
        <time>2025-10-12T13:26:16.000Z</time>
      </trkpt>
      <trkpt lat="43.18687" lon="6.62869">
        <ele>64.6</ele>
        <time>2025-10-12T13:26:28.000Z</time>
      </trkpt>
      <trkpt lat="43.18687" lon="6.62869">
        <ele>64.6</ele>
        <time>2025-10-12T13:26:29.000Z</time>
      </trkpt>
      <trkpt lat="43.18687" lon="6.62869">
        <ele>64.6</ele>
        <time>2025-10-12T13:26:30.000Z</time>
      </trkpt>
      <trkpt lat="43.18687" lon="6.62869">
        <ele>64.6</ele>
        <time>2025-10-12T13:26:31.000Z</time>
      </trkpt>
      <trkpt lat="43.18687" lon="6.62869">
        <ele>64.6</ele>
        <time>2025-10-12T13:26:32.000Z</time>
      </trkpt>
      <trkpt lat="43.18687" lon="6.62869">
        <ele>64.6</ele>
        <time>2025-10-12T13:26:36.000Z</time>
      </trkpt>
      <trkpt lat="43.18687" lon="6.62869">
        <ele>64.6</ele>
        <time>2025-10-12T13:26:37.000Z</time>
      </trkpt>
      <trkpt lat="43.18687" lon="6.62869">
        <ele>64.6</ele>
        <time>2025-10-12T13:26:40.000Z</time>
      </trkpt>
      <trkpt lat="43.18687" lon="6.62869">
        <ele>64.6</ele>
        <time>2025-10-12T13:26:41.000Z</time>
      </trkpt>
      <trkpt lat="43.18687" lon="6.62869">
        <ele>64.6</ele>
        <time>2025-10-12T13:26:42.000Z</time>
      </trkpt>
      <trkpt lat="43.18687" lon="6.62869">
        <ele>64.6</ele>
        <time>2025-10-12T13:27:02.000Z</time>
      </trkpt>
      <trkpt lat="43.18687" lon="6.62869">
        <ele>64.6</ele>
        <time>2025-10-12T13:27:03.000Z</time>
      </trkpt>
      <trkpt lat="43.18687" lon="6.62869">
        <ele>64.6</ele>
        <time>2025-10-12T13:27:04.000Z</time>
      </trkpt>
      <trkpt lat="43.18687" lon="6.62869">
        <ele>64.6</ele>
        <time>2025-10-12T13:27:05.000Z</time>
      </trkpt>
      <trkpt lat="43.18687" lon="6.62869">
        <ele>64.6</ele>
        <time>2025-10-12T13:27:06.000Z</time>
      </trkpt>
      <trkpt lat="43.18687" lon="6.62869">
        <ele>64.6</ele>
        <time>2025-10-12T13:27:07.000Z</time>
      </trkpt>
      <trkpt lat="43.18687" lon="6.62869">
        <ele>64.6</ele>
        <time>2025-10-12T13:27:48.000Z</time>
      </trkpt>
      <trkpt lat="43.18687" lon="6.62869">
        <ele>64.6</ele>
        <time>2025-10-12T13:27:49.000Z</time>
      </trkpt>
      <trkpt lat="43.18687" lon="6.62869">
        <ele>64.6</ele>
        <time>2025-10-12T13:27:50.000Z</time>
      </trkpt>
      <trkpt lat="43.18687" lon="6.62869">
        <ele>64.6</ele>
        <time>2025-10-12T13:27:51.000Z</time>
      </trkpt>
      <trkpt lat="43.18687" lon="6.6287">
        <ele>64.6</ele>
        <time>2025-10-12T13:28:15.000Z</time>
      </trkpt>
      <trkpt lat="43.18687" lon="6.6287">
        <ele>64.6</ele>
        <time>2025-10-12T13:28:16.000Z</time>
      </trkpt>
      <trkpt lat="43.18687" lon="6.6287">
        <ele>64.6</ele>
        <time>2025-10-12T13:28:17.000Z</time>
      </trkpt>
      <trkpt lat="43.18687" lon="6.6287">
        <ele>64.6</ele>
        <time>2025-10-12T13:28:18.000Z</time>
      </trkpt>
      <trkpt lat="43.18687" lon="6.6287">
        <ele>64.6</ele>
        <time>2025-10-12T13:28:19.000Z</time>
      </trkpt>
      <trkpt lat="43.18687" lon="6.62869">
        <ele>64.6</ele>
        <time>2025-10-12T13:28:25.000Z</time>
      </trkpt>
      <trkpt lat="43.18687" lon="6.6287">
        <ele>64.6</ele>
        <time>2025-10-12T13:28:26.000Z</time>
      </trkpt>
      <trkpt lat="43.18687" lon="6.6287">
        <ele>64.6</ele>
        <time>2025-10-12T13:28:32.000Z</time>
      </trkpt>
      <trkpt lat="43.18687" lon="6.6287">
        <ele>64.6</ele>
        <time>2025-10-12T13:28:33.000Z</time>
      </trkpt>
      <trkpt lat="43.18687" lon="6.6287">
        <ele>64.6</ele>
        <time>2025-10-12T13:28:34.000Z</time>
      </trkpt>
      <trkpt lat="43.18687" lon="6.62869">
        <ele>64.6</ele>
        <time>2025-10-12T13:28:53.000Z</time>
      </trkpt>
      <trkpt lat="43.18688" lon="6.62869">
        <ele>64.6</ele>
        <time>2025-10-12T13:28:54.000Z</time>
      </trkpt>
      <trkpt lat="43.18688" lon="6.6287">
        <ele>64.6</ele>
        <time>2025-10-12T13:29:00.000Z</time>
      </trkpt>
      <trkpt lat="43.18688" lon="6.6287">
        <ele>64.6</ele>
        <time>2025-10-12T13:29:01.000Z</time>
      </trkpt>
      <trkpt lat="43.18688" lon="6.62869">
        <ele>64.6</ele>
        <time>2025-10-12T13:29:07.000Z</time>
      </trkpt>
      <trkpt lat="43.18688" lon="6.62869">
        <ele>64.6</ele>
        <time>2025-10-12T13:29:08.000Z</time>
      </trkpt>
      <trkpt lat="43.18688" lon="6.62869">
        <ele>64.6</ele>
        <time>2025-10-12T13:29:09.000Z</time>
      </trkpt>
      <trkpt lat="43.18688" lon="6.62869">
        <ele>64.6</ele>
        <time>2025-10-12T13:29:12.000Z</time>
      </trkpt>
      <trkpt lat="43.18688" lon="6.62869">
        <ele>64.6</ele>
        <time>2025-10-12T13:29:13.000Z</time>
      </trkpt>
      <trkpt lat="43.18688" lon="6.62869">
        <ele>64.6</ele>
        <time>2025-10-12T13:29:14.000Z</time>
      </trkpt>
      <trkpt lat="43.18688" lon="6.62869">
        <ele>64.6</ele>
        <time>2025-10-12T13:29:17.000Z</time>
      </trkpt>
      <trkpt lat="43.18688" lon="6.62869">
        <ele>64.6</ele>
        <time>2025-10-12T13:29:18.000Z</time>
      </trkpt>
      <trkpt lat="43.18688" lon="6.62869">
        <ele>64.6</ele>
        <time>2025-10-12T13:29:19.000Z</time>
      </trkpt>
      <trkpt lat="43.18688" lon="6.62869">
        <ele>64.6</ele>
        <time>2025-10-12T13:29:22.000Z</time>
      </trkpt>
      <trkpt lat="43.18688" lon="6.62869">
        <ele>64.6</ele>
        <time>2025-10-12T13:29:23.000Z</time>
      </trkpt>
      <trkpt lat="43.18688" lon="6.62869">
        <ele>64.6</ele>
        <time>2025-10-12T13:29:24.000Z</time>
      </trkpt>
      <trkpt lat="43.18688" lon="6.62869">
        <ele>64.6</ele>
        <time>2025-10-12T13:29:32.000Z</time>
      </trkpt>
      <trkpt lat="43.18688" lon="6.62869">
        <ele>64.6</ele>
        <time>2025-10-12T13:29:33.000Z</time>
      </trkpt>
      <trkpt lat="43.18688" lon="6.62869">
        <ele>64.6</ele>
        <time>2025-10-12T13:29:34.000Z</time>
      </trkpt>
      <trkpt lat="43.18688" lon="6.62869">
        <ele>64.6</ele>
        <time>2025-10-12T13:29:41.000Z</time>
      </trkpt>
      <trkpt lat="43.18688" lon="6.62869">
        <ele>64.6</ele>
        <time>2025-10-12T13:29:42.000Z</time>
      </trkpt>
      <trkpt lat="43.18688" lon="6.62869">
        <ele>64.6</ele>
        <time>2025-10-12T13:29:46.000Z</time>
      </trkpt>
      <trkpt lat="43.18689" lon="6.62869">
        <ele>64.6</ele>
        <time>2025-10-12T13:29:47.000Z</time>
      </trkpt>
      <trkpt lat="43.18696" lon="6.62861">
        <ele>64.7</ele>
        <time>2025-10-12T13:30:00.000Z</time>
      </trkpt>
      <trkpt lat="43.18703" lon="6.62852">
        <ele>64.9</ele>
        <time>2025-10-12T13:30:14.000Z</time>
      </trkpt>
      <trkpt lat="43.18711" lon="6.62847">
        <ele>65.5</ele>
        <time>2025-10-12T13:30:28.000Z</time>
      </trkpt>
      <trkpt lat="43.18721" lon="6.62843">
        <ele>66.4</ele>
        <time>2025-10-12T13:30:45.000Z</time>
      </trkpt>
      <trkpt lat="43.1873" lon="6.62848">
        <ele>67.3</ele>
        <time>2025-10-12T13:31:03.000Z</time>
      </trkpt>
      <trkpt lat="43.18735" lon="6.62858">
        <ele>67.9</ele>
        <time>2025-10-12T13:31:18.000Z</time>
      </trkpt>
      <trkpt lat="43.18743" lon="6.62865">
        <ele>68.8</ele>
        <time>2025-10-12T13:31:31.000Z</time>
      </trkpt>
      <trkpt lat="43.18753" lon="6.62865">
        <ele>69.7</ele>
        <time>2025-10-12T13:31:42.000Z</time>
      </trkpt>
      <trkpt lat="43.18763" lon="6.62865">
        <ele>70.2</ele>
        <time>2025-10-12T13:31:51.000Z</time>
      </trkpt>
      <trkpt lat="43.18772" lon="6.62862">
        <ele>70.9</ele>
        <time>2025-10-12T13:32:01.000Z</time>
      </trkpt>
      <trkpt lat="43.18781" lon="6.62859">
        <ele>71.7</ele>
        <time>2025-10-12T13:32:13.000Z</time>
      </trkpt>
      <trkpt lat="43.18788" lon="6.62857">
        <ele>72.3</ele>
        <time>2025-10-12T13:32:22.000Z</time>
      </trkpt>
      <trkpt lat="43.18788" lon="6.62857">
        <ele>72.3</ele>
        <time>2025-10-12T13:32:23.000Z</time>
      </trkpt>
      <trkpt lat="43.18788" lon="6.62857">
        <ele>72.3</ele>
        <time>2025-10-12T13:32:24.000Z</time>
      </trkpt>
      <trkpt lat="43.18789" lon="6.62857">
        <ele>72.4</ele>
        <time>2025-10-12T13:32:25.000Z</time>
      </trkpt>
      <trkpt lat="43.18789" lon="6.62857">
        <ele>72.4</ele>
        <time>2025-10-12T13:32:26.000Z</time>
      </trkpt>
      <trkpt lat="43.18789" lon="6.62857">
        <ele>72.4</ele>
        <time>2025-10-12T13:32:27.000Z</time>
      </trkpt>
      <trkpt lat="43.18789" lon="6.62857">
        <ele>72.4</ele>
        <time>2025-10-12T13:32:28.000Z</time>
      </trkpt>
      <trkpt lat="43.18789" lon="6.62856">
        <ele>72.4</ele>
        <time>2025-10-12T13:32:29.000Z</time>
      </trkpt>
      <trkpt lat="43.1879" lon="6.62856">
        <ele>72.5</ele>
        <time>2025-10-12T13:32:30.000Z</time>
      </trkpt>
      <trkpt lat="43.1879" lon="6.62856">
        <ele>72.5</ele>
        <time>2025-10-12T13:32:31.000Z</time>
      </trkpt>
      <trkpt lat="43.18799" lon="6.62851">
        <ele>72.7</ele>
        <time>2025-10-12T13:32:42.000Z</time>
      </trkpt>
      <trkpt lat="43.18809" lon="6.62849">
        <ele>73.8</ele>
        <time>2025-10-12T13:32:56.000Z</time>
      </trkpt>
      <trkpt lat="43.18818" lon="6.62846">
        <ele>75.4</ele>
        <time>2025-10-12T13:33:08.000Z</time>
      </trkpt>
      <trkpt lat="43.18827" lon="6.6284">
        <ele>76.1</ele>
        <time>2025-10-12T13:33:18.000Z</time>
      </trkpt>
      <trkpt lat="43.18836" lon="6.62835">
        <ele>76.2</ele>
        <time>2025-10-12T13:33:27.000Z</time>
      </trkpt>
      <trkpt lat="43.18845" lon="6.6283">
        <ele>76.3</ele>
        <time>2025-10-12T13:33:35.000Z</time>
      </trkpt>
      <trkpt lat="43.18853" lon="6.62824">
        <ele>76.5</ele>
        <time>2025-10-12T13:33:43.000Z</time>
      </trkpt>
      <trkpt lat="43.1886" lon="6.62815">
        <ele>76.8</ele>
        <time>2025-10-12T13:33:53.000Z</time>
      </trkpt>
      <trkpt lat="43.18867" lon="6.62807">
        <ele>77</ele>
        <time>2025-10-12T13:34:01.000Z</time>
      </trkpt>
      <trkpt lat="43.18873" lon="6.62796">
        <ele>77.2</ele>
        <time>2025-10-12T13:34:10.000Z</time>
      </trkpt>
      <trkpt lat="43.18877" lon="6.62785">
        <ele>77.7</ele>
        <time>2025-10-12T13:34:21.000Z</time>
      </trkpt>
      <trkpt lat="43.18885" lon="6.62777">
        <ele>78.2</ele>
        <time>2025-10-12T13:34:32.000Z</time>
      </trkpt>
      <trkpt lat="43.18893" lon="6.6277">
        <ele>78.4</ele>
        <time>2025-10-12T13:34:43.000Z</time>
      </trkpt>
      <trkpt lat="43.18902" lon="6.62764">
        <ele>78.6</ele>
        <time>2025-10-12T13:34:52.000Z</time>
      </trkpt>
      <trkpt lat="43.18909" lon="6.62755">
        <ele>79.1</ele>
        <time>2025-10-12T13:35:02.000Z</time>
      </trkpt>
      <trkpt lat="43.18917" lon="6.62748">
        <ele>79.9</ele>
        <time>2025-10-12T13:35:11.000Z</time>
      </trkpt>
      <trkpt lat="43.18925" lon="6.62743">
        <ele>80.4</ele>
        <time>2025-10-12T13:35:20.000Z</time>
      </trkpt>
      <trkpt lat="43.18934" lon="6.62735">
        <ele>80.4</ele>
        <time>2025-10-12T13:35:30.000Z</time>
      </trkpt>
      <trkpt lat="43.18939" lon="6.62725">
        <ele>80.3</ele>
        <time>2025-10-12T13:35:39.000Z</time>
      </trkpt>
      <trkpt lat="43.18947" lon="6.62719">
        <ele>80.1</ele>
        <time>2025-10-12T13:35:53.000Z</time>
      </trkpt>
      <trkpt lat="43.18955" lon="6.62726">
        <ele>80.7</ele>
        <time>2025-10-12T13:36:08.000Z</time>
      </trkpt>
      <trkpt lat="43.18964" lon="6.62729">
        <ele>82.3</ele>
        <time>2025-10-12T13:36:21.000Z</time>
      </trkpt>
      <trkpt lat="43.18973" lon="6.6273">
        <ele>83.8</ele>
        <time>2025-10-12T13:36:34.000Z</time>
      </trkpt>
      <trkpt lat="43.18982" lon="6.62732">
        <ele>85.3</ele>
        <time>2025-10-12T13:36:47.000Z</time>
      </trkpt>
      <trkpt lat="43.18991" lon="6.62726">
        <ele>86.8</ele>
        <time>2025-10-12T13:37:02.000Z</time>
      </trkpt>
      <trkpt lat="43.18989" lon="6.62714">
        <ele>88.5</ele>
        <time>2025-10-12T13:37:18.000Z</time>
      </trkpt>
      <trkpt lat="43.18985" lon="6.62703">
        <ele>89.9</ele>
        <time>2025-10-12T13:37:33.000Z</time>
      </trkpt>
      <trkpt lat="43.18982" lon="6.6269">
        <ele>91.4</ele>
        <time>2025-10-12T13:37:48.000Z</time>
      </trkpt>
      <trkpt lat="43.18985" lon="6.62678">
        <ele>92.3</ele>
        <time>2025-10-12T13:38:00.000Z</time>
      </trkpt>
      <trkpt lat="43.18989" lon="6.62666">
        <ele>93.2</ele>
        <time>2025-10-12T13:38:15.000Z</time>
      </trkpt>
      <trkpt lat="43.18994" lon="6.62656">
        <ele>95</ele>
        <time>2025-10-12T13:38:31.000Z</time>
      </trkpt>
      <trkpt lat="43.18998" lon="6.62651">
        <ele>96.2</ele>
        <time>2025-10-12T13:38:42.000Z</time>
      </trkpt>
      <trkpt lat="43.18998" lon="6.62651">
        <ele>96.3</ele>
        <time>2025-10-12T13:38:43.000Z</time>
      </trkpt>
      <trkpt lat="43.18998" lon="6.62651">
        <ele>96.4</ele>
        <time>2025-10-12T13:38:44.000Z</time>
      </trkpt>
      <trkpt lat="43.18998" lon="6.6265">
        <ele>97.1</ele>
        <time>2025-10-12T13:39:33.000Z</time>
      </trkpt>
      <trkpt lat="43.18998" lon="6.6265">
        <ele>97.1</ele>
        <time>2025-10-12T13:39:34.000Z</time>
      </trkpt>
      <trkpt lat="43.18998" lon="6.6265">
        <ele>97.1</ele>
        <time>2025-10-12T13:39:35.000Z</time>
      </trkpt>
      <trkpt lat="43.18998" lon="6.6265">
        <ele>97.1</ele>
        <time>2025-10-12T13:39:36.000Z</time>
      </trkpt>
      <trkpt lat="43.18998" lon="6.6265">
        <ele>97.1</ele>
        <time>2025-10-12T13:39:37.000Z</time>
      </trkpt>
      <trkpt lat="43.18997" lon="6.62649">
        <ele>97.1</ele>
        <time>2025-10-12T13:39:53.000Z</time>
      </trkpt>
      <trkpt lat="43.18997" lon="6.62649">
        <ele>97.1</ele>
        <time>2025-10-12T13:39:54.000Z</time>
      </trkpt>
      <trkpt lat="43.18997" lon="6.62649">
        <ele>97.1</ele>
        <time>2025-10-12T13:39:55.000Z</time>
      </trkpt>
      <trkpt lat="43.18997" lon="6.62649">
        <ele>97.1</ele>
        <time>2025-10-12T13:39:56.000Z</time>
      </trkpt>
      <trkpt lat="43.18997" lon="6.62649">
        <ele>97.1</ele>
        <time>2025-10-12T13:39:57.000Z</time>
      </trkpt>
      <trkpt lat="43.18997" lon="6.62649">
        <ele>97.1</ele>
        <time>2025-10-12T13:40:13.000Z</time>
      </trkpt>
      <trkpt lat="43.18997" lon="6.62649">
        <ele>97.1</ele>
        <time>2025-10-12T13:40:14.000Z</time>
      </trkpt>
      <trkpt lat="43.18999" lon="6.62636">
        <ele>97.2</ele>
        <time>2025-10-12T13:40:25.000Z</time>
      </trkpt>
      <trkpt lat="43.18997" lon="6.62623">
        <ele>97.8</ele>
        <time>2025-10-12T13:40:35.000Z</time>
      </trkpt>
      <trkpt lat="43.19003" lon="6.62612">
        <ele>99.6</ele>
        <time>2025-10-12T13:40:48.000Z</time>
      </trkpt>
      <trkpt lat="43.19009" lon="6.62621">
        <ele>102.6</ele>
        <time>2025-10-12T13:41:13.000Z</time>
      </trkpt>
      <trkpt lat="43.19015" lon="6.62632">
        <ele>104.2</ele>
        <time>2025-10-12T13:41:25.000Z</time>
      </trkpt>
      <trkpt lat="43.19024" lon="6.62636">
        <ele>105.3</ele>
        <time>2025-10-12T13:41:36.000Z</time>
      </trkpt>
      <trkpt lat="43.19033" lon="6.62638">
        <ele>107</ele>
        <time>2025-10-12T13:41:51.000Z</time>
      </trkpt>
      <trkpt lat="43.19043" lon="6.62638">
        <ele>107.9</ele>
        <time>2025-10-12T13:42:02.000Z</time>
      </trkpt>
      <trkpt lat="43.19052" lon="6.62639">
        <ele>108.9</ele>
        <time>2025-10-12T13:42:14.000Z</time>
      </trkpt>
      <trkpt lat="43.19061" lon="6.62636">
        <ele>110.4</ele>
        <time>2025-10-12T13:42:27.000Z</time>
      </trkpt>
      <trkpt lat="43.1907" lon="6.62634">
        <ele>111.5</ele>
        <time>2025-10-12T13:42:39.000Z</time>
      </trkpt>
      <trkpt lat="43.1907" lon="6.62632">
        <ele>111.8</ele>
        <time>2025-10-12T13:42:46.000Z</time>
      </trkpt>
      <trkpt lat="43.1907" lon="6.62632">
        <ele>111.8</ele>
        <time>2025-10-12T13:42:47.000Z</time>
      </trkpt>
      <trkpt lat="43.19069" lon="6.62635">
        <ele>112.3</ele>
        <time>2025-10-12T13:43:52.000Z</time>
      </trkpt>
      <trkpt lat="43.19069" lon="6.62635">
        <ele>112.3</ele>
        <time>2025-10-12T13:43:53.000Z</time>
      </trkpt>
      <trkpt lat="43.19069" lon="6.62635">
        <ele>112.3</ele>
        <time>2025-10-12T13:43:54.000Z</time>
      </trkpt>
      <trkpt lat="43.19069" lon="6.62634">
        <ele>112.3</ele>
        <time>2025-10-12T13:43:55.000Z</time>
      </trkpt>
      <trkpt lat="43.19069" lon="6.62634">
        <ele>112.4</ele>
        <time>2025-10-12T13:43:56.000Z</time>
      </trkpt>
      <trkpt lat="43.19066" lon="6.62633">
        <ele>112.4</ele>
        <time>2025-10-12T13:44:13.000Z</time>
      </trkpt>
      <trkpt lat="43.19066" lon="6.62633">
        <ele>112.4</ele>
        <time>2025-10-12T13:44:14.000Z</time>
      </trkpt>
      <trkpt lat="43.19074" lon="6.62631">
        <ele>112.7</ele>
        <time>2025-10-12T13:44:30.000Z</time>
      </trkpt>
      <trkpt lat="43.19074" lon="6.62631">
        <ele>112.7</ele>
        <time>2025-10-12T13:44:31.000Z</time>
      </trkpt>
      <trkpt lat="43.19074" lon="6.62631">
        <ele>112.7</ele>
        <time>2025-10-12T13:44:35.000Z</time>
      </trkpt>
      <trkpt lat="43.19074" lon="6.62631">
        <ele>112.7</ele>
        <time>2025-10-12T13:44:36.000Z</time>
      </trkpt>
      <trkpt lat="43.19073" lon="6.6263">
        <ele>112.7</ele>
        <time>2025-10-12T13:44:37.000Z</time>
      </trkpt>
      <trkpt lat="43.19076" lon="6.62627">
        <ele>112.8</ele>
        <time>2025-10-12T13:44:43.000Z</time>
      </trkpt>
      <trkpt lat="43.19076" lon="6.62627">
        <ele>112.8</ele>
        <time>2025-10-12T13:44:44.000Z</time>
      </trkpt>
      <trkpt lat="43.19076" lon="6.62627">
        <ele>112.8</ele>
        <time>2025-10-12T13:44:52.000Z</time>
      </trkpt>
      <trkpt lat="43.19076" lon="6.62627">
        <ele>112.8</ele>
        <time>2025-10-12T13:44:53.000Z</time>
      </trkpt>
      <trkpt lat="43.19076" lon="6.62627">
        <ele>112.8</ele>
        <time>2025-10-12T13:44:54.000Z</time>
      </trkpt>
      <trkpt lat="43.19076" lon="6.62627">
        <ele>112.8</ele>
        <time>2025-10-12T13:44:55.000Z</time>
      </trkpt>
      <trkpt lat="43.19076" lon="6.62627">
        <ele>112.8</ele>
        <time>2025-10-12T13:44:56.000Z</time>
      </trkpt>
      <trkpt lat="43.19076" lon="6.62627">
        <ele>112.8</ele>
        <time>2025-10-12T13:44:57.000Z</time>
      </trkpt>
      <trkpt lat="43.19076" lon="6.62627">
        <ele>112.8</ele>
        <time>2025-10-12T13:45:05.000Z</time>
      </trkpt>
      <trkpt lat="43.19075" lon="6.62627">
        <ele>112.8</ele>
        <time>2025-10-12T13:45:06.000Z</time>
      </trkpt>
      <trkpt lat="43.19075" lon="6.62627">
        <ele>112.8</ele>
        <time>2025-10-12T13:45:07.000Z</time>
      </trkpt>
      <trkpt lat="43.19076" lon="6.62627">
        <ele>112.8</ele>
        <time>2025-10-12T13:45:08.000Z</time>
      </trkpt>
      <trkpt lat="43.19076" lon="6.62627">
        <ele>112.9</ele>
        <time>2025-10-12T13:45:09.000Z</time>
      </trkpt>
      <trkpt lat="43.19076" lon="6.62628">
        <ele>112.9</ele>
        <time>2025-10-12T13:45:15.000Z</time>
      </trkpt>
      <trkpt lat="43.19076" lon="6.62629">
        <ele>112.9</ele>
        <time>2025-10-12T13:45:16.000Z</time>
      </trkpt>
      <trkpt lat="43.19076" lon="6.62629">
        <ele>112.9</ele>
        <time>2025-10-12T13:45:17.000Z</time>
      </trkpt>
      <trkpt lat="43.19076" lon="6.62629">
        <ele>112.9</ele>
        <time>2025-10-12T13:45:18.000Z</time>
      </trkpt>
      <trkpt lat="43.19076" lon="6.62629">
        <ele>112.9</ele>
        <time>2025-10-12T13:45:19.000Z</time>
      </trkpt>
      <trkpt lat="43.19075" lon="6.62628">
        <ele>112.9</ele>
        <time>2025-10-12T13:45:31.000Z</time>
      </trkpt>
      <trkpt lat="43.19075" lon="6.62628">
        <ele>112.9</ele>
        <time>2025-10-12T13:45:32.000Z</time>
      </trkpt>
      <trkpt lat="43.19084" lon="6.62627">
        <ele>112.9</ele>
        <time>2025-10-12T13:45:41.000Z</time>
      </trkpt>
      <trkpt lat="43.19092" lon="6.62622">
        <ele>112.9</ele>
        <time>2025-10-12T13:45:50.000Z</time>
      </trkpt>
      <trkpt lat="43.191" lon="6.62615">
        <ele>113</ele>
        <time>2025-10-12T13:45:59.000Z</time>
      </trkpt>
      <trkpt lat="43.19107" lon="6.62605">
        <ele>113.1</ele>
        <time>2025-10-12T13:46:09.000Z</time>
      </trkpt>
      <trkpt lat="43.19113" lon="6.62596">
        <ele>113.4</ele>
        <time>2025-10-12T13:46:20.000Z</time>
      </trkpt>
      <trkpt lat="43.1912" lon="6.62588">
        <ele>113.8</ele>
        <time>2025-10-12T13:46:28.000Z</time>
      </trkpt>
      <trkpt lat="43.19126" lon="6.62579">
        <ele>114.2</ele>
        <time>2025-10-12T13:46:37.000Z</time>
      </trkpt>
      <trkpt lat="43.19133" lon="6.6257">
        <ele>114.7</ele>
        <time>2025-10-12T13:46:47.000Z</time>
      </trkpt>
      <trkpt lat="43.19139" lon="6.6256">
        <ele>115.2</ele>
        <time>2025-10-12T13:46:56.000Z</time>
      </trkpt>
      <trkpt lat="43.19144" lon="6.62549">
        <ele>115.8</ele>
        <time>2025-10-12T13:47:06.000Z</time>
      </trkpt>
      <trkpt lat="43.19149" lon="6.62539">
        <ele>116.3</ele>
        <time>2025-10-12T13:47:16.000Z</time>
      </trkpt>
      <trkpt lat="43.19156" lon="6.6253">
        <ele>116.9</ele>
        <time>2025-10-12T13:47:26.000Z</time>
      </trkpt>
      <trkpt lat="43.19163" lon="6.62521">
        <ele>117.5</ele>
        <time>2025-10-12T13:47:34.000Z</time>
      </trkpt>
      <trkpt lat="43.19172" lon="6.62515">
        <ele>118.5</ele>
        <time>2025-10-12T13:47:47.000Z</time>
      </trkpt>
      <trkpt lat="43.19181" lon="6.62514">
        <ele>119.3</ele>
        <time>2025-10-12T13:47:56.000Z</time>
      </trkpt>
      <trkpt lat="43.1919" lon="6.62511">
        <ele>121.1</ele>
        <time>2025-10-12T13:48:12.000Z</time>
      </trkpt>
      <trkpt lat="43.19199" lon="6.62506">
        <ele>123</ele>
        <time>2025-10-12T13:48:28.000Z</time>
      </trkpt>
      <trkpt lat="43.19209" lon="6.62503">
        <ele>123.9</ele>
        <time>2025-10-12T13:48:39.000Z</time>
      </trkpt>
      <trkpt lat="43.19216" lon="6.62497">
        <ele>124.7</ele>
        <time>2025-10-12T13:48:54.000Z</time>
      </trkpt>
      <trkpt lat="43.19216" lon="6.62496">
        <ele>124.7</ele>
        <time>2025-10-12T13:48:56.000Z</time>
      </trkpt>
      <trkpt lat="43.19217" lon="6.62496">
        <ele>124.7</ele>
        <time>2025-10-12T13:48:57.000Z</time>
      </trkpt>
      <trkpt lat="43.1922" lon="6.62496">
        <ele>124.9</ele>
        <time>2025-10-12T13:49:05.000Z</time>
      </trkpt>
      <trkpt lat="43.1922" lon="6.62496">
        <ele>124.9</ele>
        <time>2025-10-12T13:49:06.000Z</time>
      </trkpt>
      <trkpt lat="43.1922" lon="6.62495">
        <ele>124.9</ele>
        <time>2025-10-12T13:49:07.000Z</time>
      </trkpt>
      <trkpt lat="43.19219" lon="6.62492">
        <ele>124.9</ele>
        <time>2025-10-12T13:49:12.000Z</time>
      </trkpt>
      <trkpt lat="43.19219" lon="6.62492">
        <ele>124.9</ele>
        <time>2025-10-12T13:49:13.000Z</time>
      </trkpt>
      <trkpt lat="43.19219" lon="6.62492">
        <ele>124.9</ele>
        <time>2025-10-12T13:49:14.000Z</time>
      </trkpt>
      <trkpt lat="43.19219" lon="6.6249">
        <ele>125</ele>
        <time>2025-10-12T13:49:18.000Z</time>
      </trkpt>
      <trkpt lat="43.19219" lon="6.62489">
        <ele>125</ele>
        <time>2025-10-12T13:49:19.000Z</time>
      </trkpt>
      <trkpt lat="43.19218" lon="6.62489">
        <ele>125</ele>
        <time>2025-10-12T13:49:20.000Z</time>
      </trkpt>
      <trkpt lat="43.19209" lon="6.62486">
        <ele>125.3</ele>
        <time>2025-10-12T13:49:31.000Z</time>
      </trkpt>
      <trkpt lat="43.192" lon="6.62481">
        <ele>126.2</ele>
        <time>2025-10-12T13:49:41.000Z</time>
      </trkpt>
      <trkpt lat="43.19197" lon="6.62469">
        <ele>127.3</ele>
        <time>2025-10-12T13:49:55.000Z</time>
      </trkpt>
      <trkpt lat="43.192" lon="6.62457">
        <ele>128.2</ele>
        <time>2025-10-12T13:50:07.000Z</time>
      </trkpt>
      <trkpt lat="43.19196" lon="6.62445">
        <ele>129.2</ele>
        <time>2025-10-12T13:50:16.000Z</time>
      </trkpt>
      <trkpt lat="43.19189" lon="6.62435">
        <ele>130.6</ele>
        <time>2025-10-12T13:50:27.000Z</time>
      </trkpt>
      <trkpt lat="43.19182" lon="6.62425">
        <ele>132</ele>
        <time>2025-10-12T13:50:39.000Z</time>
      </trkpt>
      <trkpt lat="43.19174" lon="6.6242">
        <ele>133.5</ele>
        <time>2025-10-12T13:50:51.000Z</time>
      </trkpt>
      <trkpt lat="43.19166" lon="6.62414">
        <ele>134.6</ele>
        <time>2025-10-12T13:51:02.000Z</time>
      </trkpt>
      <trkpt lat="43.1916" lon="6.62406">
        <ele>136.5</ele>
        <time>2025-10-12T13:51:23.000Z</time>
      </trkpt>
      <trkpt lat="43.19159" lon="6.62406">
        <ele>136.5</ele>
        <time>2025-10-12T13:51:24.000Z</time>
      </trkpt>
      <trkpt lat="43.19159" lon="6.62406">
        <ele>136.5</ele>
        <time>2025-10-12T13:51:25.000Z</time>
      </trkpt>
      <trkpt lat="43.19158" lon="6.62405">
        <ele>136.5</ele>
        <time>2025-10-12T13:51:26.000Z</time>
      </trkpt>
      <trkpt lat="43.19158" lon="6.62404">
        <ele>136.6</ele>
        <time>2025-10-12T13:51:27.000Z</time>
      </trkpt>
      <trkpt lat="43.19148" lon="6.62403">
        <ele>137.5</ele>
        <time>2025-10-12T13:51:46.000Z</time>
      </trkpt>
      <trkpt lat="43.1914" lon="6.62408">
        <ele>138.8</ele>
        <time>2025-10-12T13:51:58.000Z</time>
      </trkpt>
      <trkpt lat="43.19131" lon="6.62412">
        <ele>139.8</ele>
        <time>2025-10-12T13:52:08.000Z</time>
      </trkpt>
      <trkpt lat="43.19122" lon="6.62414">
        <ele>141.3</ele>
        <time>2025-10-12T13:52:20.000Z</time>
      </trkpt>
      <trkpt lat="43.19112" lon="6.62417">
        <ele>142.4</ele>
        <time>2025-10-12T13:52:30.000Z</time>
      </trkpt>
      <trkpt lat="43.19106" lon="6.62423">
        <ele>143.4</ele>
        <time>2025-10-12T13:52:46.000Z</time>
      </trkpt>
      <trkpt lat="43.19106" lon="6.62423">
        <ele>143.4</ele>
        <time>2025-10-12T13:52:47.000Z</time>
      </trkpt>
      <trkpt lat="43.19105" lon="6.62424">
        <ele>143.6</ele>
        <time>2025-10-12T13:52:53.000Z</time>
      </trkpt>
      <trkpt lat="43.19104" lon="6.62424">
        <ele>143.7</ele>
        <time>2025-10-12T13:52:54.000Z</time>
      </trkpt>
      <trkpt lat="43.19095" lon="6.62426">
        <ele>144.7</ele>
        <time>2025-10-12T13:53:08.000Z</time>
      </trkpt>
      <trkpt lat="43.19085" lon="6.62428">
        <ele>145.9</ele>
        <time>2025-10-12T13:53:19.000Z</time>
      </trkpt>
      <trkpt lat="43.19076" lon="6.62429">
        <ele>147.8</ele>
        <time>2025-10-12T13:53:35.000Z</time>
      </trkpt>
      <trkpt lat="43.19067" lon="6.62425">
        <ele>150.7</ele>
        <time>2025-10-12T13:53:58.000Z</time>
      </trkpt>
      <trkpt lat="43.19065" lon="6.62427">
        <ele>151</ele>
        <time>2025-10-12T13:54:02.000Z</time>
      </trkpt>
      <trkpt lat="43.19065" lon="6.62427">
        <ele>151</ele>
        <time>2025-10-12T13:54:03.000Z</time>
      </trkpt>
      <trkpt lat="43.19065" lon="6.62427">
        <ele>151.1</ele>
        <time>2025-10-12T13:54:04.000Z</time>
      </trkpt>
      <trkpt lat="43.19065" lon="6.62427">
        <ele>151.3</ele>
        <time>2025-10-12T13:54:15.000Z</time>
      </trkpt>
      <trkpt lat="43.19064" lon="6.62427">
        <ele>151.3</ele>
        <time>2025-10-12T13:54:16.000Z</time>
      </trkpt>
      <trkpt lat="43.19063" lon="6.62427">
        <ele>151.3</ele>
        <time>2025-10-12T13:54:17.000Z</time>
      </trkpt>
      <trkpt lat="43.19055" lon="6.62423">
        <ele>152</ele>
        <time>2025-10-12T13:54:29.000Z</time>
      </trkpt>
      <trkpt lat="43.19046" lon="6.6242">
        <ele>154.1</ele>
        <time>2025-10-12T13:54:44.000Z</time>
      </trkpt>
      <trkpt lat="43.19036" lon="6.62418">
        <ele>155.9</ele>
        <time>2025-10-12T13:54:59.000Z</time>
      </trkpt>
      <trkpt lat="43.19036" lon="6.62417">
        <ele>156.3</ele>
        <time>2025-10-12T13:55:03.000Z</time>
      </trkpt>
      <trkpt lat="43.19035" lon="6.62417">
        <ele>156.3</ele>
        <time>2025-10-12T13:55:04.000Z</time>
      </trkpt>
      <trkpt lat="43.19035" lon="6.62417">
        <ele>156.4</ele>
        <time>2025-10-12T13:55:05.000Z</time>
      </trkpt>
      <trkpt lat="43.19035" lon="6.62417">
        <ele>156.5</ele>
        <time>2025-10-12T13:55:06.000Z</time>
      </trkpt>
      <trkpt lat="43.19034" lon="6.62416">
        <ele>156.6</ele>
        <time>2025-10-12T13:55:07.000Z</time>
      </trkpt>
      <trkpt lat="43.19028" lon="6.62407">
        <ele>157.7</ele>
        <time>2025-10-12T13:55:18.000Z</time>
      </trkpt>
      <trkpt lat="43.19019" lon="6.62405">
        <ele>159.2</ele>
        <time>2025-10-12T13:55:30.000Z</time>
      </trkpt>
      <trkpt lat="43.19009" lon="6.62401">
        <ele>159.9</ele>
        <time>2025-10-12T13:55:41.000Z</time>
      </trkpt>
      <trkpt lat="43.19001" lon="6.62392">
        <ele>161</ele>
        <time>2025-10-12T13:55:53.000Z</time>
      </trkpt>
      <trkpt lat="43.18993" lon="6.62388">
        <ele>162.4</ele>
        <time>2025-10-12T13:56:03.000Z</time>
      </trkpt>
      <trkpt lat="43.18985" lon="6.6238">
        <ele>163.1</ele>
        <time>2025-10-12T13:56:14.000Z</time>
      </trkpt>
      <trkpt lat="43.18978" lon="6.62371">
        <ele>163</ele>
        <time>2025-10-12T13:56:25.000Z</time>
      </trkpt>
      <trkpt lat="43.18977" lon="6.62359">
        <ele>162</ele>
        <time>2025-10-12T13:56:40.000Z</time>
      </trkpt>
      <trkpt lat="43.18983" lon="6.62349">
        <ele>160.5</ele>
        <time>2025-10-12T13:56:51.000Z</time>
      </trkpt>
      <trkpt lat="43.18988" lon="6.62337">
        <ele>159.1</ele>
        <time>2025-10-12T13:57:01.000Z</time>
      </trkpt>
      <trkpt lat="43.18995" lon="6.62329">
        <ele>158.2</ele>
        <time>2025-10-12T13:57:09.000Z</time>
      </trkpt>
      <trkpt lat="43.19002" lon="6.6232">
        <ele>157.4</ele>
        <time>2025-10-12T13:57:21.000Z</time>
      </trkpt>
      <trkpt lat="43.19009" lon="6.62311">
        <ele>156.1</ele>
        <time>2025-10-12T13:57:30.000Z</time>
      </trkpt>
      <trkpt lat="43.19015" lon="6.62301">
        <ele>154.5</ele>
        <time>2025-10-12T13:57:40.000Z</time>
      </trkpt>
      <trkpt lat="43.19021" lon="6.62291">
        <ele>153.3</ele>
        <time>2025-10-12T13:57:49.000Z</time>
      </trkpt>
      <trkpt lat="43.19029" lon="6.62286">
        <ele>152.2</ele>
        <time>2025-10-12T13:57:57.000Z</time>
      </trkpt>
      <trkpt lat="43.19036" lon="6.62276">
        <ele>150.9</ele>
        <time>2025-10-12T13:58:10.000Z</time>
      </trkpt>
      <trkpt lat="43.19041" lon="6.62271">
        <ele>149.8</ele>
        <time>2025-10-12T13:58:20.000Z</time>
      </trkpt>
      <trkpt lat="43.19041" lon="6.62271">
        <ele>149.8</ele>
        <time>2025-10-12T13:58:21.000Z</time>
      </trkpt>
      <trkpt lat="43.19041" lon="6.62271">
        <ele>149.7</ele>
        <time>2025-10-12T13:58:22.000Z</time>
      </trkpt>
      <trkpt lat="43.19043" lon="6.6227">
        <ele>149.4</ele>
        <time>2025-10-12T13:58:38.000Z</time>
      </trkpt>
      <trkpt lat="43.19044" lon="6.62269">
        <ele>149.4</ele>
        <time>2025-10-12T13:58:39.000Z</time>
      </trkpt>
      <trkpt lat="43.19045" lon="6.62269">
        <ele>149.4</ele>
        <time>2025-10-12T13:58:40.000Z</time>
      </trkpt>
      <trkpt lat="43.19045" lon="6.62268">
        <ele>149.4</ele>
        <time>2025-10-12T13:58:46.000Z</time>
      </trkpt>
      <trkpt lat="43.19045" lon="6.62268">
        <ele>149.3</ele>
        <time>2025-10-12T13:58:47.000Z</time>
      </trkpt>
      <trkpt lat="43.19044" lon="6.62268">
        <ele>149.3</ele>
        <time>2025-10-12T13:58:55.000Z</time>
      </trkpt>
      <trkpt lat="43.19045" lon="6.62267">
        <ele>149.3</ele>
        <time>2025-10-12T13:58:56.000Z</time>
      </trkpt>
      <trkpt lat="43.19044" lon="6.62267">
        <ele>149.3</ele>
        <time>2025-10-12T13:59:00.000Z</time>
      </trkpt>
      <trkpt lat="43.19044" lon="6.62267">
        <ele>149.3</ele>
        <time>2025-10-12T13:59:01.000Z</time>
      </trkpt>
      <trkpt lat="43.19044" lon="6.62267">
        <ele>149.3</ele>
        <time>2025-10-12T13:59:02.000Z</time>
      </trkpt>
      <trkpt lat="43.19045" lon="6.62267">
        <ele>149.2</ele>
        <time>2025-10-12T13:59:15.000Z</time>
      </trkpt>
      <trkpt lat="43.19045" lon="6.62266">
        <ele>149.2</ele>
        <time>2025-10-12T13:59:16.000Z</time>
      </trkpt>
      <trkpt lat="43.19045" lon="6.62267">
        <ele>149.2</ele>
        <time>2025-10-12T13:59:17.000Z</time>
      </trkpt>
      <trkpt lat="43.19044" lon="6.62266">
        <ele>149.2</ele>
        <time>2025-10-12T13:59:18.000Z</time>
      </trkpt>
      <trkpt lat="43.19044" lon="6.62266">
        <ele>149.2</ele>
        <time>2025-10-12T13:59:19.000Z</time>
      </trkpt>
      <trkpt lat="43.19044" lon="6.62266">
        <ele>149.2</ele>
        <time>2025-10-12T13:59:38.000Z</time>
      </trkpt>
      <trkpt lat="43.19044" lon="6.62266">
        <ele>149.2</ele>
        <time>2025-10-12T13:59:39.000Z</time>
      </trkpt>
      <trkpt lat="43.19044" lon="6.62266">
        <ele>149.2</ele>
        <time>2025-10-12T13:59:40.000Z</time>
      </trkpt>
      <trkpt lat="43.19044" lon="6.62266">
        <ele>149.2</ele>
        <time>2025-10-12T13:59:41.000Z</time>
      </trkpt>
      <trkpt lat="43.19045" lon="6.62265">
        <ele>149.2</ele>
        <time>2025-10-12T13:59:57.000Z</time>
      </trkpt>
      <trkpt lat="43.19045" lon="6.62265">
        <ele>149.2</ele>
        <time>2025-10-12T13:59:58.000Z</time>
      </trkpt>
      <trkpt lat="43.19045" lon="6.62265">
        <ele>149.2</ele>
        <time>2025-10-12T13:59:59.000Z</time>
      </trkpt>
      <trkpt lat="43.19051" lon="6.62255">
        <ele>149</ele>
        <time>2025-10-12T14:00:17.000Z</time>
      </trkpt>
      <trkpt lat="43.19058" lon="6.62244">
        <ele>149</ele>
        <time>2025-10-12T14:00:27.000Z</time>
      </trkpt>
      <trkpt lat="43.19061" lon="6.62233">
        <ele>148.9</ele>
        <time>2025-10-12T14:00:36.000Z</time>
      </trkpt>
      <trkpt lat="43.1906" lon="6.6222">
        <ele>148.9</ele>
        <time>2025-10-12T14:00:48.000Z</time>
      </trkpt>
      <trkpt lat="43.19057" lon="6.62207">
        <ele>149.1</ele>
        <time>2025-10-12T14:00:58.000Z</time>
      </trkpt>
      <trkpt lat="43.19057" lon="6.62194">
        <ele>149.5</ele>
        <time>2025-10-12T14:01:08.000Z</time>
      </trkpt>
      <trkpt lat="43.19063" lon="6.62183">
        <ele>150.3</ele>
        <time>2025-10-12T14:01:18.000Z</time>
      </trkpt>
      <trkpt lat="43.19069" lon="6.62173">
        <ele>151.1</ele>
        <time>2025-10-12T14:01:26.000Z</time>
      </trkpt>
      <trkpt lat="43.19073" lon="6.62162">
        <ele>152.1</ele>
        <time>2025-10-12T14:01:37.000Z</time>
      </trkpt>
      <trkpt lat="43.19079" lon="6.62151">
        <ele>152.7</ele>
        <time>2025-10-12T14:01:47.000Z</time>
      </trkpt>
      <trkpt lat="43.19084" lon="6.6214">
        <ele>153.2</ele>
        <time>2025-10-12T14:01:57.000Z</time>
      </trkpt>
      <trkpt lat="43.19091" lon="6.62131">
        <ele>153.7</ele>
        <time>2025-10-12T14:02:07.000Z</time>
      </trkpt>
      <trkpt lat="43.19097" lon="6.62123">
        <ele>154.3</ele>
        <time>2025-10-12T14:02:17.000Z</time>
      </trkpt>
      <trkpt lat="43.19105" lon="6.62114">
        <ele>154.8</ele>
        <time>2025-10-12T14:02:25.000Z</time>
      </trkpt>
      <trkpt lat="43.19112" lon="6.62105">
        <ele>155.2</ele>
        <time>2025-10-12T14:02:36.000Z</time>
      </trkpt>
      <trkpt lat="43.19118" lon="6.62095">
        <ele>155.4</ele>
        <time>2025-10-12T14:02:45.000Z</time>
      </trkpt>
      <trkpt lat="43.19124" lon="6.62085">
        <ele>155.6</ele>
        <time>2025-10-12T14:02:54.000Z</time>
      </trkpt>
      <trkpt lat="43.19129" lon="6.62075">
        <ele>155.9</ele>
        <time>2025-10-12T14:03:03.000Z</time>
      </trkpt>
      <trkpt lat="43.19134" lon="6.62063">
        <ele>156.2</ele>
        <time>2025-10-12T14:03:13.000Z</time>
      </trkpt>
      <trkpt lat="43.1914" lon="6.62054">
        <ele>156.7</ele>
        <time>2025-10-12T14:03:22.000Z</time>
      </trkpt>
      <trkpt lat="43.19146" lon="6.62044">
        <ele>157.2</ele>
        <time>2025-10-12T14:03:32.000Z</time>
      </trkpt>
      <trkpt lat="43.19152" lon="6.62033">
        <ele>157.5</ele>
        <time>2025-10-12T14:03:42.000Z</time>
      </trkpt>
      <trkpt lat="43.19157" lon="6.62023">
        <ele>157.8</ele>
        <time>2025-10-12T14:03:51.000Z</time>
      </trkpt>
      <trkpt lat="43.19164" lon="6.62013">
        <ele>158.1</ele>
        <time>2025-10-12T14:04:00.000Z</time>
      </trkpt>
      <trkpt lat="43.19166" lon="6.62">
        <ele>158.3</ele>
        <time>2025-10-12T14:04:10.000Z</time>
      </trkpt>
      <trkpt lat="43.19166" lon="6.61987">
        <ele>158.4</ele>
        <time>2025-10-12T14:04:21.000Z</time>
      </trkpt>
      <trkpt lat="43.19166" lon="6.61974">
        <ele>158.4</ele>
        <time>2025-10-12T14:04:32.000Z</time>
      </trkpt>
      <trkpt lat="43.19168" lon="6.61962">
        <ele>158.2</ele>
        <time>2025-10-12T14:04:42.000Z</time>
      </trkpt>
      <trkpt lat="43.19168" lon="6.61949">
        <ele>158</ele>
        <time>2025-10-12T14:04:51.000Z</time>
      </trkpt>
      <trkpt lat="43.19167" lon="6.61936">
        <ele>157.7</ele>
        <time>2025-10-12T14:05:01.000Z</time>
      </trkpt>
      <trkpt lat="43.19165" lon="6.61922">
        <ele>157.4</ele>
        <time>2025-10-12T14:05:09.000Z</time>
      </trkpt>
      <trkpt lat="43.1916" lon="6.61912">
        <ele>157.3</ele>
        <time>2025-10-12T14:05:20.000Z</time>
      </trkpt>
      <trkpt lat="43.1916" lon="6.61912">
        <ele>157.3</ele>
        <time>2025-10-12T14:05:21.000Z</time>
      </trkpt>
      <trkpt lat="43.1916" lon="6.61912">
        <ele>157.3</ele>
        <time>2025-10-12T14:05:37.000Z</time>
      </trkpt>
      <trkpt lat="43.1916" lon="6.61912">
        <ele>157.3</ele>
        <time>2025-10-12T14:05:38.000Z</time>
      </trkpt>
      <trkpt lat="43.1916" lon="6.61912">
        <ele>157.3</ele>
        <time>2025-10-12T14:05:39.000Z</time>
      </trkpt>
      <trkpt lat="43.19154" lon="6.61903">
        <ele>157.4</ele>
        <time>2025-10-12T14:05:47.000Z</time>
      </trkpt>
      <trkpt lat="43.19148" lon="6.61891">
        <ele>157.6</ele>
        <time>2025-10-12T14:05:57.000Z</time>
      </trkpt>
      <trkpt lat="43.19143" lon="6.6188">
        <ele>158.1</ele>
        <time>2025-10-12T14:06:07.000Z</time>
      </trkpt>
      <trkpt lat="43.19142" lon="6.61866">
        <ele>158.8</ele>
        <time>2025-10-12T14:06:18.000Z</time>
      </trkpt>
      <trkpt lat="43.19142" lon="6.61854">
        <ele>159.3</ele>
        <time>2025-10-12T14:06:28.000Z</time>
      </trkpt>
      <trkpt lat="43.19141" lon="6.6184">
        <ele>159.6</ele>
        <time>2025-10-12T14:06:37.000Z</time>
      </trkpt>
      <trkpt lat="43.1914" lon="6.61828">
        <ele>159.6</ele>
        <time>2025-10-12T14:06:46.000Z</time>
      </trkpt>
      <trkpt lat="43.1914" lon="6.61814">
        <ele>159.5</ele>
        <time>2025-10-12T14:06:56.000Z</time>
      </trkpt>
      <trkpt lat="43.19144" lon="6.61803">
        <ele>159.1</ele>
        <time>2025-10-12T14:07:06.000Z</time>
      </trkpt>
      <trkpt lat="43.19145" lon="6.6179">
        <ele>158.7</ele>
        <time>2025-10-12T14:07:14.000Z</time>
      </trkpt>
      <trkpt lat="43.19146" lon="6.61776">
        <ele>158</ele>
        <time>2025-10-12T14:07:23.000Z</time>
      </trkpt>
      <trkpt lat="43.19143" lon="6.61762">
        <ele>157.6</ele>
        <time>2025-10-12T14:07:32.000Z</time>
      </trkpt>
      <trkpt lat="43.19141" lon="6.61749">
        <ele>157.3</ele>
        <time>2025-10-12T14:07:40.000Z</time>
      </trkpt>
      <trkpt lat="43.19143" lon="6.61737">
        <ele>156.8</ele>
        <time>2025-10-12T14:07:49.000Z</time>
      </trkpt>
      <trkpt lat="43.19145" lon="6.61724">
        <ele>156</ele>
        <time>2025-10-12T14:07:59.000Z</time>
      </trkpt>
      <trkpt lat="43.19147" lon="6.61712">
        <ele>155.6</ele>
        <time>2025-10-12T14:08:07.000Z</time>
      </trkpt>
      <trkpt lat="43.19139" lon="6.61705">
        <ele>155.4</ele>
        <time>2025-10-12T14:08:12.000Z</time>
      </trkpt>
      <trkpt lat="43.19131" lon="6.61702">
        <ele>155.4</ele>
        <time>2025-10-12T14:08:19.000Z</time>
      </trkpt>
      <trkpt lat="43.19122" lon="6.61707">
        <ele>155.5</ele>
        <time>2025-10-12T14:08:27.000Z</time>
      </trkpt>
      <trkpt lat="43.19112" lon="6.61707">
        <ele>155.5</ele>
        <time>2025-10-12T14:08:35.000Z</time>
      </trkpt>
      <trkpt lat="43.19103" lon="6.61707">
        <ele>155.7</ele>
        <time>2025-10-12T14:08:45.000Z</time>
      </trkpt>
      <trkpt lat="43.19094" lon="6.61709">
        <ele>156.1</ele>
        <time>2025-10-12T14:08:54.000Z</time>
      </trkpt>
      <trkpt lat="43.19085" lon="6.61711">
        <ele>157.1</ele>
        <time>2025-10-12T14:09:05.000Z</time>
      </trkpt>
      <trkpt lat="43.19075" lon="6.61711">
        <ele>158.2</ele>
        <time>2025-10-12T14:09:15.000Z</time>
      </trkpt>
      <trkpt lat="43.19066" lon="6.6171">
        <ele>159.4</ele>
        <time>2025-10-12T14:09:26.000Z</time>
      </trkpt>
      <trkpt lat="43.19057" lon="6.61709">
        <ele>159.9</ele>
        <time>2025-10-12T14:09:34.000Z</time>
      </trkpt>
      <trkpt lat="43.19047" lon="6.61711">
        <ele>160.9</ele>
        <time>2025-10-12T14:09:47.000Z</time>
      </trkpt>
      <trkpt lat="43.19038" lon="6.61715">
        <ele>162.2</ele>
        <time>2025-10-12T14:10:01.000Z</time>
      </trkpt>
      <trkpt lat="43.19029" lon="6.61714">
        <ele>163.1</ele>
        <time>2025-10-12T14:10:11.000Z</time>
      </trkpt>
      <trkpt lat="43.1902" lon="6.61712">
        <ele>164.2</ele>
        <time>2025-10-12T14:10:22.000Z</time>
      </trkpt>
      <trkpt lat="43.19011" lon="6.61708">
        <ele>165.6</ele>
        <time>2025-10-12T14:10:36.000Z</time>
      </trkpt>
      <trkpt lat="43.19004" lon="6.617">
        <ele>166.9</ele>
        <time>2025-10-12T14:10:49.000Z</time>
      </trkpt>
      <trkpt lat="43.18995" lon="6.61695">
        <ele>167.7</ele>
        <time>2025-10-12T14:10:58.000Z</time>
      </trkpt>
      <trkpt lat="43.18987" lon="6.61689">
        <ele>168.3</ele>
        <time>2025-10-12T14:11:11.000Z</time>
      </trkpt>
      <trkpt lat="43.18979" lon="6.61682">
        <ele>168.7</ele>
        <time>2025-10-12T14:11:19.000Z</time>
      </trkpt>
      <trkpt lat="43.18971" lon="6.61674">
        <ele>169.1</ele>
        <time>2025-10-12T14:11:28.000Z</time>
      </trkpt>
      <trkpt lat="43.18964" lon="6.61666">
        <ele>169.5</ele>
        <time>2025-10-12T14:11:37.000Z</time>
      </trkpt>
      <trkpt lat="43.18956" lon="6.61658">
        <ele>169.8</ele>
        <time>2025-10-12T14:11:45.000Z</time>
      </trkpt>
      <trkpt lat="43.18948" lon="6.6165">
        <ele>170.1</ele>
        <time>2025-10-12T14:11:54.000Z</time>
      </trkpt>
      <trkpt lat="43.18942" lon="6.6164">
        <ele>170.2</ele>
        <time>2025-10-12T14:12:06.000Z</time>
      </trkpt>
      <trkpt lat="43.18935" lon="6.61632">
        <ele>170.4</ele>
        <time>2025-10-12T14:12:16.000Z</time>
      </trkpt>
      <trkpt lat="43.1893" lon="6.61622">
        <ele>170.6</ele>
        <time>2025-10-12T14:12:27.000Z</time>
      </trkpt>
      <trkpt lat="43.18924" lon="6.61612">
        <ele>170.9</ele>
        <time>2025-10-12T14:12:35.000Z</time>
      </trkpt>
      <trkpt lat="43.1892" lon="6.61599">
        <ele>171.2</ele>
        <time>2025-10-12T14:12:47.000Z</time>
      </trkpt>
      <trkpt lat="43.18916" lon="6.61587">
        <ele>171.4</ele>
        <time>2025-10-12T14:12:55.000Z</time>
      </trkpt>
      <trkpt lat="43.18911" lon="6.61575">
        <ele>171.5</ele>
        <time>2025-10-12T14:13:04.000Z</time>
      </trkpt>
      <trkpt lat="43.18907" lon="6.61564">
        <ele>171.5</ele>
        <time>2025-10-12T14:13:13.000Z</time>
      </trkpt>
      <trkpt lat="43.18903" lon="6.61553">
        <ele>171.5</ele>
        <time>2025-10-12T14:13:22.000Z</time>
      </trkpt>
      <trkpt lat="43.18898" lon="6.61542">
        <ele>171.6</ele>
        <time>2025-10-12T14:13:30.000Z</time>
      </trkpt>
      <trkpt lat="43.18892" lon="6.61532">
        <ele>171.7</ele>
        <time>2025-10-12T14:13:38.000Z</time>
      </trkpt>
      <trkpt lat="43.18887" lon="6.61521">
        <ele>172</ele>
        <time>2025-10-12T14:13:49.000Z</time>
      </trkpt>
      <trkpt lat="43.1888" lon="6.61511">
        <ele>172.4</ele>
        <time>2025-10-12T14:13:57.000Z</time>
      </trkpt>
      <trkpt lat="43.18872" lon="6.61505">
        <ele>172.8</ele>
        <time>2025-10-12T14:14:06.000Z</time>
      </trkpt>
      <trkpt lat="43.18862" lon="6.61502">
        <ele>173.1</ele>
        <time>2025-10-12T14:14:14.000Z</time>
      </trkpt>
      <trkpt lat="43.18853" lon="6.615">
        <ele>173.2</ele>
        <time>2025-10-12T14:14:28.000Z</time>
      </trkpt>
      <trkpt lat="43.18844" lon="6.61501">
        <ele>173.3</ele>
        <time>2025-10-12T14:14:38.000Z</time>
      </trkpt>
      <trkpt lat="43.18834" lon="6.61504">
        <ele>173.6</ele>
        <time>2025-10-12T14:14:47.000Z</time>
      </trkpt>
      <trkpt lat="43.18824" lon="6.61503">
        <ele>173.6</ele>
        <time>2025-10-12T14:14:51.000Z</time>
      </trkpt>
      <trkpt lat="43.18815" lon="6.61502">
        <ele>173.7</ele>
        <time>2025-10-12T14:14:57.000Z</time>
      </trkpt>
      <trkpt lat="43.18806" lon="6.61502">
        <ele>173.9</ele>
        <time>2025-10-12T14:15:09.000Z</time>
      </trkpt>
      <trkpt lat="43.18796" lon="6.61504">
        <ele>174</ele>
        <time>2025-10-12T14:15:18.000Z</time>
      </trkpt>
      <trkpt lat="43.18786" lon="6.61506">
        <ele>174</ele>
        <time>2025-10-12T14:15:29.000Z</time>
      </trkpt>
      <trkpt lat="43.18777" lon="6.61508">
        <ele>174.1</ele>
        <time>2025-10-12T14:15:40.000Z</time>
      </trkpt>
      <trkpt lat="43.18767" lon="6.61511">
        <ele>174.3</ele>
        <time>2025-10-12T14:15:52.000Z</time>
      </trkpt>
      <trkpt lat="43.18757" lon="6.6151">
        <ele>174.5</ele>
        <time>2025-10-12T14:15:59.000Z</time>
      </trkpt>
      <trkpt lat="43.18748" lon="6.61512">
        <ele>174.8</ele>
        <time>2025-10-12T14:16:07.000Z</time>
      </trkpt>
      <trkpt lat="43.18739" lon="6.61512">
        <ele>175.4</ele>
        <time>2025-10-12T14:16:16.000Z</time>
      </trkpt>
      <trkpt lat="43.18729" lon="6.61512">
        <ele>176.2</ele>
        <time>2025-10-12T14:16:25.000Z</time>
      </trkpt>
      <trkpt lat="43.1872" lon="6.61518">
        <ele>176.7</ele>
        <time>2025-10-12T14:16:36.000Z</time>
      </trkpt>
      <trkpt lat="43.18711" lon="6.61521">
        <ele>177.1</ele>
        <time>2025-10-12T14:16:45.000Z</time>
      </trkpt>
      <trkpt lat="43.18702" lon="6.61522">
        <ele>177.1</ele>
        <time>2025-10-12T14:16:51.000Z</time>
      </trkpt>
      <trkpt lat="43.18694" lon="6.61529">
        <ele>177.1</ele>
        <time>2025-10-12T14:17:02.000Z</time>
      </trkpt>
      <trkpt lat="43.18683" lon="6.61531">
        <ele>177</ele>
        <time>2025-10-12T14:17:11.000Z</time>
      </trkpt>
      <trkpt lat="43.18673" lon="6.6153">
        <ele>177</ele>
        <time>2025-10-12T14:17:19.000Z</time>
      </trkpt>
      <trkpt lat="43.18664" lon="6.61535">
        <ele>177</ele>
        <time>2025-10-12T14:17:28.000Z</time>
      </trkpt>
      <trkpt lat="43.18656" lon="6.61542">
        <ele>177</ele>
        <time>2025-10-12T14:17:38.000Z</time>
      </trkpt>
      <trkpt lat="43.18646" lon="6.61545">
        <ele>176.9</ele>
        <time>2025-10-12T14:17:46.000Z</time>
      </trkpt>
      <trkpt lat="43.18638" lon="6.61551">
        <ele>176.7</ele>
        <time>2025-10-12T14:17:55.000Z</time>
      </trkpt>
      <trkpt lat="43.1863" lon="6.61555">
        <ele>176.1</ele>
        <time>2025-10-12T14:18:05.000Z</time>
      </trkpt>
      <trkpt lat="43.1862" lon="6.61556">
        <ele>175.2</ele>
        <time>2025-10-12T14:18:13.000Z</time>
      </trkpt>
      <trkpt lat="43.18611" lon="6.61555">
        <ele>174</ele>
        <time>2025-10-12T14:18:23.000Z</time>
      </trkpt>
      <trkpt lat="43.18601" lon="6.61552">
        <ele>172.6</ele>
        <time>2025-10-12T14:18:35.000Z</time>
      </trkpt>
      <trkpt lat="43.18596" lon="6.61551">
        <ele>171.5</ele>
        <time>2025-10-12T14:18:46.000Z</time>
      </trkpt>
      <trkpt lat="43.18596" lon="6.61551">
        <ele>171.5</ele>
        <time>2025-10-12T14:18:47.000Z</time>
      </trkpt>
      <trkpt lat="43.18595" lon="6.61551">
        <ele>171.1</ele>
        <time>2025-10-12T14:18:57.000Z</time>
      </trkpt>
      <trkpt lat="43.18595" lon="6.61551">
        <ele>171.1</ele>
        <time>2025-10-12T14:18:58.000Z</time>
      </trkpt>
      <trkpt lat="43.18594" lon="6.61551">
        <ele>171.1</ele>
        <time>2025-10-12T14:18:59.000Z</time>
      </trkpt>
      <trkpt lat="43.18585" lon="6.61548">
        <ele>170.5</ele>
        <time>2025-10-12T14:19:12.000Z</time>
      </trkpt>
      <trkpt lat="43.18575" lon="6.61547">
        <ele>169.6</ele>
        <time>2025-10-12T14:19:23.000Z</time>
      </trkpt>
      <trkpt lat="43.18566" lon="6.61548">
        <ele>169.1</ele>
        <time>2025-10-12T14:19:32.000Z</time>
      </trkpt>
      <trkpt lat="43.18557" lon="6.61551">
        <ele>168.8</ele>
        <time>2025-10-12T14:19:40.000Z</time>
      </trkpt>
      <trkpt lat="43.18547" lon="6.61555">
        <ele>168.5</ele>
        <time>2025-10-12T14:19:50.000Z</time>
      </trkpt>
      <trkpt lat="43.18538" lon="6.61558">
        <ele>168.2</ele>
        <time>2025-10-12T14:20:00.000Z</time>
      </trkpt>
      <trkpt lat="43.18529" lon="6.61558">
        <ele>168</ele>
        <time>2025-10-12T14:20:08.000Z</time>
      </trkpt>
      <trkpt lat="43.18519" lon="6.61557">
        <ele>167.8</ele>
        <time>2025-10-12T14:20:16.000Z</time>
      </trkpt>
      <trkpt lat="43.1851" lon="6.61557">
        <ele>167.6</ele>
        <time>2025-10-12T14:20:25.000Z</time>
      </trkpt>
      <trkpt lat="43.18499" lon="6.61556">
        <ele>167.4</ele>
        <time>2025-10-12T14:20:33.000Z</time>
      </trkpt>
      <trkpt lat="43.1849" lon="6.61555">
        <ele>167.1</ele>
        <time>2025-10-12T14:20:42.000Z</time>
      </trkpt>
      <trkpt lat="43.18481" lon="6.61557">
        <ele>166.6</ele>
        <time>2025-10-12T14:20:52.000Z</time>
      </trkpt>
      <trkpt lat="43.18471" lon="6.61559">
        <ele>166.2</ele>
        <time>2025-10-12T14:21:02.000Z</time>
      </trkpt>
      <trkpt lat="43.18466" lon="6.61561">
        <ele>165.8</ele>
        <time>2025-10-12T14:21:13.000Z</time>
      </trkpt>
      <trkpt lat="43.18465" lon="6.61561">
        <ele>165.8</ele>
        <time>2025-10-12T14:21:14.000Z</time>
      </trkpt>
      <trkpt lat="43.18465" lon="6.6156">
        <ele>165.8</ele>
        <time>2025-10-12T14:21:15.000Z</time>
      </trkpt>
      <trkpt lat="43.18464" lon="6.6156">
        <ele>165.7</ele>
        <time>2025-10-12T14:21:16.000Z</time>
      </trkpt>
      <trkpt lat="43.18463" lon="6.61563">
        <ele>165.5</ele>
        <time>2025-10-12T14:21:25.000Z</time>
      </trkpt>
      <trkpt lat="43.18463" lon="6.61563">
        <ele>165.5</ele>
        <time>2025-10-12T14:21:26.000Z</time>
      </trkpt>
      <trkpt lat="43.18463" lon="6.61564">
        <ele>165.5</ele>
        <time>2025-10-12T14:21:27.000Z</time>
      </trkpt>
      <trkpt lat="43.18463" lon="6.61564">
        <ele>165.3</ele>
        <time>2025-10-12T14:21:40.000Z</time>
      </trkpt>
      <trkpt lat="43.18462" lon="6.61564">
        <ele>165.3</ele>
        <time>2025-10-12T14:21:41.000Z</time>
      </trkpt>
      <trkpt lat="43.18453" lon="6.61561">
        <ele>165.3</ele>
        <time>2025-10-12T14:21:57.000Z</time>
      </trkpt>
      <trkpt lat="43.18444" lon="6.61562">
        <ele>165.3</ele>
        <time>2025-10-12T14:22:06.000Z</time>
      </trkpt>
      <trkpt lat="43.18442" lon="6.61562">
        <ele>165.3</ele>
        <time>2025-10-12T14:22:12.000Z</time>
      </trkpt>
      <trkpt lat="43.18442" lon="6.61562">
        <ele>165.3</ele>
        <time>2025-10-12T14:22:13.000Z</time>
      </trkpt>
      <trkpt lat="43.18442" lon="6.61562">
        <ele>165.3</ele>
        <time>2025-10-12T14:22:14.000Z</time>
      </trkpt>
      <trkpt lat="43.18442" lon="6.61562">
        <ele>165.3</ele>
        <time>2025-10-12T14:22:21.000Z</time>
      </trkpt>
      <trkpt lat="43.18442" lon="6.61562">
        <ele>165.3</ele>
        <time>2025-10-12T14:22:22.000Z</time>
      </trkpt>
      <trkpt lat="43.18441" lon="6.61562">
        <ele>165.3</ele>
        <time>2025-10-12T14:22:28.000Z</time>
      </trkpt>
      <trkpt lat="43.18441" lon="6.61563">
        <ele>165.3</ele>
        <time>2025-10-12T14:22:29.000Z</time>
      </trkpt>
      <trkpt lat="43.18441" lon="6.61563">
        <ele>165.3</ele>
        <time>2025-10-12T14:22:30.000Z</time>
      </trkpt>
      <trkpt lat="43.18441" lon="6.61563">
        <ele>165.3</ele>
        <time>2025-10-12T14:22:31.000Z</time>
      </trkpt>
      <trkpt lat="43.18441" lon="6.61563">
        <ele>165.3</ele>
        <time>2025-10-12T14:22:32.000Z</time>
      </trkpt>
      <trkpt lat="43.18441" lon="6.61563">
        <ele>165.4</ele>
        <time>2025-10-12T14:22:36.000Z</time>
      </trkpt>
      <trkpt lat="43.18441" lon="6.61563">
        <ele>165.4</ele>
        <time>2025-10-12T14:22:37.000Z</time>
      </trkpt>
      <trkpt lat="43.18441" lon="6.61563">
        <ele>165.4</ele>
        <time>2025-10-12T14:22:40.000Z</time>
      </trkpt>
      <trkpt lat="43.18441" lon="6.61563">
        <ele>165.4</ele>
        <time>2025-10-12T14:22:41.000Z</time>
      </trkpt>
      <trkpt lat="43.18441" lon="6.61563">
        <ele>165.4</ele>
        <time>2025-10-12T14:22:42.000Z</time>
      </trkpt>
      <trkpt lat="43.18441" lon="6.61563">
        <ele>165.4</ele>
        <time>2025-10-12T14:22:43.000Z</time>
      </trkpt>
      <trkpt lat="43.18441" lon="6.61563">
        <ele>165.4</ele>
        <time>2025-10-12T14:22:44.000Z</time>
      </trkpt>
      <trkpt lat="43.18441" lon="6.61563">
        <ele>165.4</ele>
        <time>2025-10-12T14:23:22.000Z</time>
      </trkpt>
      <trkpt lat="43.18441" lon="6.61563">
        <ele>165.4</ele>
        <time>2025-10-12T14:23:23.000Z</time>
      </trkpt>
      <trkpt lat="43.18441" lon="6.61563">
        <ele>165.4</ele>
        <time>2025-10-12T14:23:24.000Z</time>
      </trkpt>
      <trkpt lat="43.18441" lon="6.61563">
        <ele>165.4</ele>
        <time>2025-10-12T14:23:25.000Z</time>
      </trkpt>
      <trkpt lat="43.18441" lon="6.61563">
        <ele>165.4</ele>
        <time>2025-10-12T14:23:26.000Z</time>
      </trkpt>
      <trkpt lat="43.18441" lon="6.61563">
        <ele>165.4</ele>
        <time>2025-10-12T14:24:05.000Z</time>
      </trkpt>
      <trkpt lat="43.1844" lon="6.61563">
        <ele>165.4</ele>
        <time>2025-10-12T14:24:06.000Z</time>
      </trkpt>
      <trkpt lat="43.18439" lon="6.61564">
        <ele>165.4</ele>
        <time>2025-10-12T14:24:07.000Z</time>
      </trkpt>
      <trkpt lat="43.18439" lon="6.61564">
        <ele>165.4</ele>
        <time>2025-10-12T14:24:10.000Z</time>
      </trkpt>
      <trkpt lat="43.18439" lon="6.61564">
        <ele>165.4</ele>
        <time>2025-10-12T14:24:11.000Z</time>
      </trkpt>
      <trkpt lat="43.18437" lon="6.61563">
        <ele>165.4</ele>
        <time>2025-10-12T14:24:21.000Z</time>
      </trkpt>
      <trkpt lat="43.18436" lon="6.61563">
        <ele>165.4</ele>
        <time>2025-10-12T14:24:22.000Z</time>
      </trkpt>
      <trkpt lat="43.18426" lon="6.61565">
        <ele>165.4</ele>
        <time>2025-10-12T14:24:31.000Z</time>
      </trkpt>
      <trkpt lat="43.18416" lon="6.61565">
        <ele>165.6</ele>
        <time>2025-10-12T14:24:40.000Z</time>
      </trkpt>
      <trkpt lat="43.18407" lon="6.61564">
        <ele>166.1</ele>
        <time>2025-10-12T14:24:49.000Z</time>
      </trkpt>
      <trkpt lat="43.18397" lon="6.61561">
        <ele>167.3</ele>
        <time>2025-10-12T14:24:59.000Z</time>
      </trkpt>
      <trkpt lat="43.18389" lon="6.61556">
        <ele>168.3</ele>
        <time>2025-10-12T14:25:07.000Z</time>
      </trkpt>
      <trkpt lat="43.1838" lon="6.61554">
        <ele>169.3</ele>
        <time>2025-10-12T14:25:17.000Z</time>
      </trkpt>
      <trkpt lat="43.1837" lon="6.61552">
        <ele>169.8</ele>
        <time>2025-10-12T14:25:25.000Z</time>
      </trkpt>
      <trkpt lat="43.1836" lon="6.6155">
        <ele>169.7</ele>
        <time>2025-10-12T14:25:33.000Z</time>
      </trkpt>
      <trkpt lat="43.18351" lon="6.61551">
        <ele>169.5</ele>
        <time>2025-10-12T14:25:40.000Z</time>
      </trkpt>
      <trkpt lat="43.18342" lon="6.61546">
        <ele>169.3</ele>
        <time>2025-10-12T14:25:49.000Z</time>
      </trkpt>
      <trkpt lat="43.18339" lon="6.61534">
        <ele>169.3</ele>
        <time>2025-10-12T14:26:06.000Z</time>
      </trkpt>
      <trkpt lat="43.18339" lon="6.61534">
        <ele>169.4</ele>
        <time>2025-10-12T14:26:11.000Z</time>
      </trkpt>
      <trkpt lat="43.18339" lon="6.61534">
        <ele>169.4</ele>
        <time>2025-10-12T14:26:12.000Z</time>
      </trkpt>
      <trkpt lat="43.18339" lon="6.61534">
        <ele>169.4</ele>
        <time>2025-10-12T14:26:13.000Z</time>
      </trkpt>
      <trkpt lat="43.18339" lon="6.61534">
        <ele>169.4</ele>
        <time>2025-10-12T14:26:14.000Z</time>
      </trkpt>
      <trkpt lat="43.18339" lon="6.61533">
        <ele>169.7</ele>
        <time>2025-10-12T14:26:20.000Z</time>
      </trkpt>
      <trkpt lat="43.18339" lon="6.61533">
        <ele>169.7</ele>
        <time>2025-10-12T14:26:21.000Z</time>
      </trkpt>
      <trkpt lat="43.18339" lon="6.61533">
        <ele>169.7</ele>
        <time>2025-10-12T14:26:22.000Z</time>
      </trkpt>
      <trkpt lat="43.18339" lon="6.61534">
        <ele>170</ele>
        <time>2025-10-12T14:26:33.000Z</time>
      </trkpt>
      <trkpt lat="43.18338" lon="6.61534">
        <ele>170</ele>
        <time>2025-10-12T14:26:34.000Z</time>
      </trkpt>
      <trkpt lat="43.18339" lon="6.6153">
        <ele>170.1</ele>
        <time>2025-10-12T14:26:50.000Z</time>
      </trkpt>
      <trkpt lat="43.18339" lon="6.6153">
        <ele>170.1</ele>
        <time>2025-10-12T14:26:51.000Z</time>
      </trkpt>
      <trkpt lat="43.18339" lon="6.61529">
        <ele>170.1</ele>
        <time>2025-10-12T14:27:00.000Z</time>
      </trkpt>
      <trkpt lat="43.1834" lon="6.61528">
        <ele>170.1</ele>
        <time>2025-10-12T14:27:01.000Z</time>
      </trkpt>
      <trkpt lat="43.18342" lon="6.61519">
        <ele>170.2</ele>
        <time>2025-10-12T14:27:13.000Z</time>
      </trkpt>
      <trkpt lat="43.18342" lon="6.61519">
        <ele>170.2</ele>
        <time>2025-10-12T14:27:14.000Z</time>
      </trkpt>
      <trkpt lat="43.18343" lon="6.61519">
        <ele>170.2</ele>
        <time>2025-10-12T14:27:15.000Z</time>
      </trkpt>
      <trkpt lat="43.18344" lon="6.61517">
        <ele>170.2</ele>
        <time>2025-10-12T14:27:16.000Z</time>
      </trkpt>
      <trkpt lat="43.18344" lon="6.61516">
        <ele>170.2</ele>
        <time>2025-10-12T14:27:17.000Z</time>
      </trkpt>
      <trkpt lat="43.18347" lon="6.61503">
        <ele>170.5</ele>
        <time>2025-10-12T14:27:27.000Z</time>
      </trkpt>
      <trkpt lat="43.18342" lon="6.61493">
        <ele>170.8</ele>
        <time>2025-10-12T14:27:37.000Z</time>
      </trkpt>
      <trkpt lat="43.1834" lon="6.61488">
        <ele>170.8</ele>
        <time>2025-10-12T14:27:48.000Z</time>
      </trkpt>
      <trkpt lat="43.1834" lon="6.61488">
        <ele>170.8</ele>
        <time>2025-10-12T14:27:49.000Z</time>
      </trkpt>
      <trkpt lat="43.1834" lon="6.61488">
        <ele>170.8</ele>
        <time>2025-10-12T14:27:50.000Z</time>
      </trkpt>
      <trkpt lat="43.1834" lon="6.61488">
        <ele>170.8</ele>
        <time>2025-10-12T14:27:53.000Z</time>
      </trkpt>
      <trkpt lat="43.18339" lon="6.61487">
        <ele>170.8</ele>
        <time>2025-10-12T14:27:54.000Z</time>
      </trkpt>
      <trkpt lat="43.18338" lon="6.61486">
        <ele>170.8</ele>
        <time>2025-10-12T14:27:55.000Z</time>
      </trkpt>
      <trkpt lat="43.18332" lon="6.61475">
        <ele>170.6</ele>
        <time>2025-10-12T14:28:05.000Z</time>
      </trkpt>
      <trkpt lat="43.18328" lon="6.61464">
        <ele>169.7</ele>
        <time>2025-10-12T14:28:19.000Z</time>
      </trkpt>
      <trkpt lat="43.1832" lon="6.61457">
        <ele>168.7</ele>
        <time>2025-10-12T14:28:28.000Z</time>
      </trkpt>
      <trkpt lat="43.18311" lon="6.61454">
        <ele>168</ele>
        <time>2025-10-12T14:28:36.000Z</time>
      </trkpt>
      <trkpt lat="43.18302" lon="6.61451">
        <ele>167.3</ele>
        <time>2025-10-12T14:28:45.000Z</time>
      </trkpt>
      <trkpt lat="43.18294" lon="6.61444">
        <ele>166.4</ele>
        <time>2025-10-12T14:28:55.000Z</time>
      </trkpt>
      <trkpt lat="43.18286" lon="6.61436">
        <ele>165</ele>
        <time>2025-10-12T14:29:05.000Z</time>
      </trkpt>
      <trkpt lat="43.18278" lon="6.61429">
        <ele>163.6</ele>
        <time>2025-10-12T14:29:15.000Z</time>
      </trkpt>
      <trkpt lat="43.18272" lon="6.61419">
        <ele>162.3</ele>
        <time>2025-10-12T14:29:26.000Z</time>
      </trkpt>
      <trkpt lat="43.1827" lon="6.61407">
        <ele>160.2</ele>
        <time>2025-10-12T14:29:41.000Z</time>
      </trkpt>
      <trkpt lat="43.18271" lon="6.61394">
        <ele>158.6</ele>
        <time>2025-10-12T14:29:53.000Z</time>
      </trkpt>
      <trkpt lat="43.18269" lon="6.61381">
        <ele>157.7</ele>
        <time>2025-10-12T14:30:02.000Z</time>
      </trkpt>
      <trkpt lat="43.18264" lon="6.61369">
        <ele>157.4</ele>
        <time>2025-10-12T14:30:11.000Z</time>
      </trkpt>
      <trkpt lat="43.18257" lon="6.61362">
        <ele>157.3</ele>
        <time>2025-10-12T14:30:20.000Z</time>
      </trkpt>
      <trkpt lat="43.18257" lon="6.61352">
        <ele>156.7</ele>
        <time>2025-10-12T14:30:40.000Z</time>
      </trkpt>
      <trkpt lat="43.18257" lon="6.61352">
        <ele>156.7</ele>
        <time>2025-10-12T14:30:41.000Z</time>
      </trkpt>
      <trkpt lat="43.18257" lon="6.61352">
        <ele>156.6</ele>
        <time>2025-10-12T14:30:42.000Z</time>
      </trkpt>
      <trkpt lat="43.18257" lon="6.61352">
        <ele>156.6</ele>
        <time>2025-10-12T14:30:43.000Z</time>
      </trkpt>
      <trkpt lat="43.18257" lon="6.61352">
        <ele>156.5</ele>
        <time>2025-10-12T14:30:44.000Z</time>
      </trkpt>
      <trkpt lat="43.18257" lon="6.61352">
        <ele>156.5</ele>
        <time>2025-10-12T14:30:45.000Z</time>
      </trkpt>
      <trkpt lat="43.18257" lon="6.61352">
        <ele>156.4</ele>
        <time>2025-10-12T14:30:46.000Z</time>
      </trkpt>
      <trkpt lat="43.18258" lon="6.61354">
        <ele>156.3</ele>
        <time>2025-10-12T14:30:50.000Z</time>
      </trkpt>
      <trkpt lat="43.18258" lon="6.61354">
        <ele>156.3</ele>
        <time>2025-10-12T14:30:51.000Z</time>
      </trkpt>
      <trkpt lat="43.18259" lon="6.61355">
        <ele>156.2</ele>
        <time>2025-10-12T14:30:52.000Z</time>
      </trkpt>
      <trkpt lat="43.18268" lon="6.61361">
        <ele>155.3</ele>
        <time>2025-10-12T14:31:05.000Z</time>
      </trkpt>
      <trkpt lat="43.18274" lon="6.61369">
        <ele>154.1</ele>
        <time>2025-10-12T14:31:14.000Z</time>
      </trkpt>
      <trkpt lat="43.18281" lon="6.61377">
        <ele>153.3</ele>
        <time>2025-10-12T14:31:22.000Z</time>
      </trkpt>
      <trkpt lat="43.1829" lon="6.61383">
        <ele>152.9</ele>
        <time>2025-10-12T14:31:31.000Z</time>
      </trkpt>
      <trkpt lat="43.183" lon="6.61379">
        <ele>152.7</ele>
        <time>2025-10-12T14:31:39.000Z</time>
      </trkpt>
      <trkpt lat="43.18307" lon="6.61369">
        <ele>151.7</ele>
        <time>2025-10-12T14:31:50.000Z</time>
      </trkpt>
      <trkpt lat="43.18309" lon="6.61357">
        <ele>150.3</ele>
        <time>2025-10-12T14:32:00.000Z</time>
      </trkpt>
      <trkpt lat="43.18307" lon="6.61344">
        <ele>148.6</ele>
        <time>2025-10-12T14:32:10.000Z</time>
      </trkpt>
      <trkpt lat="43.18301" lon="6.61333">
        <ele>147</ele>
        <time>2025-10-12T14:32:20.000Z</time>
      </trkpt>
      <trkpt lat="43.18295" lon="6.61324">
        <ele>146</ele>
        <time>2025-10-12T14:32:29.000Z</time>
      </trkpt>
      <trkpt lat="43.18289" lon="6.61313">
        <ele>145.4</ele>
        <time>2025-10-12T14:32:38.000Z</time>
      </trkpt>
      <trkpt lat="43.18282" lon="6.61305">
        <ele>145.2</ele>
        <time>2025-10-12T14:32:47.000Z</time>
      </trkpt>
      <trkpt lat="43.18275" lon="6.61295">
        <ele>145.1</ele>
        <time>2025-10-12T14:32:57.000Z</time>
      </trkpt>
      <trkpt lat="43.18268" lon="6.61287">
        <ele>144.9</ele>
        <time>2025-10-12T14:33:07.000Z</time>
      </trkpt>
      <trkpt lat="43.18261" lon="6.61279">
        <ele>144.4</ele>
        <time>2025-10-12T14:33:16.000Z</time>
      </trkpt>
      <trkpt lat="43.18257" lon="6.61276">
        <ele>143.5</ele>
        <time>2025-10-12T14:33:27.000Z</time>
      </trkpt>
      <trkpt lat="43.18257" lon="6.61276">
        <ele>143.4</ele>
        <time>2025-10-12T14:33:28.000Z</time>
      </trkpt>
      <trkpt lat="43.18257" lon="6.61276">
        <ele>143.4</ele>
        <time>2025-10-12T14:33:29.000Z</time>
      </trkpt>
      <trkpt lat="43.18257" lon="6.61276">
        <ele>142.8</ele>
        <time>2025-10-12T14:33:45.000Z</time>
      </trkpt>
      <trkpt lat="43.18257" lon="6.61276">
        <ele>142.8</ele>
        <time>2025-10-12T14:33:46.000Z</time>
      </trkpt>
      <trkpt lat="43.18257" lon="6.61276">
        <ele>142.8</ele>
        <time>2025-10-12T14:33:47.000Z</time>
      </trkpt>
      <trkpt lat="43.18257" lon="6.61276">
        <ele>142.8</ele>
        <time>2025-10-12T14:33:48.000Z</time>
      </trkpt>
      <trkpt lat="43.18257" lon="6.61276">
        <ele>142.8</ele>
        <time>2025-10-12T14:33:49.000Z</time>
      </trkpt>
      <trkpt lat="43.18257" lon="6.61276">
        <ele>142.7</ele>
        <time>2025-10-12T14:34:00.000Z</time>
      </trkpt>
      <trkpt lat="43.18257" lon="6.61276">
        <ele>142.7</ele>
        <time>2025-10-12T14:34:01.000Z</time>
      </trkpt>
      <trkpt lat="43.18257" lon="6.61276">
        <ele>142.7</ele>
        <time>2025-10-12T14:34:02.000Z</time>
      </trkpt>
      <trkpt lat="43.18257" lon="6.61276">
        <ele>142.7</ele>
        <time>2025-10-12T14:34:03.000Z</time>
      </trkpt>
      <trkpt lat="43.18257" lon="6.61276">
        <ele>142.7</ele>
        <time>2025-10-12T14:34:04.000Z</time>
      </trkpt>
      <trkpt lat="43.18257" lon="6.61276">
        <ele>142.7</ele>
        <time>2025-10-12T14:34:10.000Z</time>
      </trkpt>
      <trkpt lat="43.18257" lon="6.61276">
        <ele>142.7</ele>
        <time>2025-10-12T14:34:11.000Z</time>
      </trkpt>
      <trkpt lat="43.18256" lon="6.61276">
        <ele>142.6</ele>
        <time>2025-10-12T14:34:16.000Z</time>
      </trkpt>
      <trkpt lat="43.18256" lon="6.61276">
        <ele>142.6</ele>
        <time>2025-10-12T14:34:17.000Z</time>
      </trkpt>
      <trkpt lat="43.18256" lon="6.61276">
        <ele>142.6</ele>
        <time>2025-10-12T14:34:18.000Z</time>
      </trkpt>
      <trkpt lat="43.18256" lon="6.61276">
        <ele>142.6</ele>
        <time>2025-10-12T14:34:19.000Z</time>
      </trkpt>
      <trkpt lat="43.18256" lon="6.61276">
        <ele>142.6</ele>
        <time>2025-10-12T14:34:20.000Z</time>
      </trkpt>
      <trkpt lat="43.18256" lon="6.61276">
        <ele>142.6</ele>
        <time>2025-10-12T14:34:21.000Z</time>
      </trkpt>
      <trkpt lat="43.18256" lon="6.61276">
        <ele>142.6</ele>
        <time>2025-10-12T14:34:22.000Z</time>
      </trkpt>
      <trkpt lat="43.18256" lon="6.61275">
        <ele>142.6</ele>
        <time>2025-10-12T14:34:26.000Z</time>
      </trkpt>
      <trkpt lat="43.18256" lon="6.61275">
        <ele>142.6</ele>
        <time>2025-10-12T14:34:27.000Z</time>
      </trkpt>
      <trkpt lat="43.18256" lon="6.61275">
        <ele>142.6</ele>
        <time>2025-10-12T14:34:28.000Z</time>
      </trkpt>
      <trkpt lat="43.18256" lon="6.61275">
        <ele>142.6</ele>
        <time>2025-10-12T14:34:29.000Z</time>
      </trkpt>
      <trkpt lat="43.18256" lon="6.61275">
        <ele>142.6</ele>
        <time>2025-10-12T14:34:30.000Z</time>
      </trkpt>
      <trkpt lat="43.18256" lon="6.61275">
        <ele>142.6</ele>
        <time>2025-10-12T14:34:31.000Z</time>
      </trkpt>
      <trkpt lat="43.18256" lon="6.61275">
        <ele>142.6</ele>
        <time>2025-10-12T14:34:32.000Z</time>
      </trkpt>
      <trkpt lat="43.18256" lon="6.61275">
        <ele>142.6</ele>
        <time>2025-10-12T14:34:33.000Z</time>
      </trkpt>
      <trkpt lat="43.18256" lon="6.61275">
        <ele>142.6</ele>
        <time>2025-10-12T14:34:34.000Z</time>
      </trkpt>
      <trkpt lat="43.18256" lon="6.61275">
        <ele>142.6</ele>
        <time>2025-10-12T14:34:35.000Z</time>
      </trkpt>
      <trkpt lat="43.18256" lon="6.61275">
        <ele>142.6</ele>
        <time>2025-10-12T14:34:38.000Z</time>
      </trkpt>
      <trkpt lat="43.18256" lon="6.61275">
        <ele>142.6</ele>
        <time>2025-10-12T14:34:39.000Z</time>
      </trkpt>
      <trkpt lat="43.18256" lon="6.61275">
        <ele>142.5</ele>
        <time>2025-10-12T14:34:42.000Z</time>
      </trkpt>
      <trkpt lat="43.18256" lon="6.61275">
        <ele>142.5</ele>
        <time>2025-10-12T14:34:43.000Z</time>
      </trkpt>
      <trkpt lat="43.18256" lon="6.61275">
        <ele>142.5</ele>
        <time>2025-10-12T14:34:44.000Z</time>
      </trkpt>
      <trkpt lat="43.18256" lon="6.61275">
        <ele>142.4</ele>
        <time>2025-10-12T14:34:58.000Z</time>
      </trkpt>
      <trkpt lat="43.18255" lon="6.61274">
        <ele>142.4</ele>
        <time>2025-10-12T14:34:59.000Z</time>
      </trkpt>
      <trkpt lat="43.18255" lon="6.61274">
        <ele>142.3</ele>
        <time>2025-10-12T14:35:02.000Z</time>
      </trkpt>
      <trkpt lat="43.18255" lon="6.61274">
        <ele>142.2</ele>
        <time>2025-10-12T14:35:03.000Z</time>
      </trkpt>
      <trkpt lat="43.18255" lon="6.61274">
        <ele>142.2</ele>
        <time>2025-10-12T14:35:04.000Z</time>
      </trkpt>
      <trkpt lat="43.18255" lon="6.61274">
        <ele>142.2</ele>
        <time>2025-10-12T14:35:05.000Z</time>
      </trkpt>
      <trkpt lat="43.18255" lon="6.61274">
        <ele>142.2</ele>
        <time>2025-10-12T14:35:06.000Z</time>
      </trkpt>
      <trkpt lat="43.18255" lon="6.61274">
        <ele>142.1</ele>
        <time>2025-10-12T14:35:07.000Z</time>
      </trkpt>
      <trkpt lat="43.18255" lon="6.61274">
        <ele>142.1</ele>
        <time>2025-10-12T14:35:08.000Z</time>
      </trkpt>
      <trkpt lat="43.18255" lon="6.61274">
        <ele>142.1</ele>
        <time>2025-10-12T14:35:09.000Z</time>
      </trkpt>
      <trkpt lat="43.18255" lon="6.61274">
        <ele>141.6</ele>
        <time>2025-10-12T14:37:01.000Z</time>
      </trkpt>
      <trkpt lat="43.18255" lon="6.61274">
        <ele>141.5</ele>
        <time>2025-10-12T14:37:02.000Z</time>
      </trkpt>
      <trkpt lat="43.18255" lon="6.61274">
        <ele>141.5</ele>
        <time>2025-10-12T14:37:05.000Z</time>
      </trkpt>
      <trkpt lat="43.18255" lon="6.61274">
        <ele>141.5</ele>
        <time>2025-10-12T14:37:06.000Z</time>
      </trkpt>
      <trkpt lat="43.18255" lon="6.61274">
        <ele>141.4</ele>
        <time>2025-10-12T14:37:18.000Z</time>
      </trkpt>
      <trkpt lat="43.18255" lon="6.61274">
        <ele>141.4</ele>
        <time>2025-10-12T14:37:19.000Z</time>
      </trkpt>
      <trkpt lat="43.18255" lon="6.61274">
        <ele>141.4</ele>
        <time>2025-10-12T14:37:20.000Z</time>
      </trkpt>
      <trkpt lat="43.18255" lon="6.61274">
        <ele>141.4</ele>
        <time>2025-10-12T14:37:21.000Z</time>
      </trkpt>
      <trkpt lat="43.18254" lon="6.61273">
        <ele>141.4</ele>
        <time>2025-10-12T14:37:25.000Z</time>
      </trkpt>
      <trkpt lat="43.18254" lon="6.61272">
        <ele>141.4</ele>
        <time>2025-10-12T14:37:26.000Z</time>
      </trkpt>
      <trkpt lat="43.18254" lon="6.61272">
        <ele>141.4</ele>
        <time>2025-10-12T14:37:27.000Z</time>
      </trkpt>
      <trkpt lat="43.18263" lon="6.61267">
        <ele>140.4</ele>
        <time>2025-10-12T14:37:49.000Z</time>
      </trkpt>
      <trkpt lat="43.18272" lon="6.61266">
        <ele>138.5</ele>
        <time>2025-10-12T14:38:01.000Z</time>
      </trkpt>
      <trkpt lat="43.18282" lon="6.61264">
        <ele>137.3</ele>
        <time>2025-10-12T14:38:11.000Z</time>
      </trkpt>
      <trkpt lat="43.1829" lon="6.61259">
        <ele>136.8</ele>
        <time>2025-10-12T14:38:20.000Z</time>
      </trkpt>
      <trkpt lat="43.18295" lon="6.61247">
        <ele>136.5</ele>
        <time>2025-10-12T14:38:29.000Z</time>
      </trkpt>
      <trkpt lat="43.18301" lon="6.61236">
        <ele>135.8</ele>
        <time>2025-10-12T14:38:39.000Z</time>
      </trkpt>
      <trkpt lat="43.18306" lon="6.61226">
        <ele>134.9</ele>
        <time>2025-10-12T14:38:48.000Z</time>
      </trkpt>
      <trkpt lat="43.18313" lon="6.61216">
        <ele>133.7</ele>
        <time>2025-10-12T14:38:58.000Z</time>
      </trkpt>
      <trkpt lat="43.1832" lon="6.61208">
        <ele>132.2</ele>
        <time>2025-10-12T14:39:12.000Z</time>
      </trkpt>
      <trkpt lat="43.18329" lon="6.61202">
        <ele>131.5</ele>
        <time>2025-10-12T14:39:21.000Z</time>
      </trkpt>
      <trkpt lat="43.18337" lon="6.61196">
        <ele>130.6</ele>
        <time>2025-10-12T14:39:30.000Z</time>
      </trkpt>
      <trkpt lat="43.18345" lon="6.61189">
        <ele>129.6</ele>
        <time>2025-10-12T14:39:39.000Z</time>
      </trkpt>
      <trkpt lat="43.18349" lon="6.61178">
        <ele>128.4</ele>
        <time>2025-10-12T14:39:48.000Z</time>
      </trkpt>
      <trkpt lat="43.18353" lon="6.61165">
        <ele>127</ele>
        <time>2025-10-12T14:39:59.000Z</time>
      </trkpt>
      <trkpt lat="43.18357" lon="6.61154">
        <ele>126.2</ele>
        <time>2025-10-12T14:40:07.000Z</time>
      </trkpt>
      <trkpt lat="43.18361" lon="6.61143">
        <ele>125.5</ele>
        <time>2025-10-12T14:40:15.000Z</time>
      </trkpt>
      <trkpt lat="43.18364" lon="6.61131">
        <ele>124.7</ele>
        <time>2025-10-12T14:40:25.000Z</time>
      </trkpt>
      <trkpt lat="43.18367" lon="6.61118">
        <ele>124.1</ele>
        <time>2025-10-12T14:40:34.000Z</time>
      </trkpt>
      <trkpt lat="43.18369" lon="6.61106">
        <ele>123.4</ele>
        <time>2025-10-12T14:40:43.000Z</time>
      </trkpt>
      <trkpt lat="43.18372" lon="6.61094">
        <ele>122.7</ele>
        <time>2025-10-12T14:40:53.000Z</time>
      </trkpt>
      <trkpt lat="43.18375" lon="6.61081">
        <ele>122.1</ele>
        <time>2025-10-12T14:41:01.000Z</time>
      </trkpt>
      <trkpt lat="43.18376" lon="6.61069">
        <ele>121.6</ele>
        <time>2025-10-12T14:41:09.000Z</time>
      </trkpt>
      <trkpt lat="43.1838" lon="6.61057">
        <ele>120.7</ele>
        <time>2025-10-12T14:41:19.000Z</time>
      </trkpt>
      <trkpt lat="43.18382" lon="6.61045">
        <ele>119.3</ele>
        <time>2025-10-12T14:41:28.000Z</time>
      </trkpt>
      <trkpt lat="43.18384" lon="6.61033">
        <ele>117.3</ele>
        <time>2025-10-12T14:41:38.000Z</time>
      </trkpt>
      <trkpt lat="43.18386" lon="6.61019">
        <ele>115.7</ele>
        <time>2025-10-12T14:41:48.000Z</time>
      </trkpt>
      <trkpt lat="43.18386" lon="6.61006">
        <ele>114.3</ele>
        <time>2025-10-12T14:41:57.000Z</time>
      </trkpt>
      <trkpt lat="43.18382" lon="6.60994">
        <ele>113.7</ele>
        <time>2025-10-12T14:42:05.000Z</time>
      </trkpt>
      <trkpt lat="43.18375" lon="6.60986">
        <ele>113.2</ele>
        <time>2025-10-12T14:42:12.000Z</time>
      </trkpt>
      <trkpt lat="43.18367" lon="6.60978">
        <ele>112.6</ele>
        <time>2025-10-12T14:42:21.000Z</time>
      </trkpt>
      <trkpt lat="43.18358" lon="6.60971">
        <ele>111.8</ele>
        <time>2025-10-12T14:42:32.000Z</time>
      </trkpt>
      <trkpt lat="43.1835" lon="6.60964">
        <ele>111.3</ele>
        <time>2025-10-12T14:42:40.000Z</time>
      </trkpt>
      <trkpt lat="43.18346" lon="6.60952">
        <ele>110.7</ele>
        <time>2025-10-12T14:42:49.000Z</time>
      </trkpt>
      <trkpt lat="43.18341" lon="6.60941">
        <ele>110</ele>
        <time>2025-10-12T14:42:57.000Z</time>
      </trkpt>
      <trkpt lat="43.18339" lon="6.60928">
        <ele>108.9</ele>
        <time>2025-10-12T14:43:06.000Z</time>
      </trkpt>
      <trkpt lat="43.18341" lon="6.60915">
        <ele>107.6</ele>
        <time>2025-10-12T14:43:16.000Z</time>
      </trkpt>
      <trkpt lat="43.18345" lon="6.60903">
        <ele>106.1</ele>
        <time>2025-10-12T14:43:26.000Z</time>
      </trkpt>
      <trkpt lat="43.18348" lon="6.60891">
        <ele>104.9</ele>
        <time>2025-10-12T14:43:35.000Z</time>
      </trkpt>
      <trkpt lat="43.18352" lon="6.60879">
        <ele>103.7</ele>
        <time>2025-10-12T14:43:44.000Z</time>
      </trkpt>
      <trkpt lat="43.18353" lon="6.60866">
        <ele>102.9</ele>
        <time>2025-10-12T14:43:53.000Z</time>
      </trkpt>
      <trkpt lat="43.18351" lon="6.60853">
        <ele>102.5</ele>
        <time>2025-10-12T14:44:01.000Z</time>
      </trkpt>
      <trkpt lat="43.1835" lon="6.60841">
        <ele>102</ele>
        <time>2025-10-12T14:44:09.000Z</time>
      </trkpt>
      <trkpt lat="43.18351" lon="6.60828">
        <ele>101.2</ele>
        <time>2025-10-12T14:44:19.000Z</time>
      </trkpt>
      <trkpt lat="43.1835" lon="6.60814">
        <ele>100.2</ele>
        <time>2025-10-12T14:44:28.000Z</time>
      </trkpt>
      <trkpt lat="43.1835" lon="6.60801">
        <ele>98.8</ele>
        <time>2025-10-12T14:44:36.000Z</time>
      </trkpt>
      <trkpt lat="43.1835" lon="6.60787">
        <ele>97.6</ele>
        <time>2025-10-12T14:44:44.000Z</time>
      </trkpt>
      <trkpt lat="43.18348" lon="6.60775">
        <ele>96.6</ele>
        <time>2025-10-12T14:44:53.000Z</time>
      </trkpt>
      <trkpt lat="43.18347" lon="6.60761">
        <ele>95.9</ele>
        <time>2025-10-12T14:45:02.000Z</time>
      </trkpt>
      <trkpt lat="43.18347" lon="6.60748">
        <ele>95.3</ele>
        <time>2025-10-12T14:45:10.000Z</time>
      </trkpt>
      <trkpt lat="43.18347" lon="6.60734">
        <ele>94.5</ele>
        <time>2025-10-12T14:45:20.000Z</time>
      </trkpt>
      <trkpt lat="43.18349" lon="6.60722">
        <ele>93.6</ele>
        <time>2025-10-12T14:45:30.000Z</time>
      </trkpt>
      <trkpt lat="43.1835" lon="6.60709">
        <ele>92.7</ele>
        <time>2025-10-12T14:45:39.000Z</time>
      </trkpt>
      <trkpt lat="43.18351" lon="6.60696">
        <ele>91.2</ele>
        <time>2025-10-12T14:45:49.000Z</time>
      </trkpt>
      <trkpt lat="43.18351" lon="6.60683">
        <ele>89.7</ele>
        <time>2025-10-12T14:45:59.000Z</time>
      </trkpt>
      <trkpt lat="43.18354" lon="6.6067">
        <ele>88.4</ele>
        <time>2025-10-12T14:46:09.000Z</time>
      </trkpt>
      <trkpt lat="43.18358" lon="6.60659">
        <ele>87.6</ele>
        <time>2025-10-12T14:46:17.000Z</time>
      </trkpt>
      <trkpt lat="43.18365" lon="6.60651">
        <ele>86.8</ele>
        <time>2025-10-12T14:46:26.000Z</time>
      </trkpt>
      <trkpt lat="43.18374" lon="6.60644">
        <ele>85.8</ele>
        <time>2025-10-12T14:46:40.000Z</time>
      </trkpt>
      <trkpt lat="43.18382" lon="6.60638">
        <ele>85</ele>
        <time>2025-10-12T14:46:51.000Z</time>
      </trkpt>
      <trkpt lat="43.1839" lon="6.60632">
        <ele>84</ele>
        <time>2025-10-12T14:47:00.000Z</time>
      </trkpt>
      <trkpt lat="43.18399" lon="6.60625">
        <ele>83.2</ele>
        <time>2025-10-12T14:47:07.000Z</time>
      </trkpt>
      <trkpt lat="43.18407" lon="6.6062">
        <ele>82.2</ele>
        <time>2025-10-12T14:47:15.000Z</time>
      </trkpt>
      <trkpt lat="43.18416" lon="6.60614">
        <ele>81.2</ele>
        <time>2025-10-12T14:47:24.000Z</time>
      </trkpt>
      <trkpt lat="43.18423" lon="6.60606">
        <ele>80.2</ele>
        <time>2025-10-12T14:47:31.000Z</time>
      </trkpt>
      <trkpt lat="43.18424" lon="6.60593">
        <ele>79.3</ele>
        <time>2025-10-12T14:47:40.000Z</time>
      </trkpt>
      <trkpt lat="43.18419" lon="6.60583">
        <ele>77.7</ele>
        <time>2025-10-12T14:47:51.000Z</time>
      </trkpt>
      <trkpt lat="43.18412" lon="6.60573">
        <ele>76.5</ele>
        <time>2025-10-12T14:48:00.000Z</time>
      </trkpt>
      <trkpt lat="43.18405" lon="6.60565">
        <ele>75.3</ele>
        <time>2025-10-12T14:48:10.000Z</time>
      </trkpt>
      <trkpt lat="43.18402" lon="6.60564">
        <ele>75</ele>
        <time>2025-10-12T14:48:13.000Z</time>
      </trkpt>
      <trkpt lat="43.18402" lon="6.60564">
        <ele>74.9</ele>
        <time>2025-10-12T14:48:14.000Z</time>
      </trkpt>
      <trkpt lat="43.18401" lon="6.60563">
        <ele>74.8</ele>
        <time>2025-10-12T14:48:15.000Z</time>
      </trkpt>
      <trkpt lat="43.184" lon="6.60563">
        <ele>74.8</ele>
        <time>2025-10-12T14:48:16.000Z</time>
      </trkpt>
      <trkpt lat="43.184" lon="6.60562">
        <ele>74.7</ele>
        <time>2025-10-12T14:48:17.000Z</time>
      </trkpt>
      <trkpt lat="43.18392" lon="6.60554">
        <ele>73.8</ele>
        <time>2025-10-12T14:48:29.000Z</time>
      </trkpt>
      <trkpt lat="43.18384" lon="6.60548">
        <ele>72.9</ele>
        <time>2025-10-12T14:48:38.000Z</time>
      </trkpt>
      <trkpt lat="43.18376" lon="6.60543">
        <ele>72</ele>
        <time>2025-10-12T14:48:47.000Z</time>
      </trkpt>
      <trkpt lat="43.18367" lon="6.60538">
        <ele>70.6</ele>
        <time>2025-10-12T14:48:57.000Z</time>
      </trkpt>
      <trkpt lat="43.18358" lon="6.60533">
        <ele>69.5</ele>
        <time>2025-10-12T14:49:06.000Z</time>
      </trkpt>
      <trkpt lat="43.18348" lon="6.60529">
        <ele>68</ele>
        <time>2025-10-12T14:49:18.000Z</time>
      </trkpt>
      <trkpt lat="43.1834" lon="6.60523">
        <ele>66.6</ele>
        <time>2025-10-12T14:49:30.000Z</time>
      </trkpt>
      <trkpt lat="43.1833" lon="6.60518">
        <ele>65.4</ele>
        <time>2025-10-12T14:49:39.000Z</time>
      </trkpt>
      <trkpt lat="43.18324" lon="6.60509">
        <ele>64</ele>
        <time>2025-10-12T14:49:50.000Z</time>
      </trkpt>
      <trkpt lat="43.18317" lon="6.60501">
        <ele>62</ele>
        <time>2025-10-12T14:50:04.000Z</time>
      </trkpt>
      <trkpt lat="43.18314" lon="6.60487">
        <ele>60.6</ele>
        <time>2025-10-12T14:50:14.000Z</time>
      </trkpt>
      <trkpt lat="43.18313" lon="6.60475">
        <ele>59.3</ele>
        <time>2025-10-12T14:50:23.000Z</time>
      </trkpt>
      <trkpt lat="43.18316" lon="6.60463">
        <ele>58.1</ele>
        <time>2025-10-12T14:50:33.000Z</time>
      </trkpt>
      <trkpt lat="43.18319" lon="6.60451">
        <ele>56.4</ele>
        <time>2025-10-12T14:50:47.000Z</time>
      </trkpt>
      <trkpt lat="43.18324" lon="6.6044">
        <ele>55.3</ele>
        <time>2025-10-12T14:50:58.000Z</time>
      </trkpt>
      <trkpt lat="43.18327" lon="6.60427">
        <ele>53.7</ele>
        <time>2025-10-12T14:51:09.000Z</time>
      </trkpt>
      <trkpt lat="43.18328" lon="6.6042">
        <ele>52.4</ele>
        <time>2025-10-12T14:51:22.000Z</time>
      </trkpt>
      <trkpt lat="43.18328" lon="6.6042">
        <ele>52.3</ele>
        <time>2025-10-12T14:51:23.000Z</time>
      </trkpt>
      <trkpt lat="43.18328" lon="6.6042">
        <ele>52.3</ele>
        <time>2025-10-12T14:51:24.000Z</time>
      </trkpt>
      <trkpt lat="43.18327" lon="6.60419">
        <ele>52.3</ele>
        <time>2025-10-12T14:51:27.000Z</time>
      </trkpt>
      <trkpt lat="43.18327" lon="6.60419">
        <ele>52.3</ele>
        <time>2025-10-12T14:51:28.000Z</time>
      </trkpt>
      <trkpt lat="43.18326" lon="6.60419">
        <ele>52.3</ele>
        <time>2025-10-12T14:51:29.000Z</time>
      </trkpt>
      <trkpt lat="43.18326" lon="6.60419">
        <ele>52.2</ele>
        <time>2025-10-12T14:51:38.000Z</time>
      </trkpt>
      <trkpt lat="43.18326" lon="6.60419">
        <ele>52.2</ele>
        <time>2025-10-12T14:51:39.000Z</time>
      </trkpt>
      <trkpt lat="43.18326" lon="6.60419">
        <ele>52.2</ele>
        <time>2025-10-12T14:51:40.000Z</time>
      </trkpt>
      <trkpt lat="43.18326" lon="6.60419">
        <ele>52.2</ele>
        <time>2025-10-12T14:51:41.000Z</time>
      </trkpt>
      <trkpt lat="43.18326" lon="6.60419">
        <ele>52.2</ele>
        <time>2025-10-12T14:51:42.000Z</time>
      </trkpt>
      <trkpt lat="43.18326" lon="6.60419">
        <ele>52.1</ele>
        <time>2025-10-12T14:51:43.000Z</time>
      </trkpt>
      <trkpt lat="43.18325" lon="6.60419">
        <ele>52.1</ele>
        <time>2025-10-12T14:51:44.000Z</time>
      </trkpt>
      <trkpt lat="43.18325" lon="6.60419">
        <ele>52.1</ele>
        <time>2025-10-12T14:51:45.000Z</time>
      </trkpt>
      <trkpt lat="43.18325" lon="6.60419">
        <ele>52.1</ele>
        <time>2025-10-12T14:51:46.000Z</time>
      </trkpt>
      <trkpt lat="43.18325" lon="6.60419">
        <ele>52.1</ele>
        <time>2025-10-12T14:51:47.000Z</time>
      </trkpt>
      <trkpt lat="43.18325" lon="6.60419">
        <ele>52.1</ele>
        <time>2025-10-12T14:51:48.000Z</time>
      </trkpt>
      <trkpt lat="43.18325" lon="6.60419">
        <ele>52.1</ele>
        <time>2025-10-12T14:51:49.000Z</time>
      </trkpt>
      <trkpt lat="43.18325" lon="6.60419">
        <ele>52.3</ele>
        <time>2025-10-12T14:52:18.000Z</time>
      </trkpt>
      <trkpt lat="43.18325" lon="6.60419">
        <ele>52.3</ele>
        <time>2025-10-12T14:52:19.000Z</time>
      </trkpt>
      <trkpt lat="43.18325" lon="6.60419">
        <ele>52.3</ele>
        <time>2025-10-12T14:52:20.000Z</time>
      </trkpt>
      <trkpt lat="43.18325" lon="6.60419">
        <ele>52.3</ele>
        <time>2025-10-12T14:52:21.000Z</time>
      </trkpt>
      <trkpt lat="43.18325" lon="6.60419">
        <ele>52.3</ele>
        <time>2025-10-12T14:52:22.000Z</time>
      </trkpt>
      <trkpt lat="43.18325" lon="6.60419">
        <ele>52.3</ele>
        <time>2025-10-12T14:52:23.000Z</time>
      </trkpt>
      <trkpt lat="43.18325" lon="6.60419">
        <ele>52.3</ele>
        <time>2025-10-12T14:52:24.000Z</time>
      </trkpt>
      <trkpt lat="43.18325" lon="6.60419">
        <ele>52.3</ele>
        <time>2025-10-12T14:52:27.000Z</time>
      </trkpt>
      <trkpt lat="43.18325" lon="6.60419">
        <ele>52.3</ele>
        <time>2025-10-12T14:52:28.000Z</time>
      </trkpt>
      <trkpt lat="43.18325" lon="6.60419">
        <ele>52.3</ele>
        <time>2025-10-12T14:52:29.000Z</time>
      </trkpt>
      <trkpt lat="43.18325" lon="6.60419">
        <ele>52.3</ele>
        <time>2025-10-12T14:52:51.000Z</time>
      </trkpt>
      <trkpt lat="43.18325" lon="6.60419">
        <ele>52.3</ele>
        <time>2025-10-12T14:52:52.000Z</time>
      </trkpt>
      <trkpt lat="43.18325" lon="6.60419">
        <ele>52.3</ele>
        <time>2025-10-12T14:52:53.000Z</time>
      </trkpt>
      <trkpt lat="43.18325" lon="6.60419">
        <ele>52.3</ele>
        <time>2025-10-12T14:52:54.000Z</time>
      </trkpt>
      <trkpt lat="43.18325" lon="6.60419">
        <ele>52.3</ele>
        <time>2025-10-12T14:52:55.000Z</time>
      </trkpt>
      <trkpt lat="43.18326" lon="6.60419">
        <ele>52.3</ele>
        <time>2025-10-12T14:52:56.000Z</time>
      </trkpt>
      <trkpt lat="43.18326" lon="6.60419">
        <ele>52.3</ele>
        <time>2025-10-12T14:52:57.000Z</time>
      </trkpt>
      <trkpt lat="43.18326" lon="6.60419">
        <ele>52.3</ele>
        <time>2025-10-12T14:53:02.000Z</time>
      </trkpt>
      <trkpt lat="43.18326" lon="6.60419">
        <ele>52.3</ele>
        <time>2025-10-12T14:53:03.000Z</time>
      </trkpt>
      <trkpt lat="43.18326" lon="6.60419">
        <ele>52.3</ele>
        <time>2025-10-12T14:53:04.000Z</time>
      </trkpt>
      <trkpt lat="43.18326" lon="6.60419">
        <ele>52.3</ele>
        <time>2025-10-12T14:53:08.000Z</time>
      </trkpt>
      <trkpt lat="43.18326" lon="6.60419">
        <ele>52.3</ele>
        <time>2025-10-12T14:53:09.000Z</time>
      </trkpt>
      <trkpt lat="43.18326" lon="6.60419">
        <ele>52.3</ele>
        <time>2025-10-12T14:53:10.000Z</time>
      </trkpt>
      <trkpt lat="43.18326" lon="6.60419">
        <ele>52.3</ele>
        <time>2025-10-12T14:53:15.000Z</time>
      </trkpt>
      <trkpt lat="43.18326" lon="6.60419">
        <ele>52.3</ele>
        <time>2025-10-12T14:53:16.000Z</time>
      </trkpt>
      <trkpt lat="43.18326" lon="6.60419">
        <ele>52.3</ele>
        <time>2025-10-12T14:53:17.000Z</time>
      </trkpt>
      <trkpt lat="43.18326" lon="6.60419">
        <ele>52.3</ele>
        <time>2025-10-12T14:53:18.000Z</time>
      </trkpt>
      <trkpt lat="43.18326" lon="6.60418">
        <ele>52.3</ele>
        <time>2025-10-12T14:53:19.000Z</time>
      </trkpt>
      <trkpt lat="43.18334" lon="6.60412">
        <ele>52.2</ele>
        <time>2025-10-12T14:53:34.000Z</time>
      </trkpt>
      <trkpt lat="43.18343" lon="6.6041">
        <ele>51.9</ele>
        <time>2025-10-12T14:53:47.000Z</time>
      </trkpt>
      <trkpt lat="43.18352" lon="6.60412">
        <ele>51.2</ele>
        <time>2025-10-12T14:54:00.000Z</time>
      </trkpt>
      <trkpt lat="43.18361" lon="6.60416">
        <ele>50.4</ele>
        <time>2025-10-12T14:54:11.000Z</time>
      </trkpt>
      <trkpt lat="43.1837" lon="6.60422">
        <ele>49.7</ele>
        <time>2025-10-12T14:54:21.000Z</time>
      </trkpt>
      <trkpt lat="43.18378" lon="6.60429">
        <ele>49.2</ele>
        <time>2025-10-12T14:54:32.000Z</time>
      </trkpt>
      <trkpt lat="43.18384" lon="6.60439">
        <ele>48.7</ele>
        <time>2025-10-12T14:54:42.000Z</time>
      </trkpt>
      <trkpt lat="43.18391" lon="6.60448">
        <ele>48.1</ele>
        <time>2025-10-12T14:54:51.000Z</time>
      </trkpt>
      <trkpt lat="43.18399" lon="6.60456">
        <ele>47.4</ele>
        <time>2025-10-12T14:55:00.000Z</time>
      </trkpt>
      <trkpt lat="43.18406" lon="6.60463">
        <ele>46.8</ele>
        <time>2025-10-12T14:55:10.000Z</time>
      </trkpt>
      <trkpt lat="43.18416" lon="6.60464">
        <ele>46.2</ele>
        <time>2025-10-12T14:55:20.000Z</time>
      </trkpt>
      <trkpt lat="43.18426" lon="6.60461">
        <ele>45.9</ele>
        <time>2025-10-12T14:55:28.000Z</time>
      </trkpt>
      <trkpt lat="43.18436" lon="6.60456">
        <ele>45.4</ele>
        <time>2025-10-12T14:55:36.000Z</time>
      </trkpt>
      <trkpt lat="43.18444" lon="6.6045">
        <ele>44.9</ele>
        <time>2025-10-12T14:55:43.000Z</time>
      </trkpt>
      <trkpt lat="43.18449" lon="6.60439">
        <ele>43.9</ele>
        <time>2025-10-12T14:55:54.000Z</time>
      </trkpt>
      <trkpt lat="43.18453" lon="6.60427">
        <ele>42.7</ele>
        <time>2025-10-12T14:56:03.000Z</time>
      </trkpt>
      <trkpt lat="43.18459" lon="6.60416">
        <ele>41.7</ele>
        <time>2025-10-12T14:56:12.000Z</time>
      </trkpt>
      <trkpt lat="43.1846" lon="6.60403">
        <ele>40.5</ele>
        <time>2025-10-12T14:56:23.000Z</time>
      </trkpt>
      <trkpt lat="43.18463" lon="6.6039">
        <ele>39.4</ele>
        <time>2025-10-12T14:56:33.000Z</time>
      </trkpt>
      <trkpt lat="43.18459" lon="6.60377">
        <ele>38</ele>
        <time>2025-10-12T14:56:43.000Z</time>
      </trkpt>
      <trkpt lat="43.18455" lon="6.60366">
        <ele>37.2</ele>
        <time>2025-10-12T14:56:50.000Z</time>
      </trkpt>
      <trkpt lat="43.1845" lon="6.60356">
        <ele>36</ele>
        <time>2025-10-12T14:57:01.000Z</time>
      </trkpt>
      <trkpt lat="43.18444" lon="6.60345">
        <ele>35</ele>
        <time>2025-10-12T14:57:10.000Z</time>
      </trkpt>
      <trkpt lat="43.18436" lon="6.60337">
        <ele>34.1</ele>
        <time>2025-10-12T14:57:20.000Z</time>
      </trkpt>
      <trkpt lat="43.18428" lon="6.60331">
        <ele>33.2</ele>
        <time>2025-10-12T14:57:28.000Z</time>
      </trkpt>
      <trkpt lat="43.18425" lon="6.60318">
        <ele>32.2</ele>
        <time>2025-10-12T14:57:38.000Z</time>
      </trkpt>
      <trkpt lat="43.1842" lon="6.60307">
        <ele>31.4</ele>
        <time>2025-10-12T14:57:47.000Z</time>
      </trkpt>
      <trkpt lat="43.18415" lon="6.60296">
        <ele>30.6</ele>
        <time>2025-10-12T14:57:56.000Z</time>
      </trkpt>
      <trkpt lat="43.18412" lon="6.60284">
        <ele>29.6</ele>
        <time>2025-10-12T14:58:06.000Z</time>
      </trkpt>
      <trkpt lat="43.18409" lon="6.60272">
        <ele>28.5</ele>
        <time>2025-10-12T14:58:16.000Z</time>
      </trkpt>
      <trkpt lat="43.18407" lon="6.60259">
        <ele>27.3</ele>
        <time>2025-10-12T14:58:26.000Z</time>
      </trkpt>
      <trkpt lat="43.18404" lon="6.60247">
        <ele>26.7</ele>
        <time>2025-10-12T14:58:34.000Z</time>
      </trkpt>
      <trkpt lat="43.18401" lon="6.60234">
        <ele>26.1</ele>
        <time>2025-10-12T14:58:43.000Z</time>
      </trkpt>
      <trkpt lat="43.18396" lon="6.60224">
        <ele>25.6</ele>
        <time>2025-10-12T14:58:52.000Z</time>
      </trkpt>
      <trkpt lat="43.18392" lon="6.60212">
        <ele>25</ele>
        <time>2025-10-12T14:59:00.000Z</time>
      </trkpt>
      <trkpt lat="43.18385" lon="6.60202">
        <ele>24.5</ele>
        <time>2025-10-12T14:59:08.000Z</time>
      </trkpt>
      <trkpt lat="43.18377" lon="6.60194">
        <ele>24</ele>
        <time>2025-10-12T14:59:16.000Z</time>
      </trkpt>
      <trkpt lat="43.1837" lon="6.60185">
        <ele>23.5</ele>
        <time>2025-10-12T14:59:24.000Z</time>
      </trkpt>
      <trkpt lat="43.18361" lon="6.60178">
        <ele>23.1</ele>
        <time>2025-10-12T14:59:32.000Z</time>
      </trkpt>
      <trkpt lat="43.18354" lon="6.60169">
        <ele>23</ele>
        <time>2025-10-12T14:59:41.000Z</time>
      </trkpt>
      <trkpt lat="43.1835" lon="6.60158">
        <ele>22.9</ele>
        <time>2025-10-12T14:59:49.000Z</time>
      </trkpt>
      <trkpt lat="43.1835" lon="6.60145">
        <ele>22.5</ele>
        <time>2025-10-12T14:59:59.000Z</time>
      </trkpt>
      <trkpt lat="43.18356" lon="6.60134">
        <ele>22.4</ele>
        <time>2025-10-12T15:00:08.000Z</time>
      </trkpt>
      <trkpt lat="43.18362" lon="6.60124">
        <ele>22.4</ele>
        <time>2025-10-12T15:00:16.000Z</time>
      </trkpt>
      <trkpt lat="43.18367" lon="6.60113">
        <ele>22.5</ele>
        <time>2025-10-12T15:00:25.000Z</time>
      </trkpt>
      <trkpt lat="43.18368" lon="6.60099">
        <ele>22.5</ele>
        <time>2025-10-12T15:00:35.000Z</time>
      </trkpt>
      <trkpt lat="43.1837" lon="6.60087">
        <ele>22.5</ele>
        <time>2025-10-12T15:00:45.000Z</time>
      </trkpt>
      <trkpt lat="43.18376" lon="6.60077">
        <ele>22.5</ele>
        <time>2025-10-12T15:00:55.000Z</time>
      </trkpt>
      <trkpt lat="43.18377" lon="6.60072">
        <ele>22.5</ele>
        <time>2025-10-12T15:01:02.000Z</time>
      </trkpt>
      <trkpt lat="43.18377" lon="6.60072">
        <ele>22.5</ele>
        <time>2025-10-12T15:01:03.000Z</time>
      </trkpt>
      <trkpt lat="43.18377" lon="6.60072">
        <ele>22.5</ele>
        <time>2025-10-12T15:01:04.000Z</time>
      </trkpt>
      <trkpt lat="43.18377" lon="6.60072">
        <ele>22.5</ele>
        <time>2025-10-12T15:01:08.000Z</time>
      </trkpt>
      <trkpt lat="43.18377" lon="6.60071">
        <ele>22.5</ele>
        <time>2025-10-12T15:01:09.000Z</time>
      </trkpt>
      <trkpt lat="43.18377" lon="6.60069">
        <ele>22.4</ele>
        <time>2025-10-12T15:01:15.000Z</time>
      </trkpt>
      <trkpt lat="43.18377" lon="6.60069">
        <ele>22.4</ele>
        <time>2025-10-12T15:01:16.000Z</time>
      </trkpt>
      <trkpt lat="43.18377" lon="6.6007">
        <ele>22.4</ele>
        <time>2025-10-12T15:01:25.000Z</time>
      </trkpt>
      <trkpt lat="43.18377" lon="6.6007">
        <ele>22.4</ele>
        <time>2025-10-12T15:01:26.000Z</time>
      </trkpt>
      <trkpt lat="43.18377" lon="6.6007">
        <ele>22.4</ele>
        <time>2025-10-12T15:01:27.000Z</time>
      </trkpt>
      <trkpt lat="43.18377" lon="6.6007">
        <ele>22.4</ele>
        <time>2025-10-12T15:01:28.000Z</time>
      </trkpt>
      <trkpt lat="43.18377" lon="6.6007">
        <ele>22.4</ele>
        <time>2025-10-12T15:01:29.000Z</time>
      </trkpt>
      <trkpt lat="43.18377" lon="6.6007">
        <ele>22.4</ele>
        <time>2025-10-12T15:01:37.000Z</time>
      </trkpt>
      <trkpt lat="43.18377" lon="6.6007">
        <ele>22.4</ele>
        <time>2025-10-12T15:01:38.000Z</time>
      </trkpt>
      <trkpt lat="43.18377" lon="6.6007">
        <ele>22.4</ele>
        <time>2025-10-12T15:01:39.000Z</time>
      </trkpt>
      <trkpt lat="43.18377" lon="6.6007">
        <ele>22.4</ele>
        <time>2025-10-12T15:01:40.000Z</time>
      </trkpt>
      <trkpt lat="43.18377" lon="6.6007">
        <ele>22.4</ele>
        <time>2025-10-12T15:01:41.000Z</time>
      </trkpt>
      <trkpt lat="43.18375" lon="6.60068">
        <ele>22.3</ele>
        <time>2025-10-12T15:01:50.000Z</time>
      </trkpt>
      <trkpt lat="43.18375" lon="6.60067">
        <ele>22.3</ele>
        <time>2025-10-12T15:01:51.000Z</time>
      </trkpt>
      <trkpt lat="43.18374" lon="6.60066">
        <ele>22.3</ele>
        <time>2025-10-12T15:01:55.000Z</time>
      </trkpt>
      <trkpt lat="43.18374" lon="6.60066">
        <ele>22.3</ele>
        <time>2025-10-12T15:01:56.000Z</time>
      </trkpt>
      <trkpt lat="43.18374" lon="6.60066">
        <ele>22.2</ele>
        <time>2025-10-12T15:02:13.000Z</time>
      </trkpt>
      <trkpt lat="43.18374" lon="6.60066">
        <ele>22.2</ele>
        <time>2025-10-12T15:02:14.000Z</time>
      </trkpt>
      <trkpt lat="43.18374" lon="6.60066">
        <ele>22.2</ele>
        <time>2025-10-12T15:02:23.000Z</time>
      </trkpt>
      <trkpt lat="43.18375" lon="6.60066">
        <ele>22.2</ele>
        <time>2025-10-12T15:02:24.000Z</time>
      </trkpt>
      <trkpt lat="43.18375" lon="6.60067">
        <ele>22.2</ele>
        <time>2025-10-12T15:02:28.000Z</time>
      </trkpt>
      <trkpt lat="43.18375" lon="6.60068">
        <ele>22.2</ele>
        <time>2025-10-12T15:02:29.000Z</time>
      </trkpt>
      <trkpt lat="43.18375" lon="6.60068">
        <ele>22.2</ele>
        <time>2025-10-12T15:02:32.000Z</time>
      </trkpt>
      <trkpt lat="43.18375" lon="6.60068">
        <ele>22.2</ele>
        <time>2025-10-12T15:02:33.000Z</time>
      </trkpt>
      <trkpt lat="43.18375" lon="6.60068">
        <ele>22.2</ele>
        <time>2025-10-12T15:02:34.000Z</time>
      </trkpt>
      <trkpt lat="43.18375" lon="6.60068">
        <ele>22.1</ele>
        <time>2025-10-12T15:02:47.000Z</time>
      </trkpt>
      <trkpt lat="43.18375" lon="6.60068">
        <ele>22.1</ele>
        <time>2025-10-12T15:02:48.000Z</time>
      </trkpt>
      <trkpt lat="43.18375" lon="6.60068">
        <ele>22.1</ele>
        <time>2025-10-12T15:02:49.000Z</time>
      </trkpt>
      <trkpt lat="43.18375" lon="6.60068">
        <ele>22.1</ele>
        <time>2025-10-12T15:02:50.000Z</time>
      </trkpt>
      <trkpt lat="43.18375" lon="6.60068">
        <ele>22.2</ele>
        <time>2025-10-12T15:02:51.000Z</time>
      </trkpt>
      <trkpt lat="43.18375" lon="6.60068">
        <ele>22.2</ele>
        <time>2025-10-12T15:02:52.000Z</time>
      </trkpt>
      <trkpt lat="43.18375" lon="6.60068">
        <ele>22.2</ele>
        <time>2025-10-12T15:03:00.000Z</time>
      </trkpt>
      <trkpt lat="43.18375" lon="6.60068">
        <ele>22.2</ele>
        <time>2025-10-12T15:03:01.000Z</time>
      </trkpt>
      <trkpt lat="43.18375" lon="6.60068">
        <ele>22.2</ele>
        <time>2025-10-12T15:03:02.000Z</time>
      </trkpt>
      <trkpt lat="43.18375" lon="6.60068">
        <ele>22.2</ele>
        <time>2025-10-12T15:03:03.000Z</time>
      </trkpt>
      <trkpt lat="43.18375" lon="6.60068">
        <ele>22.2</ele>
        <time>2025-10-12T15:03:04.000Z</time>
      </trkpt>
      <trkpt lat="43.18375" lon="6.60068">
        <ele>22.2</ele>
        <time>2025-10-12T15:03:05.000Z</time>
      </trkpt>
      <trkpt lat="43.18375" lon="6.60068">
        <ele>22.2</ele>
        <time>2025-10-12T15:03:06.000Z</time>
      </trkpt>
      <trkpt lat="43.18375" lon="6.60068">
        <ele>22.2</ele>
        <time>2025-10-12T15:03:07.000Z</time>
      </trkpt>
      <trkpt lat="43.18375" lon="6.60068">
        <ele>22.2</ele>
        <time>2025-10-12T15:03:08.000Z</time>
      </trkpt>
      <trkpt lat="43.18375" lon="6.60068">
        <ele>22.2</ele>
        <time>2025-10-12T15:03:09.000Z</time>
      </trkpt>
      <trkpt lat="43.18375" lon="6.60068">
        <ele>22.2</ele>
        <time>2025-10-12T15:03:20.000Z</time>
      </trkpt>
      <trkpt lat="43.18375" lon="6.60068">
        <ele>22.2</ele>
        <time>2025-10-12T15:03:21.000Z</time>
      </trkpt>
      <trkpt lat="43.18374" lon="6.60068">
        <ele>22.2</ele>
        <time>2025-10-12T15:03:22.000Z</time>
      </trkpt>
      <trkpt lat="43.18374" lon="6.60069">
        <ele>22.2</ele>
        <time>2025-10-12T15:03:26.000Z</time>
      </trkpt>
      <trkpt lat="43.18374" lon="6.60069">
        <ele>22.2</ele>
        <time>2025-10-12T15:03:27.000Z</time>
      </trkpt>
      <trkpt lat="43.18374" lon="6.60069">
        <ele>22.2</ele>
        <time>2025-10-12T15:03:28.000Z</time>
      </trkpt>
      <trkpt lat="43.18374" lon="6.60069">
        <ele>22.2</ele>
        <time>2025-10-12T15:03:29.000Z</time>
      </trkpt>
      <trkpt lat="43.18374" lon="6.60069">
        <ele>22.2</ele>
        <time>2025-10-12T15:03:30.000Z</time>
      </trkpt>
      <trkpt lat="43.18374" lon="6.60069">
        <ele>22.2</ele>
        <time>2025-10-12T15:03:33.000Z</time>
      </trkpt>
      <trkpt lat="43.18374" lon="6.60069">
        <ele>22.2</ele>
        <time>2025-10-12T15:03:34.000Z</time>
      </trkpt>
      <trkpt lat="43.18374" lon="6.60069">
        <ele>22.2</ele>
        <time>2025-10-12T15:03:45.000Z</time>
      </trkpt>
      <trkpt lat="43.18374" lon="6.60069">
        <ele>22.2</ele>
        <time>2025-10-12T15:03:46.000Z</time>
      </trkpt>
      <trkpt lat="43.18374" lon="6.60069">
        <ele>22.2</ele>
        <time>2025-10-12T15:03:47.000Z</time>
      </trkpt>
      <trkpt lat="43.18374" lon="6.60069">
        <ele>22.2</ele>
        <time>2025-10-12T15:03:48.000Z</time>
      </trkpt>
      <trkpt lat="43.18374" lon="6.60069">
        <ele>22.2</ele>
        <time>2025-10-12T15:03:49.000Z</time>
      </trkpt>
      <trkpt lat="43.18374" lon="6.60069">
        <ele>22.3</ele>
        <time>2025-10-12T15:04:27.000Z</time>
      </trkpt>
      <trkpt lat="43.18374" lon="6.60069">
        <ele>22.3</ele>
        <time>2025-10-12T15:04:28.000Z</time>
      </trkpt>
      <trkpt lat="43.18374" lon="6.60069">
        <ele>22.3</ele>
        <time>2025-10-12T15:04:29.000Z</time>
      </trkpt>
      <trkpt lat="43.18374" lon="6.60069">
        <ele>22.3</ele>
        <time>2025-10-12T15:04:30.000Z</time>
      </trkpt>
      <trkpt lat="43.18374" lon="6.60069">
        <ele>22.3</ele>
        <time>2025-10-12T15:04:31.000Z</time>
      </trkpt>
      <trkpt lat="43.18374" lon="6.60069">
        <ele>22.3</ele>
        <time>2025-10-12T15:05:05.000Z</time>
      </trkpt>
      <trkpt lat="43.18374" lon="6.60069">
        <ele>22.3</ele>
        <time>2025-10-12T15:05:06.000Z</time>
      </trkpt>
      <trkpt lat="43.18374" lon="6.60069">
        <ele>22.3</ele>
        <time>2025-10-12T15:05:07.000Z</time>
      </trkpt>
      <trkpt lat="43.18374" lon="6.6007">
        <ele>22.3</ele>
        <time>2025-10-12T15:05:08.000Z</time>
      </trkpt>
      <trkpt lat="43.18374" lon="6.6007">
        <ele>22.3</ele>
        <time>2025-10-12T15:05:09.000Z</time>
      </trkpt>
      <trkpt lat="43.18374" lon="6.6007">
        <ele>22.4</ele>
        <time>2025-10-12T15:05:35.000Z</time>
      </trkpt>
      <trkpt lat="43.18374" lon="6.6007">
        <ele>22.4</ele>
        <time>2025-10-12T15:05:36.000Z</time>
      </trkpt>
      <trkpt lat="43.18374" lon="6.6007">
        <ele>22.4</ele>
        <time>2025-10-12T15:05:37.000Z</time>
      </trkpt>
      <trkpt lat="43.18374" lon="6.6007">
        <ele>22.4</ele>
        <time>2025-10-12T15:05:38.000Z</time>
      </trkpt>
      <trkpt lat="43.18374" lon="6.6007">
        <ele>22.4</ele>
        <time>2025-10-12T15:05:39.000Z</time>
      </trkpt>
      <trkpt lat="43.18374" lon="6.6007">
        <ele>22.4</ele>
        <time>2025-10-12T15:05:40.000Z</time>
      </trkpt>
      <trkpt lat="43.18374" lon="6.60069">
        <ele>22.6</ele>
        <time>2025-10-12T15:06:30.000Z</time>
      </trkpt>
      <trkpt lat="43.18375" lon="6.60068">
        <ele>22.6</ele>
        <time>2025-10-12T15:06:31.000Z</time>
      </trkpt>
      <trkpt lat="43.18376" lon="6.60067">
        <ele>22.6</ele>
        <time>2025-10-12T15:06:40.000Z</time>
      </trkpt>
      <trkpt lat="43.18376" lon="6.60067">
        <ele>22.6</ele>
        <time>2025-10-12T15:06:41.000Z</time>
      </trkpt>
      <trkpt lat="43.18377" lon="6.60068">
        <ele>22.7</ele>
        <time>2025-10-12T15:06:45.000Z</time>
      </trkpt>
      <trkpt lat="43.18378" lon="6.60068">
        <ele>22.7</ele>
        <time>2025-10-12T15:06:46.000Z</time>
      </trkpt>
      <trkpt lat="43.18379" lon="6.60068">
        <ele>22.7</ele>
        <time>2025-10-12T15:06:53.000Z</time>
      </trkpt>
      <trkpt lat="43.18379" lon="6.60068">
        <ele>22.7</ele>
        <time>2025-10-12T15:06:54.000Z</time>
      </trkpt>
      <trkpt lat="43.18379" lon="6.60068">
        <ele>22.7</ele>
        <time>2025-10-12T15:06:55.000Z</time>
      </trkpt>
      <trkpt lat="43.1838" lon="6.60067">
        <ele>22.7</ele>
        <time>2025-10-12T15:07:00.000Z</time>
      </trkpt>
      <trkpt lat="43.18381" lon="6.60066">
        <ele>22.7</ele>
        <time>2025-10-12T15:07:01.000Z</time>
      </trkpt>
      <trkpt lat="43.18381" lon="6.60063">
        <ele>22.7</ele>
        <time>2025-10-12T15:07:15.000Z</time>
      </trkpt>
      <trkpt lat="43.18381" lon="6.60063">
        <ele>22.7</ele>
        <time>2025-10-12T15:07:16.000Z</time>
      </trkpt>
      <trkpt lat="43.18381" lon="6.60063">
        <ele>22.7</ele>
        <time>2025-10-12T15:07:23.000Z</time>
      </trkpt>
      <trkpt lat="43.18381" lon="6.60063">
        <ele>22.7</ele>
        <time>2025-10-12T15:07:24.000Z</time>
      </trkpt>
      <trkpt lat="43.18381" lon="6.60063">
        <ele>22.7</ele>
        <time>2025-10-12T15:07:25.000Z</time>
      </trkpt>
      <trkpt lat="43.18381" lon="6.60063">
        <ele>22.7</ele>
        <time>2025-10-12T15:07:26.000Z</time>
      </trkpt>
      <trkpt lat="43.18381" lon="6.60063">
        <ele>22.7</ele>
        <time>2025-10-12T15:07:27.000Z</time>
      </trkpt>
      <trkpt lat="43.18381" lon="6.60061">
        <ele>22.7</ele>
        <time>2025-10-12T15:07:38.000Z</time>
      </trkpt>
      <trkpt lat="43.18381" lon="6.6006">
        <ele>22.7</ele>
        <time>2025-10-12T15:07:39.000Z</time>
      </trkpt>
      <trkpt lat="43.18382" lon="6.60059">
        <ele>22.7</ele>
        <time>2025-10-12T15:07:40.000Z</time>
      </trkpt>
      <trkpt lat="43.18384" lon="6.60046">
        <ele>22.7</ele>
        <time>2025-10-12T15:07:49.000Z</time>
      </trkpt>
      <trkpt lat="43.18388" lon="6.60034">
        <ele>22.7</ele>
        <time>2025-10-12T15:07:58.000Z</time>
      </trkpt>
      <trkpt lat="43.18392" lon="6.60023">
        <ele>22.7</ele>
        <time>2025-10-12T15:08:08.000Z</time>
      </trkpt>
      <trkpt lat="43.18396" lon="6.6001">
        <ele>22.6</ele>
        <time>2025-10-12T15:08:19.000Z</time>
      </trkpt>
      <trkpt lat="43.18401" lon="6.59999">
        <ele>22.6</ele>
        <time>2025-10-12T15:08:27.000Z</time>
      </trkpt>
      <trkpt lat="43.18405" lon="6.59988">
        <ele>22.5</ele>
        <time>2025-10-12T15:08:35.000Z</time>
      </trkpt>
      <trkpt lat="43.1841" lon="6.59976">
        <ele>22.4</ele>
        <time>2025-10-12T15:08:44.000Z</time>
      </trkpt>
      <trkpt lat="43.18412" lon="6.59963">
        <ele>22.3</ele>
        <time>2025-10-12T15:08:53.000Z</time>
      </trkpt>
      <trkpt lat="43.18416" lon="6.59951">
        <ele>22.2</ele>
        <time>2025-10-12T15:09:03.000Z</time>
      </trkpt>
      <trkpt lat="43.18421" lon="6.5994">
        <ele>22.1</ele>
        <time>2025-10-12T15:09:13.000Z</time>
      </trkpt>
      <trkpt lat="43.18422" lon="6.59927">
        <ele>22.1</ele>
        <time>2025-10-12T15:09:22.000Z</time>
      </trkpt>
      <trkpt lat="43.18425" lon="6.59915">
        <ele>22.1</ele>
        <time>2025-10-12T15:09:32.000Z</time>
      </trkpt>
      <trkpt lat="43.18426" lon="6.59902">
        <ele>22.1</ele>
        <time>2025-10-12T15:09:41.000Z</time>
      </trkpt>
      <trkpt lat="43.18426" lon="6.59889">
        <ele>22.1</ele>
        <time>2025-10-12T15:09:50.000Z</time>
      </trkpt>
      <trkpt lat="43.18428" lon="6.59876">
        <ele>22.3</ele>
        <time>2025-10-12T15:10:00.000Z</time>
      </trkpt>
      <trkpt lat="43.18428" lon="6.59862">
        <ele>22.5</ele>
        <time>2025-10-12T15:10:11.000Z</time>
      </trkpt>
      <trkpt lat="43.18431" lon="6.59855">
        <ele>22.8</ele>
        <time>2025-10-12T15:10:25.000Z</time>
      </trkpt>
      <trkpt lat="43.18431" lon="6.59855">
        <ele>22.8</ele>
        <time>2025-10-12T15:10:26.000Z</time>
      </trkpt>
      <trkpt lat="43.18432" lon="6.59855">
        <ele>22.8</ele>
        <time>2025-10-12T15:10:27.000Z</time>
      </trkpt>
      <trkpt lat="43.18432" lon="6.59855">
        <ele>22.9</ele>
        <time>2025-10-12T15:10:28.000Z</time>
      </trkpt>
      <trkpt lat="43.18433" lon="6.59855">
        <ele>22.9</ele>
        <time>2025-10-12T15:10:29.000Z</time>
      </trkpt>
      <trkpt lat="43.18433" lon="6.59854">
        <ele>23</ele>
        <time>2025-10-12T15:10:32.000Z</time>
      </trkpt>
      <trkpt lat="43.18433" lon="6.59854">
        <ele>23</ele>
        <time>2025-10-12T15:10:33.000Z</time>
      </trkpt>
      <trkpt lat="43.18433" lon="6.59854">
        <ele>23.1</ele>
        <time>2025-10-12T15:10:34.000Z</time>
      </trkpt>
      <trkpt lat="43.18433" lon="6.59854">
        <ele>23.2</ele>
        <time>2025-10-12T15:10:37.000Z</time>
      </trkpt>
      <trkpt lat="43.18433" lon="6.59853">
        <ele>23.2</ele>
        <time>2025-10-12T15:10:38.000Z</time>
      </trkpt>
      <trkpt lat="43.18433" lon="6.59852">
        <ele>23.2</ele>
        <time>2025-10-12T15:10:39.000Z</time>
      </trkpt>
      <trkpt lat="43.18442" lon="6.59849">
        <ele>24.1</ele>
        <time>2025-10-12T15:10:54.000Z</time>
      </trkpt>
      <trkpt lat="43.18451" lon="6.59852">
        <ele>24.8</ele>
        <time>2025-10-12T15:11:04.000Z</time>
      </trkpt>
      <trkpt lat="43.1846" lon="6.59853">
        <ele>25.7</ele>
        <time>2025-10-12T15:11:14.000Z</time>
      </trkpt>
      <trkpt lat="43.18464" lon="6.59854">
        <ele>26.1</ele>
        <time>2025-10-12T15:11:22.000Z</time>
      </trkpt>
      <trkpt lat="43.18464" lon="6.59854">
        <ele>26.1</ele>
        <time>2025-10-12T15:11:23.000Z</time>
      </trkpt>
      <trkpt lat="43.18464" lon="6.59854">
        <ele>26.1</ele>
        <time>2025-10-12T15:11:24.000Z</time>
      </trkpt>
      <trkpt lat="43.18465" lon="6.59854">
        <ele>26.1</ele>
        <time>2025-10-12T15:11:25.000Z</time>
      </trkpt>
      <trkpt lat="43.18465" lon="6.59854">
        <ele>26.2</ele>
        <time>2025-10-12T15:11:26.000Z</time>
      </trkpt>
      <trkpt lat="43.18474" lon="6.59852">
        <ele>26.4</ele>
        <time>2025-10-12T15:11:37.000Z</time>
      </trkpt>
      <trkpt lat="43.18481" lon="6.59851">
        <ele>27.1</ele>
        <time>2025-10-12T15:11:50.000Z</time>
      </trkpt>
      <trkpt lat="43.18481" lon="6.59851">
        <ele>27.1</ele>
        <time>2025-10-12T15:11:51.000Z</time>
      </trkpt>
      <trkpt lat="43.18483" lon="6.5985">
        <ele>27.3</ele>
        <time>2025-10-12T15:11:55.000Z</time>
      </trkpt>
      <trkpt lat="43.18484" lon="6.59851">
        <ele>27.4</ele>
        <time>2025-10-12T15:11:56.000Z</time>
      </trkpt>
      <trkpt lat="43.18494" lon="6.59851">
        <ele>27.7</ele>
        <time>2025-10-12T15:12:06.000Z</time>
      </trkpt>
      <trkpt lat="43.18503" lon="6.59854">
        <ele>28</ele>
        <time>2025-10-12T15:12:15.000Z</time>
      </trkpt>
      <trkpt lat="43.18512" lon="6.59861">
        <ele>28</ele>
        <time>2025-10-12T15:12:25.000Z</time>
      </trkpt>
      <trkpt lat="43.18519" lon="6.59869">
        <ele>27.8</ele>
        <time>2025-10-12T15:12:35.000Z</time>
      </trkpt>
      <trkpt lat="43.18527" lon="6.59876">
        <ele>26.9</ele>
        <time>2025-10-12T15:12:48.000Z</time>
      </trkpt>
      <trkpt lat="43.1853" lon="6.59888">
        <ele>24.9</ele>
        <time>2025-10-12T15:13:06.000Z</time>
      </trkpt>
      <trkpt lat="43.18526" lon="6.599">
        <ele>24.4</ele>
        <time>2025-10-12T15:13:21.000Z</time>
      </trkpt>
      <trkpt lat="43.18526" lon="6.599">
        <ele>24.3</ele>
        <time>2025-10-12T15:13:28.000Z</time>
      </trkpt>
      <trkpt lat="43.18526" lon="6.599">
        <ele>24.3</ele>
        <time>2025-10-12T15:13:29.000Z</time>
      </trkpt>
      <trkpt lat="43.18526" lon="6.59901">
        <ele>24.2</ele>
        <time>2025-10-12T15:13:32.000Z</time>
      </trkpt>
      <trkpt lat="43.18525" lon="6.59902">
        <ele>24.2</ele>
        <time>2025-10-12T15:13:33.000Z</time>
      </trkpt>
      <trkpt lat="43.18525" lon="6.59903">
        <ele>24.2</ele>
        <time>2025-10-12T15:13:34.000Z</time>
      </trkpt>
      <trkpt lat="43.18523" lon="6.59915">
        <ele>23.9</ele>
        <time>2025-10-12T15:14:02.000Z</time>
      </trkpt>
      <trkpt lat="43.18523" lon="6.59915">
        <ele>23.9</ele>
        <time>2025-10-12T15:14:03.000Z</time>
      </trkpt>
      <trkpt lat="43.18523" lon="6.59915">
        <ele>23.9</ele>
        <time>2025-10-12T15:14:04.000Z</time>
      </trkpt>
      <trkpt lat="43.18523" lon="6.59915">
        <ele>23.9</ele>
        <time>2025-10-12T15:14:05.000Z</time>
      </trkpt>
      <trkpt lat="43.18523" lon="6.59915">
        <ele>23.9</ele>
        <time>2025-10-12T15:14:06.000Z</time>
      </trkpt>
      <trkpt lat="43.18523" lon="6.59914">
        <ele>23.9</ele>
        <time>2025-10-12T15:14:07.000Z</time>
      </trkpt>
      <trkpt lat="43.18523" lon="6.59914">
        <ele>23.9</ele>
        <time>2025-10-12T15:14:08.000Z</time>
      </trkpt>
      <trkpt lat="43.18523" lon="6.59914">
        <ele>23.9</ele>
        <time>2025-10-12T15:14:09.000Z</time>
      </trkpt>
      <trkpt lat="43.18523" lon="6.59913">
        <ele>23.9</ele>
        <time>2025-10-12T15:14:18.000Z</time>
      </trkpt>
      <trkpt lat="43.18523" lon="6.59913">
        <ele>23.9</ele>
        <time>2025-10-12T15:14:19.000Z</time>
      </trkpt>
      <trkpt lat="43.18523" lon="6.59912">
        <ele>23.9</ele>
        <time>2025-10-12T15:14:22.000Z</time>
      </trkpt>
      <trkpt lat="43.18523" lon="6.59912">
        <ele>23.9</ele>
        <time>2025-10-12T15:14:23.000Z</time>
      </trkpt>
      <trkpt lat="43.18523" lon="6.59912">
        <ele>23.9</ele>
        <time>2025-10-12T15:14:24.000Z</time>
      </trkpt>
      <trkpt lat="43.18523" lon="6.59912">
        <ele>23.9</ele>
        <time>2025-10-12T15:14:25.000Z</time>
      </trkpt>
      <trkpt lat="43.18523" lon="6.59911">
        <ele>23.9</ele>
        <time>2025-10-12T15:14:26.000Z</time>
      </trkpt>
      <trkpt lat="43.18525" lon="6.5991">
        <ele>23.9</ele>
        <time>2025-10-12T15:14:32.000Z</time>
      </trkpt>
      <trkpt lat="43.18525" lon="6.5991">
        <ele>23.9</ele>
        <time>2025-10-12T15:14:33.000Z</time>
      </trkpt>
      <trkpt lat="43.18525" lon="6.5991">
        <ele>23.9</ele>
        <time>2025-10-12T15:14:34.000Z</time>
      </trkpt>
      <trkpt lat="43.18526" lon="6.59909">
        <ele>23.9</ele>
        <time>2025-10-12T15:14:38.000Z</time>
      </trkpt>
      <trkpt lat="43.18527" lon="6.59908">
        <ele>23.9</ele>
        <time>2025-10-12T15:14:39.000Z</time>
      </trkpt>
      <trkpt lat="43.18528" lon="6.59908">
        <ele>23.9</ele>
        <time>2025-10-12T15:14:40.000Z</time>
      </trkpt>
      <trkpt lat="43.18528" lon="6.59917">
        <ele>23.9</ele>
        <time>2025-10-12T15:15:00.000Z</time>
      </trkpt>
      <trkpt lat="43.18528" lon="6.59917">
        <ele>23.9</ele>
        <time>2025-10-12T15:15:01.000Z</time>
      </trkpt>
      <trkpt lat="43.18528" lon="6.59916">
        <ele>23.9</ele>
        <time>2025-10-12T15:15:02.000Z</time>
      </trkpt>
      <trkpt lat="43.18527" lon="6.59916">
        <ele>23.9</ele>
        <time>2025-10-12T15:15:03.000Z</time>
      </trkpt>
      <trkpt lat="43.18526" lon="6.59916">
        <ele>23.9</ele>
        <time>2025-10-12T15:15:04.000Z</time>
      </trkpt>
      <trkpt lat="43.18528" lon="6.59916">
        <ele>23.9</ele>
        <time>2025-10-12T15:15:26.000Z</time>
      </trkpt>
      <trkpt lat="43.18528" lon="6.59916">
        <ele>23.9</ele>
        <time>2025-10-12T15:15:27.000Z</time>
      </trkpt>
      <trkpt lat="43.18528" lon="6.59916">
        <ele>23.9</ele>
        <time>2025-10-12T15:15:28.000Z</time>
      </trkpt>
      <trkpt lat="43.18528" lon="6.59916">
        <ele>23.9</ele>
        <time>2025-10-12T15:15:29.000Z</time>
      </trkpt>
      <trkpt lat="43.18528" lon="6.59916">
        <ele>23.9</ele>
        <time>2025-10-12T15:15:30.000Z</time>
      </trkpt>
      <trkpt lat="43.18528" lon="6.59916">
        <ele>23.9</ele>
        <time>2025-10-12T15:15:31.000Z</time>
      </trkpt>
      <trkpt lat="43.18527" lon="6.59915">
        <ele>23.9</ele>
        <time>2025-10-12T15:15:40.000Z</time>
      </trkpt>
      <trkpt lat="43.18527" lon="6.59915">
        <ele>23.9</ele>
        <time>2025-10-12T15:15:41.000Z</time>
      </trkpt>
      <trkpt lat="43.18524" lon="6.59914">
        <ele>23.9</ele>
        <time>2025-10-12T15:16:00.000Z</time>
      </trkpt>
      <trkpt lat="43.18524" lon="6.59914">
        <ele>23.9</ele>
        <time>2025-10-12T15:16:01.000Z</time>
      </trkpt>
      <trkpt lat="43.18524" lon="6.59913">
        <ele>23.9</ele>
        <time>2025-10-12T15:16:05.000Z</time>
      </trkpt>
      <trkpt lat="43.18524" lon="6.59913">
        <ele>23.9</ele>
        <time>2025-10-12T15:16:06.000Z</time>
      </trkpt>
      <trkpt lat="43.18524" lon="6.59912">
        <ele>23.9</ele>
        <time>2025-10-12T15:16:07.000Z</time>
      </trkpt>
      <trkpt lat="43.18524" lon="6.59912">
        <ele>23.9</ele>
        <time>2025-10-12T15:16:08.000Z</time>
      </trkpt>
      <trkpt lat="43.18524" lon="6.59912">
        <ele>23.9</ele>
        <time>2025-10-12T15:16:09.000Z</time>
      </trkpt>
      <trkpt lat="43.18524" lon="6.59912">
        <ele>23.9</ele>
        <time>2025-10-12T15:16:13.000Z</time>
      </trkpt>
      <trkpt lat="43.18524" lon="6.59913">
        <ele>23.9</ele>
        <time>2025-10-12T15:16:14.000Z</time>
      </trkpt>
      <trkpt lat="43.18524" lon="6.59913">
        <ele>23.9</ele>
        <time>2025-10-12T15:16:15.000Z</time>
      </trkpt>
      <trkpt lat="43.18523" lon="6.59914">
        <ele>23.9</ele>
        <time>2025-10-12T15:16:40.000Z</time>
      </trkpt>
      <trkpt lat="43.18523" lon="6.59914">
        <ele>23.9</ele>
        <time>2025-10-12T15:16:41.000Z</time>
      </trkpt>
      <trkpt lat="43.18523" lon="6.59914">
        <ele>23.9</ele>
        <time>2025-10-12T15:16:42.000Z</time>
      </trkpt>
      <trkpt lat="43.18524" lon="6.59914">
        <ele>23.9</ele>
        <time>2025-10-12T15:16:43.000Z</time>
      </trkpt>
      <trkpt lat="43.18524" lon="6.59915">
        <ele>23.9</ele>
        <time>2025-10-12T15:16:44.000Z</time>
      </trkpt>
      <trkpt lat="43.18525" lon="6.59919">
        <ele>23.9</ele>
        <time>2025-10-12T15:16:56.000Z</time>
      </trkpt>
      <trkpt lat="43.18525" lon="6.59919">
        <ele>23.9</ele>
        <time>2025-10-12T15:16:57.000Z</time>
      </trkpt>
      <trkpt lat="43.18526" lon="6.59919">
        <ele>23.9</ele>
        <time>2025-10-12T15:17:12.000Z</time>
      </trkpt>
      <trkpt lat="43.18527" lon="6.59919">
        <ele>23.9</ele>
        <time>2025-10-12T15:17:13.000Z</time>
      </trkpt>
      <trkpt lat="43.18527" lon="6.59919">
        <ele>23.9</ele>
        <time>2025-10-12T15:17:14.000Z</time>
      </trkpt>
      <trkpt lat="43.18527" lon="6.59915">
        <ele>24</ele>
        <time>2025-10-12T15:17:37.000Z</time>
      </trkpt>
      <trkpt lat="43.18527" lon="6.59915">
        <ele>24</ele>
        <time>2025-10-12T15:17:38.000Z</time>
      </trkpt>
      <trkpt lat="43.18527" lon="6.59915">
        <ele>24</ele>
        <time>2025-10-12T15:17:39.000Z</time>
      </trkpt>
      <trkpt lat="43.18528" lon="6.59915">
        <ele>24</ele>
        <time>2025-10-12T15:17:40.000Z</time>
      </trkpt>
      <trkpt lat="43.18528" lon="6.59915">
        <ele>24</ele>
        <time>2025-10-12T15:17:41.000Z</time>
      </trkpt>
      <trkpt lat="43.18528" lon="6.59914">
        <ele>24</ele>
        <time>2025-10-12T15:17:42.000Z</time>
      </trkpt>
      <trkpt lat="43.18528" lon="6.59914">
        <ele>24</ele>
        <time>2025-10-12T15:17:43.000Z</time>
      </trkpt>
      <trkpt lat="43.18528" lon="6.59914">
        <ele>24</ele>
        <time>2025-10-12T15:17:44.000Z</time>
      </trkpt>
      <trkpt lat="43.18529" lon="6.59914">
        <ele>24</ele>
        <time>2025-10-12T15:18:17.000Z</time>
      </trkpt>
      <trkpt lat="43.18529" lon="6.59914">
        <ele>24</ele>
        <time>2025-10-12T15:18:18.000Z</time>
      </trkpt>
      <trkpt lat="43.18529" lon="6.59913">
        <ele>24</ele>
        <time>2025-10-12T15:18:19.000Z</time>
      </trkpt>
      <trkpt lat="43.18529" lon="6.59914">
        <ele>24.1</ele>
        <time>2025-10-12T15:18:28.000Z</time>
      </trkpt>
      <trkpt lat="43.18529" lon="6.59914">
        <ele>24.1</ele>
        <time>2025-10-12T15:18:29.000Z</time>
      </trkpt>
      <trkpt lat="43.18529" lon="6.59914">
        <ele>24.1</ele>
        <time>2025-10-12T15:18:30.000Z</time>
      </trkpt>
      <trkpt lat="43.1853" lon="6.59914">
        <ele>24.1</ele>
        <time>2025-10-12T15:18:45.000Z</time>
      </trkpt>
      <trkpt lat="43.1853" lon="6.59914">
        <ele>24.1</ele>
        <time>2025-10-12T15:18:46.000Z</time>
      </trkpt>
      <trkpt lat="43.18528" lon="6.59913">
        <ele>24</ele>
        <time>2025-10-12T15:19:13.000Z</time>
      </trkpt>
      <trkpt lat="43.18528" lon="6.59913">
        <ele>24</ele>
        <time>2025-10-12T15:19:14.000Z</time>
      </trkpt>
      <trkpt lat="43.18528" lon="6.59913">
        <ele>24</ele>
        <time>2025-10-12T15:19:15.000Z</time>
      </trkpt>
      <trkpt lat="43.18528" lon="6.59912">
        <ele>23.9</ele>
        <time>2025-10-12T15:19:20.000Z</time>
      </trkpt>
      <trkpt lat="43.18528" lon="6.59912">
        <ele>23.9</ele>
        <time>2025-10-12T15:19:21.000Z</time>
      </trkpt>
      <trkpt lat="43.18528" lon="6.59912">
        <ele>23.9</ele>
        <time>2025-10-12T15:19:22.000Z</time>
      </trkpt>
      <trkpt lat="43.18528" lon="6.59912">
        <ele>23.9</ele>
        <time>2025-10-12T15:19:23.000Z</time>
      </trkpt>
      <trkpt lat="43.18528" lon="6.59912">
        <ele>23.9</ele>
        <time>2025-10-12T15:19:24.000Z</time>
      </trkpt>
      <trkpt lat="43.18528" lon="6.59912">
        <ele>23.9</ele>
        <time>2025-10-12T15:19:30.000Z</time>
      </trkpt>
      <trkpt lat="43.18528" lon="6.59912">
        <ele>23.9</ele>
        <time>2025-10-12T15:19:31.000Z</time>
      </trkpt>
      <trkpt lat="43.18528" lon="6.59912">
        <ele>23.8</ele>
        <time>2025-10-12T15:19:32.000Z</time>
      </trkpt>
      <trkpt lat="43.18528" lon="6.59912">
        <ele>23.8</ele>
        <time>2025-10-12T15:19:33.000Z</time>
      </trkpt>
      <trkpt lat="43.18528" lon="6.59912">
        <ele>23.8</ele>
        <time>2025-10-12T15:19:34.000Z</time>
      </trkpt>
      <trkpt lat="43.18528" lon="6.59912">
        <ele>23.8</ele>
        <time>2025-10-12T15:19:35.000Z</time>
      </trkpt>
      <trkpt lat="43.18528" lon="6.59912">
        <ele>23.8</ele>
        <time>2025-10-12T15:19:36.000Z</time>
      </trkpt>
      <trkpt lat="43.18528" lon="6.59912">
        <ele>23.8</ele>
        <time>2025-10-12T15:19:37.000Z</time>
      </trkpt>
      <trkpt lat="43.18528" lon="6.59912">
        <ele>23.8</ele>
        <time>2025-10-12T15:19:41.000Z</time>
      </trkpt>
      <trkpt lat="43.18528" lon="6.59912">
        <ele>23.8</ele>
        <time>2025-10-12T15:19:42.000Z</time>
      </trkpt>
      <trkpt lat="43.18527" lon="6.59912">
        <ele>23.8</ele>
        <time>2025-10-12T15:19:45.000Z</time>
      </trkpt>
      <trkpt lat="43.18527" lon="6.59912">
        <ele>23.8</ele>
        <time>2025-10-12T15:19:46.000Z</time>
      </trkpt>
      <trkpt lat="43.18527" lon="6.59912">
        <ele>23.8</ele>
        <time>2025-10-12T15:19:47.000Z</time>
      </trkpt>
      <trkpt lat="43.18527" lon="6.59912">
        <ele>23.8</ele>
        <time>2025-10-12T15:19:48.000Z</time>
      </trkpt>
      <trkpt lat="43.18527" lon="6.59912">
        <ele>23.8</ele>
        <time>2025-10-12T15:19:49.000Z</time>
      </trkpt>
      <trkpt lat="43.18527" lon="6.59912">
        <ele>23.7</ele>
        <time>2025-10-12T15:19:55.000Z</time>
      </trkpt>
      <trkpt lat="43.18527" lon="6.59912">
        <ele>23.7</ele>
        <time>2025-10-12T15:19:56.000Z</time>
      </trkpt>
      <trkpt lat="43.18527" lon="6.59912">
        <ele>23.7</ele>
        <time>2025-10-12T15:20:05.000Z</time>
      </trkpt>
      <trkpt lat="43.18527" lon="6.59912">
        <ele>23.7</ele>
        <time>2025-10-12T15:20:06.000Z</time>
      </trkpt>
      <trkpt lat="43.18527" lon="6.59912">
        <ele>23.6</ele>
        <time>2025-10-12T15:20:10.000Z</time>
      </trkpt>
      <trkpt lat="43.18527" lon="6.59912">
        <ele>23.6</ele>
        <time>2025-10-12T15:20:11.000Z</time>
      </trkpt>
      <trkpt lat="43.18527" lon="6.59912">
        <ele>23.6</ele>
        <time>2025-10-12T15:20:12.000Z</time>
      </trkpt>
      <trkpt lat="43.18527" lon="6.59911">
        <ele>23.6</ele>
        <time>2025-10-12T15:20:13.000Z</time>
      </trkpt>
      <trkpt lat="43.18527" lon="6.59911">
        <ele>23.6</ele>
        <time>2025-10-12T15:20:14.000Z</time>
      </trkpt>
      <trkpt lat="43.18526" lon="6.59912">
        <ele>23.4</ele>
        <time>2025-10-12T15:20:30.000Z</time>
      </trkpt>
      <trkpt lat="43.18526" lon="6.59913">
        <ele>23.4</ele>
        <time>2025-10-12T15:20:31.000Z</time>
      </trkpt>
      <trkpt lat="43.18526" lon="6.59913">
        <ele>23.4</ele>
        <time>2025-10-12T15:20:32.000Z</time>
      </trkpt>
      <trkpt lat="43.18528" lon="6.59914">
        <ele>23.4</ele>
        <time>2025-10-12T15:20:38.000Z</time>
      </trkpt>
      <trkpt lat="43.18528" lon="6.59914">
        <ele>23.4</ele>
        <time>2025-10-12T15:20:39.000Z</time>
      </trkpt>
      <trkpt lat="43.18528" lon="6.59914">
        <ele>23.4</ele>
        <time>2025-10-12T15:20:40.000Z</time>
      </trkpt>
      <trkpt lat="43.18528" lon="6.59914">
        <ele>23.3</ele>
        <time>2025-10-12T15:20:43.000Z</time>
      </trkpt>
      <trkpt lat="43.18528" lon="6.59913">
        <ele>23.3</ele>
        <time>2025-10-12T15:20:44.000Z</time>
      </trkpt>
      <trkpt lat="43.18528" lon="6.59916">
        <ele>23.3</ele>
        <time>2025-10-12T15:21:02.000Z</time>
      </trkpt>
      <trkpt lat="43.18528" lon="6.59916">
        <ele>23.3</ele>
        <time>2025-10-12T15:21:03.000Z</time>
      </trkpt>
      <trkpt lat="43.18528" lon="6.59916">
        <ele>23.2</ele>
        <time>2025-10-12T15:21:04.000Z</time>
      </trkpt>
      <trkpt lat="43.18528" lon="6.59916">
        <ele>23.2</ele>
        <time>2025-10-12T15:21:11.000Z</time>
      </trkpt>
      <trkpt lat="43.18528" lon="6.59916">
        <ele>23.1</ele>
        <time>2025-10-12T15:21:12.000Z</time>
      </trkpt>
      <trkpt lat="43.18528" lon="6.59916">
        <ele>23</ele>
        <time>2025-10-12T15:21:18.000Z</time>
      </trkpt>
      <trkpt lat="43.18528" lon="6.59916">
        <ele>23</ele>
        <time>2025-10-12T15:21:19.000Z</time>
      </trkpt>
      <trkpt lat="43.18528" lon="6.59916">
        <ele>23</ele>
        <time>2025-10-12T15:21:20.000Z</time>
      </trkpt>
      <trkpt lat="43.18528" lon="6.59916">
        <ele>22.8</ele>
        <time>2025-10-12T15:21:32.000Z</time>
      </trkpt>
      <trkpt lat="43.18528" lon="6.59916">
        <ele>22.7</ele>
        <time>2025-10-12T15:21:33.000Z</time>
      </trkpt>
      <trkpt lat="43.18527" lon="6.59916">
        <ele>22.7</ele>
        <time>2025-10-12T15:21:34.000Z</time>
      </trkpt>
      <trkpt lat="43.18527" lon="6.59916">
        <ele>22.9</ele>
        <time>2025-10-12T15:21:38.000Z</time>
      </trkpt>
      <trkpt lat="43.18527" lon="6.59916">
        <ele>22.9</ele>
        <time>2025-10-12T15:21:39.000Z</time>
      </trkpt>
      <trkpt lat="43.18527" lon="6.59916">
        <ele>22.9</ele>
        <time>2025-10-12T15:21:40.000Z</time>
      </trkpt>
      <trkpt lat="43.18527" lon="6.59916">
        <ele>22.9</ele>
        <time>2025-10-12T15:21:41.000Z</time>
      </trkpt>
      <trkpt lat="43.18527" lon="6.59916">
        <ele>23</ele>
        <time>2025-10-12T15:21:42.000Z</time>
      </trkpt>
      <trkpt lat="43.18527" lon="6.59916">
        <ele>23</ele>
        <time>2025-10-12T15:21:43.000Z</time>
      </trkpt>
      <trkpt lat="43.18527" lon="6.59916">
        <ele>23</ele>
        <time>2025-10-12T15:21:44.000Z</time>
      </trkpt>
      <trkpt lat="43.18527" lon="6.59915">
        <ele>22.9</ele>
        <time>2025-10-12T15:22:15.000Z</time>
      </trkpt>
      <trkpt lat="43.18527" lon="6.59915">
        <ele>22.9</ele>
        <time>2025-10-12T15:22:16.000Z</time>
      </trkpt>
      <trkpt lat="43.18527" lon="6.59915">
        <ele>22.9</ele>
        <time>2025-10-12T15:22:17.000Z</time>
      </trkpt>
      <trkpt lat="43.18527" lon="6.59915">
        <ele>22.9</ele>
        <time>2025-10-12T15:22:18.000Z</time>
      </trkpt>
      <trkpt lat="43.18527" lon="6.59915">
        <ele>22.9</ele>
        <time>2025-10-12T15:22:19.000Z</time>
      </trkpt>
      <trkpt lat="43.18527" lon="6.59915">
        <ele>22.9</ele>
        <time>2025-10-12T15:22:20.000Z</time>
      </trkpt>
      <trkpt lat="43.18527" lon="6.59915">
        <ele>22.9</ele>
        <time>2025-10-12T15:22:23.000Z</time>
      </trkpt>
      <trkpt lat="43.18527" lon="6.59915">
        <ele>22.9</ele>
        <time>2025-10-12T15:22:24.000Z</time>
      </trkpt>
      <trkpt lat="43.18527" lon="6.59915">
        <ele>22.9</ele>
        <time>2025-10-12T15:22:25.000Z</time>
      </trkpt>
      <trkpt lat="43.18527" lon="6.59915">
        <ele>22.9</ele>
        <time>2025-10-12T15:22:28.000Z</time>
      </trkpt>
      <trkpt lat="43.18527" lon="6.59915">
        <ele>22.9</ele>
        <time>2025-10-12T15:22:29.000Z</time>
      </trkpt>
      <trkpt lat="43.18527" lon="6.59915">
        <ele>22.9</ele>
        <time>2025-10-12T15:22:30.000Z</time>
      </trkpt>
      <trkpt lat="43.18527" lon="6.59915">
        <ele>22.8</ele>
        <time>2025-10-12T15:22:35.000Z</time>
      </trkpt>
      <trkpt lat="43.18527" lon="6.59915">
        <ele>22.8</ele>
        <time>2025-10-12T15:22:35.000Z</time>
      </trkpt>
      <trkpt lat="43.18527" lon="6.59915">
        <ele>22.8</ele>
        <time>2025-10-12T15:22:35.000Z</time>
      </trkpt>
      <trkpt lat="43.18527" lon="6.59915">
        <ele>22.8</ele>
        <time>2025-10-12T15:22:35.000Z</time>
      </trkpt>
    </trkseg>
  </trk>
</gpx>